<?xml version="1.0" encoding="utf-8"?>
<gpx xmlns:xsi="http://www.w3.org/2001/XMLSchema-instance" xmlns:xsd="http://www.w3.org/2001/XMLSchema" version="1.1" creator="Shapelink.com" xmlns="http://www.topografix.com/GPX/1/1" xmlns:gpxtpx="http://www.garmin.com/xmlschemas/TrackPointExtension/v1">
  <metadata>
    <name>Annen 41.39 km, 2018-01-15</name>
    <desc></desc>
    <author><name>Jörgen Larsson</name></author> 
    <time>2018-01-15T19:00:03Z</time>
  </metadata>
  <trk>
    <name>Annen 41.39 km, 2018-01-15</name>
    <trkseg>
      <trkpt lat="51.512302" lon="-0.07573">
        <ele>18</ele>
        <time>2018-01-15T19:00:03Z</time>
      </trkpt>
      <trkpt lat="51.512275" lon="-0.075729">
        <ele>18</ele>
        <time>2018-01-15T19:00:04Z</time>
      </trkpt>
      <trkpt lat="51.512248" lon="-0.075734">
        <ele>18</ele>
        <time>2018-01-15T19:00:05Z</time>
      </trkpt>
      <trkpt lat="51.51221" lon="-0.075771">
        <ele>18</ele>
        <time>2018-01-15T19:00:06Z</time>
      </trkpt>
      <trkpt lat="51.512184" lon="-0.075807">
        <ele>18</ele>
        <time>2018-01-15T19:00:07Z</time>
      </trkpt>
      <trkpt lat="51.512146" lon="-0.075849">
        <ele>18</ele>
        <time>2018-01-15T19:00:08Z</time>
      </trkpt>
      <trkpt lat="51.512114" lon="-0.075888">
        <ele>18</ele>
        <time>2018-01-15T19:00:09Z</time>
      </trkpt>
      <trkpt lat="51.512071" lon="-0.075929">
        <ele>18</ele>
        <time>2018-01-15T19:00:10Z</time>
      </trkpt>
      <trkpt lat="51.512023" lon="-0.075975">
        <ele>18</ele>
        <time>2018-01-15T19:00:11Z</time>
      </trkpt>
      <trkpt lat="51.51198" lon="-0.076014">
        <ele>18</ele>
        <time>2018-01-15T19:00:12Z</time>
      </trkpt>
      <trkpt lat="51.511926" lon="-0.076046">
        <ele>18</ele>
        <time>2018-01-15T19:00:13Z</time>
      </trkpt>
      <trkpt lat="51.511878" lon="-0.076071">
        <ele>18</ele>
        <time>2018-01-15T19:00:14Z</time>
      </trkpt>
      <trkpt lat="51.511824" lon="-0.076083">
        <ele>18</ele>
        <time>2018-01-15T19:00:15Z</time>
      </trkpt>
      <trkpt lat="51.511754" lon="-0.076085">
        <ele>18</ele>
        <time>2018-01-15T19:00:16Z</time>
      </trkpt>
      <trkpt lat="51.511695" lon="-0.076087">
        <ele>18</ele>
        <time>2018-01-15T19:00:17Z</time>
      </trkpt>
      <trkpt lat="51.511626" lon="-0.076088">
        <ele>18</ele>
        <time>2018-01-15T19:00:18Z</time>
      </trkpt>
      <trkpt lat="51.511561" lon="-0.07609">
        <ele>18</ele>
        <time>2018-01-15T19:00:19Z</time>
      </trkpt>
      <trkpt lat="51.511497" lon="-0.076092">
        <ele>18</ele>
        <time>2018-01-15T19:00:20Z</time>
      </trkpt>
      <trkpt lat="51.511427" lon="-0.0761">
        <ele>18</ele>
        <time>2018-01-15T19:00:21Z</time>
      </trkpt>
      <trkpt lat="51.511357" lon="-0.076101">
        <ele>18</ele>
        <time>2018-01-15T19:00:22Z</time>
      </trkpt>
      <trkpt lat="51.511282" lon="-0.076095">
        <ele>18</ele>
        <time>2018-01-15T19:00:23Z</time>
      </trkpt>
      <trkpt lat="51.511202" lon="-0.076094">
        <ele>18</ele>
        <time>2018-01-15T19:00:24Z</time>
      </trkpt>
      <trkpt lat="51.511127" lon="-0.076093">
        <ele>18</ele>
        <time>2018-01-15T19:00:25Z</time>
      </trkpt>
      <trkpt lat="51.511052" lon="-0.076095">
        <ele>18</ele>
        <time>2018-01-15T19:00:26Z</time>
      </trkpt>
      <trkpt lat="51.510977" lon="-0.076098">
        <ele>18</ele>
        <time>2018-01-15T19:00:27Z</time>
      </trkpt>
      <trkpt lat="51.510891" lon="-0.076102">
        <ele>18</ele>
        <time>2018-01-15T19:00:28Z</time>
      </trkpt>
      <trkpt lat="51.51081" lon="-0.076107">
        <ele>18</ele>
        <time>2018-01-15T19:00:29Z</time>
      </trkpt>
      <trkpt lat="51.51073" lon="-0.076111">
        <ele>18</ele>
        <time>2018-01-15T19:00:30Z</time>
      </trkpt>
      <trkpt lat="51.510649" lon="-0.076117">
        <ele>18</ele>
        <time>2018-01-15T19:00:31Z</time>
      </trkpt>
      <trkpt lat="51.510574" lon="-0.076118">
        <ele>18</ele>
        <time>2018-01-15T19:00:32Z</time>
      </trkpt>
      <trkpt lat="51.510488" lon="-0.076119">
        <ele>18</ele>
        <time>2018-01-15T19:00:33Z</time>
      </trkpt>
      <trkpt lat="51.510413" lon="-0.076117">
        <ele>18</ele>
        <time>2018-01-15T19:00:34Z</time>
      </trkpt>
      <trkpt lat="51.510333" lon="-0.076114">
        <ele>18</ele>
        <time>2018-01-15T19:00:35Z</time>
      </trkpt>
      <trkpt lat="51.510242" lon="-0.07611">
        <ele>18</ele>
        <time>2018-01-15T19:00:36Z</time>
      </trkpt>
      <trkpt lat="51.510167" lon="-0.07611">
        <ele>18</ele>
        <time>2018-01-15T19:00:37Z</time>
      </trkpt>
      <trkpt lat="51.510075" lon="-0.076112">
        <ele>18</ele>
        <time>2018-01-15T19:00:38Z</time>
      </trkpt>
      <trkpt lat="51.51" lon="-0.076119">
        <ele>18</ele>
        <time>2018-01-15T19:00:39Z</time>
      </trkpt>
      <trkpt lat="51.509914" lon="-0.076137">
        <ele>18</ele>
        <time>2018-01-15T19:00:40Z</time>
      </trkpt>
      <trkpt lat="51.509834" lon="-0.076162">
        <ele>18</ele>
        <time>2018-01-15T19:00:41Z</time>
      </trkpt>
      <trkpt lat="51.509743" lon="-0.076205">
        <ele>18</ele>
        <time>2018-01-15T19:00:42Z</time>
      </trkpt>
      <trkpt lat="51.509662" lon="-0.076269">
        <ele>18</ele>
        <time>2018-01-15T19:00:43Z</time>
      </trkpt>
      <trkpt lat="51.509593" lon="-0.076344">
        <ele>18</ele>
        <time>2018-01-15T19:00:44Z</time>
      </trkpt>
      <trkpt lat="51.509517" lon="-0.076439">
        <ele>18</ele>
        <time>2018-01-15T19:00:45Z</time>
      </trkpt>
      <trkpt lat="51.509453" lon="-0.076527">
        <ele>18</ele>
        <time>2018-01-15T19:00:46Z</time>
      </trkpt>
      <trkpt lat="51.509399" lon="-0.076655">
        <ele>18.2</ele>
        <time>2018-01-15T19:00:47Z</time>
      </trkpt>
      <trkpt lat="51.509373" lon="-0.076791">
        <ele>18.2</ele>
        <time>2018-01-15T19:00:48Z</time>
      </trkpt>
      <trkpt lat="51.509362" lon="-0.076933">
        <ele>18.4</ele>
        <time>2018-01-15T19:00:49Z</time>
      </trkpt>
      <trkpt lat="51.509362" lon="-0.077074">
        <ele>18.4</ele>
        <time>2018-01-15T19:00:50Z</time>
      </trkpt>
      <trkpt lat="51.509356" lon="-0.077217">
        <ele>18.6</ele>
        <time>2018-01-15T19:00:51Z</time>
      </trkpt>
      <trkpt lat="51.509356" lon="-0.077358">
        <ele>18.6</ele>
        <time>2018-01-15T19:00:52Z</time>
      </trkpt>
      <trkpt lat="51.509356" lon="-0.07751">
        <ele>18.6</ele>
        <time>2018-01-15T19:00:53Z</time>
      </trkpt>
      <trkpt lat="51.509356" lon="-0.077644">
        <ele>18.4</ele>
        <time>2018-01-15T19:00:54Z</time>
      </trkpt>
      <trkpt lat="51.509362" lon="-0.077808">
        <ele>18.2</ele>
        <time>2018-01-15T19:00:55Z</time>
      </trkpt>
      <trkpt lat="51.509373" lon="-0.077955">
        <ele>18.2</ele>
        <time>2018-01-15T19:00:56Z</time>
      </trkpt>
      <trkpt lat="51.509378" lon="-0.078105">
        <ele>18</ele>
        <time>2018-01-15T19:00:57Z</time>
      </trkpt>
      <trkpt lat="51.509399" lon="-0.078272">
        <ele>18</ele>
        <time>2018-01-15T19:00:58Z</time>
      </trkpt>
      <trkpt lat="51.509421" lon="-0.078413">
        <ele>18.2</ele>
        <time>2018-01-15T19:00:59Z</time>
      </trkpt>
      <trkpt lat="51.509458" lon="-0.078551">
        <ele>18.6</ele>
        <time>2018-01-15T19:01:00Z</time>
      </trkpt>
      <trkpt lat="51.509491" lon="-0.078695">
        <ele>18.8</ele>
        <time>2018-01-15T19:01:01Z</time>
      </trkpt>
      <trkpt lat="51.509517" lon="-0.078841">
        <ele>19</ele>
        <time>2018-01-15T19:01:02Z</time>
      </trkpt>
      <trkpt lat="51.509528" lon="-0.078981">
        <ele>19.2</ele>
        <time>2018-01-15T19:01:03Z</time>
      </trkpt>
      <trkpt lat="51.509544" lon="-0.079119">
        <ele>19.2</ele>
        <time>2018-01-15T19:01:04Z</time>
      </trkpt>
      <trkpt lat="51.509555" lon="-0.079252">
        <ele>19.4</ele>
        <time>2018-01-15T19:01:05Z</time>
      </trkpt>
      <trkpt lat="51.509571" lon="-0.079396">
        <ele>19.4</ele>
        <time>2018-01-15T19:01:06Z</time>
      </trkpt>
      <trkpt lat="51.509582" lon="-0.079525">
        <ele>19.6</ele>
        <time>2018-01-15T19:01:07Z</time>
      </trkpt>
      <trkpt lat="51.509593" lon="-0.079669">
        <ele>19.8</ele>
        <time>2018-01-15T19:01:08Z</time>
      </trkpt>
      <trkpt lat="51.509582" lon="-0.079804">
        <ele>20</ele>
        <time>2018-01-15T19:01:09Z</time>
      </trkpt>
      <trkpt lat="51.509555" lon="-0.079926">
        <ele>20</ele>
        <time>2018-01-15T19:01:10Z</time>
      </trkpt>
      <trkpt lat="51.509517" lon="-0.080036">
        <ele>20.2</ele>
        <time>2018-01-15T19:01:11Z</time>
      </trkpt>
      <trkpt lat="51.509475" lon="-0.080144">
        <ele>20.2</ele>
        <time>2018-01-15T19:01:12Z</time>
      </trkpt>
      <trkpt lat="51.509421" lon="-0.080256">
        <ele>20.2</ele>
        <time>2018-01-15T19:01:13Z</time>
      </trkpt>
      <trkpt lat="51.509373" lon="-0.080365">
        <ele>20.2</ele>
        <time>2018-01-15T19:01:14Z</time>
      </trkpt>
      <trkpt lat="51.509319" lon="-0.080473">
        <ele>20.2</ele>
        <time>2018-01-15T19:01:15Z</time>
      </trkpt>
      <trkpt lat="51.509271" lon="-0.080587">
        <ele>20</ele>
        <time>2018-01-15T19:01:16Z</time>
      </trkpt>
      <trkpt lat="51.509228" lon="-0.08071">
        <ele>19.8</ele>
        <time>2018-01-15T19:01:17Z</time>
      </trkpt>
      <trkpt lat="51.509185" lon="-0.080844">
        <ele>19.6</ele>
        <time>2018-01-15T19:01:18Z</time>
      </trkpt>
      <trkpt lat="51.509153" lon="-0.080988">
        <ele>19</ele>
        <time>2018-01-15T19:01:19Z</time>
      </trkpt>
      <trkpt lat="51.509115" lon="-0.081136">
        <ele>18.4</ele>
        <time>2018-01-15T19:01:20Z</time>
      </trkpt>
      <trkpt lat="51.509083" lon="-0.081292">
        <ele>17.8</ele>
        <time>2018-01-15T19:01:21Z</time>
      </trkpt>
      <trkpt lat="51.509056" lon="-0.081457">
        <ele>17.4</ele>
        <time>2018-01-15T19:01:22Z</time>
      </trkpt>
      <trkpt lat="51.509035" lon="-0.08163">
        <ele>17.2</ele>
        <time>2018-01-15T19:01:23Z</time>
      </trkpt>
      <trkpt lat="51.509019" lon="-0.081795">
        <ele>17.2</ele>
        <time>2018-01-15T19:01:24Z</time>
      </trkpt>
      <trkpt lat="51.509013" lon="-0.081978">
        <ele>17.4</ele>
        <time>2018-01-15T19:01:25Z</time>
      </trkpt>
      <trkpt lat="51.509013" lon="-0.082141">
        <ele>17.8</ele>
        <time>2018-01-15T19:01:26Z</time>
      </trkpt>
      <trkpt lat="51.509019" lon="-0.082303">
        <ele>18</ele>
        <time>2018-01-15T19:01:27Z</time>
      </trkpt>
      <trkpt lat="51.509029" lon="-0.082463">
        <ele>18.2</ele>
        <time>2018-01-15T19:01:28Z</time>
      </trkpt>
      <trkpt lat="51.50904" lon="-0.082602">
        <ele>18.4</ele>
        <time>2018-01-15T19:01:29Z</time>
      </trkpt>
      <trkpt lat="51.509061" lon="-0.082754">
        <ele>18.6</ele>
        <time>2018-01-15T19:01:30Z</time>
      </trkpt>
      <trkpt lat="51.509078" lon="-0.082903">
        <ele>18.8</ele>
        <time>2018-01-15T19:01:31Z</time>
      </trkpt>
      <trkpt lat="51.509099" lon="-0.083034">
        <ele>19</ele>
        <time>2018-01-15T19:01:32Z</time>
      </trkpt>
      <trkpt lat="51.50912" lon="-0.083177">
        <ele>19.4</ele>
        <time>2018-01-15T19:01:33Z</time>
      </trkpt>
      <trkpt lat="51.509137" lon="-0.083306">
        <ele>19.6</ele>
        <time>2018-01-15T19:01:34Z</time>
      </trkpt>
      <trkpt lat="51.509158" lon="-0.083449">
        <ele>19.8</ele>
        <time>2018-01-15T19:01:35Z</time>
      </trkpt>
      <trkpt lat="51.509174" lon="-0.083576">
        <ele>20</ele>
        <time>2018-01-15T19:01:36Z</time>
      </trkpt>
      <trkpt lat="51.509185" lon="-0.083719">
        <ele>20.4</ele>
        <time>2018-01-15T19:01:37Z</time>
      </trkpt>
      <trkpt lat="51.509201" lon="-0.083843">
        <ele>20.6</ele>
        <time>2018-01-15T19:01:38Z</time>
      </trkpt>
      <trkpt lat="51.509217" lon="-0.083967">
        <ele>20.8</ele>
        <time>2018-01-15T19:01:39Z</time>
      </trkpt>
      <trkpt lat="51.509233" lon="-0.08409">
        <ele>21</ele>
        <time>2018-01-15T19:01:40Z</time>
      </trkpt>
      <trkpt lat="51.509249" lon="-0.084228">
        <ele>21.2</ele>
        <time>2018-01-15T19:01:41Z</time>
      </trkpt>
      <trkpt lat="51.509265" lon="-0.084352">
        <ele>21.6</ele>
        <time>2018-01-15T19:01:42Z</time>
      </trkpt>
      <trkpt lat="51.509281" lon="-0.084473">
        <ele>21.8</ele>
        <time>2018-01-15T19:01:43Z</time>
      </trkpt>
      <trkpt lat="51.509297" lon="-0.084593">
        <ele>22</ele>
        <time>2018-01-15T19:01:44Z</time>
      </trkpt>
      <trkpt lat="51.509314" lon="-0.084709">
        <ele>22.2</ele>
        <time>2018-01-15T19:01:45Z</time>
      </trkpt>
      <trkpt lat="51.50933" lon="-0.084837">
        <ele>22.4</ele>
        <time>2018-01-15T19:01:46Z</time>
      </trkpt>
      <trkpt lat="51.509346" lon="-0.084955">
        <ele>22.6</ele>
        <time>2018-01-15T19:01:47Z</time>
      </trkpt>
      <trkpt lat="51.509356" lon="-0.085068">
        <ele>22.8</ele>
        <time>2018-01-15T19:01:48Z</time>
      </trkpt>
      <trkpt lat="51.509373" lon="-0.085183">
        <ele>23</ele>
        <time>2018-01-15T19:01:49Z</time>
      </trkpt>
      <trkpt lat="51.509383" lon="-0.0853">
        <ele>23.2</ele>
        <time>2018-01-15T19:01:50Z</time>
      </trkpt>
      <trkpt lat="51.509399" lon="-0.085415">
        <ele>23.6</ele>
        <time>2018-01-15T19:01:51Z</time>
      </trkpt>
      <trkpt lat="51.50941" lon="-0.085532">
        <ele>23.8</ele>
        <time>2018-01-15T19:01:52Z</time>
      </trkpt>
      <trkpt lat="51.509426" lon="-0.085646">
        <ele>24</ele>
        <time>2018-01-15T19:01:53Z</time>
      </trkpt>
      <trkpt lat="51.509442" lon="-0.085761">
        <ele>24.2</ele>
        <time>2018-01-15T19:01:54Z</time>
      </trkpt>
      <trkpt lat="51.509464" lon="-0.085871">
        <ele>24.4</ele>
        <time>2018-01-15T19:01:55Z</time>
      </trkpt>
      <trkpt lat="51.509475" lon="-0.085984">
        <ele>24.6</ele>
        <time>2018-01-15T19:01:56Z</time>
      </trkpt>
      <trkpt lat="51.509491" lon="-0.086094">
        <ele>24.8</ele>
        <time>2018-01-15T19:01:57Z</time>
      </trkpt>
      <trkpt lat="51.509501" lon="-0.086205">
        <ele>25</ele>
        <time>2018-01-15T19:01:58Z</time>
      </trkpt>
      <trkpt lat="51.509517" lon="-0.086313">
        <ele>25.2</ele>
        <time>2018-01-15T19:01:59Z</time>
      </trkpt>
      <trkpt lat="51.509534" lon="-0.086423">
        <ele>25.4</ele>
        <time>2018-01-15T19:02:00Z</time>
      </trkpt>
      <trkpt lat="51.509544" lon="-0.086529">
        <ele>25.4</ele>
        <time>2018-01-15T19:02:01Z</time>
      </trkpt>
      <trkpt lat="51.509566" lon="-0.086632">
        <ele>25.6</ele>
        <time>2018-01-15T19:02:02Z</time>
      </trkpt>
      <trkpt lat="51.509582" lon="-0.086734">
        <ele>25.8</ele>
        <time>2018-01-15T19:02:03Z</time>
      </trkpt>
      <trkpt lat="51.509598" lon="-0.086845">
        <ele>26</ele>
        <time>2018-01-15T19:02:04Z</time>
      </trkpt>
      <trkpt lat="51.509619" lon="-0.086944">
        <ele>26</ele>
        <time>2018-01-15T19:02:05Z</time>
      </trkpt>
      <trkpt lat="51.509635" lon="-0.087046">
        <ele>26</ele>
        <time>2018-01-15T19:02:06Z</time>
      </trkpt>
      <trkpt lat="51.509652" lon="-0.087161">
        <ele>26</ele>
        <time>2018-01-15T19:02:07Z</time>
      </trkpt>
      <trkpt lat="51.509673" lon="-0.087267">
        <ele>25.8</ele>
        <time>2018-01-15T19:02:08Z</time>
      </trkpt>
      <trkpt lat="51.509689" lon="-0.08739">
        <ele>25.6</ele>
        <time>2018-01-15T19:02:09Z</time>
      </trkpt>
      <trkpt lat="51.5097" lon="-0.087508">
        <ele>25.2</ele>
        <time>2018-01-15T19:02:10Z</time>
      </trkpt>
      <trkpt lat="51.509716" lon="-0.087644">
        <ele>24.8</ele>
        <time>2018-01-15T19:02:11Z</time>
      </trkpt>
      <trkpt lat="51.509737" lon="-0.087785">
        <ele>24.4</ele>
        <time>2018-01-15T19:02:12Z</time>
      </trkpt>
      <trkpt lat="51.509753" lon="-0.087931">
        <ele>24</ele>
        <time>2018-01-15T19:02:13Z</time>
      </trkpt>
      <trkpt lat="51.50978" lon="-0.088087">
        <ele>24</ele>
        <time>2018-01-15T19:02:14Z</time>
      </trkpt>
      <trkpt lat="51.509807" lon="-0.088227">
        <ele>24</ele>
        <time>2018-01-15T19:02:15Z</time>
      </trkpt>
      <trkpt lat="51.509834" lon="-0.088374">
        <ele>24.2</ele>
        <time>2018-01-15T19:02:16Z</time>
      </trkpt>
      <trkpt lat="51.509871" lon="-0.088511">
        <ele>24.6</ele>
        <time>2018-01-15T19:02:17Z</time>
      </trkpt>
      <trkpt lat="51.509898" lon="-0.088635">
        <ele>25</ele>
        <time>2018-01-15T19:02:18Z</time>
      </trkpt>
      <trkpt lat="51.50993" lon="-0.088763">
        <ele>25.6</ele>
        <time>2018-01-15T19:02:19Z</time>
      </trkpt>
      <trkpt lat="51.509963" lon="-0.088876">
        <ele>26</ele>
        <time>2018-01-15T19:02:20Z</time>
      </trkpt>
      <trkpt lat="51.50999" lon="-0.088985">
        <ele>26.6</ele>
        <time>2018-01-15T19:02:21Z</time>
      </trkpt>
      <trkpt lat="51.510027" lon="-0.0891">
        <ele>27</ele>
        <time>2018-01-15T19:02:22Z</time>
      </trkpt>
      <trkpt lat="51.510054" lon="-0.089198">
        <ele>27.4</ele>
        <time>2018-01-15T19:02:23Z</time>
      </trkpt>
      <trkpt lat="51.510086" lon="-0.089296">
        <ele>27.8</ele>
        <time>2018-01-15T19:02:24Z</time>
      </trkpt>
      <trkpt lat="51.510108" lon="-0.089383">
        <ele>28</ele>
        <time>2018-01-15T19:02:25Z</time>
      </trkpt>
      <trkpt lat="51.510134" lon="-0.089481">
        <ele>28.4</ele>
        <time>2018-01-15T19:02:26Z</time>
      </trkpt>
      <trkpt lat="51.510161" lon="-0.089579">
        <ele>28.6</ele>
        <time>2018-01-15T19:02:27Z</time>
      </trkpt>
      <trkpt lat="51.510188" lon="-0.08968">
        <ele>28.8</ele>
        <time>2018-01-15T19:02:28Z</time>
      </trkpt>
      <trkpt lat="51.510215" lon="-0.089774">
        <ele>28.8</ele>
        <time>2018-01-15T19:02:29Z</time>
      </trkpt>
      <trkpt lat="51.510242" lon="-0.089886">
        <ele>29</ele>
        <time>2018-01-15T19:02:30Z</time>
      </trkpt>
      <trkpt lat="51.510258" lon="-0.089989">
        <ele>29</ele>
        <time>2018-01-15T19:02:31Z</time>
      </trkpt>
      <trkpt lat="51.510279" lon="-0.0901">
        <ele>28.8</ele>
        <time>2018-01-15T19:02:32Z</time>
      </trkpt>
      <trkpt lat="51.510301" lon="-0.09021">
        <ele>28.8</ele>
        <time>2018-01-15T19:02:33Z</time>
      </trkpt>
      <trkpt lat="51.510322" lon="-0.090322">
        <ele>28.6</ele>
        <time>2018-01-15T19:02:34Z</time>
      </trkpt>
      <trkpt lat="51.510349" lon="-0.090446">
        <ele>28.6</ele>
        <time>2018-01-15T19:02:35Z</time>
      </trkpt>
      <trkpt lat="51.51037" lon="-0.090561">
        <ele>28.4</ele>
        <time>2018-01-15T19:02:36Z</time>
      </trkpt>
      <trkpt lat="51.510392" lon="-0.090693">
        <ele>28.2</ele>
        <time>2018-01-15T19:02:37Z</time>
      </trkpt>
      <trkpt lat="51.510413" lon="-0.090826">
        <ele>27.8</ele>
        <time>2018-01-15T19:02:38Z</time>
      </trkpt>
      <trkpt lat="51.51044" lon="-0.090963">
        <ele>27.6</ele>
        <time>2018-01-15T19:02:39Z</time>
      </trkpt>
      <trkpt lat="51.510462" lon="-0.091102">
        <ele>27.2</ele>
        <time>2018-01-15T19:02:40Z</time>
      </trkpt>
      <trkpt lat="51.510483" lon="-0.091241">
        <ele>27</ele>
        <time>2018-01-15T19:02:41Z</time>
      </trkpt>
      <trkpt lat="51.51051" lon="-0.091383">
        <ele>26.6</ele>
        <time>2018-01-15T19:02:42Z</time>
      </trkpt>
      <trkpt lat="51.510537" lon="-0.091531">
        <ele>26.2</ele>
        <time>2018-01-15T19:02:43Z</time>
      </trkpt>
      <trkpt lat="51.510569" lon="-0.091681">
        <ele>25.8</ele>
        <time>2018-01-15T19:02:44Z</time>
      </trkpt>
      <trkpt lat="51.510596" lon="-0.091837">
        <ele>25.4</ele>
        <time>2018-01-15T19:02:45Z</time>
      </trkpt>
      <trkpt lat="51.510628" lon="-0.09201">
        <ele>25</ele>
        <time>2018-01-15T19:02:46Z</time>
      </trkpt>
      <trkpt lat="51.51066" lon="-0.092167">
        <ele>24.4</ele>
        <time>2018-01-15T19:02:47Z</time>
      </trkpt>
      <trkpt lat="51.510698" lon="-0.092354">
        <ele>23.6</ele>
        <time>2018-01-15T19:02:48Z</time>
      </trkpt>
      <trkpt lat="51.51073" lon="-0.09253">
        <ele>22.8</ele>
        <time>2018-01-15T19:02:49Z</time>
      </trkpt>
      <trkpt lat="51.510773" lon="-0.092713">
        <ele>22</ele>
        <time>2018-01-15T19:02:50Z</time>
      </trkpt>
      <trkpt lat="51.51081" lon="-0.092913">
        <ele>21.2</ele>
        <time>2018-01-15T19:02:51Z</time>
      </trkpt>
      <trkpt lat="51.510842" lon="-0.0931">
        <ele>20.6</ele>
        <time>2018-01-15T19:02:52Z</time>
      </trkpt>
      <trkpt lat="51.510875" lon="-0.093312">
        <ele>20.2</ele>
        <time>2018-01-15T19:02:53Z</time>
      </trkpt>
      <trkpt lat="51.510901" lon="-0.093516">
        <ele>19.8</ele>
        <time>2018-01-15T19:02:54Z</time>
      </trkpt>
      <trkpt lat="51.510928" lon="-0.093714">
        <ele>19.4</ele>
        <time>2018-01-15T19:02:55Z</time>
      </trkpt>
      <trkpt lat="51.510955" lon="-0.093927">
        <ele>19</ele>
        <time>2018-01-15T19:02:56Z</time>
      </trkpt>
      <trkpt lat="51.510987" lon="-0.094143">
        <ele>18.6</ele>
        <time>2018-01-15T19:02:57Z</time>
      </trkpt>
      <trkpt lat="51.511014" lon="-0.094345">
        <ele>18.2</ele>
        <time>2018-01-15T19:02:58Z</time>
      </trkpt>
      <trkpt lat="51.511041" lon="-0.094557">
        <ele>18</ele>
        <time>2018-01-15T19:02:59Z</time>
      </trkpt>
      <trkpt lat="51.511073" lon="-0.094773">
        <ele>17.6</ele>
        <time>2018-01-15T19:03:00Z</time>
      </trkpt>
      <trkpt lat="51.511095" lon="-0.094986">
        <ele>17.4</ele>
        <time>2018-01-15T19:03:01Z</time>
      </trkpt>
      <trkpt lat="51.511116" lon="-0.0952">
        <ele>17.2</ele>
        <time>2018-01-15T19:03:02Z</time>
      </trkpt>
      <trkpt lat="51.511132" lon="-0.095421">
        <ele>17</ele>
        <time>2018-01-15T19:03:03Z</time>
      </trkpt>
      <trkpt lat="51.511143" lon="-0.09563">
        <ele>16.8</ele>
        <time>2018-01-15T19:03:04Z</time>
      </trkpt>
      <trkpt lat="51.511154" lon="-0.09584">
        <ele>16.8</ele>
        <time>2018-01-15T19:03:05Z</time>
      </trkpt>
      <trkpt lat="51.511164" lon="-0.096063">
        <ele>16.8</ele>
        <time>2018-01-15T19:03:06Z</time>
      </trkpt>
      <trkpt lat="51.51118" lon="-0.096273">
        <ele>16.6</ele>
        <time>2018-01-15T19:03:07Z</time>
      </trkpt>
      <trkpt lat="51.511186" lon="-0.096493">
        <ele>16.6</ele>
        <time>2018-01-15T19:03:08Z</time>
      </trkpt>
      <trkpt lat="51.511191" lon="-0.096697">
        <ele>16.6</ele>
        <time>2018-01-15T19:03:09Z</time>
      </trkpt>
      <trkpt lat="51.511191" lon="-0.096902">
        <ele>16.6</ele>
        <time>2018-01-15T19:03:10Z</time>
      </trkpt>
      <trkpt lat="51.511191" lon="-0.097123">
        <ele>16.6</ele>
        <time>2018-01-15T19:03:11Z</time>
      </trkpt>
      <trkpt lat="51.511196" lon="-0.097315">
        <ele>16.6</ele>
        <time>2018-01-15T19:03:12Z</time>
      </trkpt>
      <trkpt lat="51.511202" lon="-0.097519">
        <ele>16.6</ele>
        <time>2018-01-15T19:03:13Z</time>
      </trkpt>
      <trkpt lat="51.511207" lon="-0.097735">
        <ele>16.6</ele>
        <time>2018-01-15T19:03:14Z</time>
      </trkpt>
      <trkpt lat="51.511202" lon="-0.097935">
        <ele>16.6</ele>
        <time>2018-01-15T19:03:15Z</time>
      </trkpt>
      <trkpt lat="51.511207" lon="-0.098128">
        <ele>16.6</ele>
        <time>2018-01-15T19:03:16Z</time>
      </trkpt>
      <trkpt lat="51.511207" lon="-0.098315">
        <ele>16.4</ele>
        <time>2018-01-15T19:03:17Z</time>
      </trkpt>
      <trkpt lat="51.511207" lon="-0.098504">
        <ele>16.4</ele>
        <time>2018-01-15T19:03:18Z</time>
      </trkpt>
      <trkpt lat="51.511218" lon="-0.098695">
        <ele>16.2</ele>
        <time>2018-01-15T19:03:19Z</time>
      </trkpt>
      <trkpt lat="51.511229" lon="-0.098889">
        <ele>16</ele>
        <time>2018-01-15T19:03:20Z</time>
      </trkpt>
      <trkpt lat="51.511239" lon="-0.099084">
        <ele>15.8</ele>
        <time>2018-01-15T19:03:21Z</time>
      </trkpt>
      <trkpt lat="51.51125" lon="-0.099281">
        <ele>15.6</ele>
        <time>2018-01-15T19:03:22Z</time>
      </trkpt>
      <trkpt lat="51.511261" lon="-0.099484">
        <ele>15.2</ele>
        <time>2018-01-15T19:03:23Z</time>
      </trkpt>
      <trkpt lat="51.511272" lon="-0.099686">
        <ele>14.8</ele>
        <time>2018-01-15T19:03:24Z</time>
      </trkpt>
      <trkpt lat="51.511272" lon="-0.099883">
        <ele>14.4</ele>
        <time>2018-01-15T19:03:25Z</time>
      </trkpt>
      <trkpt lat="51.511261" lon="-0.100087">
        <ele>14</ele>
        <time>2018-01-15T19:03:26Z</time>
      </trkpt>
      <trkpt lat="51.51125" lon="-0.100289">
        <ele>13.6</ele>
        <time>2018-01-15T19:03:27Z</time>
      </trkpt>
      <trkpt lat="51.511234" lon="-0.100492">
        <ele>13.2</ele>
        <time>2018-01-15T19:03:28Z</time>
      </trkpt>
      <trkpt lat="51.511202" lon="-0.10069">
        <ele>12.8</ele>
        <time>2018-01-15T19:03:29Z</time>
      </trkpt>
      <trkpt lat="51.511164" lon="-0.100884">
        <ele>12.4</ele>
        <time>2018-01-15T19:03:30Z</time>
      </trkpt>
      <trkpt lat="51.511127" lon="-0.101093">
        <ele>11.8</ele>
        <time>2018-01-15T19:03:31Z</time>
      </trkpt>
      <trkpt lat="51.511089" lon="-0.101301">
        <ele>11.4</ele>
        <time>2018-01-15T19:03:32Z</time>
      </trkpt>
      <trkpt lat="51.511052" lon="-0.101502">
        <ele>10.8</ele>
        <time>2018-01-15T19:03:33Z</time>
      </trkpt>
      <trkpt lat="51.511019" lon="-0.10172">
        <ele>10.4</ele>
        <time>2018-01-15T19:03:34Z</time>
      </trkpt>
      <trkpt lat="51.510998" lon="-0.10193">
        <ele>10.2</ele>
        <time>2018-01-15T19:03:35Z</time>
      </trkpt>
      <trkpt lat="51.510982" lon="-0.102143">
        <ele>9.8</ele>
        <time>2018-01-15T19:03:36Z</time>
      </trkpt>
      <trkpt lat="51.510966" lon="-0.102366">
        <ele>9.8</ele>
        <time>2018-01-15T19:03:37Z</time>
      </trkpt>
      <trkpt lat="51.51096" lon="-0.102579">
        <ele>9.6</ele>
        <time>2018-01-15T19:03:38Z</time>
      </trkpt>
      <trkpt lat="51.51096" lon="-0.102796">
        <ele>9.6</ele>
        <time>2018-01-15T19:03:39Z</time>
      </trkpt>
      <trkpt lat="51.510966" lon="-0.103001">
        <ele>9.6</ele>
        <time>2018-01-15T19:03:40Z</time>
      </trkpt>
      <trkpt lat="51.510966" lon="-0.103191">
        <ele>9.8</ele>
        <time>2018-01-15T19:03:41Z</time>
      </trkpt>
      <trkpt lat="51.510977" lon="-0.103393">
        <ele>9.8</ele>
        <time>2018-01-15T19:03:42Z</time>
      </trkpt>
      <trkpt lat="51.510982" lon="-0.103588">
        <ele>9.8</ele>
        <time>2018-01-15T19:03:43Z</time>
      </trkpt>
      <trkpt lat="51.510982" lon="-0.10377">
        <ele>10</ele>
        <time>2018-01-15T19:03:44Z</time>
      </trkpt>
      <trkpt lat="51.510982" lon="-0.103967">
        <ele>10</ele>
        <time>2018-01-15T19:03:45Z</time>
      </trkpt>
      <trkpt lat="51.510987" lon="-0.10415">
        <ele>10</ele>
        <time>2018-01-15T19:03:46Z</time>
      </trkpt>
      <trkpt lat="51.510987" lon="-0.104333">
        <ele>10</ele>
        <time>2018-01-15T19:03:47Z</time>
      </trkpt>
      <trkpt lat="51.510993" lon="-0.104528">
        <ele>9.8</ele>
        <time>2018-01-15T19:03:48Z</time>
      </trkpt>
      <trkpt lat="51.510993" lon="-0.104712">
        <ele>9.8</ele>
        <time>2018-01-15T19:03:49Z</time>
      </trkpt>
      <trkpt lat="51.510998" lon="-0.104897">
        <ele>9.8</ele>
        <time>2018-01-15T19:03:50Z</time>
      </trkpt>
      <trkpt lat="51.510998" lon="-0.105082">
        <ele>9.8</ele>
        <time>2018-01-15T19:03:51Z</time>
      </trkpt>
      <trkpt lat="51.511003" lon="-0.105267">
        <ele>10</ele>
        <time>2018-01-15T19:03:52Z</time>
      </trkpt>
      <trkpt lat="51.511003" lon="-0.10545">
        <ele>10.2</ele>
        <time>2018-01-15T19:03:53Z</time>
      </trkpt>
      <trkpt lat="51.510998" lon="-0.105616">
        <ele>10.4</ele>
        <time>2018-01-15T19:03:54Z</time>
      </trkpt>
      <trkpt lat="51.510993" lon="-0.105797">
        <ele>10.8</ele>
        <time>2018-01-15T19:03:55Z</time>
      </trkpt>
      <trkpt lat="51.510982" lon="-0.105965">
        <ele>11.2</ele>
        <time>2018-01-15T19:03:56Z</time>
      </trkpt>
      <trkpt lat="51.510977" lon="-0.106116">
        <ele>11.4</ele>
        <time>2018-01-15T19:03:57Z</time>
      </trkpt>
      <trkpt lat="51.510966" lon="-0.106275">
        <ele>11.8</ele>
        <time>2018-01-15T19:03:58Z</time>
      </trkpt>
      <trkpt lat="51.510955" lon="-0.10643">
        <ele>12.2</ele>
        <time>2018-01-15T19:03:59Z</time>
      </trkpt>
      <trkpt lat="51.510955" lon="-0.106584">
        <ele>12.4</ele>
        <time>2018-01-15T19:04:00Z</time>
      </trkpt>
      <trkpt lat="51.510955" lon="-0.106742">
        <ele>12.4</ele>
        <time>2018-01-15T19:04:01Z</time>
      </trkpt>
      <trkpt lat="51.510955" lon="-0.106887">
        <ele>12.2</ele>
        <time>2018-01-15T19:04:02Z</time>
      </trkpt>
      <trkpt lat="51.510955" lon="-0.107051">
        <ele>11.8</ele>
        <time>2018-01-15T19:04:03Z</time>
      </trkpt>
      <trkpt lat="51.510955" lon="-0.107217">
        <ele>11.6</ele>
        <time>2018-01-15T19:04:04Z</time>
      </trkpt>
      <trkpt lat="51.510955" lon="-0.107384">
        <ele>11.4</ele>
        <time>2018-01-15T19:04:05Z</time>
      </trkpt>
      <trkpt lat="51.51096" lon="-0.10755">
        <ele>11.4</ele>
        <time>2018-01-15T19:04:06Z</time>
      </trkpt>
      <trkpt lat="51.510966" lon="-0.107714">
        <ele>11.6</ele>
        <time>2018-01-15T19:04:07Z</time>
      </trkpt>
      <trkpt lat="51.51096" lon="-0.107879">
        <ele>12</ele>
        <time>2018-01-15T19:04:08Z</time>
      </trkpt>
      <trkpt lat="51.510966" lon="-0.108035">
        <ele>12.4</ele>
        <time>2018-01-15T19:04:09Z</time>
      </trkpt>
      <trkpt lat="51.510966" lon="-0.108185">
        <ele>13</ele>
        <time>2018-01-15T19:04:10Z</time>
      </trkpt>
      <trkpt lat="51.510966" lon="-0.10833">
        <ele>13.4</ele>
        <time>2018-01-15T19:04:11Z</time>
      </trkpt>
      <trkpt lat="51.510971" lon="-0.108475">
        <ele>14</ele>
        <time>2018-01-15T19:04:12Z</time>
      </trkpt>
      <trkpt lat="51.510971" lon="-0.108612">
        <ele>14.4</ele>
        <time>2018-01-15T19:04:13Z</time>
      </trkpt>
      <trkpt lat="51.510977" lon="-0.108747">
        <ele>14.8</ele>
        <time>2018-01-15T19:04:14Z</time>
      </trkpt>
      <trkpt lat="51.510977" lon="-0.10888">
        <ele>15</ele>
        <time>2018-01-15T19:04:15Z</time>
      </trkpt>
      <trkpt lat="51.510982" lon="-0.109008">
        <ele>15.4</ele>
        <time>2018-01-15T19:04:16Z</time>
      </trkpt>
      <trkpt lat="51.510982" lon="-0.109129">
        <ele>15.4</ele>
        <time>2018-01-15T19:04:17Z</time>
      </trkpt>
      <trkpt lat="51.510982" lon="-0.109258">
        <ele>15.6</ele>
        <time>2018-01-15T19:04:18Z</time>
      </trkpt>
      <trkpt lat="51.510982" lon="-0.109392">
        <ele>15.6</ele>
        <time>2018-01-15T19:04:19Z</time>
      </trkpt>
      <trkpt lat="51.510982" lon="-0.109524">
        <ele>15.4</ele>
        <time>2018-01-15T19:04:20Z</time>
      </trkpt>
      <trkpt lat="51.510982" lon="-0.109655">
        <ele>15.4</ele>
        <time>2018-01-15T19:04:21Z</time>
      </trkpt>
      <trkpt lat="51.510982" lon="-0.109788">
        <ele>15.2</ele>
        <time>2018-01-15T19:04:22Z</time>
      </trkpt>
      <trkpt lat="51.510982" lon="-0.109928">
        <ele>15</ele>
        <time>2018-01-15T19:04:23Z</time>
      </trkpt>
      <trkpt lat="51.510982" lon="-0.110079">
        <ele>15</ele>
        <time>2018-01-15T19:04:24Z</time>
      </trkpt>
      <trkpt lat="51.510982" lon="-0.110218">
        <ele>14.8</ele>
        <time>2018-01-15T19:04:25Z</time>
      </trkpt>
      <trkpt lat="51.510982" lon="-0.110366">
        <ele>15</ele>
        <time>2018-01-15T19:04:26Z</time>
      </trkpt>
      <trkpt lat="51.510982" lon="-0.110511">
        <ele>15</ele>
        <time>2018-01-15T19:04:27Z</time>
      </trkpt>
      <trkpt lat="51.510987" lon="-0.110661">
        <ele>15.2</ele>
        <time>2018-01-15T19:04:28Z</time>
      </trkpt>
      <trkpt lat="51.510993" lon="-0.110804">
        <ele>15.2</ele>
        <time>2018-01-15T19:04:29Z</time>
      </trkpt>
      <trkpt lat="51.510993" lon="-0.11094">
        <ele>15.4</ele>
        <time>2018-01-15T19:04:30Z</time>
      </trkpt>
      <trkpt lat="51.510998" lon="-0.111076">
        <ele>15.6</ele>
        <time>2018-01-15T19:04:31Z</time>
      </trkpt>
      <trkpt lat="51.511003" lon="-0.111209">
        <ele>15.6</ele>
        <time>2018-01-15T19:04:32Z</time>
      </trkpt>
      <trkpt lat="51.511009" lon="-0.11134">
        <ele>15.8</ele>
        <time>2018-01-15T19:04:33Z</time>
      </trkpt>
      <trkpt lat="51.511009" lon="-0.111473">
        <ele>16</ele>
        <time>2018-01-15T19:04:34Z</time>
      </trkpt>
      <trkpt lat="51.511009" lon="-0.111596">
        <ele>16.2</ele>
        <time>2018-01-15T19:04:35Z</time>
      </trkpt>
      <trkpt lat="51.511009" lon="-0.111724">
        <ele>16.4</ele>
        <time>2018-01-15T19:04:36Z</time>
      </trkpt>
      <trkpt lat="51.511009" lon="-0.111848">
        <ele>16.6</ele>
        <time>2018-01-15T19:04:37Z</time>
      </trkpt>
      <trkpt lat="51.511009" lon="-0.111973">
        <ele>16.8</ele>
        <time>2018-01-15T19:04:38Z</time>
      </trkpt>
      <trkpt lat="51.511009" lon="-0.112105">
        <ele>17</ele>
        <time>2018-01-15T19:04:39Z</time>
      </trkpt>
      <trkpt lat="51.510998" lon="-0.112227">
        <ele>17</ele>
        <time>2018-01-15T19:04:40Z</time>
      </trkpt>
      <trkpt lat="51.510993" lon="-0.112355">
        <ele>17.2</ele>
        <time>2018-01-15T19:04:41Z</time>
      </trkpt>
      <trkpt lat="51.510987" lon="-0.112483">
        <ele>17.4</ele>
        <time>2018-01-15T19:04:42Z</time>
      </trkpt>
      <trkpt lat="51.510982" lon="-0.112601">
        <ele>17.6</ele>
        <time>2018-01-15T19:04:43Z</time>
      </trkpt>
      <trkpt lat="51.510971" lon="-0.11273">
        <ele>17.6</ele>
        <time>2018-01-15T19:04:44Z</time>
      </trkpt>
      <trkpt lat="51.510966" lon="-0.112855">
        <ele>17.4</ele>
        <time>2018-01-15T19:04:45Z</time>
      </trkpt>
      <trkpt lat="51.510955" lon="-0.11299">
        <ele>17.2</ele>
        <time>2018-01-15T19:04:46Z</time>
      </trkpt>
      <trkpt lat="51.510939" lon="-0.113128">
        <ele>17</ele>
        <time>2018-01-15T19:04:47Z</time>
      </trkpt>
      <trkpt lat="51.510923" lon="-0.113268">
        <ele>16.6</ele>
        <time>2018-01-15T19:04:48Z</time>
      </trkpt>
      <trkpt lat="51.510907" lon="-0.11342">
        <ele>16.4</ele>
        <time>2018-01-15T19:04:49Z</time>
      </trkpt>
      <trkpt lat="51.510891" lon="-0.113564">
        <ele>16.2</ele>
        <time>2018-01-15T19:04:50Z</time>
      </trkpt>
      <trkpt lat="51.510875" lon="-0.113724">
        <ele>16</ele>
        <time>2018-01-15T19:04:51Z</time>
      </trkpt>
      <trkpt lat="51.510864" lon="-0.113878">
        <ele>15.8</ele>
        <time>2018-01-15T19:04:52Z</time>
      </trkpt>
      <trkpt lat="51.510837" lon="-0.114037">
        <ele>15.8</ele>
        <time>2018-01-15T19:04:53Z</time>
      </trkpt>
      <trkpt lat="51.510816" lon="-0.114188">
        <ele>15.6</ele>
        <time>2018-01-15T19:04:54Z</time>
      </trkpt>
      <trkpt lat="51.510794" lon="-0.114334">
        <ele>15.6</ele>
        <time>2018-01-15T19:04:55Z</time>
      </trkpt>
      <trkpt lat="51.510767" lon="-0.114491">
        <ele>15.4</ele>
        <time>2018-01-15T19:04:56Z</time>
      </trkpt>
      <trkpt lat="51.510746" lon="-0.114653">
        <ele>15.2</ele>
        <time>2018-01-15T19:04:57Z</time>
      </trkpt>
      <trkpt lat="51.510719" lon="-0.114818">
        <ele>14.8</ele>
        <time>2018-01-15T19:04:58Z</time>
      </trkpt>
      <trkpt lat="51.510698" lon="-0.114985">
        <ele>14.6</ele>
        <time>2018-01-15T19:04:59Z</time>
      </trkpt>
      <trkpt lat="51.510676" lon="-0.115154">
        <ele>14.2</ele>
        <time>2018-01-15T19:05:00Z</time>
      </trkpt>
      <trkpt lat="51.510644" lon="-0.115325">
        <ele>14</ele>
        <time>2018-01-15T19:05:01Z</time>
      </trkpt>
      <trkpt lat="51.510612" lon="-0.115486">
        <ele>13.8</ele>
        <time>2018-01-15T19:05:02Z</time>
      </trkpt>
      <trkpt lat="51.510574" lon="-0.115656">
        <ele>13.6</ele>
        <time>2018-01-15T19:05:03Z</time>
      </trkpt>
      <trkpt lat="51.510531" lon="-0.115817">
        <ele>13.4</ele>
        <time>2018-01-15T19:05:04Z</time>
      </trkpt>
      <trkpt lat="51.510494" lon="-0.115984">
        <ele>13.4</ele>
        <time>2018-01-15T19:05:05Z</time>
      </trkpt>
      <trkpt lat="51.510456" lon="-0.116145">
        <ele>13.4</ele>
        <time>2018-01-15T19:05:06Z</time>
      </trkpt>
      <trkpt lat="51.510413" lon="-0.116311">
        <ele>13.6</ele>
        <time>2018-01-15T19:05:07Z</time>
      </trkpt>
      <trkpt lat="51.51037" lon="-0.116471">
        <ele>13.6</ele>
        <time>2018-01-15T19:05:08Z</time>
      </trkpt>
      <trkpt lat="51.510327" lon="-0.116631">
        <ele>13.8</ele>
        <time>2018-01-15T19:05:09Z</time>
      </trkpt>
      <trkpt lat="51.510285" lon="-0.116789">
        <ele>13.8</ele>
        <time>2018-01-15T19:05:10Z</time>
      </trkpt>
      <trkpt lat="51.510242" lon="-0.116948">
        <ele>13.8</ele>
        <time>2018-01-15T19:05:11Z</time>
      </trkpt>
      <trkpt lat="51.510199" lon="-0.117095">
        <ele>13.8</ele>
        <time>2018-01-15T19:05:12Z</time>
      </trkpt>
      <trkpt lat="51.51015" lon="-0.117253">
        <ele>13.6</ele>
        <time>2018-01-15T19:05:13Z</time>
      </trkpt>
      <trkpt lat="51.510108" lon="-0.117403">
        <ele>13.6</ele>
        <time>2018-01-15T19:05:14Z</time>
      </trkpt>
      <trkpt lat="51.510059" lon="-0.11756">
        <ele>13.4</ele>
        <time>2018-01-15T19:05:15Z</time>
      </trkpt>
      <trkpt lat="51.510011" lon="-0.117715">
        <ele>13.4</ele>
        <time>2018-01-15T19:05:16Z</time>
      </trkpt>
      <trkpt lat="51.509968" lon="-0.117868">
        <ele>13.4</ele>
        <time>2018-01-15T19:05:17Z</time>
      </trkpt>
      <trkpt lat="51.509925" lon="-0.118011">
        <ele>13.6</ele>
        <time>2018-01-15T19:05:18Z</time>
      </trkpt>
      <trkpt lat="51.509882" lon="-0.118155">
        <ele>13.6</ele>
        <time>2018-01-15T19:05:19Z</time>
      </trkpt>
      <trkpt lat="51.509834" lon="-0.118303">
        <ele>13.8</ele>
        <time>2018-01-15T19:05:20Z</time>
      </trkpt>
      <trkpt lat="51.509786" lon="-0.118447">
        <ele>13.8</ele>
        <time>2018-01-15T19:05:21Z</time>
      </trkpt>
      <trkpt lat="51.509727" lon="-0.118582">
        <ele>13.8</ele>
        <time>2018-01-15T19:05:22Z</time>
      </trkpt>
      <trkpt lat="51.509673" lon="-0.118714">
        <ele>13.8</ele>
        <time>2018-01-15T19:05:23Z</time>
      </trkpt>
      <trkpt lat="51.509619" lon="-0.118847">
        <ele>13.8</ele>
        <time>2018-01-15T19:05:24Z</time>
      </trkpt>
      <trkpt lat="51.509566" lon="-0.118976">
        <ele>13.8</ele>
        <time>2018-01-15T19:05:25Z</time>
      </trkpt>
      <trkpt lat="51.509512" lon="-0.1191">
        <ele>13.6</ele>
        <time>2018-01-15T19:05:26Z</time>
      </trkpt>
      <trkpt lat="51.509448" lon="-0.119232">
        <ele>13.6</ele>
        <time>2018-01-15T19:05:27Z</time>
      </trkpt>
      <trkpt lat="51.509389" lon="-0.11936">
        <ele>13.4</ele>
        <time>2018-01-15T19:05:28Z</time>
      </trkpt>
      <trkpt lat="51.509319" lon="-0.119484">
        <ele>13.4</ele>
        <time>2018-01-15T19:05:29Z</time>
      </trkpt>
      <trkpt lat="51.509255" lon="-0.1196">
        <ele>13.2</ele>
        <time>2018-01-15T19:05:30Z</time>
      </trkpt>
      <trkpt lat="51.509185" lon="-0.119724">
        <ele>13.2</ele>
        <time>2018-01-15T19:05:31Z</time>
      </trkpt>
      <trkpt lat="51.509115" lon="-0.119852">
        <ele>13</ele>
        <time>2018-01-15T19:05:32Z</time>
      </trkpt>
      <trkpt lat="51.50904" lon="-0.11997">
        <ele>13</ele>
        <time>2018-01-15T19:05:33Z</time>
      </trkpt>
      <trkpt lat="51.508976" lon="-0.120091">
        <ele>12.8</ele>
        <time>2018-01-15T19:05:34Z</time>
      </trkpt>
      <trkpt lat="51.508901" lon="-0.120209">
        <ele>12.8</ele>
        <time>2018-01-15T19:05:35Z</time>
      </trkpt>
      <trkpt lat="51.508825" lon="-0.120329">
        <ele>12.6</ele>
        <time>2018-01-15T19:05:36Z</time>
      </trkpt>
      <trkpt lat="51.50875" lon="-0.120451">
        <ele>12.4</ele>
        <time>2018-01-15T19:05:37Z</time>
      </trkpt>
      <trkpt lat="51.50867" lon="-0.120568">
        <ele>12.4</ele>
        <time>2018-01-15T19:05:38Z</time>
      </trkpt>
      <trkpt lat="51.5086" lon="-0.12068">
        <ele>12.2</ele>
        <time>2018-01-15T19:05:39Z</time>
      </trkpt>
      <trkpt lat="51.508514" lon="-0.120798">
        <ele>12</ele>
        <time>2018-01-15T19:05:40Z</time>
      </trkpt>
      <trkpt lat="51.508428" lon="-0.120892">
        <ele>11.6</ele>
        <time>2018-01-15T19:05:41Z</time>
      </trkpt>
      <trkpt lat="51.508332" lon="-0.120979">
        <ele>11.4</ele>
        <time>2018-01-15T19:05:42Z</time>
      </trkpt>
      <trkpt lat="51.50823" lon="-0.121065">
        <ele>11</ele>
        <time>2018-01-15T19:05:43Z</time>
      </trkpt>
      <trkpt lat="51.508128" lon="-0.121143">
        <ele>10.6</ele>
        <time>2018-01-15T19:05:44Z</time>
      </trkpt>
      <trkpt lat="51.508026" lon="-0.121225">
        <ele>10.2</ele>
        <time>2018-01-15T19:05:45Z</time>
      </trkpt>
      <trkpt lat="51.507919" lon="-0.121307">
        <ele>9.8</ele>
        <time>2018-01-15T19:05:46Z</time>
      </trkpt>
      <trkpt lat="51.507812" lon="-0.121389">
        <ele>9.6</ele>
        <time>2018-01-15T19:05:47Z</time>
      </trkpt>
      <trkpt lat="51.507699" lon="-0.121468">
        <ele>9.2</ele>
        <time>2018-01-15T19:05:48Z</time>
      </trkpt>
      <trkpt lat="51.507586" lon="-0.121546">
        <ele>9</ele>
        <time>2018-01-15T19:05:49Z</time>
      </trkpt>
      <trkpt lat="51.507468" lon="-0.12163">
        <ele>8.8</ele>
        <time>2018-01-15T19:05:50Z</time>
      </trkpt>
      <trkpt lat="51.507361" lon="-0.121704">
        <ele>8.8</ele>
        <time>2018-01-15T19:05:51Z</time>
      </trkpt>
      <trkpt lat="51.507243" lon="-0.121771">
        <ele>8.8</ele>
        <time>2018-01-15T19:05:52Z</time>
      </trkpt>
      <trkpt lat="51.50713" lon="-0.12183">
        <ele>8.6</ele>
        <time>2018-01-15T19:05:53Z</time>
      </trkpt>
      <trkpt lat="51.507012" lon="-0.121894">
        <ele>8.6</ele>
        <time>2018-01-15T19:05:54Z</time>
      </trkpt>
      <trkpt lat="51.506905" lon="-0.121952">
        <ele>8.6</ele>
        <time>2018-01-15T19:05:55Z</time>
      </trkpt>
      <trkpt lat="51.506798" lon="-0.12202">
        <ele>8.6</ele>
        <time>2018-01-15T19:05:56Z</time>
      </trkpt>
      <trkpt lat="51.50669" lon="-0.122105">
        <ele>8.8</ele>
        <time>2018-01-15T19:05:57Z</time>
      </trkpt>
      <trkpt lat="51.506594" lon="-0.122206">
        <ele>8.8</ele>
        <time>2018-01-15T19:05:58Z</time>
      </trkpt>
      <trkpt lat="51.506524" lon="-0.122355">
        <ele>9</ele>
        <time>2018-01-15T19:05:59Z</time>
      </trkpt>
      <trkpt lat="51.506497" lon="-0.122539">
        <ele>9.4</ele>
        <time>2018-01-15T19:06:00Z</time>
      </trkpt>
      <trkpt lat="51.506519" lon="-0.12271">
        <ele>9.8</ele>
        <time>2018-01-15T19:06:01Z</time>
      </trkpt>
      <trkpt lat="51.506546" lon="-0.122869">
        <ele>10.2</ele>
        <time>2018-01-15T19:06:02Z</time>
      </trkpt>
      <trkpt lat="51.506588" lon="-0.123025">
        <ele>10.6</ele>
        <time>2018-01-15T19:06:03Z</time>
      </trkpt>
      <trkpt lat="51.506626" lon="-0.123168">
        <ele>11</ele>
        <time>2018-01-15T19:06:04Z</time>
      </trkpt>
      <trkpt lat="51.506658" lon="-0.123323">
        <ele>11.6</ele>
        <time>2018-01-15T19:06:05Z</time>
      </trkpt>
      <trkpt lat="51.50668" lon="-0.123465">
        <ele>12</ele>
        <time>2018-01-15T19:06:06Z</time>
      </trkpt>
      <trkpt lat="51.506701" lon="-0.123602">
        <ele>12.4</ele>
        <time>2018-01-15T19:06:07Z</time>
      </trkpt>
      <trkpt lat="51.506728" lon="-0.123735">
        <ele>13</ele>
        <time>2018-01-15T19:06:08Z</time>
      </trkpt>
      <trkpt lat="51.506755" lon="-0.123864">
        <ele>13.4</ele>
        <time>2018-01-15T19:06:09Z</time>
      </trkpt>
      <trkpt lat="51.506776" lon="-0.123987">
        <ele>13.8</ele>
        <time>2018-01-15T19:06:10Z</time>
      </trkpt>
      <trkpt lat="51.506798" lon="-0.124107">
        <ele>14.2</ele>
        <time>2018-01-15T19:06:11Z</time>
      </trkpt>
      <trkpt lat="51.506824" lon="-0.124221">
        <ele>14.6</ele>
        <time>2018-01-15T19:06:12Z</time>
      </trkpt>
      <trkpt lat="51.506846" lon="-0.124334">
        <ele>15</ele>
        <time>2018-01-15T19:06:13Z</time>
      </trkpt>
      <trkpt lat="51.506867" lon="-0.12444">
        <ele>15.4</ele>
        <time>2018-01-15T19:06:14Z</time>
      </trkpt>
      <trkpt lat="51.506889" lon="-0.124545">
        <ele>15.8</ele>
        <time>2018-01-15T19:06:15Z</time>
      </trkpt>
      <trkpt lat="51.506905" lon="-0.124655">
        <ele>16.2</ele>
        <time>2018-01-15T19:06:16Z</time>
      </trkpt>
      <trkpt lat="51.506926" lon="-0.124751">
        <ele>16.4</ele>
        <time>2018-01-15T19:06:17Z</time>
      </trkpt>
      <trkpt lat="51.506948" lon="-0.124846">
        <ele>16.8</ele>
        <time>2018-01-15T19:06:18Z</time>
      </trkpt>
      <trkpt lat="51.506964" lon="-0.124947">
        <ele>17.2</ele>
        <time>2018-01-15T19:06:19Z</time>
      </trkpt>
      <trkpt lat="51.50698" lon="-0.125041">
        <ele>17.4</ele>
        <time>2018-01-15T19:06:20Z</time>
      </trkpt>
      <trkpt lat="51.507002" lon="-0.12514">
        <ele>17.8</ele>
        <time>2018-01-15T19:06:21Z</time>
      </trkpt>
      <trkpt lat="51.507018" lon="-0.125236">
        <ele>18.2</ele>
        <time>2018-01-15T19:06:22Z</time>
      </trkpt>
      <trkpt lat="51.507034" lon="-0.125331">
        <ele>18.4</ele>
        <time>2018-01-15T19:06:23Z</time>
      </trkpt>
      <trkpt lat="51.50705" lon="-0.125423">
        <ele>18.8</ele>
        <time>2018-01-15T19:06:24Z</time>
      </trkpt>
      <trkpt lat="51.507071" lon="-0.12551">
        <ele>19</ele>
        <time>2018-01-15T19:06:25Z</time>
      </trkpt>
      <trkpt lat="51.507087" lon="-0.125599">
        <ele>19.4</ele>
        <time>2018-01-15T19:06:26Z</time>
      </trkpt>
      <trkpt lat="51.507098" lon="-0.125686">
        <ele>19.6</ele>
        <time>2018-01-15T19:06:27Z</time>
      </trkpt>
      <trkpt lat="51.507114" lon="-0.125776">
        <ele>20</ele>
        <time>2018-01-15T19:06:28Z</time>
      </trkpt>
      <trkpt lat="51.50713" lon="-0.12586">
        <ele>20.2</ele>
        <time>2018-01-15T19:06:29Z</time>
      </trkpt>
      <trkpt lat="51.507141" lon="-0.125947">
        <ele>20.6</ele>
        <time>2018-01-15T19:06:30Z</time>
      </trkpt>
      <trkpt lat="51.507157" lon="-0.126033">
        <ele>20.8</ele>
        <time>2018-01-15T19:06:31Z</time>
      </trkpt>
      <trkpt lat="51.507173" lon="-0.126123">
        <ele>21.2</ele>
        <time>2018-01-15T19:06:32Z</time>
      </trkpt>
      <trkpt lat="51.507189" lon="-0.126205">
        <ele>21.4</ele>
        <time>2018-01-15T19:06:33Z</time>
      </trkpt>
      <trkpt lat="51.507205" lon="-0.126293">
        <ele>21.6</ele>
        <time>2018-01-15T19:06:34Z</time>
      </trkpt>
      <trkpt lat="51.507216" lon="-0.126374">
        <ele>22</ele>
        <time>2018-01-15T19:06:35Z</time>
      </trkpt>
      <trkpt lat="51.507238" lon="-0.126458">
        <ele>22.2</ele>
        <time>2018-01-15T19:06:36Z</time>
      </trkpt>
      <trkpt lat="51.507259" lon="-0.126535">
        <ele>22.4</ele>
        <time>2018-01-15T19:06:37Z</time>
      </trkpt>
      <trkpt lat="51.50727" lon="-0.126622">
        <ele>22.8</ele>
        <time>2018-01-15T19:06:38Z</time>
      </trkpt>
      <trkpt lat="51.507291" lon="-0.126699">
        <ele>23</ele>
        <time>2018-01-15T19:06:39Z</time>
      </trkpt>
      <trkpt lat="51.507302" lon="-0.126775">
        <ele>23.2</ele>
        <time>2018-01-15T19:06:40Z</time>
      </trkpt>
      <trkpt lat="51.507318" lon="-0.12685">
        <ele>23.4</ele>
        <time>2018-01-15T19:06:41Z</time>
      </trkpt>
      <trkpt lat="51.507345" lon="-0.126923">
        <ele>23.6</ele>
        <time>2018-01-15T19:06:42Z</time>
      </trkpt>
      <trkpt lat="51.507377" lon="-0.126987">
        <ele>23.8</ele>
        <time>2018-01-15T19:06:43Z</time>
      </trkpt>
      <trkpt lat="51.507415" lon="-0.12705">
        <ele>24</ele>
        <time>2018-01-15T19:06:44Z</time>
      </trkpt>
      <trkpt lat="51.507452" lon="-0.127108">
        <ele>24.2</ele>
        <time>2018-01-15T19:06:45Z</time>
      </trkpt>
      <trkpt lat="51.507495" lon="-0.127157">
        <ele>24.2</ele>
        <time>2018-01-15T19:06:46Z</time>
      </trkpt>
      <trkpt lat="51.507549" lon="-0.127186">
        <ele>24.4</ele>
        <time>2018-01-15T19:06:47Z</time>
      </trkpt>
      <trkpt lat="51.507613" lon="-0.127183">
        <ele>24.4</ele>
        <time>2018-01-15T19:06:48Z</time>
      </trkpt>
      <trkpt lat="51.507672" lon="-0.127147">
        <ele>24.2</ele>
        <time>2018-01-15T19:06:49Z</time>
      </trkpt>
      <trkpt lat="51.507726" lon="-0.127077">
        <ele>24.2</ele>
        <time>2018-01-15T19:06:50Z</time>
      </trkpt>
      <trkpt lat="51.507774" lon="-0.126988">
        <ele>24.4</ele>
        <time>2018-01-15T19:06:51Z</time>
      </trkpt>
      <trkpt lat="51.507812" lon="-0.1269">
        <ele>24.4</ele>
        <time>2018-01-15T19:06:52Z</time>
      </trkpt>
      <trkpt lat="51.50786" lon="-0.126816">
        <ele>24.4</ele>
        <time>2018-01-15T19:06:53Z</time>
      </trkpt>
      <trkpt lat="51.507903" lon="-0.126733">
        <ele>24.2</ele>
        <time>2018-01-15T19:06:54Z</time>
      </trkpt>
      <trkpt lat="51.507951" lon="-0.126646">
        <ele>24.2</ele>
        <time>2018-01-15T19:06:55Z</time>
      </trkpt>
      <trkpt lat="51.507999" lon="-0.126561">
        <ele>24.2</ele>
        <time>2018-01-15T19:06:56Z</time>
      </trkpt>
      <trkpt lat="51.508048" lon="-0.126466">
        <ele>24.2</ele>
        <time>2018-01-15T19:06:57Z</time>
      </trkpt>
      <trkpt lat="51.50809" lon="-0.126368">
        <ele>24.2</ele>
        <time>2018-01-15T19:06:58Z</time>
      </trkpt>
      <trkpt lat="51.508144" lon="-0.126269">
        <ele>24.2</ele>
        <time>2018-01-15T19:06:59Z</time>
      </trkpt>
      <trkpt lat="51.508192" lon="-0.12617">
        <ele>24.2</ele>
        <time>2018-01-15T19:07:00Z</time>
      </trkpt>
      <trkpt lat="51.508241" lon="-0.126071">
        <ele>24.2</ele>
        <time>2018-01-15T19:07:01Z</time>
      </trkpt>
      <trkpt lat="51.508294" lon="-0.125966">
        <ele>24.2</ele>
        <time>2018-01-15T19:07:02Z</time>
      </trkpt>
      <trkpt lat="51.508343" lon="-0.125864">
        <ele>24.2</ele>
        <time>2018-01-15T19:07:03Z</time>
      </trkpt>
      <trkpt lat="51.508402" lon="-0.125754">
        <ele>24.2</ele>
        <time>2018-01-15T19:07:04Z</time>
      </trkpt>
      <trkpt lat="51.50845" lon="-0.12565">
        <ele>24.2</ele>
        <time>2018-01-15T19:07:05Z</time>
      </trkpt>
      <trkpt lat="51.508509" lon="-0.125543">
        <ele>24.2</ele>
        <time>2018-01-15T19:07:06Z</time>
      </trkpt>
      <trkpt lat="51.508563" lon="-0.125433">
        <ele>24.2</ele>
        <time>2018-01-15T19:07:07Z</time>
      </trkpt>
      <trkpt lat="51.508616" lon="-0.125327">
        <ele>24.2</ele>
        <time>2018-01-15T19:07:08Z</time>
      </trkpt>
      <trkpt lat="51.50867" lon="-0.125214">
        <ele>24.2</ele>
        <time>2018-01-15T19:07:09Z</time>
      </trkpt>
      <trkpt lat="51.508723" lon="-0.125103">
        <ele>24.2</ele>
        <time>2018-01-15T19:07:10Z</time>
      </trkpt>
      <trkpt lat="51.508783" lon="-0.124986">
        <ele>24.2</ele>
        <time>2018-01-15T19:07:11Z</time>
      </trkpt>
      <trkpt lat="51.508842" lon="-0.124878">
        <ele>24.2</ele>
        <time>2018-01-15T19:07:12Z</time>
      </trkpt>
      <trkpt lat="51.508895" lon="-0.124762">
        <ele>24.4</ele>
        <time>2018-01-15T19:07:13Z</time>
      </trkpt>
      <trkpt lat="51.508949" lon="-0.124644">
        <ele>24.4</ele>
        <time>2018-01-15T19:07:14Z</time>
      </trkpt>
      <trkpt lat="51.509008" lon="-0.124528">
        <ele>24.4</ele>
        <time>2018-01-15T19:07:15Z</time>
      </trkpt>
      <trkpt lat="51.509061" lon="-0.124415">
        <ele>24.4</ele>
        <time>2018-01-15T19:07:16Z</time>
      </trkpt>
      <trkpt lat="51.50912" lon="-0.124297">
        <ele>24.4</ele>
        <time>2018-01-15T19:07:17Z</time>
      </trkpt>
      <trkpt lat="51.509174" lon="-0.124178">
        <ele>24.4</ele>
        <time>2018-01-15T19:07:18Z</time>
      </trkpt>
      <trkpt lat="51.509233" lon="-0.124062">
        <ele>24.4</ele>
        <time>2018-01-15T19:07:19Z</time>
      </trkpt>
      <trkpt lat="51.509287" lon="-0.123948">
        <ele>24.6</ele>
        <time>2018-01-15T19:07:20Z</time>
      </trkpt>
      <trkpt lat="51.509346" lon="-0.12383">
        <ele>24.6</ele>
        <time>2018-01-15T19:07:21Z</time>
      </trkpt>
      <trkpt lat="51.509399" lon="-0.123715">
        <ele>24.6</ele>
        <time>2018-01-15T19:07:22Z</time>
      </trkpt>
      <trkpt lat="51.509464" lon="-0.123601">
        <ele>24.6</ele>
        <time>2018-01-15T19:07:23Z</time>
      </trkpt>
      <trkpt lat="51.509523" lon="-0.123483">
        <ele>24.6</ele>
        <time>2018-01-15T19:07:24Z</time>
      </trkpt>
      <trkpt lat="51.509576" lon="-0.123371">
        <ele>24.6</ele>
        <time>2018-01-15T19:07:25Z</time>
      </trkpt>
      <trkpt lat="51.509625" lon="-0.123262">
        <ele>24.6</ele>
        <time>2018-01-15T19:07:26Z</time>
      </trkpt>
      <trkpt lat="51.509678" lon="-0.123152">
        <ele>24.6</ele>
        <time>2018-01-15T19:07:27Z</time>
      </trkpt>
      <trkpt lat="51.509727" lon="-0.123041">
        <ele>24.6</ele>
        <time>2018-01-15T19:07:28Z</time>
      </trkpt>
      <trkpt lat="51.50978" lon="-0.122928">
        <ele>24.6</ele>
        <time>2018-01-15T19:07:29Z</time>
      </trkpt>
      <trkpt lat="51.509829" lon="-0.122815">
        <ele>24.6</ele>
        <time>2018-01-15T19:07:30Z</time>
      </trkpt>
      <trkpt lat="51.509882" lon="-0.122704">
        <ele>24.6</ele>
        <time>2018-01-15T19:07:31Z</time>
      </trkpt>
      <trkpt lat="51.50993" lon="-0.122592">
        <ele>24.6</ele>
        <time>2018-01-15T19:07:32Z</time>
      </trkpt>
      <trkpt lat="51.509984" lon="-0.122474">
        <ele>24.6</ele>
        <time>2018-01-15T19:07:33Z</time>
      </trkpt>
      <trkpt lat="51.510038" lon="-0.122351">
        <ele>24.6</ele>
        <time>2018-01-15T19:07:34Z</time>
      </trkpt>
      <trkpt lat="51.510086" lon="-0.122234">
        <ele>24.6</ele>
        <time>2018-01-15T19:07:35Z</time>
      </trkpt>
      <trkpt lat="51.510145" lon="-0.122107">
        <ele>24.6</ele>
        <time>2018-01-15T19:07:36Z</time>
      </trkpt>
      <trkpt lat="51.510193" lon="-0.121983">
        <ele>24.6</ele>
        <time>2018-01-15T19:07:37Z</time>
      </trkpt>
      <trkpt lat="51.510242" lon="-0.121856">
        <ele>24.6</ele>
        <time>2018-01-15T19:07:38Z</time>
      </trkpt>
      <trkpt lat="51.51029" lon="-0.121724">
        <ele>24.6</ele>
        <time>2018-01-15T19:07:39Z</time>
      </trkpt>
      <trkpt lat="51.510338" lon="-0.121596">
        <ele>24.6</ele>
        <time>2018-01-15T19:07:40Z</time>
      </trkpt>
      <trkpt lat="51.510381" lon="-0.121465">
        <ele>24.6</ele>
        <time>2018-01-15T19:07:41Z</time>
      </trkpt>
      <trkpt lat="51.510429" lon="-0.12133">
        <ele>24.6</ele>
        <time>2018-01-15T19:07:42Z</time>
      </trkpt>
      <trkpt lat="51.510472" lon="-0.121195">
        <ele>24.6</ele>
        <time>2018-01-15T19:07:43Z</time>
      </trkpt>
      <trkpt lat="51.510531" lon="-0.121075">
        <ele>24.6</ele>
        <time>2018-01-15T19:07:44Z</time>
      </trkpt>
      <trkpt lat="51.510617" lon="-0.121106">
        <ele>24.6</ele>
        <time>2018-01-15T19:07:45Z</time>
      </trkpt>
      <trkpt lat="51.510617" lon="-0.121264">
        <ele>24.6</ele>
        <time>2018-01-15T19:07:46Z</time>
      </trkpt>
      <trkpt lat="51.51058" lon="-0.1214">
        <ele>24.6</ele>
        <time>2018-01-15T19:07:47Z</time>
      </trkpt>
      <trkpt lat="51.510531" lon="-0.121541">
        <ele>24.6</ele>
        <time>2018-01-15T19:07:48Z</time>
      </trkpt>
      <trkpt lat="51.510494" lon="-0.121679">
        <ele>24.6</ele>
        <time>2018-01-15T19:07:49Z</time>
      </trkpt>
      <trkpt lat="51.510445" lon="-0.121818">
        <ele>24.6</ele>
        <time>2018-01-15T19:07:50Z</time>
      </trkpt>
      <trkpt lat="51.510397" lon="-0.12196">
        <ele>24.6</ele>
        <time>2018-01-15T19:07:51Z</time>
      </trkpt>
      <trkpt lat="51.510349" lon="-0.122091">
        <ele>24.6</ele>
        <time>2018-01-15T19:07:52Z</time>
      </trkpt>
      <trkpt lat="51.510295" lon="-0.122222">
        <ele>24.6</ele>
        <time>2018-01-15T19:07:53Z</time>
      </trkpt>
      <trkpt lat="51.510236" lon="-0.122356">
        <ele>24.6</ele>
        <time>2018-01-15T19:07:54Z</time>
      </trkpt>
      <trkpt lat="51.510183" lon="-0.122482">
        <ele>24.6</ele>
        <time>2018-01-15T19:07:55Z</time>
      </trkpt>
      <trkpt lat="51.510124" lon="-0.12261">
        <ele>24.6</ele>
        <time>2018-01-15T19:07:56Z</time>
      </trkpt>
      <trkpt lat="51.510065" lon="-0.122744">
        <ele>24.6</ele>
        <time>2018-01-15T19:07:57Z</time>
      </trkpt>
      <trkpt lat="51.510011" lon="-0.122869">
        <ele>24.6</ele>
        <time>2018-01-15T19:07:58Z</time>
      </trkpt>
      <trkpt lat="51.509952" lon="-0.122998">
        <ele>24.6</ele>
        <time>2018-01-15T19:07:59Z</time>
      </trkpt>
      <trkpt lat="51.509898" lon="-0.123129">
        <ele>24.6</ele>
        <time>2018-01-15T19:08:00Z</time>
      </trkpt>
      <trkpt lat="51.509839" lon="-0.12325">
        <ele>24.6</ele>
        <time>2018-01-15T19:08:01Z</time>
      </trkpt>
      <trkpt lat="51.509786" lon="-0.123374">
        <ele>24.6</ele>
        <time>2018-01-15T19:08:02Z</time>
      </trkpt>
      <trkpt lat="51.509727" lon="-0.123502">
        <ele>24.6</ele>
        <time>2018-01-15T19:08:03Z</time>
      </trkpt>
      <trkpt lat="51.509668" lon="-0.123628">
        <ele>24.6</ele>
        <time>2018-01-15T19:08:04Z</time>
      </trkpt>
      <trkpt lat="51.509609" lon="-0.123747">
        <ele>24.6</ele>
        <time>2018-01-15T19:08:05Z</time>
      </trkpt>
      <trkpt lat="51.509555" lon="-0.123872">
        <ele>24.6</ele>
        <time>2018-01-15T19:08:06Z</time>
      </trkpt>
      <trkpt lat="51.509491" lon="-0.123996">
        <ele>24.6</ele>
        <time>2018-01-15T19:08:07Z</time>
      </trkpt>
      <trkpt lat="51.509432" lon="-0.12412">
        <ele>24.6</ele>
        <time>2018-01-15T19:08:08Z</time>
      </trkpt>
      <trkpt lat="51.509373" lon="-0.12424">
        <ele>24.4</ele>
        <time>2018-01-15T19:08:09Z</time>
      </trkpt>
      <trkpt lat="51.509303" lon="-0.124367">
        <ele>24.4</ele>
        <time>2018-01-15T19:08:10Z</time>
      </trkpt>
      <trkpt lat="51.509244" lon="-0.124486">
        <ele>24.4</ele>
        <time>2018-01-15T19:08:11Z</time>
      </trkpt>
      <trkpt lat="51.509179" lon="-0.124611">
        <ele>24.4</ele>
        <time>2018-01-15T19:08:12Z</time>
      </trkpt>
      <trkpt lat="51.509115" lon="-0.124733">
        <ele>24.4</ele>
        <time>2018-01-15T19:08:13Z</time>
      </trkpt>
      <trkpt lat="51.509051" lon="-0.124862">
        <ele>24.4</ele>
        <time>2018-01-15T19:08:14Z</time>
      </trkpt>
      <trkpt lat="51.508992" lon="-0.124979">
        <ele>24.4</ele>
        <time>2018-01-15T19:08:15Z</time>
      </trkpt>
      <trkpt lat="51.508933" lon="-0.125101">
        <ele>24.4</ele>
        <time>2018-01-15T19:08:16Z</time>
      </trkpt>
      <trkpt lat="51.508874" lon="-0.125224">
        <ele>24.4</ele>
        <time>2018-01-15T19:08:17Z</time>
      </trkpt>
      <trkpt lat="51.508815" lon="-0.125345">
        <ele>24.4</ele>
        <time>2018-01-15T19:08:18Z</time>
      </trkpt>
      <trkpt lat="51.508756" lon="-0.125466">
        <ele>24.4</ele>
        <time>2018-01-15T19:08:19Z</time>
      </trkpt>
      <trkpt lat="51.508697" lon="-0.125583">
        <ele>24.4</ele>
        <time>2018-01-15T19:08:20Z</time>
      </trkpt>
      <trkpt lat="51.508643" lon="-0.1257">
        <ele>24.2</ele>
        <time>2018-01-15T19:08:21Z</time>
      </trkpt>
      <trkpt lat="51.508589" lon="-0.125826">
        <ele>24.2</ele>
        <time>2018-01-15T19:08:22Z</time>
      </trkpt>
      <trkpt lat="51.508568" lon="-0.125982">
        <ele>24.2</ele>
        <time>2018-01-15T19:08:23Z</time>
      </trkpt>
      <trkpt lat="51.508563" lon="-0.126138">
        <ele>24.2</ele>
        <time>2018-01-15T19:08:24Z</time>
      </trkpt>
      <trkpt lat="51.508568" lon="-0.126291">
        <ele>24.2</ele>
        <time>2018-01-15T19:08:25Z</time>
      </trkpt>
      <trkpt lat="51.508573" lon="-0.126441">
        <ele>24.4</ele>
        <time>2018-01-15T19:08:26Z</time>
      </trkpt>
      <trkpt lat="51.508579" lon="-0.126596">
        <ele>24.4</ele>
        <time>2018-01-15T19:08:27Z</time>
      </trkpt>
      <trkpt lat="51.508579" lon="-0.126748">
        <ele>24.4</ele>
        <time>2018-01-15T19:08:28Z</time>
      </trkpt>
      <trkpt lat="51.508579" lon="-0.126905">
        <ele>24.4</ele>
        <time>2018-01-15T19:08:29Z</time>
      </trkpt>
      <trkpt lat="51.508579" lon="-0.127058">
        <ele>24.6</ele>
        <time>2018-01-15T19:08:30Z</time>
      </trkpt>
      <trkpt lat="51.508563" lon="-0.127208">
        <ele>24.6</ele>
        <time>2018-01-15T19:08:31Z</time>
      </trkpt>
      <trkpt lat="51.508504" lon="-0.12733">
        <ele>24.6</ele>
        <time>2018-01-15T19:08:32Z</time>
      </trkpt>
      <trkpt lat="51.508407" lon="-0.127356">
        <ele>24.4</ele>
        <time>2018-01-15T19:08:33Z</time>
      </trkpt>
      <trkpt lat="51.508316" lon="-0.127338">
        <ele>24.4</ele>
        <time>2018-01-15T19:08:34Z</time>
      </trkpt>
      <trkpt lat="51.508214" lon="-0.127305">
        <ele>24.4</ele>
        <time>2018-01-15T19:08:35Z</time>
      </trkpt>
      <trkpt lat="51.508123" lon="-0.12727">
        <ele>24.4</ele>
        <time>2018-01-15T19:08:36Z</time>
      </trkpt>
      <trkpt lat="51.508026" lon="-0.127235">
        <ele>24.2</ele>
        <time>2018-01-15T19:08:37Z</time>
      </trkpt>
      <trkpt lat="51.50793" lon="-0.127202">
        <ele>24.2</ele>
        <time>2018-01-15T19:08:38Z</time>
      </trkpt>
      <trkpt lat="51.507838" lon="-0.1272">
        <ele>24.4</ele>
        <time>2018-01-15T19:08:39Z</time>
      </trkpt>
      <trkpt lat="51.507747" lon="-0.127251">
        <ele>24.4</ele>
        <time>2018-01-15T19:08:40Z</time>
      </trkpt>
      <trkpt lat="51.507683" lon="-0.127356">
        <ele>24.4</ele>
        <time>2018-01-15T19:08:41Z</time>
      </trkpt>
      <trkpt lat="51.50764" lon="-0.127478">
        <ele>24.4</ele>
        <time>2018-01-15T19:08:42Z</time>
      </trkpt>
      <trkpt lat="51.507602" lon="-0.127625">
        <ele>24.4</ele>
        <time>2018-01-15T19:08:43Z</time>
      </trkpt>
      <trkpt lat="51.507576" lon="-0.127769">
        <ele>24.4</ele>
        <time>2018-01-15T19:08:44Z</time>
      </trkpt>
      <trkpt lat="51.507522" lon="-0.127895">
        <ele>24.6</ele>
        <time>2018-01-15T19:08:45Z</time>
      </trkpt>
      <trkpt lat="51.507447" lon="-0.127994">
        <ele>24.6</ele>
        <time>2018-01-15T19:08:46Z</time>
      </trkpt>
      <trkpt lat="51.507361" lon="-0.128014">
        <ele>24.8</ele>
        <time>2018-01-15T19:08:47Z</time>
      </trkpt>
      <trkpt lat="51.50727" lon="-0.128017">
        <ele>24.8</ele>
        <time>2018-01-15T19:08:48Z</time>
      </trkpt>
      <trkpt lat="51.507179" lon="-0.128052">
        <ele>24.8</ele>
        <time>2018-01-15T19:08:49Z</time>
      </trkpt>
      <trkpt lat="51.507087" lon="-0.128109">
        <ele>24.6</ele>
        <time>2018-01-15T19:08:50Z</time>
      </trkpt>
      <trkpt lat="51.507002" lon="-0.12818">
        <ele>24.4</ele>
        <time>2018-01-15T19:08:51Z</time>
      </trkpt>
      <trkpt lat="51.506921" lon="-0.128265">
        <ele>24.4</ele>
        <time>2018-01-15T19:08:52Z</time>
      </trkpt>
      <trkpt lat="51.506846" lon="-0.128368">
        <ele>24.4</ele>
        <time>2018-01-15T19:08:53Z</time>
      </trkpt>
      <trkpt lat="51.506782" lon="-0.128489">
        <ele>24.4</ele>
        <time>2018-01-15T19:08:54Z</time>
      </trkpt>
      <trkpt lat="51.506723" lon="-0.128625">
        <ele>24.4</ele>
        <time>2018-01-15T19:08:55Z</time>
      </trkpt>
      <trkpt lat="51.506669" lon="-0.128758">
        <ele>24.4</ele>
        <time>2018-01-15T19:08:56Z</time>
      </trkpt>
      <trkpt lat="51.506621" lon="-0.128888">
        <ele>24.4</ele>
        <time>2018-01-15T19:08:57Z</time>
      </trkpt>
      <trkpt lat="51.506572" lon="-0.129025">
        <ele>24.4</ele>
        <time>2018-01-15T19:08:58Z</time>
      </trkpt>
      <trkpt lat="51.506519" lon="-0.129162">
        <ele>24.2</ele>
        <time>2018-01-15T19:08:59Z</time>
      </trkpt>
      <trkpt lat="51.506465" lon="-0.129302">
        <ele>24.2</ele>
        <time>2018-01-15T19:09:00Z</time>
      </trkpt>
      <trkpt lat="51.506411" lon="-0.129432">
        <ele>24.2</ele>
        <time>2018-01-15T19:09:01Z</time>
      </trkpt>
      <trkpt lat="51.506347" lon="-0.129573">
        <ele>24</ele>
        <time>2018-01-15T19:09:02Z</time>
      </trkpt>
      <trkpt lat="51.506293" lon="-0.129709">
        <ele>23.8</ele>
        <time>2018-01-15T19:09:03Z</time>
      </trkpt>
      <trkpt lat="51.506234" lon="-0.129852">
        <ele>23.6</ele>
        <time>2018-01-15T19:09:04Z</time>
      </trkpt>
      <trkpt lat="51.506181" lon="-0.129988">
        <ele>23.2</ele>
        <time>2018-01-15T19:09:05Z</time>
      </trkpt>
      <trkpt lat="51.506122" lon="-0.130131">
        <ele>22.8</ele>
        <time>2018-01-15T19:09:06Z</time>
      </trkpt>
      <trkpt lat="51.506068" lon="-0.130285">
        <ele>22.4</ele>
        <time>2018-01-15T19:09:07Z</time>
      </trkpt>
      <trkpt lat="51.506009" lon="-0.130434">
        <ele>22.2</ele>
        <time>2018-01-15T19:09:08Z</time>
      </trkpt>
      <trkpt lat="51.505945" lon="-0.130591">
        <ele>22</ele>
        <time>2018-01-15T19:09:09Z</time>
      </trkpt>
      <trkpt lat="51.505886" lon="-0.130755">
        <ele>21.6</ele>
        <time>2018-01-15T19:09:10Z</time>
      </trkpt>
      <trkpt lat="51.505821" lon="-0.130902">
        <ele>21.4</ele>
        <time>2018-01-15T19:09:11Z</time>
      </trkpt>
      <trkpt lat="51.505762" lon="-0.131056">
        <ele>21.2</ele>
        <time>2018-01-15T19:09:12Z</time>
      </trkpt>
      <trkpt lat="51.505698" lon="-0.131209">
        <ele>21</ele>
        <time>2018-01-15T19:09:13Z</time>
      </trkpt>
      <trkpt lat="51.505634" lon="-0.131367">
        <ele>20.8</ele>
        <time>2018-01-15T19:09:14Z</time>
      </trkpt>
      <trkpt lat="51.505569" lon="-0.131526">
        <ele>20.6</ele>
        <time>2018-01-15T19:09:15Z</time>
      </trkpt>
      <trkpt lat="51.505505" lon="-0.131672">
        <ele>20.4</ele>
        <time>2018-01-15T19:09:16Z</time>
      </trkpt>
      <trkpt lat="51.50544" lon="-0.131819">
        <ele>20.2</ele>
        <time>2018-01-15T19:09:17Z</time>
      </trkpt>
      <trkpt lat="51.505376" lon="-0.13197">
        <ele>20.2</ele>
        <time>2018-01-15T19:09:18Z</time>
      </trkpt>
      <trkpt lat="51.505312" lon="-0.132123">
        <ele>20</ele>
        <time>2018-01-15T19:09:19Z</time>
      </trkpt>
      <trkpt lat="51.505247" lon="-0.132276">
        <ele>19.8</ele>
        <time>2018-01-15T19:09:20Z</time>
      </trkpt>
      <trkpt lat="51.505178" lon="-0.132435">
        <ele>19.6</ele>
        <time>2018-01-15T19:09:21Z</time>
      </trkpt>
      <trkpt lat="51.505119" lon="-0.132591">
        <ele>19.4</ele>
        <time>2018-01-15T19:09:22Z</time>
      </trkpt>
      <trkpt lat="51.505049" lon="-0.132748">
        <ele>19.2</ele>
        <time>2018-01-15T19:09:23Z</time>
      </trkpt>
      <trkpt lat="51.504984" lon="-0.132904">
        <ele>19</ele>
        <time>2018-01-15T19:09:24Z</time>
      </trkpt>
      <trkpt lat="51.50492" lon="-0.13305">
        <ele>18.8</ele>
        <time>2018-01-15T19:09:25Z</time>
      </trkpt>
      <trkpt lat="51.504845" lon="-0.133207">
        <ele>18.6</ele>
        <time>2018-01-15T19:09:26Z</time>
      </trkpt>
      <trkpt lat="51.504781" lon="-0.133377">
        <ele>18.4</ele>
        <time>2018-01-15T19:09:27Z</time>
      </trkpt>
      <trkpt lat="51.504711" lon="-0.13354">
        <ele>18.2</ele>
        <time>2018-01-15T19:09:28Z</time>
      </trkpt>
      <trkpt lat="51.504641" lon="-0.133698">
        <ele>18</ele>
        <time>2018-01-15T19:09:29Z</time>
      </trkpt>
      <trkpt lat="51.504582" lon="-0.133859">
        <ele>18</ele>
        <time>2018-01-15T19:09:30Z</time>
      </trkpt>
      <trkpt lat="51.504512" lon="-0.134021">
        <ele>17.8</ele>
        <time>2018-01-15T19:09:31Z</time>
      </trkpt>
      <trkpt lat="51.504443" lon="-0.134193">
        <ele>17.6</ele>
        <time>2018-01-15T19:09:32Z</time>
      </trkpt>
      <trkpt lat="51.504378" lon="-0.134354">
        <ele>17.4</ele>
        <time>2018-01-15T19:09:33Z</time>
      </trkpt>
      <trkpt lat="51.504309" lon="-0.13452">
        <ele>17.2</ele>
        <time>2018-01-15T19:09:34Z</time>
      </trkpt>
      <trkpt lat="51.504233" lon="-0.134695">
        <ele>17</ele>
        <time>2018-01-15T19:09:35Z</time>
      </trkpt>
      <trkpt lat="51.504169" lon="-0.134859">
        <ele>16.8</ele>
        <time>2018-01-15T19:09:36Z</time>
      </trkpt>
      <trkpt lat="51.504099" lon="-0.135023">
        <ele>16.6</ele>
        <time>2018-01-15T19:09:37Z</time>
      </trkpt>
      <trkpt lat="51.504024" lon="-0.135196">
        <ele>16.4</ele>
        <time>2018-01-15T19:09:38Z</time>
      </trkpt>
      <trkpt lat="51.503955" lon="-0.135365">
        <ele>16.4</ele>
        <time>2018-01-15T19:09:39Z</time>
      </trkpt>
      <trkpt lat="51.503885" lon="-0.135532">
        <ele>16.2</ele>
        <time>2018-01-15T19:09:40Z</time>
      </trkpt>
      <trkpt lat="51.50381" lon="-0.135705">
        <ele>16</ele>
        <time>2018-01-15T19:09:41Z</time>
      </trkpt>
      <trkpt lat="51.50374" lon="-0.135878">
        <ele>15.8</ele>
        <time>2018-01-15T19:09:42Z</time>
      </trkpt>
      <trkpt lat="51.50367" lon="-0.136055">
        <ele>15.6</ele>
        <time>2018-01-15T19:09:43Z</time>
      </trkpt>
      <trkpt lat="51.5036" lon="-0.13623">
        <ele>15.4</ele>
        <time>2018-01-15T19:09:44Z</time>
      </trkpt>
      <trkpt lat="51.503531" lon="-0.136406">
        <ele>15.4</ele>
        <time>2018-01-15T19:09:45Z</time>
      </trkpt>
      <trkpt lat="51.503461" lon="-0.13657">
        <ele>15.2</ele>
        <time>2018-01-15T19:09:46Z</time>
      </trkpt>
      <trkpt lat="51.503391" lon="-0.136746">
        <ele>15</ele>
        <time>2018-01-15T19:09:47Z</time>
      </trkpt>
      <trkpt lat="51.503322" lon="-0.136922">
        <ele>14.8</ele>
        <time>2018-01-15T19:09:48Z</time>
      </trkpt>
      <trkpt lat="51.503252" lon="-0.137082">
        <ele>14.8</ele>
        <time>2018-01-15T19:09:49Z</time>
      </trkpt>
      <trkpt lat="51.503177" lon="-0.137255">
        <ele>14.6</ele>
        <time>2018-01-15T19:09:50Z</time>
      </trkpt>
      <trkpt lat="51.503112" lon="-0.137432">
        <ele>14.4</ele>
        <time>2018-01-15T19:09:51Z</time>
      </trkpt>
      <trkpt lat="51.503037" lon="-0.137608">
        <ele>14.2</ele>
        <time>2018-01-15T19:09:52Z</time>
      </trkpt>
      <trkpt lat="51.502967" lon="-0.137787">
        <ele>14</ele>
        <time>2018-01-15T19:09:53Z</time>
      </trkpt>
      <trkpt lat="51.502898" lon="-0.137957">
        <ele>14</ele>
        <time>2018-01-15T19:09:54Z</time>
      </trkpt>
      <trkpt lat="51.502823" lon="-0.13813">
        <ele>13.8</ele>
        <time>2018-01-15T19:09:55Z</time>
      </trkpt>
      <trkpt lat="51.502753" lon="-0.138291">
        <ele>13.6</ele>
        <time>2018-01-15T19:09:56Z</time>
      </trkpt>
      <trkpt lat="51.502689" lon="-0.138457">
        <ele>13.4</ele>
        <time>2018-01-15T19:09:57Z</time>
      </trkpt>
      <trkpt lat="51.502619" lon="-0.138629">
        <ele>13.4</ele>
        <time>2018-01-15T19:09:58Z</time>
      </trkpt>
      <trkpt lat="51.502554" lon="-0.138792">
        <ele>13.2</ele>
        <time>2018-01-15T19:09:59Z</time>
      </trkpt>
      <trkpt lat="51.50249" lon="-0.13896">
        <ele>13</ele>
        <time>2018-01-15T19:10:00Z</time>
      </trkpt>
      <trkpt lat="51.502426" lon="-0.13912">
        <ele>13</ele>
        <time>2018-01-15T19:10:01Z</time>
      </trkpt>
      <trkpt lat="51.502356" lon="-0.13928">
        <ele>12.8</ele>
        <time>2018-01-15T19:10:02Z</time>
      </trkpt>
      <trkpt lat="51.502286" lon="-0.139447">
        <ele>12.6</ele>
        <time>2018-01-15T19:10:03Z</time>
      </trkpt>
      <trkpt lat="51.502227" lon="-0.139607">
        <ele>12.6</ele>
        <time>2018-01-15T19:10:04Z</time>
      </trkpt>
      <trkpt lat="51.502179" lon="-0.139776">
        <ele>12.4</ele>
        <time>2018-01-15T19:10:05Z</time>
      </trkpt>
      <trkpt lat="51.502179" lon="-0.13996">
        <ele>12.4</ele>
        <time>2018-01-15T19:10:06Z</time>
      </trkpt>
      <trkpt lat="51.502216" lon="-0.140133">
        <ele>12.4</ele>
        <time>2018-01-15T19:10:07Z</time>
      </trkpt>
      <trkpt lat="51.502265" lon="-0.140295">
        <ele>12.4</ele>
        <time>2018-01-15T19:10:08Z</time>
      </trkpt>
      <trkpt lat="51.502292" lon="-0.140473">
        <ele>12.6</ele>
        <time>2018-01-15T19:10:09Z</time>
      </trkpt>
      <trkpt lat="51.502297" lon="-0.140644">
        <ele>12.6</ele>
        <time>2018-01-15T19:10:10Z</time>
      </trkpt>
      <trkpt lat="51.502302" lon="-0.140818">
        <ele>12.4</ele>
        <time>2018-01-15T19:10:11Z</time>
      </trkpt>
      <trkpt lat="51.502297" lon="-0.140995">
        <ele>12.4</ele>
        <time>2018-01-15T19:10:12Z</time>
      </trkpt>
      <trkpt lat="51.502292" lon="-0.141183">
        <ele>12.4</ele>
        <time>2018-01-15T19:10:13Z</time>
      </trkpt>
      <trkpt lat="51.502292" lon="-0.141362">
        <ele>12.4</ele>
        <time>2018-01-15T19:10:14Z</time>
      </trkpt>
      <trkpt lat="51.502292" lon="-0.141541">
        <ele>12.4</ele>
        <time>2018-01-15T19:10:15Z</time>
      </trkpt>
      <trkpt lat="51.502297" lon="-0.141722">
        <ele>12.4</ele>
        <time>2018-01-15T19:10:16Z</time>
      </trkpt>
      <trkpt lat="51.502302" lon="-0.141906">
        <ele>12.4</ele>
        <time>2018-01-15T19:10:17Z</time>
      </trkpt>
      <trkpt lat="51.502308" lon="-0.14209">
        <ele>12.2</ele>
        <time>2018-01-15T19:10:18Z</time>
      </trkpt>
      <trkpt lat="51.502308" lon="-0.142258">
        <ele>12</ele>
        <time>2018-01-15T19:10:19Z</time>
      </trkpt>
      <trkpt lat="51.502313" lon="-0.142445">
        <ele>11.8</ele>
        <time>2018-01-15T19:10:20Z</time>
      </trkpt>
      <trkpt lat="51.502324" lon="-0.142636">
        <ele>11.6</ele>
        <time>2018-01-15T19:10:21Z</time>
      </trkpt>
      <trkpt lat="51.502334" lon="-0.142818">
        <ele>11.6</ele>
        <time>2018-01-15T19:10:22Z</time>
      </trkpt>
      <trkpt lat="51.502334" lon="-0.143005">
        <ele>11.6</ele>
        <time>2018-01-15T19:10:23Z</time>
      </trkpt>
      <trkpt lat="51.502345" lon="-0.143186">
        <ele>11.8</ele>
        <time>2018-01-15T19:10:24Z</time>
      </trkpt>
      <trkpt lat="51.502356" lon="-0.143369">
        <ele>11.8</ele>
        <time>2018-01-15T19:10:25Z</time>
      </trkpt>
      <trkpt lat="51.502361" lon="-0.143546">
        <ele>12</ele>
        <time>2018-01-15T19:10:26Z</time>
      </trkpt>
      <trkpt lat="51.502372" lon="-0.143725">
        <ele>12</ele>
        <time>2018-01-15T19:10:27Z</time>
      </trkpt>
      <trkpt lat="51.502383" lon="-0.143899">
        <ele>12.2</ele>
        <time>2018-01-15T19:10:28Z</time>
      </trkpt>
      <trkpt lat="51.502388" lon="-0.144084">
        <ele>12.2</ele>
        <time>2018-01-15T19:10:29Z</time>
      </trkpt>
      <trkpt lat="51.502399" lon="-0.144253">
        <ele>12.4</ele>
        <time>2018-01-15T19:10:30Z</time>
      </trkpt>
      <trkpt lat="51.50241" lon="-0.144431">
        <ele>12.4</ele>
        <time>2018-01-15T19:10:31Z</time>
      </trkpt>
      <trkpt lat="51.502415" lon="-0.144612">
        <ele>12.6</ele>
        <time>2018-01-15T19:10:32Z</time>
      </trkpt>
      <trkpt lat="51.50242" lon="-0.144785">
        <ele>12.8</ele>
        <time>2018-01-15T19:10:33Z</time>
      </trkpt>
      <trkpt lat="51.502426" lon="-0.144953">
        <ele>12.8</ele>
        <time>2018-01-15T19:10:34Z</time>
      </trkpt>
      <trkpt lat="51.502431" lon="-0.145118">
        <ele>13</ele>
        <time>2018-01-15T19:10:35Z</time>
      </trkpt>
      <trkpt lat="51.502436" lon="-0.145296">
        <ele>13</ele>
        <time>2018-01-15T19:10:36Z</time>
      </trkpt>
      <trkpt lat="51.502442" lon="-0.145463">
        <ele>13.2</ele>
        <time>2018-01-15T19:10:37Z</time>
      </trkpt>
      <trkpt lat="51.502452" lon="-0.145625">
        <ele>13.4</ele>
        <time>2018-01-15T19:10:38Z</time>
      </trkpt>
      <trkpt lat="51.502452" lon="-0.145781">
        <ele>13.4</ele>
        <time>2018-01-15T19:10:39Z</time>
      </trkpt>
      <trkpt lat="51.502463" lon="-0.145947">
        <ele>13.6</ele>
        <time>2018-01-15T19:10:40Z</time>
      </trkpt>
      <trkpt lat="51.502463" lon="-0.146099">
        <ele>13.6</ele>
        <time>2018-01-15T19:10:41Z</time>
      </trkpt>
      <trkpt lat="51.502474" lon="-0.14625">
        <ele>13.8</ele>
        <time>2018-01-15T19:10:42Z</time>
      </trkpt>
      <trkpt lat="51.502479" lon="-0.146406">
        <ele>13.8</ele>
        <time>2018-01-15T19:10:43Z</time>
      </trkpt>
      <trkpt lat="51.50249" lon="-0.146559">
        <ele>14</ele>
        <time>2018-01-15T19:10:44Z</time>
      </trkpt>
      <trkpt lat="51.502495" lon="-0.146711">
        <ele>14</ele>
        <time>2018-01-15T19:10:45Z</time>
      </trkpt>
      <trkpt lat="51.502506" lon="-0.146862">
        <ele>14.2</ele>
        <time>2018-01-15T19:10:46Z</time>
      </trkpt>
      <trkpt lat="51.502506" lon="-0.147003">
        <ele>14.2</ele>
        <time>2018-01-15T19:10:47Z</time>
      </trkpt>
      <trkpt lat="51.502517" lon="-0.147157">
        <ele>14.4</ele>
        <time>2018-01-15T19:10:48Z</time>
      </trkpt>
      <trkpt lat="51.502522" lon="-0.147294">
        <ele>14.4</ele>
        <time>2018-01-15T19:10:49Z</time>
      </trkpt>
      <trkpt lat="51.502533" lon="-0.147444">
        <ele>14.6</ele>
        <time>2018-01-15T19:10:50Z</time>
      </trkpt>
      <trkpt lat="51.502533" lon="-0.147587">
        <ele>14.6</ele>
        <time>2018-01-15T19:10:51Z</time>
      </trkpt>
      <trkpt lat="51.502538" lon="-0.147724">
        <ele>14.8</ele>
        <time>2018-01-15T19:10:52Z</time>
      </trkpt>
      <trkpt lat="51.502544" lon="-0.14787">
        <ele>14.8</ele>
        <time>2018-01-15T19:10:53Z</time>
      </trkpt>
      <trkpt lat="51.502544" lon="-0.148011">
        <ele>15</ele>
        <time>2018-01-15T19:10:54Z</time>
      </trkpt>
      <trkpt lat="51.502544" lon="-0.148157">
        <ele>15</ele>
        <time>2018-01-15T19:10:55Z</time>
      </trkpt>
      <trkpt lat="51.502549" lon="-0.148306">
        <ele>15.2</ele>
        <time>2018-01-15T19:10:56Z</time>
      </trkpt>
      <trkpt lat="51.502554" lon="-0.148446">
        <ele>15.2</ele>
        <time>2018-01-15T19:10:57Z</time>
      </trkpt>
      <trkpt lat="51.502565" lon="-0.148592">
        <ele>15.4</ele>
        <time>2018-01-15T19:10:58Z</time>
      </trkpt>
      <trkpt lat="51.502571" lon="-0.148732">
        <ele>15.4</ele>
        <time>2018-01-15T19:10:59Z</time>
      </trkpt>
      <trkpt lat="51.502576" lon="-0.148873">
        <ele>15.6</ele>
        <time>2018-01-15T19:11:00Z</time>
      </trkpt>
      <trkpt lat="51.502581" lon="-0.149019">
        <ele>15.6</ele>
        <time>2018-01-15T19:11:01Z</time>
      </trkpt>
      <trkpt lat="51.502581" lon="-0.149158">
        <ele>15.6</ele>
        <time>2018-01-15T19:11:02Z</time>
      </trkpt>
      <trkpt lat="51.502581" lon="-0.149303">
        <ele>15.8</ele>
        <time>2018-01-15T19:11:03Z</time>
      </trkpt>
      <trkpt lat="51.502581" lon="-0.149447">
        <ele>15.8</ele>
        <time>2018-01-15T19:11:04Z</time>
      </trkpt>
      <trkpt lat="51.502571" lon="-0.149577">
        <ele>16</ele>
        <time>2018-01-15T19:11:05Z</time>
      </trkpt>
      <trkpt lat="51.502538" lon="-0.149689">
        <ele>16</ele>
        <time>2018-01-15T19:11:06Z</time>
      </trkpt>
      <trkpt lat="51.502469" lon="-0.149678">
        <ele>15.8</ele>
        <time>2018-01-15T19:11:07Z</time>
      </trkpt>
      <trkpt lat="51.502447" lon="-0.149558">
        <ele>15.6</ele>
        <time>2018-01-15T19:11:08Z</time>
      </trkpt>
      <trkpt lat="51.502431" lon="-0.149432">
        <ele>15.6</ele>
        <time>2018-01-15T19:11:09Z</time>
      </trkpt>
      <trkpt lat="51.502426" lon="-0.149298">
        <ele>15.6</ele>
        <time>2018-01-15T19:11:10Z</time>
      </trkpt>
      <trkpt lat="51.502426" lon="-0.149172">
        <ele>15.6</ele>
        <time>2018-01-15T19:11:11Z</time>
      </trkpt>
      <trkpt lat="51.502426" lon="-0.149031">
        <ele>15.4</ele>
        <time>2018-01-15T19:11:12Z</time>
      </trkpt>
      <trkpt lat="51.502426" lon="-0.148892">
        <ele>15.4</ele>
        <time>2018-01-15T19:11:13Z</time>
      </trkpt>
      <trkpt lat="51.502426" lon="-0.148759">
        <ele>15.4</ele>
        <time>2018-01-15T19:11:14Z</time>
      </trkpt>
      <trkpt lat="51.502431" lon="-0.148615">
        <ele>15.2</ele>
        <time>2018-01-15T19:11:15Z</time>
      </trkpt>
      <trkpt lat="51.502436" lon="-0.14848">
        <ele>15.2</ele>
        <time>2018-01-15T19:11:16Z</time>
      </trkpt>
      <trkpt lat="51.502436" lon="-0.148338">
        <ele>15.2</ele>
        <time>2018-01-15T19:11:17Z</time>
      </trkpt>
      <trkpt lat="51.502431" lon="-0.148188">
        <ele>15</ele>
        <time>2018-01-15T19:11:18Z</time>
      </trkpt>
      <trkpt lat="51.502436" lon="-0.148036">
        <ele>15</ele>
        <time>2018-01-15T19:11:19Z</time>
      </trkpt>
      <trkpt lat="51.502431" lon="-0.147888">
        <ele>14.8</ele>
        <time>2018-01-15T19:11:20Z</time>
      </trkpt>
      <trkpt lat="51.502431" lon="-0.147739">
        <ele>14.8</ele>
        <time>2018-01-15T19:11:21Z</time>
      </trkpt>
      <trkpt lat="51.502431" lon="-0.147579">
        <ele>14.6</ele>
        <time>2018-01-15T19:11:22Z</time>
      </trkpt>
      <trkpt lat="51.502426" lon="-0.147419">
        <ele>14.6</ele>
        <time>2018-01-15T19:11:23Z</time>
      </trkpt>
      <trkpt lat="51.502426" lon="-0.14727">
        <ele>14.4</ele>
        <time>2018-01-15T19:11:24Z</time>
      </trkpt>
      <trkpt lat="51.50242" lon="-0.147104">
        <ele>14.4</ele>
        <time>2018-01-15T19:11:25Z</time>
      </trkpt>
      <trkpt lat="51.50241" lon="-0.146951">
        <ele>14.2</ele>
        <time>2018-01-15T19:11:26Z</time>
      </trkpt>
      <trkpt lat="51.50241" lon="-0.146788">
        <ele>14.2</ele>
        <time>2018-01-15T19:11:27Z</time>
      </trkpt>
      <trkpt lat="51.502404" lon="-0.146628">
        <ele>14</ele>
        <time>2018-01-15T19:11:28Z</time>
      </trkpt>
      <trkpt lat="51.502399" lon="-0.146461">
        <ele>13.8</ele>
        <time>2018-01-15T19:11:29Z</time>
      </trkpt>
      <trkpt lat="51.502383" lon="-0.146298">
        <ele>13.8</ele>
        <time>2018-01-15T19:11:30Z</time>
      </trkpt>
      <trkpt lat="51.502383" lon="-0.146146">
        <ele>13.6</ele>
        <time>2018-01-15T19:11:31Z</time>
      </trkpt>
      <trkpt lat="51.502372" lon="-0.145981">
        <ele>13.6</ele>
        <time>2018-01-15T19:11:32Z</time>
      </trkpt>
      <trkpt lat="51.502367" lon="-0.145821">
        <ele>13.4</ele>
        <time>2018-01-15T19:11:33Z</time>
      </trkpt>
      <trkpt lat="51.502356" lon="-0.14565">
        <ele>13.4</ele>
        <time>2018-01-15T19:11:34Z</time>
      </trkpt>
      <trkpt lat="51.50234" lon="-0.145488">
        <ele>13.2</ele>
        <time>2018-01-15T19:11:35Z</time>
      </trkpt>
      <trkpt lat="51.502329" lon="-0.145327">
        <ele>13</ele>
        <time>2018-01-15T19:11:36Z</time>
      </trkpt>
      <trkpt lat="51.502318" lon="-0.145153">
        <ele>13</ele>
        <time>2018-01-15T19:11:37Z</time>
      </trkpt>
      <trkpt lat="51.502313" lon="-0.14499">
        <ele>12.8</ele>
        <time>2018-01-15T19:11:38Z</time>
      </trkpt>
      <trkpt lat="51.502308" lon="-0.144816">
        <ele>12.8</ele>
        <time>2018-01-15T19:11:39Z</time>
      </trkpt>
      <trkpt lat="51.502292" lon="-0.144645">
        <ele>12.6</ele>
        <time>2018-01-15T19:11:40Z</time>
      </trkpt>
      <trkpt lat="51.502286" lon="-0.144477">
        <ele>12.4</ele>
        <time>2018-01-15T19:11:41Z</time>
      </trkpt>
      <trkpt lat="51.502281" lon="-0.144298">
        <ele>12.4</ele>
        <time>2018-01-15T19:11:42Z</time>
      </trkpt>
      <trkpt lat="51.50227" lon="-0.144129">
        <ele>12.2</ele>
        <time>2018-01-15T19:11:43Z</time>
      </trkpt>
      <trkpt lat="51.502265" lon="-0.143943">
        <ele>12.2</ele>
        <time>2018-01-15T19:11:44Z</time>
      </trkpt>
      <trkpt lat="51.502254" lon="-0.143767">
        <ele>12</ele>
        <time>2018-01-15T19:11:45Z</time>
      </trkpt>
      <trkpt lat="51.502243" lon="-0.143597">
        <ele>12</ele>
        <time>2018-01-15T19:11:46Z</time>
      </trkpt>
      <trkpt lat="51.502238" lon="-0.143416">
        <ele>11.8</ele>
        <time>2018-01-15T19:11:47Z</time>
      </trkpt>
      <trkpt lat="51.502238" lon="-0.143235">
        <ele>11.8</ele>
        <time>2018-01-15T19:11:48Z</time>
      </trkpt>
      <trkpt lat="51.502233" lon="-0.14305">
        <ele>11.8</ele>
        <time>2018-01-15T19:11:49Z</time>
      </trkpt>
      <trkpt lat="51.502227" lon="-0.142868">
        <ele>11.6</ele>
        <time>2018-01-15T19:11:50Z</time>
      </trkpt>
      <trkpt lat="51.502216" lon="-0.142686">
        <ele>11.6</ele>
        <time>2018-01-15T19:11:51Z</time>
      </trkpt>
      <trkpt lat="51.502211" lon="-0.142513">
        <ele>11.8</ele>
        <time>2018-01-15T19:11:52Z</time>
      </trkpt>
      <trkpt lat="51.502211" lon="-0.142331">
        <ele>11.8</ele>
        <time>2018-01-15T19:11:53Z</time>
      </trkpt>
      <trkpt lat="51.502206" lon="-0.142161">
        <ele>12</ele>
        <time>2018-01-15T19:11:54Z</time>
      </trkpt>
      <trkpt lat="51.5022" lon="-0.141992">
        <ele>12.2</ele>
        <time>2018-01-15T19:11:55Z</time>
      </trkpt>
      <trkpt lat="51.502195" lon="-0.141815">
        <ele>12.4</ele>
        <time>2018-01-15T19:11:56Z</time>
      </trkpt>
      <trkpt lat="51.50219" lon="-0.141651">
        <ele>12.4</ele>
        <time>2018-01-15T19:11:57Z</time>
      </trkpt>
      <trkpt lat="51.502184" lon="-0.141488">
        <ele>12.4</ele>
        <time>2018-01-15T19:11:58Z</time>
      </trkpt>
      <trkpt lat="51.502179" lon="-0.141325">
        <ele>12.4</ele>
        <time>2018-01-15T19:11:59Z</time>
      </trkpt>
      <trkpt lat="51.502174" lon="-0.141173">
        <ele>12.4</ele>
        <time>2018-01-15T19:12:00Z</time>
      </trkpt>
      <trkpt lat="51.502179" lon="-0.14101">
        <ele>12.4</ele>
        <time>2018-01-15T19:12:01Z</time>
      </trkpt>
      <trkpt lat="51.502184" lon="-0.140859">
        <ele>12.4</ele>
        <time>2018-01-15T19:12:02Z</time>
      </trkpt>
      <trkpt lat="51.50219" lon="-0.140703">
        <ele>12.4</ele>
        <time>2018-01-15T19:12:03Z</time>
      </trkpt>
      <trkpt lat="51.502184" lon="-0.140551">
        <ele>12.4</ele>
        <time>2018-01-15T19:12:04Z</time>
      </trkpt>
      <trkpt lat="51.502163" lon="-0.140395">
        <ele>12.4</ele>
        <time>2018-01-15T19:12:05Z</time>
      </trkpt>
      <trkpt lat="51.502109" lon="-0.140262">
        <ele>12.2</ele>
        <time>2018-01-15T19:12:06Z</time>
      </trkpt>
      <trkpt lat="51.502045" lon="-0.140149">
        <ele>12.2</ele>
        <time>2018-01-15T19:12:07Z</time>
      </trkpt>
      <trkpt lat="51.501959" lon="-0.140064">
        <ele>12</ele>
        <time>2018-01-15T19:12:08Z</time>
      </trkpt>
      <trkpt lat="51.501857" lon="-0.140033">
        <ele>12</ele>
        <time>2018-01-15T19:12:09Z</time>
      </trkpt>
      <trkpt lat="51.50175" lon="-0.140035">
        <ele>12</ele>
        <time>2018-01-15T19:12:10Z</time>
      </trkpt>
      <trkpt lat="51.501648" lon="-0.140049">
        <ele>12</ele>
        <time>2018-01-15T19:12:11Z</time>
      </trkpt>
      <trkpt lat="51.501546" lon="-0.14006">
        <ele>12.2</ele>
        <time>2018-01-15T19:12:12Z</time>
      </trkpt>
      <trkpt lat="51.501444" lon="-0.14004">
        <ele>12.2</ele>
        <time>2018-01-15T19:12:13Z</time>
      </trkpt>
      <trkpt lat="51.501347" lon="-0.139966">
        <ele>12.2</ele>
        <time>2018-01-15T19:12:14Z</time>
      </trkpt>
      <trkpt lat="51.501267" lon="-0.139879">
        <ele>12.2</ele>
        <time>2018-01-15T19:12:15Z</time>
      </trkpt>
      <trkpt lat="51.501181" lon="-0.139785">
        <ele>12.4</ele>
        <time>2018-01-15T19:12:16Z</time>
      </trkpt>
      <trkpt lat="51.501095" lon="-0.139696">
        <ele>12.4</ele>
        <time>2018-01-15T19:12:17Z</time>
      </trkpt>
      <trkpt lat="51.501009" lon="-0.139609">
        <ele>12.4</ele>
        <time>2018-01-15T19:12:18Z</time>
      </trkpt>
      <trkpt lat="51.500929" lon="-0.13952">
        <ele>12.6</ele>
        <time>2018-01-15T19:12:19Z</time>
      </trkpt>
      <trkpt lat="51.500843" lon="-0.139429">
        <ele>12.6</ele>
        <time>2018-01-15T19:12:20Z</time>
      </trkpt>
      <trkpt lat="51.500752" lon="-0.139339">
        <ele>12.6</ele>
        <time>2018-01-15T19:12:21Z</time>
      </trkpt>
      <trkpt lat="51.500672" lon="-0.139252">
        <ele>12.8</ele>
        <time>2018-01-15T19:12:22Z</time>
      </trkpt>
      <trkpt lat="51.500591" lon="-0.139157">
        <ele>12.8</ele>
        <time>2018-01-15T19:12:23Z</time>
      </trkpt>
      <trkpt lat="51.500505" lon="-0.139049">
        <ele>12.8</ele>
        <time>2018-01-15T19:12:24Z</time>
      </trkpt>
      <trkpt lat="51.500457" lon="-0.138908">
        <ele>12.6</ele>
        <time>2018-01-15T19:12:25Z</time>
      </trkpt>
      <trkpt lat="51.500446" lon="-0.138747">
        <ele>12.4</ele>
        <time>2018-01-15T19:12:26Z</time>
      </trkpt>
      <trkpt lat="51.500462" lon="-0.138583">
        <ele>12.4</ele>
        <time>2018-01-15T19:12:27Z</time>
      </trkpt>
      <trkpt lat="51.500484" lon="-0.138425">
        <ele>12.4</ele>
        <time>2018-01-15T19:12:28Z</time>
      </trkpt>
      <trkpt lat="51.5005" lon="-0.138254">
        <ele>12.4</ele>
        <time>2018-01-15T19:12:29Z</time>
      </trkpt>
      <trkpt lat="51.500521" lon="-0.138098">
        <ele>12.4</ele>
        <time>2018-01-15T19:12:30Z</time>
      </trkpt>
      <trkpt lat="51.500537" lon="-0.137937">
        <ele>12.4</ele>
        <time>2018-01-15T19:12:31Z</time>
      </trkpt>
      <trkpt lat="51.500548" lon="-0.137774">
        <ele>12.4</ele>
        <time>2018-01-15T19:12:32Z</time>
      </trkpt>
      <trkpt lat="51.500564" lon="-0.137613">
        <ele>12.4</ele>
        <time>2018-01-15T19:12:33Z</time>
      </trkpt>
      <trkpt lat="51.500586" lon="-0.137455">
        <ele>12.4</ele>
        <time>2018-01-15T19:12:34Z</time>
      </trkpt>
      <trkpt lat="51.500602" lon="-0.137299">
        <ele>12.2</ele>
        <time>2018-01-15T19:12:35Z</time>
      </trkpt>
      <trkpt lat="51.500618" lon="-0.137133">
        <ele>12.2</ele>
        <time>2018-01-15T19:12:36Z</time>
      </trkpt>
      <trkpt lat="51.500634" lon="-0.136977">
        <ele>12.2</ele>
        <time>2018-01-15T19:12:37Z</time>
      </trkpt>
      <trkpt lat="51.500655" lon="-0.136818">
        <ele>12.2</ele>
        <time>2018-01-15T19:12:38Z</time>
      </trkpt>
      <trkpt lat="51.500666" lon="-0.136658">
        <ele>12.2</ele>
        <time>2018-01-15T19:12:39Z</time>
      </trkpt>
      <trkpt lat="51.500682" lon="-0.136499">
        <ele>12</ele>
        <time>2018-01-15T19:12:40Z</time>
      </trkpt>
      <trkpt lat="51.500698" lon="-0.136342">
        <ele>12</ele>
        <time>2018-01-15T19:12:41Z</time>
      </trkpt>
      <trkpt lat="51.500714" lon="-0.136184">
        <ele>12</ele>
        <time>2018-01-15T19:12:42Z</time>
      </trkpt>
      <trkpt lat="51.500731" lon="-0.136026">
        <ele>12</ele>
        <time>2018-01-15T19:12:43Z</time>
      </trkpt>
      <trkpt lat="51.500747" lon="-0.135876">
        <ele>12</ele>
        <time>2018-01-15T19:12:44Z</time>
      </trkpt>
      <trkpt lat="51.500763" lon="-0.135711">
        <ele>12</ele>
        <time>2018-01-15T19:12:45Z</time>
      </trkpt>
      <trkpt lat="51.500784" lon="-0.135556">
        <ele>12</ele>
        <time>2018-01-15T19:12:46Z</time>
      </trkpt>
      <trkpt lat="51.5008" lon="-0.135389">
        <ele>11.8</ele>
        <time>2018-01-15T19:12:47Z</time>
      </trkpt>
      <trkpt lat="51.500816" lon="-0.135232">
        <ele>11.8</ele>
        <time>2018-01-15T19:12:48Z</time>
      </trkpt>
      <trkpt lat="51.500832" lon="-0.135062">
        <ele>11.8</ele>
        <time>2018-01-15T19:12:49Z</time>
      </trkpt>
      <trkpt lat="51.500849" lon="-0.134901">
        <ele>11.8</ele>
        <time>2018-01-15T19:12:50Z</time>
      </trkpt>
      <trkpt lat="51.500859" lon="-0.134741">
        <ele>11.8</ele>
        <time>2018-01-15T19:12:51Z</time>
      </trkpt>
      <trkpt lat="51.500875" lon="-0.13458">
        <ele>11.8</ele>
        <time>2018-01-15T19:12:52Z</time>
      </trkpt>
      <trkpt lat="51.500891" lon="-0.134415">
        <ele>11.8</ele>
        <time>2018-01-15T19:12:53Z</time>
      </trkpt>
      <trkpt lat="51.500908" lon="-0.134254">
        <ele>11.8</ele>
        <time>2018-01-15T19:12:54Z</time>
      </trkpt>
      <trkpt lat="51.500918" lon="-0.134093">
        <ele>11.8</ele>
        <time>2018-01-15T19:12:55Z</time>
      </trkpt>
      <trkpt lat="51.500934" lon="-0.133934">
        <ele>12</ele>
        <time>2018-01-15T19:12:56Z</time>
      </trkpt>
      <trkpt lat="51.500945" lon="-0.13377">
        <ele>12</ele>
        <time>2018-01-15T19:12:57Z</time>
      </trkpt>
      <trkpt lat="51.500961" lon="-0.13362">
        <ele>12.2</ele>
        <time>2018-01-15T19:12:58Z</time>
      </trkpt>
      <trkpt lat="51.500972" lon="-0.13346">
        <ele>12.4</ele>
        <time>2018-01-15T19:12:59Z</time>
      </trkpt>
      <trkpt lat="51.500993" lon="-0.133304">
        <ele>12.6</ele>
        <time>2018-01-15T19:13:00Z</time>
      </trkpt>
      <trkpt lat="51.501009" lon="-0.13316">
        <ele>12.8</ele>
        <time>2018-01-15T19:13:01Z</time>
      </trkpt>
      <trkpt lat="51.501026" lon="-0.133008">
        <ele>13.2</ele>
        <time>2018-01-15T19:13:02Z</time>
      </trkpt>
      <trkpt lat="51.501042" lon="-0.132857">
        <ele>13.4</ele>
        <time>2018-01-15T19:13:03Z</time>
      </trkpt>
      <trkpt lat="51.501058" lon="-0.132719">
        <ele>13.6</ele>
        <time>2018-01-15T19:13:04Z</time>
      </trkpt>
      <trkpt lat="51.501074" lon="-0.132574">
        <ele>14</ele>
        <time>2018-01-15T19:13:05Z</time>
      </trkpt>
      <trkpt lat="51.50109" lon="-0.132434">
        <ele>14.2</ele>
        <time>2018-01-15T19:13:06Z</time>
      </trkpt>
      <trkpt lat="51.501101" lon="-0.132291">
        <ele>14.4</ele>
        <time>2018-01-15T19:13:07Z</time>
      </trkpt>
      <trkpt lat="51.501111" lon="-0.132158">
        <ele>14.8</ele>
        <time>2018-01-15T19:13:08Z</time>
      </trkpt>
      <trkpt lat="51.501122" lon="-0.132022">
        <ele>15</ele>
        <time>2018-01-15T19:13:09Z</time>
      </trkpt>
      <trkpt lat="51.501138" lon="-0.131889">
        <ele>15.2</ele>
        <time>2018-01-15T19:13:10Z</time>
      </trkpt>
      <trkpt lat="51.501154" lon="-0.131756">
        <ele>15.4</ele>
        <time>2018-01-15T19:13:11Z</time>
      </trkpt>
      <trkpt lat="51.501165" lon="-0.131626">
        <ele>15.6</ele>
        <time>2018-01-15T19:13:12Z</time>
      </trkpt>
      <trkpt lat="51.501181" lon="-0.131499">
        <ele>15.6</ele>
        <time>2018-01-15T19:13:13Z</time>
      </trkpt>
      <trkpt lat="51.501192" lon="-0.131371">
        <ele>15.6</ele>
        <time>2018-01-15T19:13:14Z</time>
      </trkpt>
      <trkpt lat="51.501208" lon="-0.131235">
        <ele>15.6</ele>
        <time>2018-01-15T19:13:15Z</time>
      </trkpt>
      <trkpt lat="51.501219" lon="-0.131094">
        <ele>15.6</ele>
        <time>2018-01-15T19:13:16Z</time>
      </trkpt>
      <trkpt lat="51.501235" lon="-0.130961">
        <ele>15.6</ele>
        <time>2018-01-15T19:13:17Z</time>
      </trkpt>
      <trkpt lat="51.501245" lon="-0.130823">
        <ele>15.6</ele>
        <time>2018-01-15T19:13:18Z</time>
      </trkpt>
      <trkpt lat="51.501262" lon="-0.130686">
        <ele>15.6</ele>
        <time>2018-01-15T19:13:19Z</time>
      </trkpt>
      <trkpt lat="51.501278" lon="-0.130542">
        <ele>15.8</ele>
        <time>2018-01-15T19:13:20Z</time>
      </trkpt>
      <trkpt lat="51.501288" lon="-0.130404">
        <ele>15.8</ele>
        <time>2018-01-15T19:13:21Z</time>
      </trkpt>
      <trkpt lat="51.501294" lon="-0.130261">
        <ele>15.8</ele>
        <time>2018-01-15T19:13:22Z</time>
      </trkpt>
      <trkpt lat="51.501288" lon="-0.130123">
        <ele>15.8</ele>
        <time>2018-01-15T19:13:23Z</time>
      </trkpt>
      <trkpt lat="51.501288" lon="-0.129975">
        <ele>15.8</ele>
        <time>2018-01-15T19:13:24Z</time>
      </trkpt>
      <trkpt lat="51.501283" lon="-0.129823">
        <ele>15.6</ele>
        <time>2018-01-15T19:13:25Z</time>
      </trkpt>
      <trkpt lat="51.501278" lon="-0.129675">
        <ele>15.6</ele>
        <time>2018-01-15T19:13:26Z</time>
      </trkpt>
      <trkpt lat="51.501262" lon="-0.129529">
        <ele>15.6</ele>
        <time>2018-01-15T19:13:27Z</time>
      </trkpt>
      <trkpt lat="51.501251" lon="-0.129374">
        <ele>15.6</ele>
        <time>2018-01-15T19:13:28Z</time>
      </trkpt>
      <trkpt lat="51.50124" lon="-0.129225">
        <ele>15.6</ele>
        <time>2018-01-15T19:13:29Z</time>
      </trkpt>
      <trkpt lat="51.501229" lon="-0.129072">
        <ele>15.8</ele>
        <time>2018-01-15T19:13:30Z</time>
      </trkpt>
      <trkpt lat="51.501219" lon="-0.128925">
        <ele>15.8</ele>
        <time>2018-01-15T19:13:31Z</time>
      </trkpt>
      <trkpt lat="51.501208" lon="-0.128776">
        <ele>15.8</ele>
        <time>2018-01-15T19:13:32Z</time>
      </trkpt>
      <trkpt lat="51.501197" lon="-0.128626">
        <ele>15.8</ele>
        <time>2018-01-15T19:13:33Z</time>
      </trkpt>
      <trkpt lat="51.501181" lon="-0.128474">
        <ele>15.8</ele>
        <time>2018-01-15T19:13:34Z</time>
      </trkpt>
      <trkpt lat="51.50117" lon="-0.128324">
        <ele>15.8</ele>
        <time>2018-01-15T19:13:35Z</time>
      </trkpt>
      <trkpt lat="51.50116" lon="-0.128173">
        <ele>15.8</ele>
        <time>2018-01-15T19:13:36Z</time>
      </trkpt>
      <trkpt lat="51.501144" lon="-0.128025">
        <ele>15.8</ele>
        <time>2018-01-15T19:13:37Z</time>
      </trkpt>
      <trkpt lat="51.501133" lon="-0.127872">
        <ele>15.8</ele>
        <time>2018-01-15T19:13:38Z</time>
      </trkpt>
      <trkpt lat="51.501117" lon="-0.127719">
        <ele>15.8</ele>
        <time>2018-01-15T19:13:39Z</time>
      </trkpt>
      <trkpt lat="51.501106" lon="-0.127568">
        <ele>15.8</ele>
        <time>2018-01-15T19:13:40Z</time>
      </trkpt>
      <trkpt lat="51.50109" lon="-0.127421">
        <ele>15.8</ele>
        <time>2018-01-15T19:13:41Z</time>
      </trkpt>
      <trkpt lat="51.501079" lon="-0.127261">
        <ele>15.8</ele>
        <time>2018-01-15T19:13:42Z</time>
      </trkpt>
      <trkpt lat="51.501068" lon="-0.127107">
        <ele>15.8</ele>
        <time>2018-01-15T19:13:43Z</time>
      </trkpt>
      <trkpt lat="51.501063" lon="-0.126952">
        <ele>15.8</ele>
        <time>2018-01-15T19:13:44Z</time>
      </trkpt>
      <trkpt lat="51.501063" lon="-0.126796">
        <ele>15.8</ele>
        <time>2018-01-15T19:13:45Z</time>
      </trkpt>
      <trkpt lat="51.501063" lon="-0.126643">
        <ele>16</ele>
        <time>2018-01-15T19:13:46Z</time>
      </trkpt>
      <trkpt lat="51.501063" lon="-0.126485">
        <ele>16.2</ele>
        <time>2018-01-15T19:13:47Z</time>
      </trkpt>
      <trkpt lat="51.501052" lon="-0.126329">
        <ele>16.2</ele>
        <time>2018-01-15T19:13:48Z</time>
      </trkpt>
      <trkpt lat="51.501004" lon="-0.1262">
        <ele>16.2</ele>
        <time>2018-01-15T19:13:49Z</time>
      </trkpt>
      <trkpt lat="51.500929" lon="-0.126111">
        <ele>16</ele>
        <time>2018-01-15T19:13:50Z</time>
      </trkpt>
      <trkpt lat="51.500838" lon="-0.126072">
        <ele>15.8</ele>
        <time>2018-01-15T19:13:51Z</time>
      </trkpt>
      <trkpt lat="51.500741" lon="-0.126068">
        <ele>15.6</ele>
        <time>2018-01-15T19:13:52Z</time>
      </trkpt>
      <trkpt lat="51.500645" lon="-0.126077">
        <ele>15.2</ele>
        <time>2018-01-15T19:13:53Z</time>
      </trkpt>
      <trkpt lat="51.500537" lon="-0.126086">
        <ele>15</ele>
        <time>2018-01-15T19:13:54Z</time>
      </trkpt>
      <trkpt lat="51.500435" lon="-0.126091">
        <ele>15</ele>
        <time>2018-01-15T19:13:55Z</time>
      </trkpt>
      <trkpt lat="51.500334" lon="-0.126095">
        <ele>14.8</ele>
        <time>2018-01-15T19:13:56Z</time>
      </trkpt>
      <trkpt lat="51.500232" lon="-0.1261">
        <ele>14.8</ele>
        <time>2018-01-15T19:13:57Z</time>
      </trkpt>
      <trkpt lat="51.50013" lon="-0.126104">
        <ele>14.8</ele>
        <time>2018-01-15T19:13:58Z</time>
      </trkpt>
      <trkpt lat="51.500022" lon="-0.126116">
        <ele>14.8</ele>
        <time>2018-01-15T19:13:59Z</time>
      </trkpt>
      <trkpt lat="51.49992" lon="-0.126126">
        <ele>14.8</ele>
        <time>2018-01-15T19:14:00Z</time>
      </trkpt>
      <trkpt lat="51.499813" lon="-0.126133">
        <ele>15</ele>
        <time>2018-01-15T19:14:01Z</time>
      </trkpt>
      <trkpt lat="51.499717" lon="-0.126141">
        <ele>15.2</ele>
        <time>2018-01-15T19:14:02Z</time>
      </trkpt>
      <trkpt lat="51.499615" lon="-0.126147">
        <ele>15.2</ele>
        <time>2018-01-15T19:14:03Z</time>
      </trkpt>
      <trkpt lat="51.499507" lon="-0.126142">
        <ele>15.4</ele>
        <time>2018-01-15T19:14:04Z</time>
      </trkpt>
      <trkpt lat="51.499416" lon="-0.126127">
        <ele>15.4</ele>
        <time>2018-01-15T19:14:05Z</time>
      </trkpt>
      <trkpt lat="51.49932" lon="-0.126105">
        <ele>15.4</ele>
        <time>2018-01-15T19:14:06Z</time>
      </trkpt>
      <trkpt lat="51.499223" lon="-0.126073">
        <ele>15.2</ele>
        <time>2018-01-15T19:14:07Z</time>
      </trkpt>
      <trkpt lat="51.499121" lon="-0.126036">
        <ele>15.2</ele>
        <time>2018-01-15T19:14:08Z</time>
      </trkpt>
      <trkpt lat="51.499019" lon="-0.125999">
        <ele>15</ele>
        <time>2018-01-15T19:14:09Z</time>
      </trkpt>
      <trkpt lat="51.498928" lon="-0.125959">
        <ele>14.8</ele>
        <time>2018-01-15T19:14:10Z</time>
      </trkpt>
      <trkpt lat="51.498826" lon="-0.125912">
        <ele>14.8</ele>
        <time>2018-01-15T19:14:11Z</time>
      </trkpt>
      <trkpt lat="51.49873" lon="-0.125871">
        <ele>14.6</ele>
        <time>2018-01-15T19:14:12Z</time>
      </trkpt>
      <trkpt lat="51.498628" lon="-0.125834">
        <ele>14.4</ele>
        <time>2018-01-15T19:14:13Z</time>
      </trkpt>
      <trkpt lat="51.498526" lon="-0.125789">
        <ele>14.2</ele>
        <time>2018-01-15T19:14:14Z</time>
      </trkpt>
      <trkpt lat="51.498424" lon="-0.12576">
        <ele>14</ele>
        <time>2018-01-15T19:14:15Z</time>
      </trkpt>
      <trkpt lat="51.498327" lon="-0.125735">
        <ele>14</ele>
        <time>2018-01-15T19:14:16Z</time>
      </trkpt>
      <trkpt lat="51.498225" lon="-0.125715">
        <ele>14</ele>
        <time>2018-01-15T19:14:17Z</time>
      </trkpt>
      <trkpt lat="51.498118" lon="-0.125707">
        <ele>14.2</ele>
        <time>2018-01-15T19:14:18Z</time>
      </trkpt>
      <trkpt lat="51.498027" lon="-0.1257">
        <ele>14.2</ele>
        <time>2018-01-15T19:14:19Z</time>
      </trkpt>
      <trkpt lat="51.497925" lon="-0.125694">
        <ele>14.2</ele>
        <time>2018-01-15T19:14:20Z</time>
      </trkpt>
      <trkpt lat="51.497828" lon="-0.125688">
        <ele>14.4</ele>
        <time>2018-01-15T19:14:21Z</time>
      </trkpt>
      <trkpt lat="51.497726" lon="-0.125677">
        <ele>14.4</ele>
        <time>2018-01-15T19:14:22Z</time>
      </trkpt>
      <trkpt lat="51.497625" lon="-0.125672">
        <ele>14.2</ele>
        <time>2018-01-15T19:14:23Z</time>
      </trkpt>
      <trkpt lat="51.497528" lon="-0.12567">
        <ele>14</ele>
        <time>2018-01-15T19:14:24Z</time>
      </trkpt>
      <trkpt lat="51.497426" lon="-0.125661">
        <ele>14</ele>
        <time>2018-01-15T19:14:25Z</time>
      </trkpt>
      <trkpt lat="51.497319" lon="-0.125648">
        <ele>14.2</ele>
        <time>2018-01-15T19:14:26Z</time>
      </trkpt>
      <trkpt lat="51.497222" lon="-0.125633">
        <ele>14.2</ele>
        <time>2018-01-15T19:14:27Z</time>
      </trkpt>
      <trkpt lat="51.497115" lon="-0.125613">
        <ele>14.4</ele>
        <time>2018-01-15T19:14:28Z</time>
      </trkpt>
      <trkpt lat="51.497018" lon="-0.125597">
        <ele>14.6</ele>
        <time>2018-01-15T19:14:29Z</time>
      </trkpt>
      <trkpt lat="51.496916" lon="-0.125585">
        <ele>14.6</ele>
        <time>2018-01-15T19:14:30Z</time>
      </trkpt>
      <trkpt lat="51.49682" lon="-0.125572">
        <ele>14.8</ele>
        <time>2018-01-15T19:14:31Z</time>
      </trkpt>
      <trkpt lat="51.496718" lon="-0.125555">
        <ele>15</ele>
        <time>2018-01-15T19:14:32Z</time>
      </trkpt>
      <trkpt lat="51.496627" lon="-0.125535">
        <ele>15</ele>
        <time>2018-01-15T19:14:33Z</time>
      </trkpt>
      <trkpt lat="51.496525" lon="-0.125521">
        <ele>15.2</ele>
        <time>2018-01-15T19:14:34Z</time>
      </trkpt>
      <trkpt lat="51.496434" lon="-0.125498">
        <ele>15.2</ele>
        <time>2018-01-15T19:14:35Z</time>
      </trkpt>
      <trkpt lat="51.496337" lon="-0.125475">
        <ele>15.4</ele>
        <time>2018-01-15T19:14:36Z</time>
      </trkpt>
      <trkpt lat="51.496246" lon="-0.125454">
        <ele>15.6</ele>
        <time>2018-01-15T19:14:37Z</time>
      </trkpt>
      <trkpt lat="51.496155" lon="-0.125431">
        <ele>15.6</ele>
        <time>2018-01-15T19:14:38Z</time>
      </trkpt>
      <trkpt lat="51.496047" lon="-0.12541">
        <ele>15.6</ele>
        <time>2018-01-15T19:14:39Z</time>
      </trkpt>
      <trkpt lat="51.495951" lon="-0.125382">
        <ele>15.6</ele>
        <time>2018-01-15T19:14:40Z</time>
      </trkpt>
      <trkpt lat="51.49586" lon="-0.125359">
        <ele>15.6</ele>
        <time>2018-01-15T19:14:41Z</time>
      </trkpt>
      <trkpt lat="51.495758" lon="-0.125333">
        <ele>15.6</ele>
        <time>2018-01-15T19:14:42Z</time>
      </trkpt>
      <trkpt lat="51.495667" lon="-0.125302">
        <ele>15.6</ele>
        <time>2018-01-15T19:14:43Z</time>
      </trkpt>
      <trkpt lat="51.49557" lon="-0.125281">
        <ele>15.6</ele>
        <time>2018-01-15T19:14:44Z</time>
      </trkpt>
      <trkpt lat="51.495473" lon="-0.125256">
        <ele>15.4</ele>
        <time>2018-01-15T19:14:45Z</time>
      </trkpt>
      <trkpt lat="51.495366" lon="-0.125227">
        <ele>15.4</ele>
        <time>2018-01-15T19:14:46Z</time>
      </trkpt>
      <trkpt lat="51.49527" lon="-0.125217">
        <ele>15.4</ele>
        <time>2018-01-15T19:14:47Z</time>
      </trkpt>
      <trkpt lat="51.495168" lon="-0.125209">
        <ele>15.4</ele>
        <time>2018-01-15T19:14:48Z</time>
      </trkpt>
      <trkpt lat="51.49506" lon="-0.125201">
        <ele>15.4</ele>
        <time>2018-01-15T19:14:49Z</time>
      </trkpt>
      <trkpt lat="51.494964" lon="-0.125184">
        <ele>15.4</ele>
        <time>2018-01-15T19:14:50Z</time>
      </trkpt>
      <trkpt lat="51.494867" lon="-0.125161">
        <ele>15.4</ele>
        <time>2018-01-15T19:14:51Z</time>
      </trkpt>
      <trkpt lat="51.494771" lon="-0.125153">
        <ele>15.4</ele>
        <time>2018-01-15T19:14:52Z</time>
      </trkpt>
      <trkpt lat="51.494674" lon="-0.125146">
        <ele>15.4</ele>
        <time>2018-01-15T19:14:53Z</time>
      </trkpt>
      <trkpt lat="51.494578" lon="-0.125128">
        <ele>15.4</ele>
        <time>2018-01-15T19:14:54Z</time>
      </trkpt>
      <trkpt lat="51.494476" lon="-0.12512">
        <ele>15.4</ele>
        <time>2018-01-15T19:14:55Z</time>
      </trkpt>
      <trkpt lat="51.494384" lon="-0.125112">
        <ele>15.4</ele>
        <time>2018-01-15T19:14:56Z</time>
      </trkpt>
      <trkpt lat="51.494282" lon="-0.125113">
        <ele>15.4</ele>
        <time>2018-01-15T19:14:57Z</time>
      </trkpt>
      <trkpt lat="51.494191" lon="-0.125115">
        <ele>15.6</ele>
        <time>2018-01-15T19:14:58Z</time>
      </trkpt>
      <trkpt lat="51.494095" lon="-0.125106">
        <ele>15.4</ele>
        <time>2018-01-15T19:14:59Z</time>
      </trkpt>
      <trkpt lat="51.493993" lon="-0.125101">
        <ele>15.2</ele>
        <time>2018-01-15T19:15:00Z</time>
      </trkpt>
      <trkpt lat="51.493896" lon="-0.125096">
        <ele>15</ele>
        <time>2018-01-15T19:15:01Z</time>
      </trkpt>
      <trkpt lat="51.493789" lon="-0.125087">
        <ele>14.8</ele>
        <time>2018-01-15T19:15:02Z</time>
      </trkpt>
      <trkpt lat="51.493682" lon="-0.125079">
        <ele>14.8</ele>
        <time>2018-01-15T19:15:03Z</time>
      </trkpt>
      <trkpt lat="51.49358" lon="-0.125074">
        <ele>14.6</ele>
        <time>2018-01-15T19:15:04Z</time>
      </trkpt>
      <trkpt lat="51.493472" lon="-0.125072">
        <ele>14.4</ele>
        <time>2018-01-15T19:15:05Z</time>
      </trkpt>
      <trkpt lat="51.49336" lon="-0.125071">
        <ele>14.2</ele>
        <time>2018-01-15T19:15:06Z</time>
      </trkpt>
      <trkpt lat="51.493247" lon="-0.12507">
        <ele>14.2</ele>
        <time>2018-01-15T19:15:07Z</time>
      </trkpt>
      <trkpt lat="51.49314" lon="-0.12507">
        <ele>14</ele>
        <time>2018-01-15T19:15:08Z</time>
      </trkpt>
      <trkpt lat="51.493027" lon="-0.125069">
        <ele>13.8</ele>
        <time>2018-01-15T19:15:09Z</time>
      </trkpt>
      <trkpt lat="51.49292" lon="-0.125072">
        <ele>13.8</ele>
        <time>2018-01-15T19:15:10Z</time>
      </trkpt>
      <trkpt lat="51.492813" lon="-0.125078">
        <ele>13.6</ele>
        <time>2018-01-15T19:15:11Z</time>
      </trkpt>
      <trkpt lat="51.492705" lon="-0.125091">
        <ele>13.6</ele>
        <time>2018-01-15T19:15:12Z</time>
      </trkpt>
      <trkpt lat="51.492593" lon="-0.125105">
        <ele>13.4</ele>
        <time>2018-01-15T19:15:13Z</time>
      </trkpt>
      <trkpt lat="51.49248" lon="-0.125128">
        <ele>13.2</ele>
        <time>2018-01-15T19:15:14Z</time>
      </trkpt>
      <trkpt lat="51.492373" lon="-0.125155">
        <ele>13.2</ele>
        <time>2018-01-15T19:15:15Z</time>
      </trkpt>
      <trkpt lat="51.49226" lon="-0.12519">
        <ele>13</ele>
        <time>2018-01-15T19:15:16Z</time>
      </trkpt>
      <trkpt lat="51.492153" lon="-0.125233">
        <ele>12.8</ele>
        <time>2018-01-15T19:15:17Z</time>
      </trkpt>
      <trkpt lat="51.492046" lon="-0.125282">
        <ele>12.8</ele>
        <time>2018-01-15T19:15:18Z</time>
      </trkpt>
      <trkpt lat="51.491938" lon="-0.125341">
        <ele>12.6</ele>
        <time>2018-01-15T19:15:19Z</time>
      </trkpt>
      <trkpt lat="51.491836" lon="-0.125414">
        <ele>12.6</ele>
        <time>2018-01-15T19:15:20Z</time>
      </trkpt>
      <trkpt lat="51.49174" lon="-0.125493">
        <ele>12.6</ele>
        <time>2018-01-15T19:15:21Z</time>
      </trkpt>
      <trkpt lat="51.491638" lon="-0.125587">
        <ele>12.6</ele>
        <time>2018-01-15T19:15:22Z</time>
      </trkpt>
      <trkpt lat="51.491547" lon="-0.125671">
        <ele>12.6</ele>
        <time>2018-01-15T19:15:23Z</time>
      </trkpt>
      <trkpt lat="51.49145" lon="-0.125766">
        <ele>12.4</ele>
        <time>2018-01-15T19:15:24Z</time>
      </trkpt>
      <trkpt lat="51.491359" lon="-0.125846">
        <ele>12.4</ele>
        <time>2018-01-15T19:15:25Z</time>
      </trkpt>
      <trkpt lat="51.491268" lon="-0.125926">
        <ele>12.4</ele>
        <time>2018-01-15T19:15:26Z</time>
      </trkpt>
      <trkpt lat="51.491171" lon="-0.126009">
        <ele>12.4</ele>
        <time>2018-01-15T19:15:27Z</time>
      </trkpt>
      <trkpt lat="51.49108" lon="-0.126091">
        <ele>12.4</ele>
        <time>2018-01-15T19:15:28Z</time>
      </trkpt>
      <trkpt lat="51.490978" lon="-0.126179">
        <ele>12.4</ele>
        <time>2018-01-15T19:15:29Z</time>
      </trkpt>
      <trkpt lat="51.490887" lon="-0.126262">
        <ele>12.4</ele>
        <time>2018-01-15T19:15:30Z</time>
      </trkpt>
      <trkpt lat="51.49079" lon="-0.12635">
        <ele>12.4</ele>
        <time>2018-01-15T19:15:31Z</time>
      </trkpt>
      <trkpt lat="51.490699" lon="-0.126433">
        <ele>12.4</ele>
        <time>2018-01-15T19:15:32Z</time>
      </trkpt>
      <trkpt lat="51.490597" lon="-0.126513">
        <ele>12.4</ele>
        <time>2018-01-15T19:15:33Z</time>
      </trkpt>
      <trkpt lat="51.490501" lon="-0.126591">
        <ele>12.4</ele>
        <time>2018-01-15T19:15:34Z</time>
      </trkpt>
      <trkpt lat="51.490404" lon="-0.126671">
        <ele>12.4</ele>
        <time>2018-01-15T19:15:35Z</time>
      </trkpt>
      <trkpt lat="51.490313" lon="-0.126748">
        <ele>12.4</ele>
        <time>2018-01-15T19:15:36Z</time>
      </trkpt>
      <trkpt lat="51.490211" lon="-0.126831">
        <ele>12.4</ele>
        <time>2018-01-15T19:15:37Z</time>
      </trkpt>
      <trkpt lat="51.490125" lon="-0.126906">
        <ele>12.4</ele>
        <time>2018-01-15T19:15:38Z</time>
      </trkpt>
      <trkpt lat="51.490029" lon="-0.126993">
        <ele>12.4</ele>
        <time>2018-01-15T19:15:39Z</time>
      </trkpt>
      <trkpt lat="51.489937" lon="-0.127085">
        <ele>12.4</ele>
        <time>2018-01-15T19:15:40Z</time>
      </trkpt>
      <trkpt lat="51.489857" lon="-0.127181">
        <ele>12.4</ele>
        <time>2018-01-15T19:15:41Z</time>
      </trkpt>
      <trkpt lat="51.489776" lon="-0.127296">
        <ele>12.4</ele>
        <time>2018-01-15T19:15:42Z</time>
      </trkpt>
      <trkpt lat="51.489696" lon="-0.127415">
        <ele>12.4</ele>
        <time>2018-01-15T19:15:43Z</time>
      </trkpt>
      <trkpt lat="51.489621" lon="-0.127541">
        <ele>12.4</ele>
        <time>2018-01-15T19:15:44Z</time>
      </trkpt>
      <trkpt lat="51.489556" lon="-0.127664">
        <ele>12.4</ele>
        <time>2018-01-15T19:15:45Z</time>
      </trkpt>
      <trkpt lat="51.489487" lon="-0.127793">
        <ele>12.4</ele>
        <time>2018-01-15T19:15:46Z</time>
      </trkpt>
      <trkpt lat="51.489417" lon="-0.127925">
        <ele>12.4</ele>
        <time>2018-01-15T19:15:47Z</time>
      </trkpt>
      <trkpt lat="51.489363" lon="-0.128053">
        <ele>12.4</ele>
        <time>2018-01-15T19:15:48Z</time>
      </trkpt>
      <trkpt lat="51.489299" lon="-0.128193">
        <ele>12.4</ele>
        <time>2018-01-15T19:15:49Z</time>
      </trkpt>
      <trkpt lat="51.489245" lon="-0.128336">
        <ele>12.4</ele>
        <time>2018-01-15T19:15:50Z</time>
      </trkpt>
      <trkpt lat="51.489186" lon="-0.128479">
        <ele>12.4</ele>
        <time>2018-01-15T19:15:51Z</time>
      </trkpt>
      <trkpt lat="51.489138" lon="-0.128608">
        <ele>12.4</ele>
        <time>2018-01-15T19:15:52Z</time>
      </trkpt>
      <trkpt lat="51.489084" lon="-0.128746">
        <ele>12.4</ele>
        <time>2018-01-15T19:15:53Z</time>
      </trkpt>
      <trkpt lat="51.489025" lon="-0.128885">
        <ele>12.4</ele>
        <time>2018-01-15T19:15:54Z</time>
      </trkpt>
      <trkpt lat="51.488972" lon="-0.129011">
        <ele>12.4</ele>
        <time>2018-01-15T19:15:55Z</time>
      </trkpt>
      <trkpt lat="51.488907" lon="-0.129142">
        <ele>12.4</ele>
        <time>2018-01-15T19:15:56Z</time>
      </trkpt>
      <trkpt lat="51.488843" lon="-0.129261">
        <ele>12.4</ele>
        <time>2018-01-15T19:15:57Z</time>
      </trkpt>
      <trkpt lat="51.488773" lon="-0.129381">
        <ele>12.4</ele>
        <time>2018-01-15T19:15:58Z</time>
      </trkpt>
      <trkpt lat="51.488703" lon="-0.129493">
        <ele>12.4</ele>
        <time>2018-01-15T19:15:59Z</time>
      </trkpt>
      <trkpt lat="51.488639" lon="-0.129602">
        <ele>12.4</ele>
        <time>2018-01-15T19:16:00Z</time>
      </trkpt>
      <trkpt lat="51.488559" lon="-0.129716">
        <ele>12.4</ele>
        <time>2018-01-15T19:16:01Z</time>
      </trkpt>
      <trkpt lat="51.488489" lon="-0.129814">
        <ele>12.4</ele>
        <time>2018-01-15T19:16:02Z</time>
      </trkpt>
      <trkpt lat="51.488403" lon="-0.129904">
        <ele>12.4</ele>
        <time>2018-01-15T19:16:03Z</time>
      </trkpt>
      <trkpt lat="51.488317" lon="-0.129986">
        <ele>12.4</ele>
        <time>2018-01-15T19:16:04Z</time>
      </trkpt>
      <trkpt lat="51.488226" lon="-0.130073">
        <ele>12.4</ele>
        <time>2018-01-15T19:16:05Z</time>
      </trkpt>
      <trkpt lat="51.488135" lon="-0.130154">
        <ele>12.4</ele>
        <time>2018-01-15T19:16:06Z</time>
      </trkpt>
      <trkpt lat="51.488049" lon="-0.130234">
        <ele>12.4</ele>
        <time>2018-01-15T19:16:07Z</time>
      </trkpt>
      <trkpt lat="51.487963" lon="-0.130316">
        <ele>12.4</ele>
        <time>2018-01-15T19:16:08Z</time>
      </trkpt>
      <trkpt lat="51.487872" lon="-0.130389">
        <ele>12.4</ele>
        <time>2018-01-15T19:16:09Z</time>
      </trkpt>
      <trkpt lat="51.48777" lon="-0.130461">
        <ele>12.4</ele>
        <time>2018-01-15T19:16:10Z</time>
      </trkpt>
      <trkpt lat="51.487679" lon="-0.130519">
        <ele>12.4</ele>
        <time>2018-01-15T19:16:11Z</time>
      </trkpt>
      <trkpt lat="51.487582" lon="-0.130578">
        <ele>12.4</ele>
        <time>2018-01-15T19:16:12Z</time>
      </trkpt>
      <trkpt lat="51.487486" lon="-0.130637">
        <ele>12.2</ele>
        <time>2018-01-15T19:16:13Z</time>
      </trkpt>
      <trkpt lat="51.487384" lon="-0.130701">
        <ele>12.2</ele>
        <time>2018-01-15T19:16:14Z</time>
      </trkpt>
      <trkpt lat="51.487293" lon="-0.130755">
        <ele>12.2</ele>
        <time>2018-01-15T19:16:15Z</time>
      </trkpt>
      <trkpt lat="51.487196" lon="-0.130807">
        <ele>12.2</ele>
        <time>2018-01-15T19:16:16Z</time>
      </trkpt>
      <trkpt lat="51.487094" lon="-0.130868">
        <ele>12.2</ele>
        <time>2018-01-15T19:16:17Z</time>
      </trkpt>
      <trkpt lat="51.486992" lon="-0.130941">
        <ele>12.2</ele>
        <time>2018-01-15T19:16:18Z</time>
      </trkpt>
      <trkpt lat="51.486901" lon="-0.13101">
        <ele>12.2</ele>
        <time>2018-01-15T19:16:19Z</time>
      </trkpt>
      <trkpt lat="51.486804" lon="-0.131087">
        <ele>12.2</ele>
        <time>2018-01-15T19:16:20Z</time>
      </trkpt>
      <trkpt lat="51.486719" lon="-0.131168">
        <ele>12.2</ele>
        <time>2018-01-15T19:16:21Z</time>
      </trkpt>
      <trkpt lat="51.486633" lon="-0.131266">
        <ele>12.2</ele>
        <time>2018-01-15T19:16:22Z</time>
      </trkpt>
      <trkpt lat="51.486552" lon="-0.131382">
        <ele>12.2</ele>
        <time>2018-01-15T19:16:23Z</time>
      </trkpt>
      <trkpt lat="51.486483" lon="-0.131509">
        <ele>12.2</ele>
        <time>2018-01-15T19:16:24Z</time>
      </trkpt>
      <trkpt lat="51.486418" lon="-0.131641">
        <ele>12.2</ele>
        <time>2018-01-15T19:16:25Z</time>
      </trkpt>
      <trkpt lat="51.486354" lon="-0.131777">
        <ele>12.2</ele>
        <time>2018-01-15T19:16:26Z</time>
      </trkpt>
      <trkpt lat="51.4863" lon="-0.131927">
        <ele>12.2</ele>
        <time>2018-01-15T19:16:27Z</time>
      </trkpt>
      <trkpt lat="51.486257" lon="-0.132072">
        <ele>12.2</ele>
        <time>2018-01-15T19:16:28Z</time>
      </trkpt>
      <trkpt lat="51.486214" lon="-0.132219">
        <ele>12.2</ele>
        <time>2018-01-15T19:16:29Z</time>
      </trkpt>
      <trkpt lat="51.486171" lon="-0.132371">
        <ele>12.2</ele>
        <time>2018-01-15T19:16:30Z</time>
      </trkpt>
      <trkpt lat="51.486129" lon="-0.132535">
        <ele>12.2</ele>
        <time>2018-01-15T19:16:31Z</time>
      </trkpt>
      <trkpt lat="51.486096" lon="-0.132684">
        <ele>12.2</ele>
        <time>2018-01-15T19:16:32Z</time>
      </trkpt>
      <trkpt lat="51.486064" lon="-0.132834">
        <ele>12.2</ele>
        <time>2018-01-15T19:16:33Z</time>
      </trkpt>
      <trkpt lat="51.486027" lon="-0.132983">
        <ele>12.2</ele>
        <time>2018-01-15T19:16:34Z</time>
      </trkpt>
      <trkpt lat="51.486" lon="-0.133142">
        <ele>12.2</ele>
        <time>2018-01-15T19:16:35Z</time>
      </trkpt>
      <trkpt lat="51.485973" lon="-0.133295">
        <ele>12.2</ele>
        <time>2018-01-15T19:16:36Z</time>
      </trkpt>
      <trkpt lat="51.485946" lon="-0.133452">
        <ele>12.2</ele>
        <time>2018-01-15T19:16:37Z</time>
      </trkpt>
      <trkpt lat="51.485919" lon="-0.133607">
        <ele>12.2</ele>
        <time>2018-01-15T19:16:38Z</time>
      </trkpt>
      <trkpt lat="51.485898" lon="-0.133763">
        <ele>12.2</ele>
        <time>2018-01-15T19:16:39Z</time>
      </trkpt>
      <trkpt lat="51.485876" lon="-0.133918">
        <ele>12.2</ele>
        <time>2018-01-15T19:16:40Z</time>
      </trkpt>
      <trkpt lat="51.485855" lon="-0.134073">
        <ele>12.2</ele>
        <time>2018-01-15T19:16:41Z</time>
      </trkpt>
      <trkpt lat="51.485828" lon="-0.134219">
        <ele>12.2</ele>
        <time>2018-01-15T19:16:42Z</time>
      </trkpt>
      <trkpt lat="51.485801" lon="-0.134373">
        <ele>12.2</ele>
        <time>2018-01-15T19:16:43Z</time>
      </trkpt>
      <trkpt lat="51.48578" lon="-0.134519">
        <ele>12.2</ele>
        <time>2018-01-15T19:16:44Z</time>
      </trkpt>
      <trkpt lat="51.485753" lon="-0.134674">
        <ele>12.2</ele>
        <time>2018-01-15T19:16:45Z</time>
      </trkpt>
      <trkpt lat="51.485726" lon="-0.13482">
        <ele>12.2</ele>
        <time>2018-01-15T19:16:46Z</time>
      </trkpt>
      <trkpt lat="51.485699" lon="-0.134972">
        <ele>12.2</ele>
        <time>2018-01-15T19:16:47Z</time>
      </trkpt>
      <trkpt lat="51.485673" lon="-0.135121">
        <ele>12.2</ele>
        <time>2018-01-15T19:16:48Z</time>
      </trkpt>
      <trkpt lat="51.48564" lon="-0.135269">
        <ele>12.2</ele>
        <time>2018-01-15T19:16:49Z</time>
      </trkpt>
      <trkpt lat="51.485614" lon="-0.135421">
        <ele>12.2</ele>
        <time>2018-01-15T19:16:50Z</time>
      </trkpt>
      <trkpt lat="51.485587" lon="-0.135562">
        <ele>12.2</ele>
        <time>2018-01-15T19:16:51Z</time>
      </trkpt>
      <trkpt lat="51.48556" lon="-0.135715">
        <ele>12.2</ele>
        <time>2018-01-15T19:16:52Z</time>
      </trkpt>
      <trkpt lat="51.485533" lon="-0.135864">
        <ele>12.2</ele>
        <time>2018-01-15T19:16:53Z</time>
      </trkpt>
      <trkpt lat="51.485501" lon="-0.136015">
        <ele>12.2</ele>
        <time>2018-01-15T19:16:54Z</time>
      </trkpt>
      <trkpt lat="51.485474" lon="-0.136168">
        <ele>12.2</ele>
        <time>2018-01-15T19:16:55Z</time>
      </trkpt>
      <trkpt lat="51.485442" lon="-0.136322">
        <ele>12.2</ele>
        <time>2018-01-15T19:16:56Z</time>
      </trkpt>
      <trkpt lat="51.485415" lon="-0.136481">
        <ele>12</ele>
        <time>2018-01-15T19:16:57Z</time>
      </trkpt>
      <trkpt lat="51.485388" lon="-0.136628">
        <ele>12</ele>
        <time>2018-01-15T19:16:58Z</time>
      </trkpt>
      <trkpt lat="51.485356" lon="-0.136784">
        <ele>12</ele>
        <time>2018-01-15T19:16:59Z</time>
      </trkpt>
      <trkpt lat="51.485329" lon="-0.136938">
        <ele>12</ele>
        <time>2018-01-15T19:17:00Z</time>
      </trkpt>
      <trkpt lat="51.485297" lon="-0.137098">
        <ele>12</ele>
        <time>2018-01-15T19:17:01Z</time>
      </trkpt>
      <trkpt lat="51.485276" lon="-0.137251">
        <ele>12</ele>
        <time>2018-01-15T19:17:02Z</time>
      </trkpt>
      <trkpt lat="51.485249" lon="-0.13741">
        <ele>12</ele>
        <time>2018-01-15T19:17:03Z</time>
      </trkpt>
      <trkpt lat="51.485222" lon="-0.137577">
        <ele>12</ele>
        <time>2018-01-15T19:17:04Z</time>
      </trkpt>
      <trkpt lat="51.485195" lon="-0.137728">
        <ele>12</ele>
        <time>2018-01-15T19:17:05Z</time>
      </trkpt>
      <trkpt lat="51.485168" lon="-0.137884">
        <ele>12</ele>
        <time>2018-01-15T19:17:06Z</time>
      </trkpt>
      <trkpt lat="51.485125" lon="-0.138041">
        <ele>12</ele>
        <time>2018-01-15T19:17:07Z</time>
      </trkpt>
      <trkpt lat="51.485088" lon="-0.138187">
        <ele>12</ele>
        <time>2018-01-15T19:17:08Z</time>
      </trkpt>
      <trkpt lat="51.485056" lon="-0.138337">
        <ele>12</ele>
        <time>2018-01-15T19:17:09Z</time>
      </trkpt>
      <trkpt lat="51.485023" lon="-0.138502">
        <ele>12</ele>
        <time>2018-01-15T19:17:10Z</time>
      </trkpt>
      <trkpt lat="51.484997" lon="-0.138658">
        <ele>12</ele>
        <time>2018-01-15T19:17:11Z</time>
      </trkpt>
      <trkpt lat="51.484975" lon="-0.138822">
        <ele>12</ele>
        <time>2018-01-15T19:17:12Z</time>
      </trkpt>
      <trkpt lat="51.484954" lon="-0.138977">
        <ele>12</ele>
        <time>2018-01-15T19:17:13Z</time>
      </trkpt>
      <trkpt lat="51.484943" lon="-0.139146">
        <ele>12</ele>
        <time>2018-01-15T19:17:14Z</time>
      </trkpt>
      <trkpt lat="51.484932" lon="-0.139314">
        <ele>12</ele>
        <time>2018-01-15T19:17:15Z</time>
      </trkpt>
      <trkpt lat="51.484927" lon="-0.13948">
        <ele>12</ele>
        <time>2018-01-15T19:17:16Z</time>
      </trkpt>
      <trkpt lat="51.484922" lon="-0.139642">
        <ele>12</ele>
        <time>2018-01-15T19:17:17Z</time>
      </trkpt>
      <trkpt lat="51.484922" lon="-0.139813">
        <ele>12</ele>
        <time>2018-01-15T19:17:18Z</time>
      </trkpt>
      <trkpt lat="51.484927" lon="-0.139973">
        <ele>12</ele>
        <time>2018-01-15T19:17:19Z</time>
      </trkpt>
      <trkpt lat="51.484938" lon="-0.140145">
        <ele>12</ele>
        <time>2018-01-15T19:17:20Z</time>
      </trkpt>
      <trkpt lat="51.484954" lon="-0.140306">
        <ele>12</ele>
        <time>2018-01-15T19:17:21Z</time>
      </trkpt>
      <trkpt lat="51.484981" lon="-0.140464">
        <ele>12</ele>
        <time>2018-01-15T19:17:22Z</time>
      </trkpt>
      <trkpt lat="51.485007" lon="-0.140622">
        <ele>12</ele>
        <time>2018-01-15T19:17:23Z</time>
      </trkpt>
      <trkpt lat="51.48504" lon="-0.140788">
        <ele>12</ele>
        <time>2018-01-15T19:17:24Z</time>
      </trkpt>
      <trkpt lat="51.485066" lon="-0.140934">
        <ele>12</ele>
        <time>2018-01-15T19:17:25Z</time>
      </trkpt>
      <trkpt lat="51.485093" lon="-0.141092">
        <ele>12</ele>
        <time>2018-01-15T19:17:26Z</time>
      </trkpt>
      <trkpt lat="51.485125" lon="-0.141254">
        <ele>12</ele>
        <time>2018-01-15T19:17:27Z</time>
      </trkpt>
      <trkpt lat="51.485152" lon="-0.14141">
        <ele>12</ele>
        <time>2018-01-15T19:17:28Z</time>
      </trkpt>
      <trkpt lat="51.485179" lon="-0.141561">
        <ele>12</ele>
        <time>2018-01-15T19:17:29Z</time>
      </trkpt>
      <trkpt lat="51.485206" lon="-0.141719">
        <ele>12</ele>
        <time>2018-01-15T19:17:30Z</time>
      </trkpt>
      <trkpt lat="51.485233" lon="-0.141876">
        <ele>12</ele>
        <time>2018-01-15T19:17:31Z</time>
      </trkpt>
      <trkpt lat="51.48526" lon="-0.142033">
        <ele>12</ele>
        <time>2018-01-15T19:17:32Z</time>
      </trkpt>
      <trkpt lat="51.485292" lon="-0.14219">
        <ele>12</ele>
        <time>2018-01-15T19:17:33Z</time>
      </trkpt>
      <trkpt lat="51.485324" lon="-0.142344">
        <ele>12</ele>
        <time>2018-01-15T19:17:34Z</time>
      </trkpt>
      <trkpt lat="51.485351" lon="-0.142502">
        <ele>12</ele>
        <time>2018-01-15T19:17:35Z</time>
      </trkpt>
      <trkpt lat="51.485378" lon="-0.142653">
        <ele>12</ele>
        <time>2018-01-15T19:17:36Z</time>
      </trkpt>
      <trkpt lat="51.485404" lon="-0.142804">
        <ele>12</ele>
        <time>2018-01-15T19:17:37Z</time>
      </trkpt>
      <trkpt lat="51.485431" lon="-0.142963">
        <ele>12</ele>
        <time>2018-01-15T19:17:38Z</time>
      </trkpt>
      <trkpt lat="51.485458" lon="-0.143111">
        <ele>12</ele>
        <time>2018-01-15T19:17:39Z</time>
      </trkpt>
      <trkpt lat="51.485485" lon="-0.143268">
        <ele>12</ele>
        <time>2018-01-15T19:17:40Z</time>
      </trkpt>
      <trkpt lat="51.485512" lon="-0.143419">
        <ele>12</ele>
        <time>2018-01-15T19:17:41Z</time>
      </trkpt>
      <trkpt lat="51.485538" lon="-0.143568">
        <ele>12</ele>
        <time>2018-01-15T19:17:42Z</time>
      </trkpt>
      <trkpt lat="51.48556" lon="-0.143727">
        <ele>12</ele>
        <time>2018-01-15T19:17:43Z</time>
      </trkpt>
      <trkpt lat="51.485576" lon="-0.143884">
        <ele>12</ele>
        <time>2018-01-15T19:17:44Z</time>
      </trkpt>
      <trkpt lat="51.485592" lon="-0.144031">
        <ele>12</ele>
        <time>2018-01-15T19:17:45Z</time>
      </trkpt>
      <trkpt lat="51.485614" lon="-0.144187">
        <ele>12</ele>
        <time>2018-01-15T19:17:46Z</time>
      </trkpt>
      <trkpt lat="51.48563" lon="-0.144344">
        <ele>12</ele>
        <time>2018-01-15T19:17:47Z</time>
      </trkpt>
      <trkpt lat="51.485651" lon="-0.144502">
        <ele>12</ele>
        <time>2018-01-15T19:17:48Z</time>
      </trkpt>
      <trkpt lat="51.485667" lon="-0.144652">
        <ele>12</ele>
        <time>2018-01-15T19:17:49Z</time>
      </trkpt>
      <trkpt lat="51.485683" lon="-0.144811">
        <ele>12</ele>
        <time>2018-01-15T19:17:50Z</time>
      </trkpt>
      <trkpt lat="51.485694" lon="-0.144971">
        <ele>12</ele>
        <time>2018-01-15T19:17:51Z</time>
      </trkpt>
      <trkpt lat="51.48571" lon="-0.145133">
        <ele>12</ele>
        <time>2018-01-15T19:17:52Z</time>
      </trkpt>
      <trkpt lat="51.485721" lon="-0.145297">
        <ele>12</ele>
        <time>2018-01-15T19:17:53Z</time>
      </trkpt>
      <trkpt lat="51.485732" lon="-0.145459">
        <ele>12</ele>
        <time>2018-01-15T19:17:54Z</time>
      </trkpt>
      <trkpt lat="51.485748" lon="-0.145608">
        <ele>12</ele>
        <time>2018-01-15T19:17:55Z</time>
      </trkpt>
      <trkpt lat="51.485764" lon="-0.14577">
        <ele>12</ele>
        <time>2018-01-15T19:17:56Z</time>
      </trkpt>
      <trkpt lat="51.48578" lon="-0.145933">
        <ele>11.8</ele>
        <time>2018-01-15T19:17:57Z</time>
      </trkpt>
      <trkpt lat="51.485791" lon="-0.146089">
        <ele>11.8</ele>
        <time>2018-01-15T19:17:58Z</time>
      </trkpt>
      <trkpt lat="51.485807" lon="-0.146256">
        <ele>11.8</ele>
        <time>2018-01-15T19:17:59Z</time>
      </trkpt>
      <trkpt lat="51.485812" lon="-0.146414">
        <ele>11.8</ele>
        <time>2018-01-15T19:18:00Z</time>
      </trkpt>
      <trkpt lat="51.485828" lon="-0.146583">
        <ele>11.8</ele>
        <time>2018-01-15T19:18:01Z</time>
      </trkpt>
      <trkpt lat="51.485828" lon="-0.146753">
        <ele>11.8</ele>
        <time>2018-01-15T19:18:02Z</time>
      </trkpt>
      <trkpt lat="51.485834" lon="-0.146925">
        <ele>11.8</ele>
        <time>2018-01-15T19:18:03Z</time>
      </trkpt>
      <trkpt lat="51.485839" lon="-0.147084">
        <ele>11.8</ele>
        <time>2018-01-15T19:18:04Z</time>
      </trkpt>
      <trkpt lat="51.485839" lon="-0.147254">
        <ele>11.8</ele>
        <time>2018-01-15T19:18:05Z</time>
      </trkpt>
      <trkpt lat="51.485828" lon="-0.147425">
        <ele>11.8</ele>
        <time>2018-01-15T19:18:06Z</time>
      </trkpt>
      <trkpt lat="51.485828" lon="-0.147592">
        <ele>11.8</ele>
        <time>2018-01-15T19:18:07Z</time>
      </trkpt>
      <trkpt lat="51.485823" lon="-0.147755">
        <ele>11.8</ele>
        <time>2018-01-15T19:18:08Z</time>
      </trkpt>
      <trkpt lat="51.485817" lon="-0.147922">
        <ele>11.8</ele>
        <time>2018-01-15T19:18:09Z</time>
      </trkpt>
      <trkpt lat="51.485812" lon="-0.148091">
        <ele>11.8</ele>
        <time>2018-01-15T19:18:10Z</time>
      </trkpt>
      <trkpt lat="51.485812" lon="-0.148251">
        <ele>11.8</ele>
        <time>2018-01-15T19:18:11Z</time>
      </trkpt>
      <trkpt lat="51.485812" lon="-0.148419">
        <ele>11.8</ele>
        <time>2018-01-15T19:18:12Z</time>
      </trkpt>
      <trkpt lat="51.485807" lon="-0.148586">
        <ele>11.8</ele>
        <time>2018-01-15T19:18:13Z</time>
      </trkpt>
      <trkpt lat="51.485807" lon="-0.148749">
        <ele>11.8</ele>
        <time>2018-01-15T19:18:14Z</time>
      </trkpt>
      <trkpt lat="51.485812" lon="-0.148908">
        <ele>11.8</ele>
        <time>2018-01-15T19:18:15Z</time>
      </trkpt>
      <trkpt lat="51.485817" lon="-0.149067">
        <ele>11.8</ele>
        <time>2018-01-15T19:18:16Z</time>
      </trkpt>
      <trkpt lat="51.485839" lon="-0.149228">
        <ele>11.8</ele>
        <time>2018-01-15T19:18:17Z</time>
      </trkpt>
      <trkpt lat="51.48586" lon="-0.14939">
        <ele>11.8</ele>
        <time>2018-01-15T19:18:18Z</time>
      </trkpt>
      <trkpt lat="51.485893" lon="-0.149533">
        <ele>11.8</ele>
        <time>2018-01-15T19:18:19Z</time>
      </trkpt>
      <trkpt lat="51.485925" lon="-0.14968">
        <ele>11.8</ele>
        <time>2018-01-15T19:18:20Z</time>
      </trkpt>
      <trkpt lat="51.485973" lon="-0.149822">
        <ele>11.8</ele>
        <time>2018-01-15T19:18:21Z</time>
      </trkpt>
      <trkpt lat="51.486032" lon="-0.149944">
        <ele>11.8</ele>
        <time>2018-01-15T19:18:22Z</time>
      </trkpt>
      <trkpt lat="51.486096" lon="-0.150051">
        <ele>11.8</ele>
        <time>2018-01-15T19:18:23Z</time>
      </trkpt>
      <trkpt lat="51.486171" lon="-0.150158">
        <ele>11.8</ele>
        <time>2018-01-15T19:18:24Z</time>
      </trkpt>
      <trkpt lat="51.486247" lon="-0.150264">
        <ele>11.8</ele>
        <time>2018-01-15T19:18:25Z</time>
      </trkpt>
      <trkpt lat="51.486316" lon="-0.150371">
        <ele>11.8</ele>
        <time>2018-01-15T19:18:26Z</time>
      </trkpt>
      <trkpt lat="51.486386" lon="-0.150475">
        <ele>11.8</ele>
        <time>2018-01-15T19:18:27Z</time>
      </trkpt>
      <trkpt lat="51.486461" lon="-0.150591">
        <ele>11.8</ele>
        <time>2018-01-15T19:18:28Z</time>
      </trkpt>
      <trkpt lat="51.486526" lon="-0.150694">
        <ele>11.8</ele>
        <time>2018-01-15T19:18:29Z</time>
      </trkpt>
      <trkpt lat="51.486601" lon="-0.150811">
        <ele>11.8</ele>
        <time>2018-01-15T19:18:30Z</time>
      </trkpt>
      <trkpt lat="51.48667" lon="-0.150913">
        <ele>11.8</ele>
        <time>2018-01-15T19:18:31Z</time>
      </trkpt>
      <trkpt lat="51.48674" lon="-0.151028">
        <ele>11.8</ele>
        <time>2018-01-15T19:18:32Z</time>
      </trkpt>
      <trkpt lat="51.48681" lon="-0.151147">
        <ele>11.8</ele>
        <time>2018-01-15T19:18:33Z</time>
      </trkpt>
      <trkpt lat="51.486874" lon="-0.151264">
        <ele>11.8</ele>
        <time>2018-01-15T19:18:34Z</time>
      </trkpt>
      <trkpt lat="51.486949" lon="-0.151385">
        <ele>11.8</ele>
        <time>2018-01-15T19:18:35Z</time>
      </trkpt>
      <trkpt lat="51.487014" lon="-0.151497">
        <ele>11.8</ele>
        <time>2018-01-15T19:18:36Z</time>
      </trkpt>
      <trkpt lat="51.487083" lon="-0.151605">
        <ele>11.8</ele>
        <time>2018-01-15T19:18:37Z</time>
      </trkpt>
      <trkpt lat="51.487148" lon="-0.151715">
        <ele>11.6</ele>
        <time>2018-01-15T19:18:38Z</time>
      </trkpt>
      <trkpt lat="51.487212" lon="-0.151835">
        <ele>11.6</ele>
        <time>2018-01-15T19:18:39Z</time>
      </trkpt>
      <trkpt lat="51.487282" lon="-0.151958">
        <ele>11.6</ele>
        <time>2018-01-15T19:18:40Z</time>
      </trkpt>
      <trkpt lat="51.487352" lon="-0.15208">
        <ele>11.4</ele>
        <time>2018-01-15T19:18:41Z</time>
      </trkpt>
      <trkpt lat="51.487421" lon="-0.152207">
        <ele>11.4</ele>
        <time>2018-01-15T19:18:42Z</time>
      </trkpt>
      <trkpt lat="51.487486" lon="-0.152326">
        <ele>11.2</ele>
        <time>2018-01-15T19:18:43Z</time>
      </trkpt>
      <trkpt lat="51.487556" lon="-0.152449">
        <ele>11.2</ele>
        <time>2018-01-15T19:18:44Z</time>
      </trkpt>
      <trkpt lat="51.487636" lon="-0.152569">
        <ele>11.2</ele>
        <time>2018-01-15T19:18:45Z</time>
      </trkpt>
      <trkpt lat="51.487711" lon="-0.152698">
        <ele>11.2</ele>
        <time>2018-01-15T19:18:46Z</time>
      </trkpt>
      <trkpt lat="51.487781" lon="-0.15282">
        <ele>11.4</ele>
        <time>2018-01-15T19:18:47Z</time>
      </trkpt>
      <trkpt lat="51.487851" lon="-0.152936">
        <ele>11.4</ele>
        <time>2018-01-15T19:18:48Z</time>
      </trkpt>
      <trkpt lat="51.487931" lon="-0.153065">
        <ele>11.6</ele>
        <time>2018-01-15T19:18:49Z</time>
      </trkpt>
      <trkpt lat="51.488006" lon="-0.153183">
        <ele>11.8</ele>
        <time>2018-01-15T19:18:50Z</time>
      </trkpt>
      <trkpt lat="51.48807" lon="-0.153293">
        <ele>12</ele>
        <time>2018-01-15T19:18:51Z</time>
      </trkpt>
      <trkpt lat="51.488151" lon="-0.153412">
        <ele>12</ele>
        <time>2018-01-15T19:18:52Z</time>
      </trkpt>
      <trkpt lat="51.488221" lon="-0.153526">
        <ele>12.2</ele>
        <time>2018-01-15T19:18:53Z</time>
      </trkpt>
      <trkpt lat="51.48829" lon="-0.153639">
        <ele>12.2</ele>
        <time>2018-01-15T19:18:54Z</time>
      </trkpt>
      <trkpt lat="51.488355" lon="-0.153743">
        <ele>12.4</ele>
        <time>2018-01-15T19:18:55Z</time>
      </trkpt>
      <trkpt lat="51.488419" lon="-0.153848">
        <ele>12.4</ele>
        <time>2018-01-15T19:18:56Z</time>
      </trkpt>
      <trkpt lat="51.488484" lon="-0.153953">
        <ele>12.4</ele>
        <time>2018-01-15T19:18:57Z</time>
      </trkpt>
      <trkpt lat="51.488548" lon="-0.154058">
        <ele>12.4</ele>
        <time>2018-01-15T19:18:58Z</time>
      </trkpt>
      <trkpt lat="51.488612" lon="-0.154163">
        <ele>12.4</ele>
        <time>2018-01-15T19:18:59Z</time>
      </trkpt>
      <trkpt lat="51.488677" lon="-0.154272">
        <ele>12.2</ele>
        <time>2018-01-15T19:19:00Z</time>
      </trkpt>
      <trkpt lat="51.488736" lon="-0.15437">
        <ele>12.2</ele>
        <time>2018-01-15T19:19:01Z</time>
      </trkpt>
      <trkpt lat="51.4888" lon="-0.154476">
        <ele>12.2</ele>
        <time>2018-01-15T19:19:02Z</time>
      </trkpt>
      <trkpt lat="51.488864" lon="-0.154576">
        <ele>12.2</ele>
        <time>2018-01-15T19:19:03Z</time>
      </trkpt>
      <trkpt lat="51.488929" lon="-0.154686">
        <ele>12.2</ele>
        <time>2018-01-15T19:19:04Z</time>
      </trkpt>
      <trkpt lat="51.488993" lon="-0.154798">
        <ele>12.2</ele>
        <time>2018-01-15T19:19:05Z</time>
      </trkpt>
      <trkpt lat="51.489058" lon="-0.154898">
        <ele>12.2</ele>
        <time>2018-01-15T19:19:06Z</time>
      </trkpt>
      <trkpt lat="51.489127" lon="-0.155007">
        <ele>12.4</ele>
        <time>2018-01-15T19:19:07Z</time>
      </trkpt>
      <trkpt lat="51.489192" lon="-0.155116">
        <ele>12.4</ele>
        <time>2018-01-15T19:19:08Z</time>
      </trkpt>
      <trkpt lat="51.489267" lon="-0.155226">
        <ele>12.4</ele>
        <time>2018-01-15T19:19:09Z</time>
      </trkpt>
      <trkpt lat="51.489336" lon="-0.155333">
        <ele>12.6</ele>
        <time>2018-01-15T19:19:10Z</time>
      </trkpt>
      <trkpt lat="51.489406" lon="-0.155439">
        <ele>12.6</ele>
        <time>2018-01-15T19:19:11Z</time>
      </trkpt>
      <trkpt lat="51.489471" lon="-0.155545">
        <ele>12.8</ele>
        <time>2018-01-15T19:19:12Z</time>
      </trkpt>
      <trkpt lat="51.489535" lon="-0.155649">
        <ele>12.8</ele>
        <time>2018-01-15T19:19:13Z</time>
      </trkpt>
      <trkpt lat="51.489605" lon="-0.155754">
        <ele>13</ele>
        <time>2018-01-15T19:19:14Z</time>
      </trkpt>
      <trkpt lat="51.489669" lon="-0.15586">
        <ele>13.2</ele>
        <time>2018-01-15T19:19:15Z</time>
      </trkpt>
      <trkpt lat="51.489733" lon="-0.155964">
        <ele>13.4</ele>
        <time>2018-01-15T19:19:16Z</time>
      </trkpt>
      <trkpt lat="51.489803" lon="-0.156066">
        <ele>13.4</ele>
        <time>2018-01-15T19:19:17Z</time>
      </trkpt>
      <trkpt lat="51.489862" lon="-0.156168">
        <ele>13.6</ele>
        <time>2018-01-15T19:19:18Z</time>
      </trkpt>
      <trkpt lat="51.489932" lon="-0.156272">
        <ele>13.8</ele>
        <time>2018-01-15T19:19:19Z</time>
      </trkpt>
      <trkpt lat="51.489991" lon="-0.156378">
        <ele>14</ele>
        <time>2018-01-15T19:19:20Z</time>
      </trkpt>
      <trkpt lat="51.49005" lon="-0.156482">
        <ele>14</ele>
        <time>2018-01-15T19:19:21Z</time>
      </trkpt>
      <trkpt lat="51.490114" lon="-0.156581">
        <ele>14.2</ele>
        <time>2018-01-15T19:19:22Z</time>
      </trkpt>
      <trkpt lat="51.490184" lon="-0.156679">
        <ele>14.2</ele>
        <time>2018-01-15T19:19:23Z</time>
      </trkpt>
      <trkpt lat="51.490254" lon="-0.156782">
        <ele>14.2</ele>
        <time>2018-01-15T19:19:24Z</time>
      </trkpt>
      <trkpt lat="51.490313" lon="-0.156879">
        <ele>14.4</ele>
        <time>2018-01-15T19:19:25Z</time>
      </trkpt>
      <trkpt lat="51.490393" lon="-0.156952">
        <ele>14.4</ele>
        <time>2018-01-15T19:19:26Z</time>
      </trkpt>
      <trkpt lat="51.490479" lon="-0.156996">
        <ele>14.6</ele>
        <time>2018-01-15T19:19:27Z</time>
      </trkpt>
      <trkpt lat="51.490565" lon="-0.15703">
        <ele>14.8</ele>
        <time>2018-01-15T19:19:28Z</time>
      </trkpt>
      <trkpt lat="51.490645" lon="-0.15706">
        <ele>14.8</ele>
        <time>2018-01-15T19:19:29Z</time>
      </trkpt>
      <trkpt lat="51.490737" lon="-0.157093">
        <ele>15</ele>
        <time>2018-01-15T19:19:30Z</time>
      </trkpt>
      <trkpt lat="51.490822" lon="-0.157125">
        <ele>15</ele>
        <time>2018-01-15T19:19:31Z</time>
      </trkpt>
      <trkpt lat="51.490908" lon="-0.157153">
        <ele>15.2</ele>
        <time>2018-01-15T19:19:32Z</time>
      </trkpt>
      <trkpt lat="51.490999" lon="-0.157183">
        <ele>15.2</ele>
        <time>2018-01-15T19:19:33Z</time>
      </trkpt>
      <trkpt lat="51.491085" lon="-0.15721">
        <ele>15.4</ele>
        <time>2018-01-15T19:19:34Z</time>
      </trkpt>
      <trkpt lat="51.491176" lon="-0.157234">
        <ele>15.4</ele>
        <time>2018-01-15T19:19:35Z</time>
      </trkpt>
      <trkpt lat="51.491262" lon="-0.157251">
        <ele>15.4</ele>
        <time>2018-01-15T19:19:36Z</time>
      </trkpt>
      <trkpt lat="51.491348" lon="-0.157263">
        <ele>15.4</ele>
        <time>2018-01-15T19:19:37Z</time>
      </trkpt>
      <trkpt lat="51.491439" lon="-0.157278">
        <ele>15.4</ele>
        <time>2018-01-15T19:19:38Z</time>
      </trkpt>
      <trkpt lat="51.491531" lon="-0.157295">
        <ele>15.4</ele>
        <time>2018-01-15T19:19:39Z</time>
      </trkpt>
      <trkpt lat="51.491627" lon="-0.157323">
        <ele>15.4</ele>
        <time>2018-01-15T19:19:40Z</time>
      </trkpt>
      <trkpt lat="51.491718" lon="-0.157363">
        <ele>15.4</ele>
        <time>2018-01-15T19:19:41Z</time>
      </trkpt>
      <trkpt lat="51.491804" lon="-0.157403">
        <ele>15.4</ele>
        <time>2018-01-15T19:19:42Z</time>
      </trkpt>
      <trkpt lat="51.491901" lon="-0.15745">
        <ele>15.4</ele>
        <time>2018-01-15T19:19:43Z</time>
      </trkpt>
      <trkpt lat="51.491987" lon="-0.157488">
        <ele>15.4</ele>
        <time>2018-01-15T19:19:44Z</time>
      </trkpt>
      <trkpt lat="51.492072" lon="-0.157507">
        <ele>15.6</ele>
        <time>2018-01-15T19:19:45Z</time>
      </trkpt>
      <trkpt lat="51.492169" lon="-0.157493">
        <ele>15.6</ele>
        <time>2018-01-15T19:19:46Z</time>
      </trkpt>
      <trkpt lat="51.492255" lon="-0.157418">
        <ele>15.6</ele>
        <time>2018-01-15T19:19:47Z</time>
      </trkpt>
      <trkpt lat="51.492303" lon="-0.157291">
        <ele>15.6</ele>
        <time>2018-01-15T19:19:48Z</time>
      </trkpt>
      <trkpt lat="51.49233" lon="-0.15715">
        <ele>15.4</ele>
        <time>2018-01-15T19:19:49Z</time>
      </trkpt>
      <trkpt lat="51.492357" lon="-0.156996">
        <ele>15.4</ele>
        <time>2018-01-15T19:19:50Z</time>
      </trkpt>
      <trkpt lat="51.492405" lon="-0.156871">
        <ele>15.4</ele>
        <time>2018-01-15T19:19:51Z</time>
      </trkpt>
      <trkpt lat="51.492496" lon="-0.156805">
        <ele>15.2</ele>
        <time>2018-01-15T19:19:52Z</time>
      </trkpt>
      <trkpt lat="51.492593" lon="-0.156794">
        <ele>15.2</ele>
        <time>2018-01-15T19:19:53Z</time>
      </trkpt>
      <trkpt lat="51.492689" lon="-0.15683">
        <ele>15.2</ele>
        <time>2018-01-15T19:19:54Z</time>
      </trkpt>
      <trkpt lat="51.492764" lon="-0.15693">
        <ele>15.2</ele>
        <time>2018-01-15T19:19:55Z</time>
      </trkpt>
      <trkpt lat="51.49277" lon="-0.157088">
        <ele>15.2</ele>
        <time>2018-01-15T19:19:56Z</time>
      </trkpt>
      <trkpt lat="51.492754" lon="-0.157249">
        <ele>15.2</ele>
        <time>2018-01-15T19:19:57Z</time>
      </trkpt>
      <trkpt lat="51.492738" lon="-0.157401">
        <ele>15.2</ele>
        <time>2018-01-15T19:19:58Z</time>
      </trkpt>
      <trkpt lat="51.492748" lon="-0.157554">
        <ele>15.2</ele>
        <time>2018-01-15T19:19:59Z</time>
      </trkpt>
      <trkpt lat="51.492786" lon="-0.157688">
        <ele>15</ele>
        <time>2018-01-15T19:20:00Z</time>
      </trkpt>
      <trkpt lat="51.492872" lon="-0.157772">
        <ele>14.8</ele>
        <time>2018-01-15T19:20:01Z</time>
      </trkpt>
      <trkpt lat="51.492957" lon="-0.157812">
        <ele>14.6</ele>
        <time>2018-01-15T19:20:02Z</time>
      </trkpt>
      <trkpt lat="51.493059" lon="-0.157846">
        <ele>14.6</ele>
        <time>2018-01-15T19:20:03Z</time>
      </trkpt>
      <trkpt lat="51.493167" lon="-0.15788">
        <ele>14.4</ele>
        <time>2018-01-15T19:20:04Z</time>
      </trkpt>
      <trkpt lat="51.493263" lon="-0.157907">
        <ele>14.4</ele>
        <time>2018-01-15T19:20:05Z</time>
      </trkpt>
      <trkpt lat="51.49336" lon="-0.157929">
        <ele>14.2</ele>
        <time>2018-01-15T19:20:06Z</time>
      </trkpt>
      <trkpt lat="51.493467" lon="-0.157953">
        <ele>14.2</ele>
        <time>2018-01-15T19:20:07Z</time>
      </trkpt>
      <trkpt lat="51.493569" lon="-0.157973">
        <ele>14</ele>
        <time>2018-01-15T19:20:08Z</time>
      </trkpt>
      <trkpt lat="51.493676" lon="-0.157994">
        <ele>14</ele>
        <time>2018-01-15T19:20:09Z</time>
      </trkpt>
      <trkpt lat="51.493784" lon="-0.158013">
        <ele>13.8</ele>
        <time>2018-01-15T19:20:10Z</time>
      </trkpt>
      <trkpt lat="51.493891" lon="-0.158033">
        <ele>13.6</ele>
        <time>2018-01-15T19:20:11Z</time>
      </trkpt>
      <trkpt lat="51.493998" lon="-0.158055">
        <ele>13.6</ele>
        <time>2018-01-15T19:20:12Z</time>
      </trkpt>
      <trkpt lat="51.494105" lon="-0.158076">
        <ele>13.4</ele>
        <time>2018-01-15T19:20:13Z</time>
      </trkpt>
      <trkpt lat="51.494213" lon="-0.158103">
        <ele>13.4</ele>
        <time>2018-01-15T19:20:14Z</time>
      </trkpt>
      <trkpt lat="51.49432" lon="-0.15813">
        <ele>13.4</ele>
        <time>2018-01-15T19:20:15Z</time>
      </trkpt>
      <trkpt lat="51.494433" lon="-0.158158">
        <ele>13.2</ele>
        <time>2018-01-15T19:20:16Z</time>
      </trkpt>
      <trkpt lat="51.494545" lon="-0.158196">
        <ele>13.2</ele>
        <time>2018-01-15T19:20:17Z</time>
      </trkpt>
      <trkpt lat="51.494653" lon="-0.158227">
        <ele>13.2</ele>
        <time>2018-01-15T19:20:18Z</time>
      </trkpt>
      <trkpt lat="51.494765" lon="-0.15826">
        <ele>13</ele>
        <time>2018-01-15T19:20:19Z</time>
      </trkpt>
      <trkpt lat="51.494878" lon="-0.158298">
        <ele>13</ele>
        <time>2018-01-15T19:20:20Z</time>
      </trkpt>
      <trkpt lat="51.494985" lon="-0.158329">
        <ele>13</ele>
        <time>2018-01-15T19:20:21Z</time>
      </trkpt>
      <trkpt lat="51.495103" lon="-0.158363">
        <ele>13</ele>
        <time>2018-01-15T19:20:22Z</time>
      </trkpt>
      <trkpt lat="51.495216" lon="-0.158399">
        <ele>13</ele>
        <time>2018-01-15T19:20:23Z</time>
      </trkpt>
      <trkpt lat="51.495318" lon="-0.15843">
        <ele>13</ele>
        <time>2018-01-15T19:20:24Z</time>
      </trkpt>
      <trkpt lat="51.495425" lon="-0.158465">
        <ele>13.2</ele>
        <time>2018-01-15T19:20:25Z</time>
      </trkpt>
      <trkpt lat="51.495532" lon="-0.158495">
        <ele>13.2</ele>
        <time>2018-01-15T19:20:26Z</time>
      </trkpt>
      <trkpt lat="51.49564" lon="-0.15852">
        <ele>13.4</ele>
        <time>2018-01-15T19:20:27Z</time>
      </trkpt>
      <trkpt lat="51.495747" lon="-0.158553">
        <ele>13.4</ele>
        <time>2018-01-15T19:20:28Z</time>
      </trkpt>
      <trkpt lat="51.495854" lon="-0.158585">
        <ele>13.6</ele>
        <time>2018-01-15T19:20:29Z</time>
      </trkpt>
      <trkpt lat="51.495962" lon="-0.158611">
        <ele>13.8</ele>
        <time>2018-01-15T19:20:30Z</time>
      </trkpt>
      <trkpt lat="51.496063" lon="-0.15864">
        <ele>13.8</ele>
        <time>2018-01-15T19:20:31Z</time>
      </trkpt>
      <trkpt lat="51.496165" lon="-0.158664">
        <ele>14</ele>
        <time>2018-01-15T19:20:32Z</time>
      </trkpt>
      <trkpt lat="51.496273" lon="-0.158693">
        <ele>14.2</ele>
        <time>2018-01-15T19:20:33Z</time>
      </trkpt>
      <trkpt lat="51.496364" lon="-0.158714">
        <ele>14.4</ele>
        <time>2018-01-15T19:20:34Z</time>
      </trkpt>
      <trkpt lat="51.496466" lon="-0.158741">
        <ele>14.6</ele>
        <time>2018-01-15T19:20:35Z</time>
      </trkpt>
      <trkpt lat="51.496562" lon="-0.158769">
        <ele>14.8</ele>
        <time>2018-01-15T19:20:36Z</time>
      </trkpt>
      <trkpt lat="51.496654" lon="-0.158797">
        <ele>14.8</ele>
        <time>2018-01-15T19:20:37Z</time>
      </trkpt>
      <trkpt lat="51.496745" lon="-0.158823">
        <ele>15</ele>
        <time>2018-01-15T19:20:38Z</time>
      </trkpt>
      <trkpt lat="51.496841" lon="-0.158848">
        <ele>15.2</ele>
        <time>2018-01-15T19:20:39Z</time>
      </trkpt>
      <trkpt lat="51.496933" lon="-0.158874">
        <ele>15.2</ele>
        <time>2018-01-15T19:20:40Z</time>
      </trkpt>
      <trkpt lat="51.497029" lon="-0.158898">
        <ele>15.2</ele>
        <time>2018-01-15T19:20:41Z</time>
      </trkpt>
      <trkpt lat="51.49712" lon="-0.15892">
        <ele>15.2</ele>
        <time>2018-01-15T19:20:42Z</time>
      </trkpt>
      <trkpt lat="51.497222" lon="-0.158942">
        <ele>15</ele>
        <time>2018-01-15T19:20:43Z</time>
      </trkpt>
      <trkpt lat="51.497313" lon="-0.158963">
        <ele>15</ele>
        <time>2018-01-15T19:20:44Z</time>
      </trkpt>
      <trkpt lat="51.497415" lon="-0.158991">
        <ele>15</ele>
        <time>2018-01-15T19:20:45Z</time>
      </trkpt>
      <trkpt lat="51.497506" lon="-0.159039">
        <ele>15.2</ele>
        <time>2018-01-15T19:20:46Z</time>
      </trkpt>
      <trkpt lat="51.497566" lon="-0.159158">
        <ele>15.2</ele>
        <time>2018-01-15T19:20:47Z</time>
      </trkpt>
      <trkpt lat="51.497571" lon="-0.159311">
        <ele>15.4</ele>
        <time>2018-01-15T19:20:48Z</time>
      </trkpt>
      <trkpt lat="51.49756" lon="-0.159453">
        <ele>15.6</ele>
        <time>2018-01-15T19:20:49Z</time>
      </trkpt>
      <trkpt lat="51.497544" lon="-0.159601">
        <ele>15.8</ele>
        <time>2018-01-15T19:20:50Z</time>
      </trkpt>
      <trkpt lat="51.497533" lon="-0.159743">
        <ele>16</ele>
        <time>2018-01-15T19:20:51Z</time>
      </trkpt>
      <trkpt lat="51.497517" lon="-0.159893">
        <ele>16.2</ele>
        <time>2018-01-15T19:20:52Z</time>
      </trkpt>
      <trkpt lat="51.497512" lon="-0.160031">
        <ele>16.2</ele>
        <time>2018-01-15T19:20:53Z</time>
      </trkpt>
      <trkpt lat="51.497512" lon="-0.160179">
        <ele>16.4</ele>
        <time>2018-01-15T19:20:54Z</time>
      </trkpt>
      <trkpt lat="51.497555" lon="-0.1603">
        <ele>16.6</ele>
        <time>2018-01-15T19:20:55Z</time>
      </trkpt>
      <trkpt lat="51.497619" lon="-0.160385">
        <ele>16.8</ele>
        <time>2018-01-15T19:20:56Z</time>
      </trkpt>
      <trkpt lat="51.4977" lon="-0.16044">
        <ele>16.8</ele>
        <time>2018-01-15T19:20:57Z</time>
      </trkpt>
      <trkpt lat="51.497785" lon="-0.160475">
        <ele>17</ele>
        <time>2018-01-15T19:20:58Z</time>
      </trkpt>
      <trkpt lat="51.497871" lon="-0.16051">
        <ele>17.2</ele>
        <time>2018-01-15T19:20:59Z</time>
      </trkpt>
      <trkpt lat="51.497946" lon="-0.160552">
        <ele>17.4</ele>
        <time>2018-01-15T19:21:00Z</time>
      </trkpt>
      <trkpt lat="51.498027" lon="-0.160598">
        <ele>17.6</ele>
        <time>2018-01-15T19:21:01Z</time>
      </trkpt>
      <trkpt lat="51.498102" lon="-0.160669">
        <ele>17.8</ele>
        <time>2018-01-15T19:21:02Z</time>
      </trkpt>
      <trkpt lat="51.49815" lon="-0.160777">
        <ele>18</ele>
        <time>2018-01-15T19:21:03Z</time>
      </trkpt>
      <trkpt lat="51.498188" lon="-0.160902">
        <ele>18.2</ele>
        <time>2018-01-15T19:21:04Z</time>
      </trkpt>
      <trkpt lat="51.498199" lon="-0.161027">
        <ele>18.2</ele>
        <time>2018-01-15T19:21:05Z</time>
      </trkpt>
      <trkpt lat="51.498188" lon="-0.161161">
        <ele>18.4</ele>
        <time>2018-01-15T19:21:06Z</time>
      </trkpt>
      <trkpt lat="51.498177" lon="-0.161297">
        <ele>18.6</ele>
        <time>2018-01-15T19:21:07Z</time>
      </trkpt>
      <trkpt lat="51.498188" lon="-0.161421">
        <ele>18.8</ele>
        <time>2018-01-15T19:21:08Z</time>
      </trkpt>
      <trkpt lat="51.498209" lon="-0.16154">
        <ele>19</ele>
        <time>2018-01-15T19:21:09Z</time>
      </trkpt>
      <trkpt lat="51.498225" lon="-0.161667">
        <ele>19</ele>
        <time>2018-01-15T19:21:10Z</time>
      </trkpt>
      <trkpt lat="51.498252" lon="-0.161793">
        <ele>19.2</ele>
        <time>2018-01-15T19:21:11Z</time>
      </trkpt>
      <trkpt lat="51.498274" lon="-0.161917">
        <ele>19.4</ele>
        <time>2018-01-15T19:21:12Z</time>
      </trkpt>
      <trkpt lat="51.4983" lon="-0.162038">
        <ele>19.6</ele>
        <time>2018-01-15T19:21:13Z</time>
      </trkpt>
      <trkpt lat="51.498322" lon="-0.162161">
        <ele>19.6</ele>
        <time>2018-01-15T19:21:14Z</time>
      </trkpt>
      <trkpt lat="51.498343" lon="-0.162283">
        <ele>19.8</ele>
        <time>2018-01-15T19:21:15Z</time>
      </trkpt>
      <trkpt lat="51.49837" lon="-0.162399">
        <ele>20</ele>
        <time>2018-01-15T19:21:16Z</time>
      </trkpt>
      <trkpt lat="51.498392" lon="-0.162525">
        <ele>20</ele>
        <time>2018-01-15T19:21:17Z</time>
      </trkpt>
      <trkpt lat="51.498413" lon="-0.162648">
        <ele>20.2</ele>
        <time>2018-01-15T19:21:18Z</time>
      </trkpt>
      <trkpt lat="51.498435" lon="-0.162777">
        <ele>20.4</ele>
        <time>2018-01-15T19:21:19Z</time>
      </trkpt>
      <trkpt lat="51.498461" lon="-0.162896">
        <ele>20.6</ele>
        <time>2018-01-15T19:21:20Z</time>
      </trkpt>
      <trkpt lat="51.498499" lon="-0.163014">
        <ele>20.6</ele>
        <time>2018-01-15T19:21:21Z</time>
      </trkpt>
      <trkpt lat="51.498531" lon="-0.163127">
        <ele>20.8</ele>
        <time>2018-01-15T19:21:22Z</time>
      </trkpt>
      <trkpt lat="51.498569" lon="-0.163246">
        <ele>21</ele>
        <time>2018-01-15T19:21:23Z</time>
      </trkpt>
      <trkpt lat="51.498601" lon="-0.163358">
        <ele>21.2</ele>
        <time>2018-01-15T19:21:24Z</time>
      </trkpt>
      <trkpt lat="51.498633" lon="-0.163477">
        <ele>21.2</ele>
        <time>2018-01-15T19:21:25Z</time>
      </trkpt>
      <trkpt lat="51.498671" lon="-0.163594">
        <ele>21.4</ele>
        <time>2018-01-15T19:21:26Z</time>
      </trkpt>
      <trkpt lat="51.498708" lon="-0.163705">
        <ele>21.6</ele>
        <time>2018-01-15T19:21:27Z</time>
      </trkpt>
      <trkpt lat="51.498751" lon="-0.163818">
        <ele>21.8</ele>
        <time>2018-01-15T19:21:28Z</time>
      </trkpt>
      <trkpt lat="51.498805" lon="-0.163921">
        <ele>22</ele>
        <time>2018-01-15T19:21:29Z</time>
      </trkpt>
      <trkpt lat="51.498858" lon="-0.164019">
        <ele>22</ele>
        <time>2018-01-15T19:21:30Z</time>
      </trkpt>
      <trkpt lat="51.498917" lon="-0.164106">
        <ele>22.2</ele>
        <time>2018-01-15T19:21:31Z</time>
      </trkpt>
      <trkpt lat="51.498987" lon="-0.164167">
        <ele>22.4</ele>
        <time>2018-01-15T19:21:32Z</time>
      </trkpt>
      <trkpt lat="51.499068" lon="-0.164212">
        <ele>22.4</ele>
        <time>2018-01-15T19:21:33Z</time>
      </trkpt>
      <trkpt lat="51.499143" lon="-0.164226">
        <ele>22.6</ele>
        <time>2018-01-15T19:21:34Z</time>
      </trkpt>
      <trkpt lat="51.499228" lon="-0.164201">
        <ele>22.6</ele>
        <time>2018-01-15T19:21:35Z</time>
      </trkpt>
      <trkpt lat="51.499298" lon="-0.164133">
        <ele>22.6</ele>
        <time>2018-01-15T19:21:36Z</time>
      </trkpt>
      <trkpt lat="51.499363" lon="-0.164035">
        <ele>22.4</ele>
        <time>2018-01-15T19:21:37Z</time>
      </trkpt>
      <trkpt lat="51.499416" lon="-0.163929">
        <ele>22.2</ele>
        <time>2018-01-15T19:21:38Z</time>
      </trkpt>
      <trkpt lat="51.499481" lon="-0.163815">
        <ele>22</ele>
        <time>2018-01-15T19:21:39Z</time>
      </trkpt>
      <trkpt lat="51.499534" lon="-0.163705">
        <ele>22</ele>
        <time>2018-01-15T19:21:40Z</time>
      </trkpt>
      <trkpt lat="51.499593" lon="-0.163597">
        <ele>22</ele>
        <time>2018-01-15T19:21:41Z</time>
      </trkpt>
      <trkpt lat="51.499658" lon="-0.163482">
        <ele>22</ele>
        <time>2018-01-15T19:21:42Z</time>
      </trkpt>
      <trkpt lat="51.499717" lon="-0.163372">
        <ele>22</ele>
        <time>2018-01-15T19:21:43Z</time>
      </trkpt>
      <trkpt lat="51.499786" lon="-0.163258">
        <ele>22.2</ele>
        <time>2018-01-15T19:21:44Z</time>
      </trkpt>
      <trkpt lat="51.499851" lon="-0.163145">
        <ele>22.2</ele>
        <time>2018-01-15T19:21:45Z</time>
      </trkpt>
      <trkpt lat="51.499915" lon="-0.163043">
        <ele>22.2</ele>
        <time>2018-01-15T19:21:46Z</time>
      </trkpt>
      <trkpt lat="51.499985" lon="-0.162935">
        <ele>22.2</ele>
        <time>2018-01-15T19:21:47Z</time>
      </trkpt>
      <trkpt lat="51.500055" lon="-0.162836">
        <ele>22.2</ele>
        <time>2018-01-15T19:21:48Z</time>
      </trkpt>
      <trkpt lat="51.50013" lon="-0.162739">
        <ele>22</ele>
        <time>2018-01-15T19:21:49Z</time>
      </trkpt>
      <trkpt lat="51.500199" lon="-0.162644">
        <ele>22</ele>
        <time>2018-01-15T19:21:50Z</time>
      </trkpt>
      <trkpt lat="51.50028" lon="-0.162544">
        <ele>22</ele>
        <time>2018-01-15T19:21:51Z</time>
      </trkpt>
      <trkpt lat="51.500355" lon="-0.162451">
        <ele>21.8</ele>
        <time>2018-01-15T19:21:52Z</time>
      </trkpt>
      <trkpt lat="51.500435" lon="-0.162355">
        <ele>21.8</ele>
        <time>2018-01-15T19:21:53Z</time>
      </trkpt>
      <trkpt lat="51.500521" lon="-0.162255">
        <ele>21.8</ele>
        <time>2018-01-15T19:21:54Z</time>
      </trkpt>
      <trkpt lat="51.500602" lon="-0.162164">
        <ele>21.8</ele>
        <time>2018-01-15T19:21:55Z</time>
      </trkpt>
      <trkpt lat="51.500682" lon="-0.162066">
        <ele>21.8</ele>
        <time>2018-01-15T19:21:56Z</time>
      </trkpt>
      <trkpt lat="51.500763" lon="-0.161972">
        <ele>21.8</ele>
        <time>2018-01-15T19:21:57Z</time>
      </trkpt>
      <trkpt lat="51.500849" lon="-0.161879">
        <ele>21.8</ele>
        <time>2018-01-15T19:21:58Z</time>
      </trkpt>
      <trkpt lat="51.500934" lon="-0.161784">
        <ele>21.8</ele>
        <time>2018-01-15T19:21:59Z</time>
      </trkpt>
      <trkpt lat="51.501015" lon="-0.161692">
        <ele>22</ele>
        <time>2018-01-15T19:22:00Z</time>
      </trkpt>
      <trkpt lat="51.50109" lon="-0.161602">
        <ele>22</ele>
        <time>2018-01-15T19:22:01Z</time>
      </trkpt>
      <trkpt lat="51.50117" lon="-0.161501">
        <ele>22</ele>
        <time>2018-01-15T19:22:02Z</time>
      </trkpt>
      <trkpt lat="51.501245" lon="-0.161405">
        <ele>22</ele>
        <time>2018-01-15T19:22:03Z</time>
      </trkpt>
      <trkpt lat="51.501321" lon="-0.161294">
        <ele>22</ele>
        <time>2018-01-15T19:22:04Z</time>
      </trkpt>
      <trkpt lat="51.501385" lon="-0.161185">
        <ele>22</ele>
        <time>2018-01-15T19:22:05Z</time>
      </trkpt>
      <trkpt lat="51.501449" lon="-0.161058">
        <ele>21.8</ele>
        <time>2018-01-15T19:22:06Z</time>
      </trkpt>
      <trkpt lat="51.501508" lon="-0.160926">
        <ele>21.8</ele>
        <time>2018-01-15T19:22:07Z</time>
      </trkpt>
      <trkpt lat="51.501557" lon="-0.160787">
        <ele>21.8</ele>
        <time>2018-01-15T19:22:08Z</time>
      </trkpt>
      <trkpt lat="51.501605" lon="-0.160646">
        <ele>21.6</ele>
        <time>2018-01-15T19:22:09Z</time>
      </trkpt>
      <trkpt lat="51.501653" lon="-0.160497">
        <ele>21.6</ele>
        <time>2018-01-15T19:22:10Z</time>
      </trkpt>
      <trkpt lat="51.501696" lon="-0.16035">
        <ele>21.4</ele>
        <time>2018-01-15T19:22:11Z</time>
      </trkpt>
      <trkpt lat="51.501744" lon="-0.160198">
        <ele>21.4</ele>
        <time>2018-01-15T19:22:12Z</time>
      </trkpt>
      <trkpt lat="51.501793" lon="-0.160038">
        <ele>21.4</ele>
        <time>2018-01-15T19:22:13Z</time>
      </trkpt>
      <trkpt lat="51.501836" lon="-0.159882">
        <ele>21.4</ele>
        <time>2018-01-15T19:22:14Z</time>
      </trkpt>
      <trkpt lat="51.501868" lon="-0.159727">
        <ele>21.4</ele>
        <time>2018-01-15T19:22:15Z</time>
      </trkpt>
      <trkpt lat="51.501911" lon="-0.159561">
        <ele>21.4</ele>
        <time>2018-01-15T19:22:16Z</time>
      </trkpt>
      <trkpt lat="51.501938" lon="-0.159405">
        <ele>21.4</ele>
        <time>2018-01-15T19:22:17Z</time>
      </trkpt>
      <trkpt lat="51.501975" lon="-0.159241">
        <ele>21.4</ele>
        <time>2018-01-15T19:22:18Z</time>
      </trkpt>
      <trkpt lat="51.502007" lon="-0.159084">
        <ele>21.4</ele>
        <time>2018-01-15T19:22:19Z</time>
      </trkpt>
      <trkpt lat="51.502039" lon="-0.15893">
        <ele>21.4</ele>
        <time>2018-01-15T19:22:20Z</time>
      </trkpt>
      <trkpt lat="51.502072" lon="-0.158769">
        <ele>21.4</ele>
        <time>2018-01-15T19:22:21Z</time>
      </trkpt>
      <trkpt lat="51.502104" lon="-0.158606">
        <ele>21.2</ele>
        <time>2018-01-15T19:22:22Z</time>
      </trkpt>
      <trkpt lat="51.502125" lon="-0.158446">
        <ele>21.2</ele>
        <time>2018-01-15T19:22:23Z</time>
      </trkpt>
      <trkpt lat="51.502147" lon="-0.158274">
        <ele>21.2</ele>
        <time>2018-01-15T19:22:24Z</time>
      </trkpt>
      <trkpt lat="51.502163" lon="-0.158106">
        <ele>21</ele>
        <time>2018-01-15T19:22:25Z</time>
      </trkpt>
      <trkpt lat="51.502179" lon="-0.157936">
        <ele>20.8</ele>
        <time>2018-01-15T19:22:26Z</time>
      </trkpt>
      <trkpt lat="51.50219" lon="-0.157765">
        <ele>20.8</ele>
        <time>2018-01-15T19:22:27Z</time>
      </trkpt>
      <trkpt lat="51.5022" lon="-0.157591">
        <ele>20.6</ele>
        <time>2018-01-15T19:22:28Z</time>
      </trkpt>
      <trkpt lat="51.5022" lon="-0.157416">
        <ele>20.4</ele>
        <time>2018-01-15T19:22:29Z</time>
      </trkpt>
      <trkpt lat="51.502211" lon="-0.157239">
        <ele>20.4</ele>
        <time>2018-01-15T19:22:30Z</time>
      </trkpt>
      <trkpt lat="51.502216" lon="-0.157056">
        <ele>20.2</ele>
        <time>2018-01-15T19:22:31Z</time>
      </trkpt>
      <trkpt lat="51.502227" lon="-0.156874">
        <ele>20</ele>
        <time>2018-01-15T19:22:32Z</time>
      </trkpt>
      <trkpt lat="51.502243" lon="-0.15669">
        <ele>19.6</ele>
        <time>2018-01-15T19:22:33Z</time>
      </trkpt>
      <trkpt lat="51.502265" lon="-0.156504">
        <ele>19.4</ele>
        <time>2018-01-15T19:22:34Z</time>
      </trkpt>
      <trkpt lat="51.502292" lon="-0.156333">
        <ele>19.2</ele>
        <time>2018-01-15T19:22:35Z</time>
      </trkpt>
      <trkpt lat="51.502318" lon="-0.156145">
        <ele>18.8</ele>
        <time>2018-01-15T19:22:36Z</time>
      </trkpt>
      <trkpt lat="51.502345" lon="-0.15595">
        <ele>18.4</ele>
        <time>2018-01-15T19:22:37Z</time>
      </trkpt>
      <trkpt lat="51.502372" lon="-0.155768">
        <ele>18.2</ele>
        <time>2018-01-15T19:22:38Z</time>
      </trkpt>
      <trkpt lat="51.502404" lon="-0.155574">
        <ele>17.8</ele>
        <time>2018-01-15T19:22:39Z</time>
      </trkpt>
      <trkpt lat="51.502436" lon="-0.155379">
        <ele>17.4</ele>
        <time>2018-01-15T19:22:40Z</time>
      </trkpt>
      <trkpt lat="51.502469" lon="-0.155181">
        <ele>17.2</ele>
        <time>2018-01-15T19:22:41Z</time>
      </trkpt>
      <trkpt lat="51.502501" lon="-0.154991">
        <ele>16.8</ele>
        <time>2018-01-15T19:22:42Z</time>
      </trkpt>
      <trkpt lat="51.502533" lon="-0.154787">
        <ele>16.6</ele>
        <time>2018-01-15T19:22:43Z</time>
      </trkpt>
      <trkpt lat="51.50256" lon="-0.15459">
        <ele>16.2</ele>
        <time>2018-01-15T19:22:44Z</time>
      </trkpt>
      <trkpt lat="51.502592" lon="-0.154392">
        <ele>16</ele>
        <time>2018-01-15T19:22:45Z</time>
      </trkpt>
      <trkpt lat="51.502624" lon="-0.154184">
        <ele>15.8</ele>
        <time>2018-01-15T19:22:46Z</time>
      </trkpt>
      <trkpt lat="51.502662" lon="-0.15399">
        <ele>15.4</ele>
        <time>2018-01-15T19:22:47Z</time>
      </trkpt>
      <trkpt lat="51.502699" lon="-0.153784">
        <ele>15</ele>
        <time>2018-01-15T19:22:48Z</time>
      </trkpt>
      <trkpt lat="51.502742" lon="-0.153579">
        <ele>14.6</ele>
        <time>2018-01-15T19:22:49Z</time>
      </trkpt>
      <trkpt lat="51.502785" lon="-0.153385">
        <ele>14.2</ele>
        <time>2018-01-15T19:22:50Z</time>
      </trkpt>
      <trkpt lat="51.502823" lon="-0.153186">
        <ele>13.8</ele>
        <time>2018-01-15T19:22:51Z</time>
      </trkpt>
      <trkpt lat="51.50286" lon="-0.152964">
        <ele>13.4</ele>
        <time>2018-01-15T19:22:52Z</time>
      </trkpt>
      <trkpt lat="51.502882" lon="-0.152744">
        <ele>13</ele>
        <time>2018-01-15T19:22:53Z</time>
      </trkpt>
      <trkpt lat="51.502887" lon="-0.152529">
        <ele>12.8</ele>
        <time>2018-01-15T19:22:54Z</time>
      </trkpt>
      <trkpt lat="51.502898" lon="-0.152303">
        <ele>12.6</ele>
        <time>2018-01-15T19:22:55Z</time>
      </trkpt>
      <trkpt lat="51.502898" lon="-0.152086">
        <ele>12.4</ele>
        <time>2018-01-15T19:22:56Z</time>
      </trkpt>
      <trkpt lat="51.502898" lon="-0.151872">
        <ele>12.2</ele>
        <time>2018-01-15T19:22:57Z</time>
      </trkpt>
      <trkpt lat="51.502908" lon="-0.151643">
        <ele>12</ele>
        <time>2018-01-15T19:22:58Z</time>
      </trkpt>
      <trkpt lat="51.502914" lon="-0.151425">
        <ele>12</ele>
        <time>2018-01-15T19:22:59Z</time>
      </trkpt>
      <trkpt lat="51.502925" lon="-0.151216">
        <ele>12</ele>
        <time>2018-01-15T19:23:00Z</time>
      </trkpt>
      <trkpt lat="51.502941" lon="-0.151022">
        <ele>12.2</ele>
        <time>2018-01-15T19:23:01Z</time>
      </trkpt>
      <trkpt lat="51.502951" lon="-0.150847">
        <ele>12.4</ele>
        <time>2018-01-15T19:23:02Z</time>
      </trkpt>
      <trkpt lat="51.502978" lon="-0.150671">
        <ele>12.6</ele>
        <time>2018-01-15T19:23:03Z</time>
      </trkpt>
      <trkpt lat="51.503005" lon="-0.150499">
        <ele>13</ele>
        <time>2018-01-15T19:23:04Z</time>
      </trkpt>
      <trkpt lat="51.503032" lon="-0.150329">
        <ele>13</ele>
        <time>2018-01-15T19:23:05Z</time>
      </trkpt>
      <trkpt lat="51.503064" lon="-0.150175">
        <ele>13.2</ele>
        <time>2018-01-15T19:23:06Z</time>
      </trkpt>
      <trkpt lat="51.503107" lon="-0.150015">
        <ele>13.2</ele>
        <time>2018-01-15T19:23:07Z</time>
      </trkpt>
      <trkpt lat="51.503155" lon="-0.149872">
        <ele>13.4</ele>
        <time>2018-01-15T19:23:08Z</time>
      </trkpt>
      <trkpt lat="51.503204" lon="-0.149722">
        <ele>13.6</ele>
        <time>2018-01-15T19:23:09Z</time>
      </trkpt>
      <trkpt lat="51.503257" lon="-0.149578">
        <ele>14</ele>
        <time>2018-01-15T19:23:10Z</time>
      </trkpt>
      <trkpt lat="51.503311" lon="-0.149443">
        <ele>14.4</ele>
        <time>2018-01-15T19:23:11Z</time>
      </trkpt>
      <trkpt lat="51.503359" lon="-0.149324">
        <ele>14.8</ele>
        <time>2018-01-15T19:23:12Z</time>
      </trkpt>
      <trkpt lat="51.503413" lon="-0.149192">
        <ele>15</ele>
        <time>2018-01-15T19:23:13Z</time>
      </trkpt>
      <trkpt lat="51.503472" lon="-0.14907">
        <ele>15.2</ele>
        <time>2018-01-15T19:23:14Z</time>
      </trkpt>
      <trkpt lat="51.503525" lon="-0.148952">
        <ele>15.4</ele>
        <time>2018-01-15T19:23:15Z</time>
      </trkpt>
      <trkpt lat="51.503574" lon="-0.148839">
        <ele>15.8</ele>
        <time>2018-01-15T19:23:16Z</time>
      </trkpt>
      <trkpt lat="51.503633" lon="-0.148711">
        <ele>16.2</ele>
        <time>2018-01-15T19:23:17Z</time>
      </trkpt>
      <trkpt lat="51.503686" lon="-0.148595">
        <ele>16.6</ele>
        <time>2018-01-15T19:23:18Z</time>
      </trkpt>
      <trkpt lat="51.503735" lon="-0.148481">
        <ele>17</ele>
        <time>2018-01-15T19:23:19Z</time>
      </trkpt>
      <trkpt lat="51.503788" lon="-0.14837">
        <ele>17.4</ele>
        <time>2018-01-15T19:23:20Z</time>
      </trkpt>
      <trkpt lat="51.503837" lon="-0.148275">
        <ele>17.8</ele>
        <time>2018-01-15T19:23:21Z</time>
      </trkpt>
      <trkpt lat="51.50389" lon="-0.148169">
        <ele>18.2</ele>
        <time>2018-01-15T19:23:22Z</time>
      </trkpt>
      <trkpt lat="51.503944" lon="-0.148074">
        <ele>18.6</ele>
        <time>2018-01-15T19:23:23Z</time>
      </trkpt>
      <trkpt lat="51.503992" lon="-0.14798">
        <ele>18.8</ele>
        <time>2018-01-15T19:23:24Z</time>
      </trkpt>
      <trkpt lat="51.504046" lon="-0.147889">
        <ele>19.2</ele>
        <time>2018-01-15T19:23:25Z</time>
      </trkpt>
      <trkpt lat="51.504105" lon="-0.147803">
        <ele>19.4</ele>
        <time>2018-01-15T19:23:26Z</time>
      </trkpt>
      <trkpt lat="51.504158" lon="-0.147729">
        <ele>19.8</ele>
        <time>2018-01-15T19:23:27Z</time>
      </trkpt>
      <trkpt lat="51.504217" lon="-0.147652">
        <ele>20</ele>
        <time>2018-01-15T19:23:28Z</time>
      </trkpt>
      <trkpt lat="51.504271" lon="-0.147575">
        <ele>20.2</ele>
        <time>2018-01-15T19:23:29Z</time>
      </trkpt>
      <trkpt lat="51.504325" lon="-0.147503">
        <ele>20.4</ele>
        <time>2018-01-15T19:23:30Z</time>
      </trkpt>
      <trkpt lat="51.504373" lon="-0.147425">
        <ele>20.6</ele>
        <time>2018-01-15T19:23:31Z</time>
      </trkpt>
      <trkpt lat="51.504421" lon="-0.147339">
        <ele>20.8</ele>
        <time>2018-01-15T19:23:32Z</time>
      </trkpt>
      <trkpt lat="51.504464" lon="-0.147261">
        <ele>21</ele>
        <time>2018-01-15T19:23:33Z</time>
      </trkpt>
      <trkpt lat="51.504512" lon="-0.147174">
        <ele>21.2</ele>
        <time>2018-01-15T19:23:34Z</time>
      </trkpt>
      <trkpt lat="51.504561" lon="-0.147094">
        <ele>21.4</ele>
        <time>2018-01-15T19:23:35Z</time>
      </trkpt>
      <trkpt lat="51.504604" lon="-0.147009">
        <ele>21.6</ele>
        <time>2018-01-15T19:23:36Z</time>
      </trkpt>
      <trkpt lat="51.504652" lon="-0.146922">
        <ele>22</ele>
        <time>2018-01-15T19:23:37Z</time>
      </trkpt>
      <trkpt lat="51.504695" lon="-0.146834">
        <ele>22</ele>
        <time>2018-01-15T19:23:38Z</time>
      </trkpt>
      <trkpt lat="51.504743" lon="-0.146749">
        <ele>22.2</ele>
        <time>2018-01-15T19:23:39Z</time>
      </trkpt>
      <trkpt lat="51.504786" lon="-0.146666">
        <ele>22.4</ele>
        <time>2018-01-15T19:23:40Z</time>
      </trkpt>
      <trkpt lat="51.504829" lon="-0.146589">
        <ele>22.6</ele>
        <time>2018-01-15T19:23:41Z</time>
      </trkpt>
      <trkpt lat="51.504872" lon="-0.146507">
        <ele>22.6</ele>
        <time>2018-01-15T19:23:42Z</time>
      </trkpt>
      <trkpt lat="51.50492" lon="-0.146422">
        <ele>22.6</ele>
        <time>2018-01-15T19:23:43Z</time>
      </trkpt>
      <trkpt lat="51.504963" lon="-0.146333">
        <ele>22.8</ele>
        <time>2018-01-15T19:23:44Z</time>
      </trkpt>
      <trkpt lat="51.505011" lon="-0.146243">
        <ele>22.6</ele>
        <time>2018-01-15T19:23:45Z</time>
      </trkpt>
      <trkpt lat="51.505054" lon="-0.146143">
        <ele>22.6</ele>
        <time>2018-01-15T19:23:46Z</time>
      </trkpt>
      <trkpt lat="51.505103" lon="-0.146046">
        <ele>22.6</ele>
        <time>2018-01-15T19:23:47Z</time>
      </trkpt>
      <trkpt lat="51.505145" lon="-0.14594">
        <ele>22.4</ele>
        <time>2018-01-15T19:23:48Z</time>
      </trkpt>
      <trkpt lat="51.505194" lon="-0.145831">
        <ele>22.4</ele>
        <time>2018-01-15T19:23:49Z</time>
      </trkpt>
      <trkpt lat="51.505242" lon="-0.145712">
        <ele>22.2</ele>
        <time>2018-01-15T19:23:50Z</time>
      </trkpt>
      <trkpt lat="51.50529" lon="-0.145602">
        <ele>22.2</ele>
        <time>2018-01-15T19:23:51Z</time>
      </trkpt>
      <trkpt lat="51.505344" lon="-0.145488">
        <ele>22</ele>
        <time>2018-01-15T19:23:52Z</time>
      </trkpt>
      <trkpt lat="51.505398" lon="-0.145377">
        <ele>22</ele>
        <time>2018-01-15T19:23:53Z</time>
      </trkpt>
      <trkpt lat="51.505462" lon="-0.145266">
        <ele>22.2</ele>
        <time>2018-01-15T19:23:54Z</time>
      </trkpt>
      <trkpt lat="51.505521" lon="-0.145159">
        <ele>22.2</ele>
        <time>2018-01-15T19:23:55Z</time>
      </trkpt>
      <trkpt lat="51.50558" lon="-0.145049">
        <ele>22.4</ele>
        <time>2018-01-15T19:23:56Z</time>
      </trkpt>
      <trkpt lat="51.505644" lon="-0.144941">
        <ele>22.6</ele>
        <time>2018-01-15T19:23:57Z</time>
      </trkpt>
      <trkpt lat="51.505703" lon="-0.144836">
        <ele>22.6</ele>
        <time>2018-01-15T19:23:58Z</time>
      </trkpt>
      <trkpt lat="51.505762" lon="-0.144731">
        <ele>22.8</ele>
        <time>2018-01-15T19:23:59Z</time>
      </trkpt>
      <trkpt lat="51.505816" lon="-0.144623">
        <ele>23</ele>
        <time>2018-01-15T19:24:00Z</time>
      </trkpt>
      <trkpt lat="51.50587" lon="-0.144513">
        <ele>23</ele>
        <time>2018-01-15T19:24:01Z</time>
      </trkpt>
      <trkpt lat="51.505929" lon="-0.144407">
        <ele>23.2</ele>
        <time>2018-01-15T19:24:02Z</time>
      </trkpt>
      <trkpt lat="51.505977" lon="-0.144305">
        <ele>23.4</ele>
        <time>2018-01-15T19:24:03Z</time>
      </trkpt>
      <trkpt lat="51.506036" lon="-0.144196">
        <ele>23.4</ele>
        <time>2018-01-15T19:24:04Z</time>
      </trkpt>
      <trkpt lat="51.50609" lon="-0.144092">
        <ele>23.6</ele>
        <time>2018-01-15T19:24:05Z</time>
      </trkpt>
      <trkpt lat="51.506143" lon="-0.143986">
        <ele>23.8</ele>
        <time>2018-01-15T19:24:06Z</time>
      </trkpt>
      <trkpt lat="51.506202" lon="-0.143874">
        <ele>24</ele>
        <time>2018-01-15T19:24:07Z</time>
      </trkpt>
      <trkpt lat="51.506256" lon="-0.143772">
        <ele>24.2</ele>
        <time>2018-01-15T19:24:08Z</time>
      </trkpt>
      <trkpt lat="51.50631" lon="-0.143663">
        <ele>24.4</ele>
        <time>2018-01-15T19:24:09Z</time>
      </trkpt>
      <trkpt lat="51.506358" lon="-0.143553">
        <ele>24.6</ele>
        <time>2018-01-15T19:24:10Z</time>
      </trkpt>
      <trkpt lat="51.506411" lon="-0.143448">
        <ele>24.8</ele>
        <time>2018-01-15T19:24:11Z</time>
      </trkpt>
      <trkpt lat="51.506465" lon="-0.14334">
        <ele>25</ele>
        <time>2018-01-15T19:24:12Z</time>
      </trkpt>
      <trkpt lat="51.506513" lon="-0.143235">
        <ele>25.2</ele>
        <time>2018-01-15T19:24:13Z</time>
      </trkpt>
      <trkpt lat="51.506562" lon="-0.143132">
        <ele>25.4</ele>
        <time>2018-01-15T19:24:14Z</time>
      </trkpt>
      <trkpt lat="51.506615" lon="-0.143025">
        <ele>25.6</ele>
        <time>2018-01-15T19:24:15Z</time>
      </trkpt>
      <trkpt lat="51.506669" lon="-0.142926">
        <ele>25.8</ele>
        <time>2018-01-15T19:24:16Z</time>
      </trkpt>
      <trkpt lat="51.506717" lon="-0.142829">
        <ele>26.2</ele>
        <time>2018-01-15T19:24:17Z</time>
      </trkpt>
      <trkpt lat="51.506771" lon="-0.142732">
        <ele>26.4</ele>
        <time>2018-01-15T19:24:18Z</time>
      </trkpt>
      <trkpt lat="51.506819" lon="-0.142635">
        <ele>26.6</ele>
        <time>2018-01-15T19:24:19Z</time>
      </trkpt>
      <trkpt lat="51.506867" lon="-0.142537">
        <ele>26.8</ele>
        <time>2018-01-15T19:24:20Z</time>
      </trkpt>
      <trkpt lat="51.506916" lon="-0.142441">
        <ele>27</ele>
        <time>2018-01-15T19:24:21Z</time>
      </trkpt>
      <trkpt lat="51.506969" lon="-0.14234">
        <ele>27.4</ele>
        <time>2018-01-15T19:24:22Z</time>
      </trkpt>
      <trkpt lat="51.507007" lon="-0.142251">
        <ele>27.6</ele>
        <time>2018-01-15T19:24:23Z</time>
      </trkpt>
      <trkpt lat="51.507055" lon="-0.142162">
        <ele>27.8</ele>
        <time>2018-01-15T19:24:24Z</time>
      </trkpt>
      <trkpt lat="51.507098" lon="-0.142073">
        <ele>28</ele>
        <time>2018-01-15T19:24:25Z</time>
      </trkpt>
      <trkpt lat="51.507141" lon="-0.141982">
        <ele>28.2</ele>
        <time>2018-01-15T19:24:26Z</time>
      </trkpt>
      <trkpt lat="51.507184" lon="-0.141891">
        <ele>28.4</ele>
        <time>2018-01-15T19:24:27Z</time>
      </trkpt>
      <trkpt lat="51.507227" lon="-0.1418">
        <ele>28.6</ele>
        <time>2018-01-15T19:24:28Z</time>
      </trkpt>
      <trkpt lat="51.50727" lon="-0.141712">
        <ele>29</ele>
        <time>2018-01-15T19:24:29Z</time>
      </trkpt>
      <trkpt lat="51.507313" lon="-0.141618">
        <ele>29.2</ele>
        <time>2018-01-15T19:24:30Z</time>
      </trkpt>
      <trkpt lat="51.50735" lon="-0.141527">
        <ele>29.4</ele>
        <time>2018-01-15T19:24:31Z</time>
      </trkpt>
      <trkpt lat="51.507398" lon="-0.141438">
        <ele>29.6</ele>
        <time>2018-01-15T19:24:32Z</time>
      </trkpt>
      <trkpt lat="51.507441" lon="-0.141346">
        <ele>29.8</ele>
        <time>2018-01-15T19:24:33Z</time>
      </trkpt>
      <trkpt lat="51.507484" lon="-0.141259">
        <ele>30</ele>
        <time>2018-01-15T19:24:34Z</time>
      </trkpt>
      <trkpt lat="51.507522" lon="-0.141172">
        <ele>30.2</ele>
        <time>2018-01-15T19:24:35Z</time>
      </trkpt>
      <trkpt lat="51.50757" lon="-0.141082">
        <ele>30.6</ele>
        <time>2018-01-15T19:24:36Z</time>
      </trkpt>
      <trkpt lat="51.507613" lon="-0.14099">
        <ele>30.8</ele>
        <time>2018-01-15T19:24:37Z</time>
      </trkpt>
      <trkpt lat="51.507656" lon="-0.140897">
        <ele>31</ele>
        <time>2018-01-15T19:24:38Z</time>
      </trkpt>
      <trkpt lat="51.507688" lon="-0.140802">
        <ele>31.2</ele>
        <time>2018-01-15T19:24:39Z</time>
      </trkpt>
      <trkpt lat="51.50771" lon="-0.140699">
        <ele>31.4</ele>
        <time>2018-01-15T19:24:40Z</time>
      </trkpt>
      <trkpt lat="51.50771" lon="-0.140586">
        <ele>31.4</ele>
        <time>2018-01-15T19:24:41Z</time>
      </trkpt>
      <trkpt lat="51.507683" lon="-0.140487">
        <ele>31.4</ele>
        <time>2018-01-15T19:24:42Z</time>
      </trkpt>
      <trkpt lat="51.507624" lon="-0.140411">
        <ele>31.4</ele>
        <time>2018-01-15T19:24:43Z</time>
      </trkpt>
      <trkpt lat="51.507559" lon="-0.140356">
        <ele>31.2</ele>
        <time>2018-01-15T19:24:44Z</time>
      </trkpt>
      <trkpt lat="51.507495" lon="-0.140295">
        <ele>31</ele>
        <time>2018-01-15T19:24:45Z</time>
      </trkpt>
      <trkpt lat="51.50742" lon="-0.140229">
        <ele>30.8</ele>
        <time>2018-01-15T19:24:46Z</time>
      </trkpt>
      <trkpt lat="51.507345" lon="-0.140158">
        <ele>30.4</ele>
        <time>2018-01-15T19:24:47Z</time>
      </trkpt>
      <trkpt lat="51.507264" lon="-0.140085">
        <ele>30</ele>
        <time>2018-01-15T19:24:48Z</time>
      </trkpt>
      <trkpt lat="51.507184" lon="-0.140014">
        <ele>29.6</ele>
        <time>2018-01-15T19:24:49Z</time>
      </trkpt>
      <trkpt lat="51.507098" lon="-0.139938">
        <ele>29.2</ele>
        <time>2018-01-15T19:24:50Z</time>
      </trkpt>
      <trkpt lat="51.507007" lon="-0.139864">
        <ele>28.8</ele>
        <time>2018-01-15T19:24:51Z</time>
      </trkpt>
      <trkpt lat="51.506916" lon="-0.139781">
        <ele>28.2</ele>
        <time>2018-01-15T19:24:52Z</time>
      </trkpt>
      <trkpt lat="51.506819" lon="-0.139696">
        <ele>27.8</ele>
        <time>2018-01-15T19:24:53Z</time>
      </trkpt>
      <trkpt lat="51.506723" lon="-0.13961">
        <ele>27.4</ele>
        <time>2018-01-15T19:24:54Z</time>
      </trkpt>
      <trkpt lat="51.506621" lon="-0.139517">
        <ele>26.8</ele>
        <time>2018-01-15T19:24:55Z</time>
      </trkpt>
      <trkpt lat="51.506519" lon="-0.139421">
        <ele>26.4</ele>
        <time>2018-01-15T19:24:56Z</time>
      </trkpt>
      <trkpt lat="51.506411" lon="-0.13932">
        <ele>26</ele>
        <time>2018-01-15T19:24:57Z</time>
      </trkpt>
      <trkpt lat="51.506315" lon="-0.139222">
        <ele>25.4</ele>
        <time>2018-01-15T19:24:58Z</time>
      </trkpt>
      <trkpt lat="51.506208" lon="-0.139117">
        <ele>25</ele>
        <time>2018-01-15T19:24:59Z</time>
      </trkpt>
      <trkpt lat="51.506106" lon="-0.139017">
        <ele>24.6</ele>
        <time>2018-01-15T19:25:00Z</time>
      </trkpt>
      <trkpt lat="51.505993" lon="-0.138905">
        <ele>24.2</ele>
        <time>2018-01-15T19:25:01Z</time>
      </trkpt>
      <trkpt lat="51.505886" lon="-0.138795">
        <ele>23.8</ele>
        <time>2018-01-15T19:25:02Z</time>
      </trkpt>
      <trkpt lat="51.505778" lon="-0.13868">
        <ele>23.4</ele>
        <time>2018-01-15T19:25:03Z</time>
      </trkpt>
      <trkpt lat="51.505666" lon="-0.138566">
        <ele>22.8</ele>
        <time>2018-01-15T19:25:04Z</time>
      </trkpt>
      <trkpt lat="51.505553" lon="-0.138454">
        <ele>22.4</ele>
        <time>2018-01-15T19:25:05Z</time>
      </trkpt>
      <trkpt lat="51.50544" lon="-0.138343">
        <ele>22</ele>
        <time>2018-01-15T19:25:06Z</time>
      </trkpt>
      <trkpt lat="51.505322" lon="-0.138242">
        <ele>22</ele>
        <time>2018-01-15T19:25:07Z</time>
      </trkpt>
      <trkpt lat="51.505215" lon="-0.138141">
        <ele>22</ele>
        <time>2018-01-15T19:25:08Z</time>
      </trkpt>
      <trkpt lat="51.505156" lon="-0.137973">
        <ele>22.2</ele>
        <time>2018-01-15T19:25:09Z</time>
      </trkpt>
      <trkpt lat="51.505194" lon="-0.137781">
        <ele>22.4</ele>
        <time>2018-01-15T19:25:10Z</time>
      </trkpt>
      <trkpt lat="51.505258" lon="-0.137611">
        <ele>22.4</ele>
        <time>2018-01-15T19:25:11Z</time>
      </trkpt>
      <trkpt lat="51.505322" lon="-0.13745">
        <ele>22.6</ele>
        <time>2018-01-15T19:25:12Z</time>
      </trkpt>
      <trkpt lat="51.505387" lon="-0.137289">
        <ele>22.6</ele>
        <time>2018-01-15T19:25:13Z</time>
      </trkpt>
      <trkpt lat="51.505457" lon="-0.137134">
        <ele>22.8</ele>
        <time>2018-01-15T19:25:14Z</time>
      </trkpt>
      <trkpt lat="51.505521" lon="-0.136973">
        <ele>23</ele>
        <time>2018-01-15T19:25:15Z</time>
      </trkpt>
      <trkpt lat="51.505585" lon="-0.13682">
        <ele>23.4</ele>
        <time>2018-01-15T19:25:16Z</time>
      </trkpt>
      <trkpt lat="51.505644" lon="-0.136672">
        <ele>23.8</ele>
        <time>2018-01-15T19:25:17Z</time>
      </trkpt>
      <trkpt lat="51.505703" lon="-0.136522">
        <ele>24</ele>
        <time>2018-01-15T19:25:18Z</time>
      </trkpt>
      <trkpt lat="51.505757" lon="-0.136374">
        <ele>24.2</ele>
        <time>2018-01-15T19:25:19Z</time>
      </trkpt>
      <trkpt lat="51.505811" lon="-0.136215">
        <ele>24.4</ele>
        <time>2018-01-15T19:25:20Z</time>
      </trkpt>
      <trkpt lat="51.505864" lon="-0.136068">
        <ele>24.4</ele>
        <time>2018-01-15T19:25:21Z</time>
      </trkpt>
      <trkpt lat="51.505918" lon="-0.135922">
        <ele>24.6</ele>
        <time>2018-01-15T19:25:22Z</time>
      </trkpt>
      <trkpt lat="51.505972" lon="-0.135774">
        <ele>24.6</ele>
        <time>2018-01-15T19:25:23Z</time>
      </trkpt>
      <trkpt lat="51.506025" lon="-0.135628">
        <ele>24.6</ele>
        <time>2018-01-15T19:25:24Z</time>
      </trkpt>
      <trkpt lat="51.506079" lon="-0.135477">
        <ele>24.4</ele>
        <time>2018-01-15T19:25:25Z</time>
      </trkpt>
      <trkpt lat="51.506127" lon="-0.13533">
        <ele>24.4</ele>
        <time>2018-01-15T19:25:26Z</time>
      </trkpt>
      <trkpt lat="51.506181" lon="-0.135185">
        <ele>24.4</ele>
        <time>2018-01-15T19:25:27Z</time>
      </trkpt>
      <trkpt lat="51.506229" lon="-0.135045">
        <ele>24.4</ele>
        <time>2018-01-15T19:25:28Z</time>
      </trkpt>
      <trkpt lat="51.506283" lon="-0.134897">
        <ele>24.4</ele>
        <time>2018-01-15T19:25:29Z</time>
      </trkpt>
      <trkpt lat="51.506331" lon="-0.134751">
        <ele>24.4</ele>
        <time>2018-01-15T19:25:30Z</time>
      </trkpt>
      <trkpt lat="51.506379" lon="-0.134603">
        <ele>24.2</ele>
        <time>2018-01-15T19:25:31Z</time>
      </trkpt>
      <trkpt lat="51.506428" lon="-0.134461">
        <ele>24.2</ele>
        <time>2018-01-15T19:25:32Z</time>
      </trkpt>
      <trkpt lat="51.506481" lon="-0.134314">
        <ele>24.2</ele>
        <time>2018-01-15T19:25:33Z</time>
      </trkpt>
      <trkpt lat="51.506535" lon="-0.134176">
        <ele>24.2</ele>
        <time>2018-01-15T19:25:34Z</time>
      </trkpt>
      <trkpt lat="51.506588" lon="-0.134026">
        <ele>24.2</ele>
        <time>2018-01-15T19:25:35Z</time>
      </trkpt>
      <trkpt lat="51.506642" lon="-0.13388">
        <ele>24.4</ele>
        <time>2018-01-15T19:25:36Z</time>
      </trkpt>
      <trkpt lat="51.506696" lon="-0.133746">
        <ele>24.4</ele>
        <time>2018-01-15T19:25:37Z</time>
      </trkpt>
      <trkpt lat="51.506755" lon="-0.133596">
        <ele>24.4</ele>
        <time>2018-01-15T19:25:38Z</time>
      </trkpt>
      <trkpt lat="51.506803" lon="-0.133459">
        <ele>24.4</ele>
        <time>2018-01-15T19:25:39Z</time>
      </trkpt>
      <trkpt lat="51.506857" lon="-0.133316">
        <ele>24.4</ele>
        <time>2018-01-15T19:25:40Z</time>
      </trkpt>
      <trkpt lat="51.50691" lon="-0.133172">
        <ele>24.4</ele>
        <time>2018-01-15T19:25:41Z</time>
      </trkpt>
      <trkpt lat="51.506964" lon="-0.133026">
        <ele>24.4</ele>
        <time>2018-01-15T19:25:42Z</time>
      </trkpt>
      <trkpt lat="51.507012" lon="-0.132884">
        <ele>24.4</ele>
        <time>2018-01-15T19:25:43Z</time>
      </trkpt>
      <trkpt lat="51.507066" lon="-0.132746">
        <ele>24.4</ele>
        <time>2018-01-15T19:25:44Z</time>
      </trkpt>
      <trkpt lat="51.507114" lon="-0.13261">
        <ele>24.4</ele>
        <time>2018-01-15T19:25:45Z</time>
      </trkpt>
      <trkpt lat="51.507168" lon="-0.132474">
        <ele>24.4</ele>
        <time>2018-01-15T19:25:46Z</time>
      </trkpt>
      <trkpt lat="51.507216" lon="-0.132337">
        <ele>24.4</ele>
        <time>2018-01-15T19:25:47Z</time>
      </trkpt>
      <trkpt lat="51.50727" lon="-0.132195">
        <ele>24.4</ele>
        <time>2018-01-15T19:25:48Z</time>
      </trkpt>
      <trkpt lat="51.507323" lon="-0.132062">
        <ele>24.4</ele>
        <time>2018-01-15T19:25:49Z</time>
      </trkpt>
      <trkpt lat="51.507377" lon="-0.131919">
        <ele>24.4</ele>
        <time>2018-01-15T19:25:50Z</time>
      </trkpt>
      <trkpt lat="51.507425" lon="-0.131779">
        <ele>24.6</ele>
        <time>2018-01-15T19:25:51Z</time>
      </trkpt>
      <trkpt lat="51.507474" lon="-0.131634">
        <ele>24.6</ele>
        <time>2018-01-15T19:25:52Z</time>
      </trkpt>
      <trkpt lat="51.507522" lon="-0.131489">
        <ele>24.8</ele>
        <time>2018-01-15T19:25:53Z</time>
      </trkpt>
      <trkpt lat="51.50757" lon="-0.13134">
        <ele>24.8</ele>
        <time>2018-01-15T19:25:54Z</time>
      </trkpt>
      <trkpt lat="51.507602" lon="-0.131195">
        <ele>24.6</ele>
        <time>2018-01-15T19:25:55Z</time>
      </trkpt>
      <trkpt lat="51.507629" lon="-0.131034">
        <ele>24.4</ele>
        <time>2018-01-15T19:25:56Z</time>
      </trkpt>
      <trkpt lat="51.507629" lon="-0.13087">
        <ele>24.2</ele>
        <time>2018-01-15T19:25:57Z</time>
      </trkpt>
      <trkpt lat="51.507618" lon="-0.130705">
        <ele>24</ele>
        <time>2018-01-15T19:25:58Z</time>
      </trkpt>
      <trkpt lat="51.507602" lon="-0.130544">
        <ele>23.8</ele>
        <time>2018-01-15T19:25:59Z</time>
      </trkpt>
      <trkpt lat="51.507586" lon="-0.130374">
        <ele>24</ele>
        <time>2018-01-15T19:26:00Z</time>
      </trkpt>
      <trkpt lat="51.507565" lon="-0.130211">
        <ele>24</ele>
        <time>2018-01-15T19:26:01Z</time>
      </trkpt>
      <trkpt lat="51.507549" lon="-0.130054">
        <ele>24.2</ele>
        <time>2018-01-15T19:26:02Z</time>
      </trkpt>
      <trkpt lat="51.507527" lon="-0.129889">
        <ele>24.2</ele>
        <time>2018-01-15T19:26:03Z</time>
      </trkpt>
      <trkpt lat="51.507511" lon="-0.129729">
        <ele>24.4</ele>
        <time>2018-01-15T19:26:04Z</time>
      </trkpt>
      <trkpt lat="51.50749" lon="-0.129577">
        <ele>24.4</ele>
        <time>2018-01-15T19:26:05Z</time>
      </trkpt>
      <trkpt lat="51.507468" lon="-0.129418">
        <ele>24.4</ele>
        <time>2018-01-15T19:26:06Z</time>
      </trkpt>
      <trkpt lat="51.507452" lon="-0.129259">
        <ele>24.6</ele>
        <time>2018-01-15T19:26:07Z</time>
      </trkpt>
      <trkpt lat="51.507431" lon="-0.129102">
        <ele>24.4</ele>
        <time>2018-01-15T19:26:08Z</time>
      </trkpt>
      <trkpt lat="51.507409" lon="-0.128943">
        <ele>24.4</ele>
        <time>2018-01-15T19:26:09Z</time>
      </trkpt>
      <trkpt lat="51.507388" lon="-0.128784">
        <ele>24.4</ele>
        <time>2018-01-15T19:26:10Z</time>
      </trkpt>
      <trkpt lat="51.507372" lon="-0.128629">
        <ele>24.4</ele>
        <time>2018-01-15T19:26:11Z</time>
      </trkpt>
      <trkpt lat="51.50735" lon="-0.128466">
        <ele>24.4</ele>
        <time>2018-01-15T19:26:12Z</time>
      </trkpt>
      <trkpt lat="51.507329" lon="-0.128313">
        <ele>24.4</ele>
        <time>2018-01-15T19:26:13Z</time>
      </trkpt>
      <trkpt lat="51.507297" lon="-0.12816">
        <ele>24.4</ele>
        <time>2018-01-15T19:26:14Z</time>
      </trkpt>
      <trkpt lat="51.507232" lon="-0.128046">
        <ele>24.4</ele>
        <time>2018-01-15T19:26:15Z</time>
      </trkpt>
      <trkpt lat="51.507141" lon="-0.128078">
        <ele>24.4</ele>
        <time>2018-01-15T19:26:16Z</time>
      </trkpt>
      <trkpt lat="51.507055" lon="-0.128149">
        <ele>24.4</ele>
        <time>2018-01-15T19:26:17Z</time>
      </trkpt>
      <trkpt lat="51.506969" lon="-0.128243">
        <ele>24.4</ele>
        <time>2018-01-15T19:26:18Z</time>
      </trkpt>
      <trkpt lat="51.506889" lon="-0.128344">
        <ele>24.4</ele>
        <time>2018-01-15T19:26:19Z</time>
      </trkpt>
      <trkpt lat="51.506814" lon="-0.128458">
        <ele>24.4</ele>
        <time>2018-01-15T19:26:20Z</time>
      </trkpt>
      <trkpt lat="51.506749" lon="-0.12858">
        <ele>24.4</ele>
        <time>2018-01-15T19:26:21Z</time>
      </trkpt>
      <trkpt lat="51.506696" lon="-0.128715">
        <ele>24.4</ele>
        <time>2018-01-15T19:26:22Z</time>
      </trkpt>
      <trkpt lat="51.506642" lon="-0.12885">
        <ele>24.4</ele>
        <time>2018-01-15T19:26:23Z</time>
      </trkpt>
      <trkpt lat="51.506583" lon="-0.128993">
        <ele>24.4</ele>
        <time>2018-01-15T19:26:24Z</time>
      </trkpt>
      <trkpt lat="51.506529" lon="-0.129125">
        <ele>24.2</ele>
        <time>2018-01-15T19:26:25Z</time>
      </trkpt>
      <trkpt lat="51.506476" lon="-0.129271">
        <ele>24.2</ele>
        <time>2018-01-15T19:26:26Z</time>
      </trkpt>
      <trkpt lat="51.506428" lon="-0.129411">
        <ele>24.2</ele>
        <time>2018-01-15T19:26:27Z</time>
      </trkpt>
      <trkpt lat="51.506369" lon="-0.12955">
        <ele>24</ele>
        <time>2018-01-15T19:26:28Z</time>
      </trkpt>
      <trkpt lat="51.50631" lon="-0.129686">
        <ele>23.8</ele>
        <time>2018-01-15T19:26:29Z</time>
      </trkpt>
      <trkpt lat="51.506251" lon="-0.129822">
        <ele>23.6</ele>
        <time>2018-01-15T19:26:30Z</time>
      </trkpt>
      <trkpt lat="51.506191" lon="-0.129966">
        <ele>23.4</ele>
        <time>2018-01-15T19:26:31Z</time>
      </trkpt>
      <trkpt lat="51.506132" lon="-0.13011">
        <ele>23</ele>
        <time>2018-01-15T19:26:32Z</time>
      </trkpt>
      <trkpt lat="51.506068" lon="-0.130259">
        <ele>22.6</ele>
        <time>2018-01-15T19:26:33Z</time>
      </trkpt>
      <trkpt lat="51.506004" lon="-0.130408">
        <ele>22.2</ele>
        <time>2018-01-15T19:26:34Z</time>
      </trkpt>
      <trkpt lat="51.505939" lon="-0.130558">
        <ele>22</ele>
        <time>2018-01-15T19:26:35Z</time>
      </trkpt>
      <trkpt lat="51.50587" lon="-0.13071">
        <ele>21.8</ele>
        <time>2018-01-15T19:26:36Z</time>
      </trkpt>
      <trkpt lat="51.505811" lon="-0.130865">
        <ele>21.4</ele>
        <time>2018-01-15T19:26:37Z</time>
      </trkpt>
      <trkpt lat="51.505741" lon="-0.131028">
        <ele>21.2</ele>
        <time>2018-01-15T19:26:38Z</time>
      </trkpt>
      <trkpt lat="51.505677" lon="-0.131184">
        <ele>21</ele>
        <time>2018-01-15T19:26:39Z</time>
      </trkpt>
      <trkpt lat="51.505617" lon="-0.131336">
        <ele>20.8</ele>
        <time>2018-01-15T19:26:40Z</time>
      </trkpt>
      <trkpt lat="51.505553" lon="-0.131496">
        <ele>20.6</ele>
        <time>2018-01-15T19:26:41Z</time>
      </trkpt>
      <trkpt lat="51.505483" lon="-0.131656">
        <ele>20.4</ele>
        <time>2018-01-15T19:26:42Z</time>
      </trkpt>
      <trkpt lat="51.505424" lon="-0.131813">
        <ele>20.2</ele>
        <time>2018-01-15T19:26:43Z</time>
      </trkpt>
      <trkpt lat="51.505355" lon="-0.131969">
        <ele>20</ele>
        <time>2018-01-15T19:26:44Z</time>
      </trkpt>
      <trkpt lat="51.50529" lon="-0.132127">
        <ele>20</ele>
        <time>2018-01-15T19:26:45Z</time>
      </trkpt>
      <trkpt lat="51.505221" lon="-0.132284">
        <ele>19.8</ele>
        <time>2018-01-15T19:26:46Z</time>
      </trkpt>
      <trkpt lat="51.505156" lon="-0.132439">
        <ele>19.6</ele>
        <time>2018-01-15T19:26:47Z</time>
      </trkpt>
      <trkpt lat="51.505092" lon="-0.132595">
        <ele>19.4</ele>
        <time>2018-01-15T19:26:48Z</time>
      </trkpt>
      <trkpt lat="51.505027" lon="-0.132751">
        <ele>19.2</ele>
        <time>2018-01-15T19:26:49Z</time>
      </trkpt>
      <trkpt lat="51.504963" lon="-0.13291">
        <ele>19</ele>
        <time>2018-01-15T19:26:50Z</time>
      </trkpt>
      <trkpt lat="51.504899" lon="-0.133062">
        <ele>18.8</ele>
        <time>2018-01-15T19:26:51Z</time>
      </trkpt>
      <trkpt lat="51.50484" lon="-0.133217">
        <ele>18.6</ele>
        <time>2018-01-15T19:26:52Z</time>
      </trkpt>
      <trkpt lat="51.504775" lon="-0.133378">
        <ele>18.4</ele>
        <time>2018-01-15T19:26:53Z</time>
      </trkpt>
      <trkpt lat="51.504711" lon="-0.133529">
        <ele>18.2</ele>
        <time>2018-01-15T19:26:54Z</time>
      </trkpt>
      <trkpt lat="51.504641" lon="-0.133682">
        <ele>18</ele>
        <time>2018-01-15T19:26:55Z</time>
      </trkpt>
      <trkpt lat="51.504577" lon="-0.133842">
        <ele>18</ele>
        <time>2018-01-15T19:26:56Z</time>
      </trkpt>
      <trkpt lat="51.504512" lon="-0.133999">
        <ele>17.8</ele>
        <time>2018-01-15T19:26:57Z</time>
      </trkpt>
      <trkpt lat="51.504443" lon="-0.134159">
        <ele>17.6</ele>
        <time>2018-01-15T19:26:58Z</time>
      </trkpt>
      <trkpt lat="51.504378" lon="-0.134316">
        <ele>17.4</ele>
        <time>2018-01-15T19:26:59Z</time>
      </trkpt>
      <trkpt lat="51.504314" lon="-0.13448">
        <ele>17.2</ele>
        <time>2018-01-15T19:27:00Z</time>
      </trkpt>
      <trkpt lat="51.50425" lon="-0.134639">
        <ele>17</ele>
        <time>2018-01-15T19:27:01Z</time>
      </trkpt>
      <trkpt lat="51.504185" lon="-0.134798">
        <ele>16.8</ele>
        <time>2018-01-15T19:27:02Z</time>
      </trkpt>
      <trkpt lat="51.504115" lon="-0.134972">
        <ele>16.8</ele>
        <time>2018-01-15T19:27:03Z</time>
      </trkpt>
      <trkpt lat="51.504056" lon="-0.135134">
        <ele>16.6</ele>
        <time>2018-01-15T19:27:04Z</time>
      </trkpt>
      <trkpt lat="51.503992" lon="-0.135298">
        <ele>16.4</ele>
        <time>2018-01-15T19:27:05Z</time>
      </trkpt>
      <trkpt lat="51.503922" lon="-0.135472">
        <ele>16.2</ele>
        <time>2018-01-15T19:27:06Z</time>
      </trkpt>
      <trkpt lat="51.503858" lon="-0.135634">
        <ele>16</ele>
        <time>2018-01-15T19:27:07Z</time>
      </trkpt>
      <trkpt lat="51.503794" lon="-0.135792">
        <ele>15.8</ele>
        <time>2018-01-15T19:27:08Z</time>
      </trkpt>
      <trkpt lat="51.503724" lon="-0.135957">
        <ele>15.8</ele>
        <time>2018-01-15T19:27:09Z</time>
      </trkpt>
      <trkpt lat="51.503654" lon="-0.136119">
        <ele>15.6</ele>
        <time>2018-01-15T19:27:10Z</time>
      </trkpt>
      <trkpt lat="51.50359" lon="-0.136282">
        <ele>15.4</ele>
        <time>2018-01-15T19:27:11Z</time>
      </trkpt>
      <trkpt lat="51.503525" lon="-0.136442">
        <ele>15.2</ele>
        <time>2018-01-15T19:27:12Z</time>
      </trkpt>
      <trkpt lat="51.503461" lon="-0.1366">
        <ele>15.2</ele>
        <time>2018-01-15T19:27:13Z</time>
      </trkpt>
      <trkpt lat="51.503397" lon="-0.136752">
        <ele>15</ele>
        <time>2018-01-15T19:27:14Z</time>
      </trkpt>
      <trkpt lat="51.503327" lon="-0.136916">
        <ele>14.8</ele>
        <time>2018-01-15T19:27:15Z</time>
      </trkpt>
      <trkpt lat="51.503263" lon="-0.137072">
        <ele>14.8</ele>
        <time>2018-01-15T19:27:16Z</time>
      </trkpt>
      <trkpt lat="51.503198" lon="-0.137227">
        <ele>14.6</ele>
        <time>2018-01-15T19:27:17Z</time>
      </trkpt>
      <trkpt lat="51.503128" lon="-0.13739">
        <ele>14.4</ele>
        <time>2018-01-15T19:27:18Z</time>
      </trkpt>
      <trkpt lat="51.503064" lon="-0.137551">
        <ele>14.4</ele>
        <time>2018-01-15T19:27:19Z</time>
      </trkpt>
      <trkpt lat="51.503" lon="-0.13771">
        <ele>14.2</ele>
        <time>2018-01-15T19:27:20Z</time>
      </trkpt>
      <trkpt lat="51.50293" lon="-0.13787">
        <ele>14</ele>
        <time>2018-01-15T19:27:21Z</time>
      </trkpt>
      <trkpt lat="51.502866" lon="-0.138025">
        <ele>13.8</ele>
        <time>2018-01-15T19:27:22Z</time>
      </trkpt>
      <trkpt lat="51.502796" lon="-0.138183">
        <ele>13.8</ele>
        <time>2018-01-15T19:27:23Z</time>
      </trkpt>
      <trkpt lat="51.502731" lon="-0.138338">
        <ele>13.6</ele>
        <time>2018-01-15T19:27:24Z</time>
      </trkpt>
      <trkpt lat="51.502667" lon="-0.138502">
        <ele>13.4</ele>
        <time>2018-01-15T19:27:25Z</time>
      </trkpt>
      <trkpt lat="51.502603" lon="-0.138658">
        <ele>13.4</ele>
        <time>2018-01-15T19:27:26Z</time>
      </trkpt>
      <trkpt lat="51.502544" lon="-0.138815">
        <ele>13.2</ele>
        <time>2018-01-15T19:27:27Z</time>
      </trkpt>
      <trkpt lat="51.502479" lon="-0.138974">
        <ele>13</ele>
        <time>2018-01-15T19:27:28Z</time>
      </trkpt>
      <trkpt lat="51.502415" lon="-0.13913">
        <ele>12.8</ele>
        <time>2018-01-15T19:27:29Z</time>
      </trkpt>
      <trkpt lat="51.502351" lon="-0.139289">
        <ele>12.8</ele>
        <time>2018-01-15T19:27:30Z</time>
      </trkpt>
      <trkpt lat="51.502286" lon="-0.139443">
        <ele>12.6</ele>
        <time>2018-01-15T19:27:31Z</time>
      </trkpt>
      <trkpt lat="51.502227" lon="-0.139601">
        <ele>12.6</ele>
        <time>2018-01-15T19:27:32Z</time>
      </trkpt>
      <trkpt lat="51.502179" lon="-0.139775">
        <ele>12.4</ele>
        <time>2018-01-15T19:27:33Z</time>
      </trkpt>
      <trkpt lat="51.502179" lon="-0.139959">
        <ele>12.4</ele>
        <time>2018-01-15T19:27:34Z</time>
      </trkpt>
      <trkpt lat="51.502222" lon="-0.140141">
        <ele>12.4</ele>
        <time>2018-01-15T19:27:35Z</time>
      </trkpt>
      <trkpt lat="51.502265" lon="-0.140311">
        <ele>12.4</ele>
        <time>2018-01-15T19:27:36Z</time>
      </trkpt>
      <trkpt lat="51.502292" lon="-0.14049">
        <ele>12.6</ele>
        <time>2018-01-15T19:27:37Z</time>
      </trkpt>
      <trkpt lat="51.502297" lon="-0.140678">
        <ele>12.6</ele>
        <time>2018-01-15T19:27:38Z</time>
      </trkpt>
      <trkpt lat="51.502297" lon="-0.140861">
        <ele>12.4</ele>
        <time>2018-01-15T19:27:39Z</time>
      </trkpt>
      <trkpt lat="51.502297" lon="-0.14104">
        <ele>12.4</ele>
        <time>2018-01-15T19:27:40Z</time>
      </trkpt>
      <trkpt lat="51.502297" lon="-0.141221">
        <ele>12.4</ele>
        <time>2018-01-15T19:27:41Z</time>
      </trkpt>
      <trkpt lat="51.502297" lon="-0.141396">
        <ele>12.4</ele>
        <time>2018-01-15T19:27:42Z</time>
      </trkpt>
      <trkpt lat="51.502302" lon="-0.141582">
        <ele>12.4</ele>
        <time>2018-01-15T19:27:43Z</time>
      </trkpt>
      <trkpt lat="51.502302" lon="-0.14176">
        <ele>12.4</ele>
        <time>2018-01-15T19:27:44Z</time>
      </trkpt>
      <trkpt lat="51.502308" lon="-0.141946">
        <ele>12.4</ele>
        <time>2018-01-15T19:27:45Z</time>
      </trkpt>
      <trkpt lat="51.502308" lon="-0.142123">
        <ele>12.2</ele>
        <time>2018-01-15T19:27:46Z</time>
      </trkpt>
      <trkpt lat="51.502318" lon="-0.142306">
        <ele>12</ele>
        <time>2018-01-15T19:27:47Z</time>
      </trkpt>
      <trkpt lat="51.502318" lon="-0.142482">
        <ele>11.8</ele>
        <time>2018-01-15T19:27:48Z</time>
      </trkpt>
      <trkpt lat="51.502329" lon="-0.142665">
        <ele>11.6</ele>
        <time>2018-01-15T19:27:49Z</time>
      </trkpt>
      <trkpt lat="51.502334" lon="-0.142844">
        <ele>11.6</ele>
        <time>2018-01-15T19:27:50Z</time>
      </trkpt>
      <trkpt lat="51.50234" lon="-0.143013">
        <ele>11.6</ele>
        <time>2018-01-15T19:27:51Z</time>
      </trkpt>
      <trkpt lat="51.502345" lon="-0.14319">
        <ele>11.8</ele>
        <time>2018-01-15T19:27:52Z</time>
      </trkpt>
      <trkpt lat="51.502356" lon="-0.143364">
        <ele>11.8</ele>
        <time>2018-01-15T19:27:53Z</time>
      </trkpt>
      <trkpt lat="51.502361" lon="-0.143528">
        <ele>12</ele>
        <time>2018-01-15T19:27:54Z</time>
      </trkpt>
      <trkpt lat="51.502367" lon="-0.143697">
        <ele>12</ele>
        <time>2018-01-15T19:27:55Z</time>
      </trkpt>
      <trkpt lat="51.502372" lon="-0.143866">
        <ele>12.2</ele>
        <time>2018-01-15T19:27:56Z</time>
      </trkpt>
      <trkpt lat="51.502383" lon="-0.144026">
        <ele>12.2</ele>
        <time>2018-01-15T19:27:57Z</time>
      </trkpt>
      <trkpt lat="51.502393" lon="-0.144185">
        <ele>12.4</ele>
        <time>2018-01-15T19:27:58Z</time>
      </trkpt>
      <trkpt lat="51.502399" lon="-0.14434">
        <ele>12.4</ele>
        <time>2018-01-15T19:27:59Z</time>
      </trkpt>
      <trkpt lat="51.502404" lon="-0.144503">
        <ele>12.6</ele>
        <time>2018-01-15T19:28:00Z</time>
      </trkpt>
      <trkpt lat="51.50241" lon="-0.144656">
        <ele>12.6</ele>
        <time>2018-01-15T19:28:01Z</time>
      </trkpt>
      <trkpt lat="51.502415" lon="-0.144808">
        <ele>12.8</ele>
        <time>2018-01-15T19:28:02Z</time>
      </trkpt>
      <trkpt lat="51.502426" lon="-0.144961">
        <ele>12.8</ele>
        <time>2018-01-15T19:28:03Z</time>
      </trkpt>
      <trkpt lat="51.502431" lon="-0.145115">
        <ele>13</ele>
        <time>2018-01-15T19:28:04Z</time>
      </trkpt>
      <trkpt lat="51.502436" lon="-0.145271">
        <ele>13</ele>
        <time>2018-01-15T19:28:05Z</time>
      </trkpt>
      <trkpt lat="51.502442" lon="-0.145427">
        <ele>13.2</ele>
        <time>2018-01-15T19:28:06Z</time>
      </trkpt>
      <trkpt lat="51.502452" lon="-0.14558">
        <ele>13.2</ele>
        <time>2018-01-15T19:28:07Z</time>
      </trkpt>
      <trkpt lat="51.502458" lon="-0.145734">
        <ele>13.4</ele>
        <time>2018-01-15T19:28:08Z</time>
      </trkpt>
      <trkpt lat="51.502463" lon="-0.14589">
        <ele>13.6</ele>
        <time>2018-01-15T19:28:09Z</time>
      </trkpt>
      <trkpt lat="51.502469" lon="-0.146051">
        <ele>13.6</ele>
        <time>2018-01-15T19:28:10Z</time>
      </trkpt>
      <trkpt lat="51.502474" lon="-0.146206">
        <ele>13.8</ele>
        <time>2018-01-15T19:28:11Z</time>
      </trkpt>
      <trkpt lat="51.502479" lon="-0.146367">
        <ele>13.8</ele>
        <time>2018-01-15T19:28:12Z</time>
      </trkpt>
      <trkpt lat="51.50249" lon="-0.146522">
        <ele>14</ele>
        <time>2018-01-15T19:28:13Z</time>
      </trkpt>
      <trkpt lat="51.502495" lon="-0.14668">
        <ele>14</ele>
        <time>2018-01-15T19:28:14Z</time>
      </trkpt>
      <trkpt lat="51.502506" lon="-0.146835">
        <ele>14.2</ele>
        <time>2018-01-15T19:28:15Z</time>
      </trkpt>
      <trkpt lat="51.502506" lon="-0.146992">
        <ele>14.2</ele>
        <time>2018-01-15T19:28:16Z</time>
      </trkpt>
      <trkpt lat="51.502517" lon="-0.147144">
        <ele>14.4</ele>
        <time>2018-01-15T19:28:17Z</time>
      </trkpt>
      <trkpt lat="51.502522" lon="-0.147299">
        <ele>14.4</ele>
        <time>2018-01-15T19:28:18Z</time>
      </trkpt>
      <trkpt lat="51.502528" lon="-0.147444">
        <ele>14.6</ele>
        <time>2018-01-15T19:28:19Z</time>
      </trkpt>
      <trkpt lat="51.502533" lon="-0.147589">
        <ele>14.6</ele>
        <time>2018-01-15T19:28:20Z</time>
      </trkpt>
      <trkpt lat="51.502533" lon="-0.147741">
        <ele>14.8</ele>
        <time>2018-01-15T19:28:21Z</time>
      </trkpt>
      <trkpt lat="51.502538" lon="-0.147887">
        <ele>14.8</ele>
        <time>2018-01-15T19:28:22Z</time>
      </trkpt>
      <trkpt lat="51.502544" lon="-0.148035">
        <ele>15</ele>
        <time>2018-01-15T19:28:23Z</time>
      </trkpt>
      <trkpt lat="51.502544" lon="-0.148177">
        <ele>15</ele>
        <time>2018-01-15T19:28:24Z</time>
      </trkpt>
      <trkpt lat="51.502549" lon="-0.148325">
        <ele>15.2</ele>
        <time>2018-01-15T19:28:25Z</time>
      </trkpt>
      <trkpt lat="51.502554" lon="-0.148466">
        <ele>15.2</ele>
        <time>2018-01-15T19:28:26Z</time>
      </trkpt>
      <trkpt lat="51.502554" lon="-0.148613">
        <ele>15.4</ele>
        <time>2018-01-15T19:28:27Z</time>
      </trkpt>
      <trkpt lat="51.50256" lon="-0.148756">
        <ele>15.4</ele>
        <time>2018-01-15T19:28:28Z</time>
      </trkpt>
      <trkpt lat="51.502571" lon="-0.148902">
        <ele>15.6</ele>
        <time>2018-01-15T19:28:29Z</time>
      </trkpt>
      <trkpt lat="51.502571" lon="-0.14904">
        <ele>15.6</ele>
        <time>2018-01-15T19:28:30Z</time>
      </trkpt>
      <trkpt lat="51.502576" lon="-0.149189">
        <ele>15.6</ele>
        <time>2018-01-15T19:28:31Z</time>
      </trkpt>
      <trkpt lat="51.502581" lon="-0.149331">
        <ele>15.8</ele>
        <time>2018-01-15T19:28:32Z</time>
      </trkpt>
      <trkpt lat="51.502581" lon="-0.149466">
        <ele>15.8</ele>
        <time>2018-01-15T19:28:33Z</time>
      </trkpt>
      <trkpt lat="51.502571" lon="-0.149596">
        <ele>16</ele>
        <time>2018-01-15T19:28:34Z</time>
      </trkpt>
      <trkpt lat="51.502528" lon="-0.149705">
        <ele>16</ele>
        <time>2018-01-15T19:28:35Z</time>
      </trkpt>
      <trkpt lat="51.502463" lon="-0.149664">
        <ele>15.8</ele>
        <time>2018-01-15T19:28:36Z</time>
      </trkpt>
      <trkpt lat="51.502442" lon="-0.149535">
        <ele>15.6</ele>
        <time>2018-01-15T19:28:37Z</time>
      </trkpt>
      <trkpt lat="51.502436" lon="-0.149406">
        <ele>15.6</ele>
        <time>2018-01-15T19:28:38Z</time>
      </trkpt>
      <trkpt lat="51.502436" lon="-0.149273">
        <ele>15.6</ele>
        <time>2018-01-15T19:28:39Z</time>
      </trkpt>
      <trkpt lat="51.502436" lon="-0.149142">
        <ele>15.4</ele>
        <time>2018-01-15T19:28:40Z</time>
      </trkpt>
      <trkpt lat="51.502436" lon="-0.149002">
        <ele>15.4</ele>
        <time>2018-01-15T19:28:41Z</time>
      </trkpt>
      <trkpt lat="51.502436" lon="-0.148862">
        <ele>15.4</ele>
        <time>2018-01-15T19:28:42Z</time>
      </trkpt>
      <trkpt lat="51.502436" lon="-0.148727">
        <ele>15.4</ele>
        <time>2018-01-15T19:28:43Z</time>
      </trkpt>
      <trkpt lat="51.502436" lon="-0.148583">
        <ele>15.2</ele>
        <time>2018-01-15T19:28:44Z</time>
      </trkpt>
      <trkpt lat="51.502436" lon="-0.148434">
        <ele>15.2</ele>
        <time>2018-01-15T19:28:45Z</time>
      </trkpt>
      <trkpt lat="51.502436" lon="-0.148286">
        <ele>15.2</ele>
        <time>2018-01-15T19:28:46Z</time>
      </trkpt>
      <trkpt lat="51.502436" lon="-0.148134">
        <ele>15</ele>
        <time>2018-01-15T19:28:47Z</time>
      </trkpt>
      <trkpt lat="51.502436" lon="-0.147988">
        <ele>15</ele>
        <time>2018-01-15T19:28:48Z</time>
      </trkpt>
      <trkpt lat="51.502431" lon="-0.147828">
        <ele>14.8</ele>
        <time>2018-01-15T19:28:49Z</time>
      </trkpt>
      <trkpt lat="51.502426" lon="-0.147672">
        <ele>14.8</ele>
        <time>2018-01-15T19:28:50Z</time>
      </trkpt>
      <trkpt lat="51.50242" lon="-0.147517">
        <ele>14.6</ele>
        <time>2018-01-15T19:28:51Z</time>
      </trkpt>
      <trkpt lat="51.502415" lon="-0.147357">
        <ele>14.6</ele>
        <time>2018-01-15T19:28:52Z</time>
      </trkpt>
      <trkpt lat="51.50241" lon="-0.147206">
        <ele>14.4</ele>
        <time>2018-01-15T19:28:53Z</time>
      </trkpt>
      <trkpt lat="51.502404" lon="-0.14704">
        <ele>14.2</ele>
        <time>2018-01-15T19:28:54Z</time>
      </trkpt>
      <trkpt lat="51.502399" lon="-0.146885">
        <ele>14.2</ele>
        <time>2018-01-15T19:28:55Z</time>
      </trkpt>
      <trkpt lat="51.502388" lon="-0.146719">
        <ele>14</ele>
        <time>2018-01-15T19:28:56Z</time>
      </trkpt>
      <trkpt lat="51.502383" lon="-0.146558">
        <ele>14</ele>
        <time>2018-01-15T19:28:57Z</time>
      </trkpt>
      <trkpt lat="51.502372" lon="-0.146396">
        <ele>13.8</ele>
        <time>2018-01-15T19:28:58Z</time>
      </trkpt>
      <trkpt lat="51.502367" lon="-0.146234">
        <ele>13.8</ele>
        <time>2018-01-15T19:28:59Z</time>
      </trkpt>
      <trkpt lat="51.502361" lon="-0.146072">
        <ele>13.6</ele>
        <time>2018-01-15T19:29:00Z</time>
      </trkpt>
      <trkpt lat="51.502356" lon="-0.145906">
        <ele>13.4</ele>
        <time>2018-01-15T19:29:01Z</time>
      </trkpt>
      <trkpt lat="51.502345" lon="-0.145747">
        <ele>13.4</ele>
        <time>2018-01-15T19:29:02Z</time>
      </trkpt>
      <trkpt lat="51.50234" lon="-0.145588">
        <ele>13.2</ele>
        <time>2018-01-15T19:29:03Z</time>
      </trkpt>
      <trkpt lat="51.502334" lon="-0.145421">
        <ele>13.2</ele>
        <time>2018-01-15T19:29:04Z</time>
      </trkpt>
      <trkpt lat="51.502329" lon="-0.145264">
        <ele>13</ele>
        <time>2018-01-15T19:29:05Z</time>
      </trkpt>
      <trkpt lat="51.502318" lon="-0.145091">
        <ele>13</ele>
        <time>2018-01-15T19:29:06Z</time>
      </trkpt>
      <trkpt lat="51.502313" lon="-0.144928">
        <ele>12.8</ele>
        <time>2018-01-15T19:29:07Z</time>
      </trkpt>
      <trkpt lat="51.502308" lon="-0.144768">
        <ele>12.6</ele>
        <time>2018-01-15T19:29:08Z</time>
      </trkpt>
      <trkpt lat="51.502297" lon="-0.144598">
        <ele>12.6</ele>
        <time>2018-01-15T19:29:09Z</time>
      </trkpt>
      <trkpt lat="51.502292" lon="-0.14443">
        <ele>12.4</ele>
        <time>2018-01-15T19:29:10Z</time>
      </trkpt>
      <trkpt lat="51.502281" lon="-0.144249">
        <ele>12.4</ele>
        <time>2018-01-15T19:29:11Z</time>
      </trkpt>
      <trkpt lat="51.502265" lon="-0.144083">
        <ele>12.2</ele>
        <time>2018-01-15T19:29:12Z</time>
      </trkpt>
      <trkpt lat="51.502265" lon="-0.143911">
        <ele>12.2</ele>
        <time>2018-01-15T19:29:13Z</time>
      </trkpt>
      <trkpt lat="51.502254" lon="-0.14374">
        <ele>12</ele>
        <time>2018-01-15T19:29:14Z</time>
      </trkpt>
      <trkpt lat="51.502249" lon="-0.143564">
        <ele>12</ele>
        <time>2018-01-15T19:29:15Z</time>
      </trkpt>
      <trkpt lat="51.502243" lon="-0.143388">
        <ele>11.8</ele>
        <time>2018-01-15T19:29:16Z</time>
      </trkpt>
      <trkpt lat="51.502238" lon="-0.143216">
        <ele>11.8</ele>
        <time>2018-01-15T19:29:17Z</time>
      </trkpt>
      <trkpt lat="51.502227" lon="-0.143041">
        <ele>11.8</ele>
        <time>2018-01-15T19:29:18Z</time>
      </trkpt>
      <trkpt lat="51.502222" lon="-0.142874">
        <ele>11.6</ele>
        <time>2018-01-15T19:29:19Z</time>
      </trkpt>
      <trkpt lat="51.502211" lon="-0.142696">
        <ele>11.6</ele>
        <time>2018-01-15T19:29:20Z</time>
      </trkpt>
      <trkpt lat="51.5022" lon="-0.142524">
        <ele>11.8</ele>
        <time>2018-01-15T19:29:21Z</time>
      </trkpt>
      <trkpt lat="51.502195" lon="-0.14236">
        <ele>11.8</ele>
        <time>2018-01-15T19:29:22Z</time>
      </trkpt>
      <trkpt lat="51.50219" lon="-0.142186">
        <ele>12</ele>
        <time>2018-01-15T19:29:23Z</time>
      </trkpt>
      <trkpt lat="51.502184" lon="-0.142021">
        <ele>12.2</ele>
        <time>2018-01-15T19:29:24Z</time>
      </trkpt>
      <trkpt lat="51.502184" lon="-0.141859">
        <ele>12.4</ele>
        <time>2018-01-15T19:29:25Z</time>
      </trkpt>
      <trkpt lat="51.502179" lon="-0.141696">
        <ele>12.4</ele>
        <time>2018-01-15T19:29:26Z</time>
      </trkpt>
      <trkpt lat="51.502174" lon="-0.14153">
        <ele>12.4</ele>
        <time>2018-01-15T19:29:27Z</time>
      </trkpt>
      <trkpt lat="51.502174" lon="-0.141368">
        <ele>12.4</ele>
        <time>2018-01-15T19:29:28Z</time>
      </trkpt>
      <trkpt lat="51.502174" lon="-0.141211">
        <ele>12.4</ele>
        <time>2018-01-15T19:29:29Z</time>
      </trkpt>
      <trkpt lat="51.502174" lon="-0.141045">
        <ele>12.4</ele>
        <time>2018-01-15T19:29:30Z</time>
      </trkpt>
      <trkpt lat="51.502179" lon="-0.14088">
        <ele>12.4</ele>
        <time>2018-01-15T19:29:31Z</time>
      </trkpt>
      <trkpt lat="51.50219" lon="-0.140722">
        <ele>12.4</ele>
        <time>2018-01-15T19:29:32Z</time>
      </trkpt>
      <trkpt lat="51.50219" lon="-0.140552">
        <ele>12.4</ele>
        <time>2018-01-15T19:29:33Z</time>
      </trkpt>
      <trkpt lat="51.502168" lon="-0.140399">
        <ele>12.4</ele>
        <time>2018-01-15T19:29:34Z</time>
      </trkpt>
      <trkpt lat="51.50212" lon="-0.140258">
        <ele>12.4</ele>
        <time>2018-01-15T19:29:35Z</time>
      </trkpt>
      <trkpt lat="51.50205" lon="-0.14014">
        <ele>12.2</ele>
        <time>2018-01-15T19:29:36Z</time>
      </trkpt>
      <trkpt lat="51.501959" lon="-0.140056">
        <ele>12</ele>
        <time>2018-01-15T19:29:37Z</time>
      </trkpt>
      <trkpt lat="51.501857" lon="-0.140026">
        <ele>12</ele>
        <time>2018-01-15T19:29:38Z</time>
      </trkpt>
      <trkpt lat="51.501755" lon="-0.140026">
        <ele>12</ele>
        <time>2018-01-15T19:29:39Z</time>
      </trkpt>
      <trkpt lat="51.501653" lon="-0.140038">
        <ele>12</ele>
        <time>2018-01-15T19:29:40Z</time>
      </trkpt>
      <trkpt lat="51.501551" lon="-0.140052">
        <ele>12.2</ele>
        <time>2018-01-15T19:29:41Z</time>
      </trkpt>
      <trkpt lat="51.501449" lon="-0.140045">
        <ele>12.2</ele>
        <time>2018-01-15T19:29:42Z</time>
      </trkpt>
      <trkpt lat="51.501358" lon="-0.139973">
        <ele>12.2</ele>
        <time>2018-01-15T19:29:43Z</time>
      </trkpt>
      <trkpt lat="51.501278" lon="-0.139887">
        <ele>12.2</ele>
        <time>2018-01-15T19:29:44Z</time>
      </trkpt>
      <trkpt lat="51.501197" lon="-0.139795">
        <ele>12.2</ele>
        <time>2018-01-15T19:29:45Z</time>
      </trkpt>
      <trkpt lat="51.501117" lon="-0.13971">
        <ele>12.4</ele>
        <time>2018-01-15T19:29:46Z</time>
      </trkpt>
      <trkpt lat="51.501036" lon="-0.139621">
        <ele>12.4</ele>
        <time>2018-01-15T19:29:47Z</time>
      </trkpt>
      <trkpt lat="51.500956" lon="-0.139538">
        <ele>12.6</ele>
        <time>2018-01-15T19:29:48Z</time>
      </trkpt>
      <trkpt lat="51.500875" lon="-0.139453">
        <ele>12.6</ele>
        <time>2018-01-15T19:29:49Z</time>
      </trkpt>
      <trkpt lat="51.50079" lon="-0.139368">
        <ele>12.6</ele>
        <time>2018-01-15T19:29:50Z</time>
      </trkpt>
      <trkpt lat="51.500714" lon="-0.139285">
        <ele>12.8</ele>
        <time>2018-01-15T19:29:51Z</time>
      </trkpt>
      <trkpt lat="51.500634" lon="-0.139199">
        <ele>12.8</ele>
        <time>2018-01-15T19:29:52Z</time>
      </trkpt>
      <trkpt lat="51.500559" lon="-0.139109">
        <ele>12.8</ele>
        <time>2018-01-15T19:29:53Z</time>
      </trkpt>
      <trkpt lat="51.500489" lon="-0.139006">
        <ele>12.8</ele>
        <time>2018-01-15T19:29:54Z</time>
      </trkpt>
      <trkpt lat="51.500452" lon="-0.138858">
        <ele>12.4</ele>
        <time>2018-01-15T19:29:55Z</time>
      </trkpt>
      <trkpt lat="51.500457" lon="-0.138701">
        <ele>12.4</ele>
        <time>2018-01-15T19:29:56Z</time>
      </trkpt>
      <trkpt lat="51.500473" lon="-0.138547">
        <ele>12.4</ele>
        <time>2018-01-15T19:29:57Z</time>
      </trkpt>
      <trkpt lat="51.500494" lon="-0.138397">
        <ele>12.4</ele>
        <time>2018-01-15T19:29:58Z</time>
      </trkpt>
      <trkpt lat="51.500511" lon="-0.138241">
        <ele>12.4</ele>
        <time>2018-01-15T19:29:59Z</time>
      </trkpt>
      <trkpt lat="51.500521" lon="-0.13808">
        <ele>12.4</ele>
        <time>2018-01-15T19:30:00Z</time>
      </trkpt>
      <trkpt lat="51.500537" lon="-0.137928">
        <ele>12.4</ele>
        <time>2018-01-15T19:30:01Z</time>
      </trkpt>
      <trkpt lat="51.500548" lon="-0.137768">
        <ele>12.4</ele>
        <time>2018-01-15T19:30:02Z</time>
      </trkpt>
      <trkpt lat="51.500564" lon="-0.137615">
        <ele>12.4</ele>
        <time>2018-01-15T19:30:03Z</time>
      </trkpt>
      <trkpt lat="51.500575" lon="-0.137456">
        <ele>12.4</ele>
        <time>2018-01-15T19:30:04Z</time>
      </trkpt>
      <trkpt lat="51.500591" lon="-0.137292">
        <ele>12.2</ele>
        <time>2018-01-15T19:30:05Z</time>
      </trkpt>
      <trkpt lat="51.500607" lon="-0.137141">
        <ele>12.2</ele>
        <time>2018-01-15T19:30:06Z</time>
      </trkpt>
      <trkpt lat="51.500618" lon="-0.136981">
        <ele>12.2</ele>
        <time>2018-01-15T19:30:07Z</time>
      </trkpt>
      <trkpt lat="51.500639" lon="-0.136822">
        <ele>12.2</ele>
        <time>2018-01-15T19:30:08Z</time>
      </trkpt>
      <trkpt lat="51.500655" lon="-0.13666">
        <ele>12.2</ele>
        <time>2018-01-15T19:30:09Z</time>
      </trkpt>
      <trkpt lat="51.500672" lon="-0.136502">
        <ele>12</ele>
        <time>2018-01-15T19:30:10Z</time>
      </trkpt>
      <trkpt lat="51.500688" lon="-0.136341">
        <ele>12</ele>
        <time>2018-01-15T19:30:11Z</time>
      </trkpt>
      <trkpt lat="51.500709" lon="-0.136188">
        <ele>12</ele>
        <time>2018-01-15T19:30:12Z</time>
      </trkpt>
      <trkpt lat="51.50072" lon="-0.136029">
        <ele>12</ele>
        <time>2018-01-15T19:30:13Z</time>
      </trkpt>
      <trkpt lat="51.500741" lon="-0.135871">
        <ele>12</ele>
        <time>2018-01-15T19:30:14Z</time>
      </trkpt>
      <trkpt lat="51.500757" lon="-0.135714">
        <ele>12</ele>
        <time>2018-01-15T19:30:15Z</time>
      </trkpt>
      <trkpt lat="51.500773" lon="-0.135556">
        <ele>12</ele>
        <time>2018-01-15T19:30:16Z</time>
      </trkpt>
      <trkpt lat="51.50079" lon="-0.135398">
        <ele>11.8</ele>
        <time>2018-01-15T19:30:17Z</time>
      </trkpt>
      <trkpt lat="51.5008" lon="-0.135241">
        <ele>11.8</ele>
        <time>2018-01-15T19:30:18Z</time>
      </trkpt>
      <trkpt lat="51.500816" lon="-0.135083">
        <ele>11.8</ele>
        <time>2018-01-15T19:30:19Z</time>
      </trkpt>
      <trkpt lat="51.500832" lon="-0.134928">
        <ele>11.8</ele>
        <time>2018-01-15T19:30:20Z</time>
      </trkpt>
      <trkpt lat="51.500849" lon="-0.13477">
        <ele>11.8</ele>
        <time>2018-01-15T19:30:21Z</time>
      </trkpt>
      <trkpt lat="51.500865" lon="-0.134611">
        <ele>11.8</ele>
        <time>2018-01-15T19:30:22Z</time>
      </trkpt>
      <trkpt lat="51.500881" lon="-0.134455">
        <ele>11.8</ele>
        <time>2018-01-15T19:30:23Z</time>
      </trkpt>
      <trkpt lat="51.500891" lon="-0.1343">
        <ele>11.8</ele>
        <time>2018-01-15T19:30:24Z</time>
      </trkpt>
      <trkpt lat="51.500908" lon="-0.134145">
        <ele>11.8</ele>
        <time>2018-01-15T19:30:25Z</time>
      </trkpt>
      <trkpt lat="51.500918" lon="-0.133993">
        <ele>11.8</ele>
        <time>2018-01-15T19:30:26Z</time>
      </trkpt>
      <trkpt lat="51.500934" lon="-0.133841">
        <ele>12</ele>
        <time>2018-01-15T19:30:27Z</time>
      </trkpt>
      <trkpt lat="51.50095" lon="-0.133693">
        <ele>12.2</ele>
        <time>2018-01-15T19:30:28Z</time>
      </trkpt>
      <trkpt lat="51.500967" lon="-0.133543">
        <ele>12.2</ele>
        <time>2018-01-15T19:30:29Z</time>
      </trkpt>
      <trkpt lat="51.500983" lon="-0.133396">
        <ele>12.4</ele>
        <time>2018-01-15T19:30:30Z</time>
      </trkpt>
      <trkpt lat="51.500993" lon="-0.133256">
        <ele>12.6</ele>
        <time>2018-01-15T19:30:31Z</time>
      </trkpt>
      <trkpt lat="51.501009" lon="-0.133121">
        <ele>13</ele>
        <time>2018-01-15T19:30:32Z</time>
      </trkpt>
      <trkpt lat="51.501026" lon="-0.132983">
        <ele>13.2</ele>
        <time>2018-01-15T19:30:33Z</time>
      </trkpt>
      <trkpt lat="51.501036" lon="-0.132853">
        <ele>13.4</ele>
        <time>2018-01-15T19:30:34Z</time>
      </trkpt>
      <trkpt lat="51.501052" lon="-0.132725">
        <ele>13.6</ele>
        <time>2018-01-15T19:30:35Z</time>
      </trkpt>
      <trkpt lat="51.501063" lon="-0.132594">
        <ele>13.8</ele>
        <time>2018-01-15T19:30:36Z</time>
      </trkpt>
      <trkpt lat="51.501079" lon="-0.132466">
        <ele>14.2</ele>
        <time>2018-01-15T19:30:37Z</time>
      </trkpt>
      <trkpt lat="51.501095" lon="-0.132336">
        <ele>14.4</ele>
        <time>2018-01-15T19:30:38Z</time>
      </trkpt>
      <trkpt lat="51.501106" lon="-0.132214">
        <ele>14.6</ele>
        <time>2018-01-15T19:30:39Z</time>
      </trkpt>
      <trkpt lat="51.501122" lon="-0.132093">
        <ele>14.8</ele>
        <time>2018-01-15T19:30:40Z</time>
      </trkpt>
      <trkpt lat="51.501138" lon="-0.131965">
        <ele>15</ele>
        <time>2018-01-15T19:30:41Z</time>
      </trkpt>
      <trkpt lat="51.501149" lon="-0.131845">
        <ele>15.2</ele>
        <time>2018-01-15T19:30:42Z</time>
      </trkpt>
      <trkpt lat="51.501165" lon="-0.131721">
        <ele>15.4</ele>
        <time>2018-01-15T19:30:43Z</time>
      </trkpt>
      <trkpt lat="51.501176" lon="-0.131602">
        <ele>15.6</ele>
        <time>2018-01-15T19:30:44Z</time>
      </trkpt>
      <trkpt lat="51.501192" lon="-0.131479">
        <ele>15.6</ele>
        <time>2018-01-15T19:30:45Z</time>
      </trkpt>
      <trkpt lat="51.501203" lon="-0.131353">
        <ele>15.6</ele>
        <time>2018-01-15T19:30:46Z</time>
      </trkpt>
      <trkpt lat="51.501213" lon="-0.131227">
        <ele>15.6</ele>
        <time>2018-01-15T19:30:47Z</time>
      </trkpt>
      <trkpt lat="51.501224" lon="-0.131097">
        <ele>15.6</ele>
        <time>2018-01-15T19:30:48Z</time>
      </trkpt>
      <trkpt lat="51.50124" lon="-0.130966">
        <ele>15.6</ele>
        <time>2018-01-15T19:30:49Z</time>
      </trkpt>
      <trkpt lat="51.501251" lon="-0.130835">
        <ele>15.6</ele>
        <time>2018-01-15T19:30:50Z</time>
      </trkpt>
      <trkpt lat="51.501262" lon="-0.130705">
        <ele>15.6</ele>
        <time>2018-01-15T19:30:51Z</time>
      </trkpt>
      <trkpt lat="51.501278" lon="-0.130573">
        <ele>15.8</ele>
        <time>2018-01-15T19:30:52Z</time>
      </trkpt>
      <trkpt lat="51.501288" lon="-0.13044">
        <ele>15.8</ele>
        <time>2018-01-15T19:30:53Z</time>
      </trkpt>
      <trkpt lat="51.501288" lon="-0.130311">
        <ele>15.8</ele>
        <time>2018-01-15T19:30:54Z</time>
      </trkpt>
      <trkpt lat="51.501288" lon="-0.130179">
        <ele>15.8</ele>
        <time>2018-01-15T19:30:55Z</time>
      </trkpt>
      <trkpt lat="51.501288" lon="-0.130042">
        <ele>15.8</ele>
        <time>2018-01-15T19:30:56Z</time>
      </trkpt>
      <trkpt lat="51.501283" lon="-0.129909">
        <ele>15.6</ele>
        <time>2018-01-15T19:30:57Z</time>
      </trkpt>
      <trkpt lat="51.501278" lon="-0.129773">
        <ele>15.6</ele>
        <time>2018-01-15T19:30:58Z</time>
      </trkpt>
      <trkpt lat="51.501262" lon="-0.129639">
        <ele>15.6</ele>
        <time>2018-01-15T19:30:59Z</time>
      </trkpt>
      <trkpt lat="51.501251" lon="-0.1295">
        <ele>15.6</ele>
        <time>2018-01-15T19:31:00Z</time>
      </trkpt>
      <trkpt lat="51.50124" lon="-0.129366">
        <ele>15.6</ele>
        <time>2018-01-15T19:31:01Z</time>
      </trkpt>
      <trkpt lat="51.501229" lon="-0.129232">
        <ele>15.6</ele>
        <time>2018-01-15T19:31:02Z</time>
      </trkpt>
      <trkpt lat="51.501224" lon="-0.129095">
        <ele>15.6</ele>
        <time>2018-01-15T19:31:03Z</time>
      </trkpt>
      <trkpt lat="51.501208" lon="-0.128956">
        <ele>15.8</ele>
        <time>2018-01-15T19:31:04Z</time>
      </trkpt>
      <trkpt lat="51.501203" lon="-0.128822">
        <ele>15.8</ele>
        <time>2018-01-15T19:31:05Z</time>
      </trkpt>
      <trkpt lat="51.501197" lon="-0.128689">
        <ele>15.8</ele>
        <time>2018-01-15T19:31:06Z</time>
      </trkpt>
      <trkpt lat="51.501181" lon="-0.12855">
        <ele>15.8</ele>
        <time>2018-01-15T19:31:07Z</time>
      </trkpt>
      <trkpt lat="51.50117" lon="-0.128413">
        <ele>15.8</ele>
        <time>2018-01-15T19:31:08Z</time>
      </trkpt>
      <trkpt lat="51.501165" lon="-0.128279">
        <ele>15.8</ele>
        <time>2018-01-15T19:31:09Z</time>
      </trkpt>
      <trkpt lat="51.501154" lon="-0.128138">
        <ele>15.8</ele>
        <time>2018-01-15T19:31:10Z</time>
      </trkpt>
      <trkpt lat="51.501144" lon="-0.128003">
        <ele>15.8</ele>
        <time>2018-01-15T19:31:11Z</time>
      </trkpt>
      <trkpt lat="51.501133" lon="-0.127862">
        <ele>15.8</ele>
        <time>2018-01-15T19:31:12Z</time>
      </trkpt>
      <trkpt lat="51.501117" lon="-0.127723">
        <ele>15.8</ele>
        <time>2018-01-15T19:31:13Z</time>
      </trkpt>
      <trkpt lat="51.501106" lon="-0.127585">
        <ele>15.8</ele>
        <time>2018-01-15T19:31:14Z</time>
      </trkpt>
      <trkpt lat="51.50109" lon="-0.127443">
        <ele>15.8</ele>
        <time>2018-01-15T19:31:15Z</time>
      </trkpt>
      <trkpt lat="51.501079" lon="-0.127304">
        <ele>15.8</ele>
        <time>2018-01-15T19:31:16Z</time>
      </trkpt>
      <trkpt lat="51.501068" lon="-0.12716">
        <ele>15.8</ele>
        <time>2018-01-15T19:31:17Z</time>
      </trkpt>
      <trkpt lat="51.501063" lon="-0.127016">
        <ele>15.8</ele>
        <time>2018-01-15T19:31:18Z</time>
      </trkpt>
      <trkpt lat="51.501063" lon="-0.126871">
        <ele>15.8</ele>
        <time>2018-01-15T19:31:19Z</time>
      </trkpt>
      <trkpt lat="51.501063" lon="-0.126726">
        <ele>16</ele>
        <time>2018-01-15T19:31:20Z</time>
      </trkpt>
      <trkpt lat="51.501063" lon="-0.126583">
        <ele>16</ele>
        <time>2018-01-15T19:31:21Z</time>
      </trkpt>
      <trkpt lat="51.501068" lon="-0.126445">
        <ele>16.2</ele>
        <time>2018-01-15T19:31:22Z</time>
      </trkpt>
      <trkpt lat="51.501052" lon="-0.126308">
        <ele>16.2</ele>
        <time>2018-01-15T19:31:23Z</time>
      </trkpt>
      <trkpt lat="51.500999" lon="-0.126189">
        <ele>16.2</ele>
        <time>2018-01-15T19:31:24Z</time>
      </trkpt>
      <trkpt lat="51.500929" lon="-0.126105">
        <ele>16</ele>
        <time>2018-01-15T19:31:25Z</time>
      </trkpt>
      <trkpt lat="51.500838" lon="-0.126067">
        <ele>15.8</ele>
        <time>2018-01-15T19:31:26Z</time>
      </trkpt>
      <trkpt lat="51.500747" lon="-0.126062">
        <ele>15.6</ele>
        <time>2018-01-15T19:31:27Z</time>
      </trkpt>
      <trkpt lat="51.500655" lon="-0.12607">
        <ele>15.4</ele>
        <time>2018-01-15T19:31:28Z</time>
      </trkpt>
      <trkpt lat="51.500564" lon="-0.126082">
        <ele>15.2</ele>
        <time>2018-01-15T19:31:29Z</time>
      </trkpt>
      <trkpt lat="51.500468" lon="-0.126086">
        <ele>15</ele>
        <time>2018-01-15T19:31:30Z</time>
      </trkpt>
      <trkpt lat="51.500366" lon="-0.126092">
        <ele>14.8</ele>
        <time>2018-01-15T19:31:31Z</time>
      </trkpt>
      <trkpt lat="51.500269" lon="-0.126098">
        <ele>14.8</ele>
        <time>2018-01-15T19:31:32Z</time>
      </trkpt>
      <trkpt lat="51.500167" lon="-0.126104">
        <ele>14.8</ele>
        <time>2018-01-15T19:31:33Z</time>
      </trkpt>
      <trkpt lat="51.500065" lon="-0.126111">
        <ele>14.8</ele>
        <time>2018-01-15T19:31:34Z</time>
      </trkpt>
      <trkpt lat="51.499969" lon="-0.126117">
        <ele>14.8</ele>
        <time>2018-01-15T19:31:35Z</time>
      </trkpt>
      <trkpt lat="51.499861" lon="-0.126122">
        <ele>14.8</ele>
        <time>2018-01-15T19:31:36Z</time>
      </trkpt>
      <trkpt lat="51.499765" lon="-0.126128">
        <ele>15</ele>
        <time>2018-01-15T19:31:37Z</time>
      </trkpt>
      <trkpt lat="51.499668" lon="-0.126131">
        <ele>15.2</ele>
        <time>2018-01-15T19:31:38Z</time>
      </trkpt>
      <trkpt lat="51.499572" lon="-0.126135">
        <ele>15.4</ele>
        <time>2018-01-15T19:31:39Z</time>
      </trkpt>
      <trkpt lat="51.499475" lon="-0.126129">
        <ele>15.4</ele>
        <time>2018-01-15T19:31:40Z</time>
      </trkpt>
      <trkpt lat="51.499379" lon="-0.126115">
        <ele>15.4</ele>
        <time>2018-01-15T19:31:41Z</time>
      </trkpt>
      <trkpt lat="51.499287" lon="-0.126091">
        <ele>15.4</ele>
        <time>2018-01-15T19:31:42Z</time>
      </trkpt>
      <trkpt lat="51.499191" lon="-0.126059">
        <ele>15.2</ele>
        <time>2018-01-15T19:31:43Z</time>
      </trkpt>
      <trkpt lat="51.4991" lon="-0.126028">
        <ele>15.2</ele>
        <time>2018-01-15T19:31:44Z</time>
      </trkpt>
      <trkpt lat="51.498998" lon="-0.125995">
        <ele>15</ele>
        <time>2018-01-15T19:31:45Z</time>
      </trkpt>
      <trkpt lat="51.498901" lon="-0.125958">
        <ele>14.8</ele>
        <time>2018-01-15T19:31:46Z</time>
      </trkpt>
      <trkpt lat="51.49881" lon="-0.125918">
        <ele>14.6</ele>
        <time>2018-01-15T19:31:47Z</time>
      </trkpt>
      <trkpt lat="51.498713" lon="-0.125872">
        <ele>14.4</ele>
        <time>2018-01-15T19:31:48Z</time>
      </trkpt>
      <trkpt lat="51.498617" lon="-0.125827">
        <ele>14.4</ele>
        <time>2018-01-15T19:31:49Z</time>
      </trkpt>
      <trkpt lat="51.49852" lon="-0.125788">
        <ele>14.2</ele>
        <time>2018-01-15T19:31:50Z</time>
      </trkpt>
      <trkpt lat="51.498424" lon="-0.125758">
        <ele>14</ele>
        <time>2018-01-15T19:31:51Z</time>
      </trkpt>
      <trkpt lat="51.498317" lon="-0.125736">
        <ele>14</ele>
        <time>2018-01-15T19:31:52Z</time>
      </trkpt>
      <trkpt lat="51.49822" lon="-0.12572">
        <ele>14</ele>
        <time>2018-01-15T19:31:53Z</time>
      </trkpt>
      <trkpt lat="51.498118" lon="-0.125709">
        <ele>14.2</ele>
        <time>2018-01-15T19:31:54Z</time>
      </trkpt>
      <trkpt lat="51.498021" lon="-0.125701">
        <ele>14.2</ele>
        <time>2018-01-15T19:31:55Z</time>
      </trkpt>
      <trkpt lat="51.49792" lon="-0.125696">
        <ele>14.2</ele>
        <time>2018-01-15T19:31:56Z</time>
      </trkpt>
      <trkpt lat="51.497823" lon="-0.125696">
        <ele>14.4</ele>
        <time>2018-01-15T19:31:57Z</time>
      </trkpt>
      <trkpt lat="51.497726" lon="-0.125695">
        <ele>14.4</ele>
        <time>2018-01-15T19:31:58Z</time>
      </trkpt>
      <trkpt lat="51.49763" lon="-0.125695">
        <ele>14.2</ele>
        <time>2018-01-15T19:31:59Z</time>
      </trkpt>
      <trkpt lat="51.497528" lon="-0.125695">
        <ele>14</ele>
        <time>2018-01-15T19:32:00Z</time>
      </trkpt>
      <trkpt lat="51.497431" lon="-0.125686">
        <ele>14</ele>
        <time>2018-01-15T19:32:01Z</time>
      </trkpt>
      <trkpt lat="51.497329" lon="-0.125674">
        <ele>14.2</ele>
        <time>2018-01-15T19:32:02Z</time>
      </trkpt>
      <trkpt lat="51.497233" lon="-0.125656">
        <ele>14.2</ele>
        <time>2018-01-15T19:32:03Z</time>
      </trkpt>
      <trkpt lat="51.497131" lon="-0.125637">
        <ele>14.4</ele>
        <time>2018-01-15T19:32:04Z</time>
      </trkpt>
      <trkpt lat="51.49704" lon="-0.125617">
        <ele>14.4</ele>
        <time>2018-01-15T19:32:05Z</time>
      </trkpt>
      <trkpt lat="51.496943" lon="-0.125597">
        <ele>14.6</ele>
        <time>2018-01-15T19:32:06Z</time>
      </trkpt>
      <trkpt lat="51.496852" lon="-0.125575">
        <ele>14.8</ele>
        <time>2018-01-15T19:32:07Z</time>
      </trkpt>
      <trkpt lat="51.496761" lon="-0.125558">
        <ele>14.8</ele>
        <time>2018-01-15T19:32:08Z</time>
      </trkpt>
      <trkpt lat="51.49667" lon="-0.125538">
        <ele>15</ele>
        <time>2018-01-15T19:32:09Z</time>
      </trkpt>
      <trkpt lat="51.496578" lon="-0.125517">
        <ele>15</ele>
        <time>2018-01-15T19:32:10Z</time>
      </trkpt>
      <trkpt lat="51.496493" lon="-0.125497">
        <ele>15.2</ele>
        <time>2018-01-15T19:32:11Z</time>
      </trkpt>
      <trkpt lat="51.496401" lon="-0.125471">
        <ele>15.4</ele>
        <time>2018-01-15T19:32:12Z</time>
      </trkpt>
      <trkpt lat="51.496316" lon="-0.125451">
        <ele>15.4</ele>
        <time>2018-01-15T19:32:13Z</time>
      </trkpt>
      <trkpt lat="51.49623" lon="-0.125431">
        <ele>15.6</ele>
        <time>2018-01-15T19:32:14Z</time>
      </trkpt>
      <trkpt lat="51.496144" lon="-0.125412">
        <ele>15.6</ele>
        <time>2018-01-15T19:32:15Z</time>
      </trkpt>
      <trkpt lat="51.496058" lon="-0.125394">
        <ele>15.6</ele>
        <time>2018-01-15T19:32:16Z</time>
      </trkpt>
      <trkpt lat="51.495967" lon="-0.125375">
        <ele>15.6</ele>
        <time>2018-01-15T19:32:17Z</time>
      </trkpt>
      <trkpt lat="51.495876" lon="-0.125353">
        <ele>15.6</ele>
        <time>2018-01-15T19:32:18Z</time>
      </trkpt>
      <trkpt lat="51.49579" lon="-0.125329">
        <ele>15.6</ele>
        <time>2018-01-15T19:32:19Z</time>
      </trkpt>
      <trkpt lat="51.495693" lon="-0.125307">
        <ele>15.6</ele>
        <time>2018-01-15T19:32:20Z</time>
      </trkpt>
      <trkpt lat="51.495602" lon="-0.125283">
        <ele>15.6</ele>
        <time>2018-01-15T19:32:21Z</time>
      </trkpt>
      <trkpt lat="51.495506" lon="-0.125256">
        <ele>15.4</ele>
        <time>2018-01-15T19:32:22Z</time>
      </trkpt>
      <trkpt lat="51.495409" lon="-0.125233">
        <ele>15.4</ele>
        <time>2018-01-15T19:32:23Z</time>
      </trkpt>
      <trkpt lat="51.495312" lon="-0.125218">
        <ele>15.4</ele>
        <time>2018-01-15T19:32:24Z</time>
      </trkpt>
      <trkpt lat="51.495216" lon="-0.125214">
        <ele>15.4</ele>
        <time>2018-01-15T19:32:25Z</time>
      </trkpt>
      <trkpt lat="51.495125" lon="-0.125209">
        <ele>15.4</ele>
        <time>2018-01-15T19:32:26Z</time>
      </trkpt>
      <trkpt lat="51.495028" lon="-0.1252">
        <ele>15.4</ele>
        <time>2018-01-15T19:32:27Z</time>
      </trkpt>
      <trkpt lat="51.494926" lon="-0.12518">
        <ele>15.4</ele>
        <time>2018-01-15T19:32:28Z</time>
      </trkpt>
      <trkpt lat="51.494835" lon="-0.125163">
        <ele>15.4</ele>
        <time>2018-01-15T19:32:29Z</time>
      </trkpt>
      <trkpt lat="51.494738" lon="-0.125154">
        <ele>15.4</ele>
        <time>2018-01-15T19:32:30Z</time>
      </trkpt>
      <trkpt lat="51.494647" lon="-0.125141">
        <ele>15.4</ele>
        <time>2018-01-15T19:32:31Z</time>
      </trkpt>
      <trkpt lat="51.494551" lon="-0.125126">
        <ele>15.4</ele>
        <time>2018-01-15T19:32:32Z</time>
      </trkpt>
      <trkpt lat="51.494454" lon="-0.12512">
        <ele>15.4</ele>
        <time>2018-01-15T19:32:33Z</time>
      </trkpt>
      <trkpt lat="51.494358" lon="-0.125117">
        <ele>15.4</ele>
        <time>2018-01-15T19:32:34Z</time>
      </trkpt>
      <trkpt lat="51.494266" lon="-0.125112">
        <ele>15.6</ele>
        <time>2018-01-15T19:32:35Z</time>
      </trkpt>
      <trkpt lat="51.494175" lon="-0.125108">
        <ele>15.6</ele>
        <time>2018-01-15T19:32:36Z</time>
      </trkpt>
      <trkpt lat="51.494084" lon="-0.125104">
        <ele>15.4</ele>
        <time>2018-01-15T19:32:37Z</time>
      </trkpt>
      <trkpt lat="51.493987" lon="-0.1251">
        <ele>15.2</ele>
        <time>2018-01-15T19:32:38Z</time>
      </trkpt>
      <trkpt lat="51.493891" lon="-0.125096">
        <ele>15</ele>
        <time>2018-01-15T19:32:39Z</time>
      </trkpt>
      <trkpt lat="51.493794" lon="-0.125091">
        <ele>14.8</ele>
        <time>2018-01-15T19:32:40Z</time>
      </trkpt>
      <trkpt lat="51.493698" lon="-0.125084">
        <ele>14.8</ele>
        <time>2018-01-15T19:32:41Z</time>
      </trkpt>
      <trkpt lat="51.493601" lon="-0.125081">
        <ele>14.6</ele>
        <time>2018-01-15T19:32:42Z</time>
      </trkpt>
      <trkpt lat="51.493499" lon="-0.125077">
        <ele>14.6</ele>
        <time>2018-01-15T19:32:43Z</time>
      </trkpt>
      <trkpt lat="51.493403" lon="-0.125076">
        <ele>14.4</ele>
        <time>2018-01-15T19:32:44Z</time>
      </trkpt>
      <trkpt lat="51.493301" lon="-0.125076">
        <ele>14.2</ele>
        <time>2018-01-15T19:32:45Z</time>
      </trkpt>
      <trkpt lat="51.493204" lon="-0.125078">
        <ele>14</ele>
        <time>2018-01-15T19:32:46Z</time>
      </trkpt>
      <trkpt lat="51.493102" lon="-0.125078">
        <ele>14</ele>
        <time>2018-01-15T19:32:47Z</time>
      </trkpt>
      <trkpt lat="51.492995" lon="-0.125079">
        <ele>13.8</ele>
        <time>2018-01-15T19:32:48Z</time>
      </trkpt>
      <trkpt lat="51.492893" lon="-0.125079">
        <ele>13.8</ele>
        <time>2018-01-15T19:32:49Z</time>
      </trkpt>
      <trkpt lat="51.492791" lon="-0.125082">
        <ele>13.6</ele>
        <time>2018-01-15T19:32:50Z</time>
      </trkpt>
      <trkpt lat="51.492689" lon="-0.125091">
        <ele>13.6</ele>
        <time>2018-01-15T19:32:51Z</time>
      </trkpt>
      <trkpt lat="51.492582" lon="-0.125108">
        <ele>13.4</ele>
        <time>2018-01-15T19:32:52Z</time>
      </trkpt>
      <trkpt lat="51.492475" lon="-0.125136">
        <ele>13.2</ele>
        <time>2018-01-15T19:32:53Z</time>
      </trkpt>
      <trkpt lat="51.492373" lon="-0.125164">
        <ele>13.2</ele>
        <time>2018-01-15T19:32:54Z</time>
      </trkpt>
      <trkpt lat="51.492271" lon="-0.125202">
        <ele>13</ele>
        <time>2018-01-15T19:32:55Z</time>
      </trkpt>
      <trkpt lat="51.492164" lon="-0.125249">
        <ele>12.8</ele>
        <time>2018-01-15T19:32:56Z</time>
      </trkpt>
      <trkpt lat="51.492067" lon="-0.125303">
        <ele>12.8</ele>
        <time>2018-01-15T19:32:57Z</time>
      </trkpt>
      <trkpt lat="51.491965" lon="-0.125364">
        <ele>12.6</ele>
        <time>2018-01-15T19:32:58Z</time>
      </trkpt>
      <trkpt lat="51.491874" lon="-0.125436">
        <ele>12.6</ele>
        <time>2018-01-15T19:32:59Z</time>
      </trkpt>
      <trkpt lat="51.491777" lon="-0.125509">
        <ele>12.6</ele>
        <time>2018-01-15T19:33:00Z</time>
      </trkpt>
      <trkpt lat="51.491686" lon="-0.125585">
        <ele>12.6</ele>
        <time>2018-01-15T19:33:01Z</time>
      </trkpt>
      <trkpt lat="51.491595" lon="-0.125664">
        <ele>12.6</ele>
        <time>2018-01-15T19:33:02Z</time>
      </trkpt>
      <trkpt lat="51.491504" lon="-0.12575">
        <ele>12.6</ele>
        <time>2018-01-15T19:33:03Z</time>
      </trkpt>
      <trkpt lat="51.491423" lon="-0.125833">
        <ele>12.4</ele>
        <time>2018-01-15T19:33:04Z</time>
      </trkpt>
      <trkpt lat="51.491332" lon="-0.125912">
        <ele>12.4</ele>
        <time>2018-01-15T19:33:05Z</time>
      </trkpt>
      <trkpt lat="51.491252" lon="-0.12599">
        <ele>12.4</ele>
        <time>2018-01-15T19:33:06Z</time>
      </trkpt>
      <trkpt lat="51.49116" lon="-0.126068">
        <ele>12.4</ele>
        <time>2018-01-15T19:33:07Z</time>
      </trkpt>
      <trkpt lat="51.49108" lon="-0.126142">
        <ele>12.4</ele>
        <time>2018-01-15T19:33:08Z</time>
      </trkpt>
      <trkpt lat="51.490989" lon="-0.126218">
        <ele>12.4</ele>
        <time>2018-01-15T19:33:09Z</time>
      </trkpt>
      <trkpt lat="51.490903" lon="-0.126293">
        <ele>12.4</ele>
        <time>2018-01-15T19:33:10Z</time>
      </trkpt>
      <trkpt lat="51.490817" lon="-0.126368">
        <ele>12.4</ele>
        <time>2018-01-15T19:33:11Z</time>
      </trkpt>
      <trkpt lat="51.490731" lon="-0.126439">
        <ele>12.4</ele>
        <time>2018-01-15T19:33:12Z</time>
      </trkpt>
      <trkpt lat="51.490645" lon="-0.126507">
        <ele>12.4</ele>
        <time>2018-01-15T19:33:13Z</time>
      </trkpt>
      <trkpt lat="51.49056" lon="-0.126579">
        <ele>12.4</ele>
        <time>2018-01-15T19:33:14Z</time>
      </trkpt>
      <trkpt lat="51.490474" lon="-0.126647">
        <ele>12.4</ele>
        <time>2018-01-15T19:33:15Z</time>
      </trkpt>
      <trkpt lat="51.490388" lon="-0.126721">
        <ele>12.4</ele>
        <time>2018-01-15T19:33:16Z</time>
      </trkpt>
      <trkpt lat="51.490302" lon="-0.126788">
        <ele>12.4</ele>
        <time>2018-01-15T19:33:17Z</time>
      </trkpt>
      <trkpt lat="51.490216" lon="-0.126861">
        <ele>12.4</ele>
        <time>2018-01-15T19:33:18Z</time>
      </trkpt>
      <trkpt lat="51.490136" lon="-0.126931">
        <ele>12.4</ele>
        <time>2018-01-15T19:33:19Z</time>
      </trkpt>
      <trkpt lat="51.49005" lon="-0.127003">
        <ele>12.4</ele>
        <time>2018-01-15T19:33:20Z</time>
      </trkpt>
      <trkpt lat="51.489975" lon="-0.127081">
        <ele>12.4</ele>
        <time>2018-01-15T19:33:21Z</time>
      </trkpt>
      <trkpt lat="51.489894" lon="-0.127168">
        <ele>12.4</ele>
        <time>2018-01-15T19:33:22Z</time>
      </trkpt>
      <trkpt lat="51.489814" lon="-0.127261">
        <ele>12.4</ele>
        <time>2018-01-15T19:33:23Z</time>
      </trkpt>
      <trkpt lat="51.48975" lon="-0.127365">
        <ele>12.4</ele>
        <time>2018-01-15T19:33:24Z</time>
      </trkpt>
      <trkpt lat="51.48968" lon="-0.127474">
        <ele>12.4</ele>
        <time>2018-01-15T19:33:25Z</time>
      </trkpt>
      <trkpt lat="51.489621" lon="-0.127587">
        <ele>12.4</ele>
        <time>2018-01-15T19:33:26Z</time>
      </trkpt>
      <trkpt lat="51.489562" lon="-0.127703">
        <ele>12.4</ele>
        <time>2018-01-15T19:33:27Z</time>
      </trkpt>
      <trkpt lat="51.489503" lon="-0.127824">
        <ele>12.4</ele>
        <time>2018-01-15T19:33:28Z</time>
      </trkpt>
      <trkpt lat="51.489444" lon="-0.127948">
        <ele>12.4</ele>
        <time>2018-01-15T19:33:29Z</time>
      </trkpt>
      <trkpt lat="51.48939" lon="-0.128072">
        <ele>12.4</ele>
        <time>2018-01-15T19:33:30Z</time>
      </trkpt>
      <trkpt lat="51.489331" lon="-0.128199">
        <ele>12.4</ele>
        <time>2018-01-15T19:33:31Z</time>
      </trkpt>
      <trkpt lat="51.489283" lon="-0.128327">
        <ele>12.4</ele>
        <time>2018-01-15T19:33:32Z</time>
      </trkpt>
      <trkpt lat="51.489224" lon="-0.128457">
        <ele>12.4</ele>
        <time>2018-01-15T19:33:33Z</time>
      </trkpt>
      <trkpt lat="51.489165" lon="-0.128587">
        <ele>12.4</ele>
        <time>2018-01-15T19:33:34Z</time>
      </trkpt>
      <trkpt lat="51.489117" lon="-0.128718">
        <ele>12.4</ele>
        <time>2018-01-15T19:33:35Z</time>
      </trkpt>
      <trkpt lat="51.489063" lon="-0.128846">
        <ele>12.4</ele>
        <time>2018-01-15T19:33:36Z</time>
      </trkpt>
      <trkpt lat="51.489009" lon="-0.128971">
        <ele>12.4</ele>
        <time>2018-01-15T19:33:37Z</time>
      </trkpt>
      <trkpt lat="51.488956" lon="-0.129096">
        <ele>12.4</ele>
        <time>2018-01-15T19:33:38Z</time>
      </trkpt>
      <trkpt lat="51.488897" lon="-0.129212">
        <ele>12.4</ele>
        <time>2018-01-15T19:33:39Z</time>
      </trkpt>
      <trkpt lat="51.488832" lon="-0.129327">
        <ele>12.4</ele>
        <time>2018-01-15T19:33:40Z</time>
      </trkpt>
      <trkpt lat="51.488768" lon="-0.129439">
        <ele>12.4</ele>
        <time>2018-01-15T19:33:41Z</time>
      </trkpt>
      <trkpt lat="51.488698" lon="-0.129546">
        <ele>12.4</ele>
        <time>2018-01-15T19:33:42Z</time>
      </trkpt>
      <trkpt lat="51.488628" lon="-0.129648">
        <ele>12.4</ele>
        <time>2018-01-15T19:33:43Z</time>
      </trkpt>
      <trkpt lat="51.488553" lon="-0.129751">
        <ele>12.4</ele>
        <time>2018-01-15T19:33:44Z</time>
      </trkpt>
      <trkpt lat="51.488478" lon="-0.129842">
        <ele>12.4</ele>
        <time>2018-01-15T19:33:45Z</time>
      </trkpt>
      <trkpt lat="51.488387" lon="-0.129928">
        <ele>12.4</ele>
        <time>2018-01-15T19:33:46Z</time>
      </trkpt>
      <trkpt lat="51.488307" lon="-0.130003">
        <ele>12.4</ele>
        <time>2018-01-15T19:33:47Z</time>
      </trkpt>
      <trkpt lat="51.488226" lon="-0.130075">
        <ele>12.4</ele>
        <time>2018-01-15T19:33:48Z</time>
      </trkpt>
      <trkpt lat="51.48814" lon="-0.130147">
        <ele>12.4</ele>
        <time>2018-01-15T19:33:49Z</time>
      </trkpt>
      <trkpt lat="51.48806" lon="-0.13022">
        <ele>12.4</ele>
        <time>2018-01-15T19:33:50Z</time>
      </trkpt>
      <trkpt lat="51.487979" lon="-0.130289">
        <ele>12.4</ele>
        <time>2018-01-15T19:33:51Z</time>
      </trkpt>
      <trkpt lat="51.487893" lon="-0.13036">
        <ele>12.4</ele>
        <time>2018-01-15T19:33:52Z</time>
      </trkpt>
      <trkpt lat="51.487808" lon="-0.130425">
        <ele>12.4</ele>
        <time>2018-01-15T19:33:53Z</time>
      </trkpt>
      <trkpt lat="51.487722" lon="-0.130484">
        <ele>12.4</ele>
        <time>2018-01-15T19:33:54Z</time>
      </trkpt>
      <trkpt lat="51.487636" lon="-0.130536">
        <ele>12.4</ele>
        <time>2018-01-15T19:33:55Z</time>
      </trkpt>
      <trkpt lat="51.48755" lon="-0.130586">
        <ele>12.2</ele>
        <time>2018-01-15T19:33:56Z</time>
      </trkpt>
      <trkpt lat="51.487464" lon="-0.130632">
        <ele>12.2</ele>
        <time>2018-01-15T19:33:57Z</time>
      </trkpt>
      <trkpt lat="51.487373" lon="-0.130681">
        <ele>12.2</ele>
        <time>2018-01-15T19:33:58Z</time>
      </trkpt>
      <trkpt lat="51.487287" lon="-0.130729">
        <ele>12.2</ele>
        <time>2018-01-15T19:33:59Z</time>
      </trkpt>
      <trkpt lat="51.487201" lon="-0.130781">
        <ele>12.2</ele>
        <time>2018-01-15T19:34:00Z</time>
      </trkpt>
      <trkpt lat="51.487116" lon="-0.130833">
        <ele>12.2</ele>
        <time>2018-01-15T19:34:01Z</time>
      </trkpt>
      <trkpt lat="51.48703" lon="-0.130891">
        <ele>12.2</ele>
        <time>2018-01-15T19:34:02Z</time>
      </trkpt>
      <trkpt lat="51.486949" lon="-0.130951">
        <ele>12.2</ele>
        <time>2018-01-15T19:34:03Z</time>
      </trkpt>
      <trkpt lat="51.486869" lon="-0.131009">
        <ele>12.2</ele>
        <time>2018-01-15T19:34:04Z</time>
      </trkpt>
      <trkpt lat="51.486783" lon="-0.131075">
        <ele>12.2</ele>
        <time>2018-01-15T19:34:05Z</time>
      </trkpt>
      <trkpt lat="51.486708" lon="-0.131149">
        <ele>12.2</ele>
        <time>2018-01-15T19:34:06Z</time>
      </trkpt>
      <trkpt lat="51.486633" lon="-0.131229">
        <ele>12.2</ele>
        <time>2018-01-15T19:34:07Z</time>
      </trkpt>
      <trkpt lat="51.486563" lon="-0.131326">
        <ele>12.2</ele>
        <time>2018-01-15T19:34:08Z</time>
      </trkpt>
      <trkpt lat="51.486499" lon="-0.131429">
        <ele>12.2</ele>
        <time>2018-01-15T19:34:09Z</time>
      </trkpt>
      <trkpt lat="51.486434" lon="-0.131542">
        <ele>12.2</ele>
        <time>2018-01-15T19:34:10Z</time>
      </trkpt>
      <trkpt lat="51.486381" lon="-0.131657">
        <ele>12.2</ele>
        <time>2018-01-15T19:34:11Z</time>
      </trkpt>
      <trkpt lat="51.486327" lon="-0.131781">
        <ele>12.2</ele>
        <time>2018-01-15T19:34:12Z</time>
      </trkpt>
      <trkpt lat="51.486279" lon="-0.131908">
        <ele>12.2</ele>
        <time>2018-01-15T19:34:13Z</time>
      </trkpt>
      <trkpt lat="51.486236" lon="-0.132042">
        <ele>12.2</ele>
        <time>2018-01-15T19:34:14Z</time>
      </trkpt>
      <trkpt lat="51.486198" lon="-0.132176">
        <ele>12.2</ele>
        <time>2018-01-15T19:34:15Z</time>
      </trkpt>
      <trkpt lat="51.486155" lon="-0.132314">
        <ele>12.2</ele>
        <time>2018-01-15T19:34:16Z</time>
      </trkpt>
      <trkpt lat="51.486123" lon="-0.132457">
        <ele>12.2</ele>
        <time>2018-01-15T19:34:17Z</time>
      </trkpt>
      <trkpt lat="51.486091" lon="-0.132601">
        <ele>12.2</ele>
        <time>2018-01-15T19:34:18Z</time>
      </trkpt>
      <trkpt lat="51.486064" lon="-0.132748">
        <ele>12.2</ele>
        <time>2018-01-15T19:34:19Z</time>
      </trkpt>
      <trkpt lat="51.486032" lon="-0.132892">
        <ele>12.2</ele>
        <time>2018-01-15T19:34:20Z</time>
      </trkpt>
      <trkpt lat="51.486005" lon="-0.133036">
        <ele>12.2</ele>
        <time>2018-01-15T19:34:21Z</time>
      </trkpt>
      <trkpt lat="51.485978" lon="-0.133183">
        <ele>12.2</ele>
        <time>2018-01-15T19:34:22Z</time>
      </trkpt>
      <trkpt lat="51.485952" lon="-0.133329">
        <ele>12.2</ele>
        <time>2018-01-15T19:34:23Z</time>
      </trkpt>
      <trkpt lat="51.48593" lon="-0.133473">
        <ele>12.2</ele>
        <time>2018-01-15T19:34:24Z</time>
      </trkpt>
      <trkpt lat="51.485909" lon="-0.133621">
        <ele>12.2</ele>
        <time>2018-01-15T19:34:25Z</time>
      </trkpt>
      <trkpt lat="51.485893" lon="-0.133771">
        <ele>12.2</ele>
        <time>2018-01-15T19:34:26Z</time>
      </trkpt>
      <trkpt lat="51.485866" lon="-0.133923">
        <ele>12.2</ele>
        <time>2018-01-15T19:34:27Z</time>
      </trkpt>
      <trkpt lat="51.485844" lon="-0.134069">
        <ele>12.2</ele>
        <time>2018-01-15T19:34:28Z</time>
      </trkpt>
      <trkpt lat="51.485823" lon="-0.134214">
        <ele>12.2</ele>
        <time>2018-01-15T19:34:29Z</time>
      </trkpt>
      <trkpt lat="51.485801" lon="-0.134362">
        <ele>12.2</ele>
        <time>2018-01-15T19:34:30Z</time>
      </trkpt>
      <trkpt lat="51.485775" lon="-0.134506">
        <ele>12.2</ele>
        <time>2018-01-15T19:34:31Z</time>
      </trkpt>
      <trkpt lat="51.485748" lon="-0.134653">
        <ele>12.2</ele>
        <time>2018-01-15T19:34:32Z</time>
      </trkpt>
      <trkpt lat="51.485721" lon="-0.134798">
        <ele>12.2</ele>
        <time>2018-01-15T19:34:33Z</time>
      </trkpt>
      <trkpt lat="51.485699" lon="-0.134937">
        <ele>12.2</ele>
        <time>2018-01-15T19:34:34Z</time>
      </trkpt>
      <trkpt lat="51.485673" lon="-0.135082">
        <ele>12.2</ele>
        <time>2018-01-15T19:34:35Z</time>
      </trkpt>
      <trkpt lat="51.485646" lon="-0.135223">
        <ele>12.2</ele>
        <time>2018-01-15T19:34:36Z</time>
      </trkpt>
      <trkpt lat="51.485619" lon="-0.135363">
        <ele>12.2</ele>
        <time>2018-01-15T19:34:37Z</time>
      </trkpt>
      <trkpt lat="51.485587" lon="-0.135505">
        <ele>12.2</ele>
        <time>2018-01-15T19:34:38Z</time>
      </trkpt>
      <trkpt lat="51.48556" lon="-0.135644">
        <ele>12.2</ele>
        <time>2018-01-15T19:34:39Z</time>
      </trkpt>
      <trkpt lat="51.485533" lon="-0.135786">
        <ele>12.2</ele>
        <time>2018-01-15T19:34:40Z</time>
      </trkpt>
      <trkpt lat="51.485512" lon="-0.135928">
        <ele>12.2</ele>
        <time>2018-01-15T19:34:41Z</time>
      </trkpt>
      <trkpt lat="51.485485" lon="-0.136073">
        <ele>12.2</ele>
        <time>2018-01-15T19:34:42Z</time>
      </trkpt>
      <trkpt lat="51.485458" lon="-0.136215">
        <ele>12.2</ele>
        <time>2018-01-15T19:34:43Z</time>
      </trkpt>
      <trkpt lat="51.485431" lon="-0.13636">
        <ele>12.2</ele>
        <time>2018-01-15T19:34:44Z</time>
      </trkpt>
      <trkpt lat="51.485404" lon="-0.136501">
        <ele>12</ele>
        <time>2018-01-15T19:34:45Z</time>
      </trkpt>
      <trkpt lat="51.485378" lon="-0.136639">
        <ele>12</ele>
        <time>2018-01-15T19:34:46Z</time>
      </trkpt>
      <trkpt lat="51.485351" lon="-0.136785">
        <ele>12</ele>
        <time>2018-01-15T19:34:47Z</time>
      </trkpt>
      <trkpt lat="51.485324" lon="-0.136932">
        <ele>12</ele>
        <time>2018-01-15T19:34:48Z</time>
      </trkpt>
      <trkpt lat="51.485297" lon="-0.137077">
        <ele>12</ele>
        <time>2018-01-15T19:34:49Z</time>
      </trkpt>
      <trkpt lat="51.48527" lon="-0.137225">
        <ele>12</ele>
        <time>2018-01-15T19:34:50Z</time>
      </trkpt>
      <trkpt lat="51.485243" lon="-0.137376">
        <ele>12</ele>
        <time>2018-01-15T19:34:51Z</time>
      </trkpt>
      <trkpt lat="51.485222" lon="-0.137522">
        <ele>12</ele>
        <time>2018-01-15T19:34:52Z</time>
      </trkpt>
      <trkpt lat="51.485195" lon="-0.137671">
        <ele>12</ele>
        <time>2018-01-15T19:34:53Z</time>
      </trkpt>
      <trkpt lat="51.485168" lon="-0.13782">
        <ele>12</ele>
        <time>2018-01-15T19:34:54Z</time>
      </trkpt>
      <trkpt lat="51.485131" lon="-0.137968">
        <ele>12</ele>
        <time>2018-01-15T19:34:55Z</time>
      </trkpt>
      <trkpt lat="51.485099" lon="-0.138111">
        <ele>12</ele>
        <time>2018-01-15T19:34:56Z</time>
      </trkpt>
      <trkpt lat="51.485066" lon="-0.138256">
        <ele>12</ele>
        <time>2018-01-15T19:34:57Z</time>
      </trkpt>
      <trkpt lat="51.48504" lon="-0.138395">
        <ele>12</ele>
        <time>2018-01-15T19:34:58Z</time>
      </trkpt>
      <trkpt lat="51.485013" lon="-0.138538">
        <ele>12</ele>
        <time>2018-01-15T19:34:59Z</time>
      </trkpt>
      <trkpt lat="51.484991" lon="-0.138684">
        <ele>12</ele>
        <time>2018-01-15T19:35:00Z</time>
      </trkpt>
      <trkpt lat="51.48497" lon="-0.138833">
        <ele>12</ele>
        <time>2018-01-15T19:35:01Z</time>
      </trkpt>
      <trkpt lat="51.484948" lon="-0.138984">
        <ele>12</ele>
        <time>2018-01-15T19:35:02Z</time>
      </trkpt>
      <trkpt lat="51.484932" lon="-0.139141">
        <ele>12</ele>
        <time>2018-01-15T19:35:03Z</time>
      </trkpt>
      <trkpt lat="51.484927" lon="-0.139298">
        <ele>12</ele>
        <time>2018-01-15T19:35:04Z</time>
      </trkpt>
      <trkpt lat="51.484916" lon="-0.139453">
        <ele>12</ele>
        <time>2018-01-15T19:35:05Z</time>
      </trkpt>
      <trkpt lat="51.484916" lon="-0.139601">
        <ele>12</ele>
        <time>2018-01-15T19:35:06Z</time>
      </trkpt>
      <trkpt lat="51.484916" lon="-0.139754">
        <ele>12</ele>
        <time>2018-01-15T19:35:07Z</time>
      </trkpt>
      <trkpt lat="51.484916" lon="-0.139906">
        <ele>12</ele>
        <time>2018-01-15T19:35:08Z</time>
      </trkpt>
      <trkpt lat="51.484927" lon="-0.140054">
        <ele>12</ele>
        <time>2018-01-15T19:35:09Z</time>
      </trkpt>
      <trkpt lat="51.484938" lon="-0.140202">
        <ele>12</ele>
        <time>2018-01-15T19:35:10Z</time>
      </trkpt>
      <trkpt lat="51.484954" lon="-0.140344">
        <ele>12</ele>
        <time>2018-01-15T19:35:11Z</time>
      </trkpt>
      <trkpt lat="51.484975" lon="-0.140489">
        <ele>12</ele>
        <time>2018-01-15T19:35:12Z</time>
      </trkpt>
      <trkpt lat="51.485002" lon="-0.140637">
        <ele>12</ele>
        <time>2018-01-15T19:35:13Z</time>
      </trkpt>
      <trkpt lat="51.485023" lon="-0.14078">
        <ele>12</ele>
        <time>2018-01-15T19:35:14Z</time>
      </trkpt>
      <trkpt lat="51.48505" lon="-0.140925">
        <ele>12</ele>
        <time>2018-01-15T19:35:15Z</time>
      </trkpt>
      <trkpt lat="51.485072" lon="-0.14107">
        <ele>12</ele>
        <time>2018-01-15T19:35:16Z</time>
      </trkpt>
      <trkpt lat="51.485099" lon="-0.141214">
        <ele>12</ele>
        <time>2018-01-15T19:35:17Z</time>
      </trkpt>
      <trkpt lat="51.485125" lon="-0.141359">
        <ele>12</ele>
        <time>2018-01-15T19:35:18Z</time>
      </trkpt>
      <trkpt lat="51.485152" lon="-0.141503">
        <ele>12</ele>
        <time>2018-01-15T19:35:19Z</time>
      </trkpt>
      <trkpt lat="51.485179" lon="-0.141652">
        <ele>12</ele>
        <time>2018-01-15T19:35:20Z</time>
      </trkpt>
      <trkpt lat="51.485206" lon="-0.141801">
        <ele>12</ele>
        <time>2018-01-15T19:35:21Z</time>
      </trkpt>
      <trkpt lat="51.485233" lon="-0.141954">
        <ele>12</ele>
        <time>2018-01-15T19:35:22Z</time>
      </trkpt>
      <trkpt lat="51.48526" lon="-0.142109">
        <ele>12</ele>
        <time>2018-01-15T19:35:23Z</time>
      </trkpt>
      <trkpt lat="51.485286" lon="-0.142257">
        <ele>12</ele>
        <time>2018-01-15T19:35:24Z</time>
      </trkpt>
      <trkpt lat="51.485313" lon="-0.142413">
        <ele>12</ele>
        <time>2018-01-15T19:35:25Z</time>
      </trkpt>
      <trkpt lat="51.48534" lon="-0.142562">
        <ele>12</ele>
        <time>2018-01-15T19:35:26Z</time>
      </trkpt>
      <trkpt lat="51.485372" lon="-0.142714">
        <ele>12</ele>
        <time>2018-01-15T19:35:27Z</time>
      </trkpt>
      <trkpt lat="51.485399" lon="-0.142865">
        <ele>12</ele>
        <time>2018-01-15T19:35:28Z</time>
      </trkpt>
      <trkpt lat="51.485426" lon="-0.14301">
        <ele>12</ele>
        <time>2018-01-15T19:35:29Z</time>
      </trkpt>
      <trkpt lat="51.485453" lon="-0.143158">
        <ele>12</ele>
        <time>2018-01-15T19:35:30Z</time>
      </trkpt>
      <trkpt lat="51.485479" lon="-0.1433">
        <ele>12</ele>
        <time>2018-01-15T19:35:31Z</time>
      </trkpt>
      <trkpt lat="51.485501" lon="-0.143448">
        <ele>12</ele>
        <time>2018-01-15T19:35:32Z</time>
      </trkpt>
      <trkpt lat="51.485528" lon="-0.143594">
        <ele>12</ele>
        <time>2018-01-15T19:35:33Z</time>
      </trkpt>
      <trkpt lat="51.485549" lon="-0.143738">
        <ele>12</ele>
        <time>2018-01-15T19:35:34Z</time>
      </trkpt>
      <trkpt lat="51.485571" lon="-0.143883">
        <ele>12</ele>
        <time>2018-01-15T19:35:35Z</time>
      </trkpt>
      <trkpt lat="51.485587" lon="-0.144028">
        <ele>12</ele>
        <time>2018-01-15T19:35:36Z</time>
      </trkpt>
      <trkpt lat="51.485603" lon="-0.144175">
        <ele>12</ele>
        <time>2018-01-15T19:35:37Z</time>
      </trkpt>
      <trkpt lat="51.485624" lon="-0.144322">
        <ele>12</ele>
        <time>2018-01-15T19:35:38Z</time>
      </trkpt>
      <trkpt lat="51.48564" lon="-0.144467">
        <ele>12</ele>
        <time>2018-01-15T19:35:39Z</time>
      </trkpt>
      <trkpt lat="51.485656" lon="-0.144613">
        <ele>12</ele>
        <time>2018-01-15T19:35:40Z</time>
      </trkpt>
      <trkpt lat="51.485673" lon="-0.14476">
        <ele>12</ele>
        <time>2018-01-15T19:35:41Z</time>
      </trkpt>
      <trkpt lat="51.485689" lon="-0.144908">
        <ele>12</ele>
        <time>2018-01-15T19:35:42Z</time>
      </trkpt>
      <trkpt lat="51.485699" lon="-0.145057">
        <ele>12</ele>
        <time>2018-01-15T19:35:43Z</time>
      </trkpt>
      <trkpt lat="51.485716" lon="-0.145208">
        <ele>12</ele>
        <time>2018-01-15T19:35:44Z</time>
      </trkpt>
      <trkpt lat="51.485726" lon="-0.145359">
        <ele>12</ele>
        <time>2018-01-15T19:35:45Z</time>
      </trkpt>
      <trkpt lat="51.485742" lon="-0.145514">
        <ele>12</ele>
        <time>2018-01-15T19:35:46Z</time>
      </trkpt>
      <trkpt lat="51.485753" lon="-0.145665">
        <ele>12</ele>
        <time>2018-01-15T19:35:47Z</time>
      </trkpt>
      <trkpt lat="51.485764" lon="-0.145816">
        <ele>12</ele>
        <time>2018-01-15T19:35:48Z</time>
      </trkpt>
      <trkpt lat="51.485775" lon="-0.145966">
        <ele>11.8</ele>
        <time>2018-01-15T19:35:49Z</time>
      </trkpt>
      <trkpt lat="51.485785" lon="-0.146124">
        <ele>11.8</ele>
        <time>2018-01-15T19:35:50Z</time>
      </trkpt>
      <trkpt lat="51.485801" lon="-0.146275">
        <ele>11.8</ele>
        <time>2018-01-15T19:35:51Z</time>
      </trkpt>
      <trkpt lat="51.485812" lon="-0.146422">
        <ele>11.8</ele>
        <time>2018-01-15T19:35:52Z</time>
      </trkpt>
      <trkpt lat="51.485823" lon="-0.146574">
        <ele>11.8</ele>
        <time>2018-01-15T19:35:53Z</time>
      </trkpt>
      <trkpt lat="51.485828" lon="-0.146726">
        <ele>11.8</ele>
        <time>2018-01-15T19:35:54Z</time>
      </trkpt>
      <trkpt lat="51.485834" lon="-0.146881">
        <ele>11.8</ele>
        <time>2018-01-15T19:35:55Z</time>
      </trkpt>
      <trkpt lat="51.485839" lon="-0.14703">
        <ele>11.8</ele>
        <time>2018-01-15T19:35:56Z</time>
      </trkpt>
      <trkpt lat="51.485839" lon="-0.147184">
        <ele>11.8</ele>
        <time>2018-01-15T19:35:57Z</time>
      </trkpt>
      <trkpt lat="51.485834" lon="-0.147331">
        <ele>11.8</ele>
        <time>2018-01-15T19:35:58Z</time>
      </trkpt>
      <trkpt lat="51.485828" lon="-0.14748">
        <ele>11.8</ele>
        <time>2018-01-15T19:35:59Z</time>
      </trkpt>
      <trkpt lat="51.485828" lon="-0.147629">
        <ele>11.8</ele>
        <time>2018-01-15T19:36:00Z</time>
      </trkpt>
      <trkpt lat="51.485823" lon="-0.147779">
        <ele>11.8</ele>
        <time>2018-01-15T19:36:01Z</time>
      </trkpt>
      <trkpt lat="51.485817" lon="-0.147927">
        <ele>11.8</ele>
        <time>2018-01-15T19:36:02Z</time>
      </trkpt>
      <trkpt lat="51.485812" lon="-0.148078">
        <ele>11.8</ele>
        <time>2018-01-15T19:36:03Z</time>
      </trkpt>
      <trkpt lat="51.485807" lon="-0.148226">
        <ele>11.8</ele>
        <time>2018-01-15T19:36:04Z</time>
      </trkpt>
      <trkpt lat="51.485801" lon="-0.148372">
        <ele>11.8</ele>
        <time>2018-01-15T19:36:05Z</time>
      </trkpt>
      <trkpt lat="51.485801" lon="-0.148524">
        <ele>11.8</ele>
        <time>2018-01-15T19:36:06Z</time>
      </trkpt>
      <trkpt lat="51.485801" lon="-0.148678">
        <ele>11.8</ele>
        <time>2018-01-15T19:36:07Z</time>
      </trkpt>
      <trkpt lat="51.485801" lon="-0.148824">
        <ele>11.8</ele>
        <time>2018-01-15T19:36:08Z</time>
      </trkpt>
      <trkpt lat="51.485807" lon="-0.14897">
        <ele>11.8</ele>
        <time>2018-01-15T19:36:09Z</time>
      </trkpt>
      <trkpt lat="51.485817" lon="-0.14912">
        <ele>11.8</ele>
        <time>2018-01-15T19:36:10Z</time>
      </trkpt>
      <trkpt lat="51.485834" lon="-0.149266">
        <ele>11.8</ele>
        <time>2018-01-15T19:36:11Z</time>
      </trkpt>
      <trkpt lat="51.485855" lon="-0.149413">
        <ele>11.8</ele>
        <time>2018-01-15T19:36:12Z</time>
      </trkpt>
      <trkpt lat="51.485882" lon="-0.149551">
        <ele>11.8</ele>
        <time>2018-01-15T19:36:13Z</time>
      </trkpt>
      <trkpt lat="51.485919" lon="-0.149686">
        <ele>11.8</ele>
        <time>2018-01-15T19:36:14Z</time>
      </trkpt>
      <trkpt lat="51.485962" lon="-0.149819">
        <ele>11.8</ele>
        <time>2018-01-15T19:36:15Z</time>
      </trkpt>
      <trkpt lat="51.486021" lon="-0.149941">
        <ele>11.8</ele>
        <time>2018-01-15T19:36:16Z</time>
      </trkpt>
      <trkpt lat="51.486091" lon="-0.150044">
        <ele>11.8</ele>
        <time>2018-01-15T19:36:17Z</time>
      </trkpt>
      <trkpt lat="51.486161" lon="-0.150145">
        <ele>11.8</ele>
        <time>2018-01-15T19:36:18Z</time>
      </trkpt>
      <trkpt lat="51.486236" lon="-0.150245">
        <ele>11.8</ele>
        <time>2018-01-15T19:36:19Z</time>
      </trkpt>
      <trkpt lat="51.4863" lon="-0.15035">
        <ele>11.8</ele>
        <time>2018-01-15T19:36:20Z</time>
      </trkpt>
      <trkpt lat="51.486375" lon="-0.150454">
        <ele>11.8</ele>
        <time>2018-01-15T19:36:21Z</time>
      </trkpt>
      <trkpt lat="51.486445" lon="-0.150565">
        <ele>11.8</ele>
        <time>2018-01-15T19:36:22Z</time>
      </trkpt>
      <trkpt lat="51.486515" lon="-0.150676">
        <ele>11.8</ele>
        <time>2018-01-15T19:36:23Z</time>
      </trkpt>
      <trkpt lat="51.48659" lon="-0.150788">
        <ele>11.8</ele>
        <time>2018-01-15T19:36:24Z</time>
      </trkpt>
      <trkpt lat="51.48666" lon="-0.150897">
        <ele>11.8</ele>
        <time>2018-01-15T19:36:25Z</time>
      </trkpt>
      <trkpt lat="51.486724" lon="-0.15101">
        <ele>11.8</ele>
        <time>2018-01-15T19:36:26Z</time>
      </trkpt>
      <trkpt lat="51.486788" lon="-0.151124">
        <ele>11.8</ele>
        <time>2018-01-15T19:36:27Z</time>
      </trkpt>
      <trkpt lat="51.486858" lon="-0.151238">
        <ele>11.8</ele>
        <time>2018-01-15T19:36:28Z</time>
      </trkpt>
      <trkpt lat="51.486923" lon="-0.151355">
        <ele>11.8</ele>
        <time>2018-01-15T19:36:29Z</time>
      </trkpt>
      <trkpt lat="51.486987" lon="-0.151467">
        <ele>11.8</ele>
        <time>2018-01-15T19:36:30Z</time>
      </trkpt>
      <trkpt lat="51.487062" lon="-0.151586">
        <ele>11.8</ele>
        <time>2018-01-15T19:36:31Z</time>
      </trkpt>
      <trkpt lat="51.487132" lon="-0.1517">
        <ele>11.6</ele>
        <time>2018-01-15T19:36:32Z</time>
      </trkpt>
      <trkpt lat="51.487196" lon="-0.151814">
        <ele>11.6</ele>
        <time>2018-01-15T19:36:33Z</time>
      </trkpt>
      <trkpt lat="51.487266" lon="-0.151931">
        <ele>11.6</ele>
        <time>2018-01-15T19:36:34Z</time>
      </trkpt>
      <trkpt lat="51.48733" lon="-0.152044">
        <ele>11.4</ele>
        <time>2018-01-15T19:36:35Z</time>
      </trkpt>
      <trkpt lat="51.4874" lon="-0.152164">
        <ele>11.4</ele>
        <time>2018-01-15T19:36:36Z</time>
      </trkpt>
      <trkpt lat="51.487459" lon="-0.152282">
        <ele>11.2</ele>
        <time>2018-01-15T19:36:37Z</time>
      </trkpt>
      <trkpt lat="51.487529" lon="-0.152404">
        <ele>11.2</ele>
        <time>2018-01-15T19:36:38Z</time>
      </trkpt>
      <trkpt lat="51.487598" lon="-0.152524">
        <ele>11.2</ele>
        <time>2018-01-15T19:36:39Z</time>
      </trkpt>
      <trkpt lat="51.487663" lon="-0.152633">
        <ele>11.2</ele>
        <time>2018-01-15T19:36:40Z</time>
      </trkpt>
      <trkpt lat="51.487727" lon="-0.152746">
        <ele>11.4</ele>
        <time>2018-01-15T19:36:41Z</time>
      </trkpt>
      <trkpt lat="51.487797" lon="-0.152855">
        <ele>11.4</ele>
        <time>2018-01-15T19:36:42Z</time>
      </trkpt>
      <trkpt lat="51.487867" lon="-0.15297">
        <ele>11.6</ele>
        <time>2018-01-15T19:36:43Z</time>
      </trkpt>
      <trkpt lat="51.487931" lon="-0.153075">
        <ele>11.6</ele>
        <time>2018-01-15T19:36:44Z</time>
      </trkpt>
      <trkpt lat="51.487995" lon="-0.153185">
        <ele>11.8</ele>
        <time>2018-01-15T19:36:45Z</time>
      </trkpt>
      <trkpt lat="51.488065" lon="-0.153289">
        <ele>12</ele>
        <time>2018-01-15T19:36:46Z</time>
      </trkpt>
      <trkpt lat="51.488129" lon="-0.153389">
        <ele>12</ele>
        <time>2018-01-15T19:36:47Z</time>
      </trkpt>
      <trkpt lat="51.488194" lon="-0.15349">
        <ele>12.2</ele>
        <time>2018-01-15T19:36:48Z</time>
      </trkpt>
      <trkpt lat="51.488258" lon="-0.153589">
        <ele>12.2</ele>
        <time>2018-01-15T19:36:49Z</time>
      </trkpt>
      <trkpt lat="51.488323" lon="-0.153691">
        <ele>12.2</ele>
        <time>2018-01-15T19:36:50Z</time>
      </trkpt>
      <trkpt lat="51.488387" lon="-0.15379">
        <ele>12.4</ele>
        <time>2018-01-15T19:36:51Z</time>
      </trkpt>
      <trkpt lat="51.488446" lon="-0.153892">
        <ele>12.4</ele>
        <time>2018-01-15T19:36:52Z</time>
      </trkpt>
      <trkpt lat="51.48851" lon="-0.153996">
        <ele>12.4</ele>
        <time>2018-01-15T19:36:53Z</time>
      </trkpt>
      <trkpt lat="51.488575" lon="-0.154096">
        <ele>12.4</ele>
        <time>2018-01-15T19:36:54Z</time>
      </trkpt>
      <trkpt lat="51.488639" lon="-0.1542">
        <ele>12.2</ele>
        <time>2018-01-15T19:36:55Z</time>
      </trkpt>
      <trkpt lat="51.488703" lon="-0.154309">
        <ele>12.2</ele>
        <time>2018-01-15T19:36:56Z</time>
      </trkpt>
      <trkpt lat="51.488768" lon="-0.154414">
        <ele>12.2</ele>
        <time>2018-01-15T19:36:57Z</time>
      </trkpt>
      <trkpt lat="51.488832" lon="-0.154523">
        <ele>12.2</ele>
        <time>2018-01-15T19:36:58Z</time>
      </trkpt>
      <trkpt lat="51.488897" lon="-0.15463">
        <ele>12.2</ele>
        <time>2018-01-15T19:36:59Z</time>
      </trkpt>
      <trkpt lat="51.488961" lon="-0.154736">
        <ele>12.2</ele>
        <time>2018-01-15T19:37:00Z</time>
      </trkpt>
      <trkpt lat="51.489031" lon="-0.154845">
        <ele>12.2</ele>
        <time>2018-01-15T19:37:01Z</time>
      </trkpt>
      <trkpt lat="51.4891" lon="-0.154954">
        <ele>12.2</ele>
        <time>2018-01-15T19:37:02Z</time>
      </trkpt>
      <trkpt lat="51.489165" lon="-0.155056">
        <ele>12.4</ele>
        <time>2018-01-15T19:37:03Z</time>
      </trkpt>
      <trkpt lat="51.489235" lon="-0.155161">
        <ele>12.4</ele>
        <time>2018-01-15T19:37:04Z</time>
      </trkpt>
      <trkpt lat="51.489299" lon="-0.155269">
        <ele>12.6</ele>
        <time>2018-01-15T19:37:05Z</time>
      </trkpt>
      <trkpt lat="51.489363" lon="-0.155371">
        <ele>12.6</ele>
        <time>2018-01-15T19:37:06Z</time>
      </trkpt>
      <trkpt lat="51.489433" lon="-0.155473">
        <ele>12.6</ele>
        <time>2018-01-15T19:37:07Z</time>
      </trkpt>
      <trkpt lat="51.489497" lon="-0.155579">
        <ele>12.8</ele>
        <time>2018-01-15T19:37:08Z</time>
      </trkpt>
      <trkpt lat="51.489562" lon="-0.155681">
        <ele>13</ele>
        <time>2018-01-15T19:37:09Z</time>
      </trkpt>
      <trkpt lat="51.489632" lon="-0.155782">
        <ele>13</ele>
        <time>2018-01-15T19:37:10Z</time>
      </trkpt>
      <trkpt lat="51.489696" lon="-0.155886">
        <ele>13.2</ele>
        <time>2018-01-15T19:37:11Z</time>
      </trkpt>
      <trkpt lat="51.48976" lon="-0.155986">
        <ele>13.4</ele>
        <time>2018-01-15T19:37:12Z</time>
      </trkpt>
      <trkpt lat="51.489825" lon="-0.156085">
        <ele>13.6</ele>
        <time>2018-01-15T19:37:13Z</time>
      </trkpt>
      <trkpt lat="51.489884" lon="-0.156184">
        <ele>13.6</ele>
        <time>2018-01-15T19:37:14Z</time>
      </trkpt>
      <trkpt lat="51.489948" lon="-0.15628">
        <ele>13.8</ele>
        <time>2018-01-15T19:37:15Z</time>
      </trkpt>
      <trkpt lat="51.490007" lon="-0.156375">
        <ele>14</ele>
        <time>2018-01-15T19:37:16Z</time>
      </trkpt>
      <trkpt lat="51.490071" lon="-0.156472">
        <ele>14</ele>
        <time>2018-01-15T19:37:17Z</time>
      </trkpt>
      <trkpt lat="51.490136" lon="-0.156569">
        <ele>14.2</ele>
        <time>2018-01-15T19:37:18Z</time>
      </trkpt>
      <trkpt lat="51.490195" lon="-0.156661">
        <ele>14.2</ele>
        <time>2018-01-15T19:37:19Z</time>
      </trkpt>
      <trkpt lat="51.490254" lon="-0.156758">
        <ele>14.2</ele>
        <time>2018-01-15T19:37:20Z</time>
      </trkpt>
      <trkpt lat="51.490318" lon="-0.15686">
        <ele>14.4</ele>
        <time>2018-01-15T19:37:21Z</time>
      </trkpt>
      <trkpt lat="51.490393" lon="-0.15693">
        <ele>14.4</ele>
        <time>2018-01-15T19:37:22Z</time>
      </trkpt>
      <trkpt lat="51.490479" lon="-0.156976">
        <ele>14.6</ele>
        <time>2018-01-15T19:37:23Z</time>
      </trkpt>
      <trkpt lat="51.490565" lon="-0.157011">
        <ele>14.8</ele>
        <time>2018-01-15T19:37:24Z</time>
      </trkpt>
      <trkpt lat="51.490651" lon="-0.157041">
        <ele>14.8</ele>
        <time>2018-01-15T19:37:25Z</time>
      </trkpt>
      <trkpt lat="51.490737" lon="-0.157067">
        <ele>15</ele>
        <time>2018-01-15T19:37:26Z</time>
      </trkpt>
      <trkpt lat="51.490828" lon="-0.157094">
        <ele>15</ele>
        <time>2018-01-15T19:37:27Z</time>
      </trkpt>
      <trkpt lat="51.490908" lon="-0.157121">
        <ele>15.2</ele>
        <time>2018-01-15T19:37:28Z</time>
      </trkpt>
      <trkpt lat="51.490999" lon="-0.157148">
        <ele>15.2</ele>
        <time>2018-01-15T19:37:29Z</time>
      </trkpt>
      <trkpt lat="51.49108" lon="-0.157169">
        <ele>15.4</ele>
        <time>2018-01-15T19:37:30Z</time>
      </trkpt>
      <trkpt lat="51.491166" lon="-0.157191">
        <ele>15.4</ele>
        <time>2018-01-15T19:37:31Z</time>
      </trkpt>
      <trkpt lat="51.491252" lon="-0.157211">
        <ele>15.4</ele>
        <time>2018-01-15T19:37:32Z</time>
      </trkpt>
      <trkpt lat="51.491332" lon="-0.157224">
        <ele>15.4</ele>
        <time>2018-01-15T19:37:33Z</time>
      </trkpt>
      <trkpt lat="51.491423" lon="-0.157236">
        <ele>15.4</ele>
        <time>2018-01-15T19:37:34Z</time>
      </trkpt>
      <trkpt lat="51.491504" lon="-0.157248">
        <ele>15.4</ele>
        <time>2018-01-15T19:37:35Z</time>
      </trkpt>
      <trkpt lat="51.49159" lon="-0.157269">
        <ele>15.4</ele>
        <time>2018-01-15T19:37:36Z</time>
      </trkpt>
      <trkpt lat="51.491675" lon="-0.157303">
        <ele>15.4</ele>
        <time>2018-01-15T19:37:37Z</time>
      </trkpt>
      <trkpt lat="51.491767" lon="-0.157343">
        <ele>15.4</ele>
        <time>2018-01-15T19:37:38Z</time>
      </trkpt>
      <trkpt lat="51.491852" lon="-0.157386">
        <ele>15.4</ele>
        <time>2018-01-15T19:37:39Z</time>
      </trkpt>
      <trkpt lat="51.491938" lon="-0.157429">
        <ele>15.4</ele>
        <time>2018-01-15T19:37:40Z</time>
      </trkpt>
      <trkpt lat="51.492035" lon="-0.157459">
        <ele>15.6</ele>
        <time>2018-01-15T19:37:41Z</time>
      </trkpt>
      <trkpt lat="51.492131" lon="-0.157466">
        <ele>15.6</ele>
        <time>2018-01-15T19:37:42Z</time>
      </trkpt>
      <trkpt lat="51.492217" lon="-0.157421">
        <ele>15.6</ele>
        <time>2018-01-15T19:37:43Z</time>
      </trkpt>
      <trkpt lat="51.492271" lon="-0.157312">
        <ele>15.6</ele>
        <time>2018-01-15T19:37:44Z</time>
      </trkpt>
      <trkpt lat="51.492303" lon="-0.157166">
        <ele>15.4</ele>
        <time>2018-01-15T19:37:45Z</time>
      </trkpt>
      <trkpt lat="51.492324" lon="-0.157023">
        <ele>15.4</ele>
        <time>2018-01-15T19:37:46Z</time>
      </trkpt>
      <trkpt lat="51.492373" lon="-0.156885">
        <ele>15.4</ele>
        <time>2018-01-15T19:37:47Z</time>
      </trkpt>
      <trkpt lat="51.492448" lon="-0.156798">
        <ele>15.2</ele>
        <time>2018-01-15T19:37:48Z</time>
      </trkpt>
      <trkpt lat="51.492544" lon="-0.156763">
        <ele>15.2</ele>
        <time>2018-01-15T19:37:49Z</time>
      </trkpt>
      <trkpt lat="51.492641" lon="-0.156774">
        <ele>15.2</ele>
        <time>2018-01-15T19:37:50Z</time>
      </trkpt>
      <trkpt lat="51.492732" lon="-0.156832">
        <ele>15.2</ele>
        <time>2018-01-15T19:37:51Z</time>
      </trkpt>
      <trkpt lat="51.492786" lon="-0.156956">
        <ele>15.2</ele>
        <time>2018-01-15T19:37:52Z</time>
      </trkpt>
      <trkpt lat="51.492786" lon="-0.157114">
        <ele>15.2</ele>
        <time>2018-01-15T19:37:53Z</time>
      </trkpt>
      <trkpt lat="51.492764" lon="-0.157267">
        <ele>15.2</ele>
        <time>2018-01-15T19:37:54Z</time>
      </trkpt>
      <trkpt lat="51.492748" lon="-0.157426">
        <ele>15.2</ele>
        <time>2018-01-15T19:37:55Z</time>
      </trkpt>
      <trkpt lat="51.492759" lon="-0.157586">
        <ele>15.2</ele>
        <time>2018-01-15T19:37:56Z</time>
      </trkpt>
      <trkpt lat="51.492818" lon="-0.157716">
        <ele>15</ele>
        <time>2018-01-15T19:37:57Z</time>
      </trkpt>
      <trkpt lat="51.492909" lon="-0.157785">
        <ele>14.8</ele>
        <time>2018-01-15T19:37:58Z</time>
      </trkpt>
      <trkpt lat="51.493011" lon="-0.157821">
        <ele>14.6</ele>
        <time>2018-01-15T19:37:59Z</time>
      </trkpt>
      <trkpt lat="51.493113" lon="-0.157848">
        <ele>14.4</ele>
        <time>2018-01-15T19:38:00Z</time>
      </trkpt>
      <trkpt lat="51.49322" lon="-0.157875">
        <ele>14.4</ele>
        <time>2018-01-15T19:38:01Z</time>
      </trkpt>
      <trkpt lat="51.493328" lon="-0.157897">
        <ele>14.2</ele>
        <time>2018-01-15T19:38:02Z</time>
      </trkpt>
      <trkpt lat="51.493435" lon="-0.157916">
        <ele>14.2</ele>
        <time>2018-01-15T19:38:03Z</time>
      </trkpt>
      <trkpt lat="51.493542" lon="-0.157936">
        <ele>14</ele>
        <time>2018-01-15T19:38:04Z</time>
      </trkpt>
      <trkpt lat="51.493655" lon="-0.157956">
        <ele>14</ele>
        <time>2018-01-15T19:38:05Z</time>
      </trkpt>
      <trkpt lat="51.493762" lon="-0.157974">
        <ele>13.8</ele>
        <time>2018-01-15T19:38:06Z</time>
      </trkpt>
      <trkpt lat="51.493869" lon="-0.157992">
        <ele>13.6</ele>
        <time>2018-01-15T19:38:07Z</time>
      </trkpt>
      <trkpt lat="51.493982" lon="-0.158012">
        <ele>13.6</ele>
        <time>2018-01-15T19:38:08Z</time>
      </trkpt>
      <trkpt lat="51.494084" lon="-0.158035">
        <ele>13.4</ele>
        <time>2018-01-15T19:38:09Z</time>
      </trkpt>
      <trkpt lat="51.494191" lon="-0.158059">
        <ele>13.4</ele>
        <time>2018-01-15T19:38:10Z</time>
      </trkpt>
      <trkpt lat="51.494304" lon="-0.158091">
        <ele>13.4</ele>
        <time>2018-01-15T19:38:11Z</time>
      </trkpt>
      <trkpt lat="51.494411" lon="-0.158126">
        <ele>13.2</ele>
        <time>2018-01-15T19:38:12Z</time>
      </trkpt>
      <trkpt lat="51.494519" lon="-0.158164">
        <ele>13.2</ele>
        <time>2018-01-15T19:38:13Z</time>
      </trkpt>
      <trkpt lat="51.49462" lon="-0.158198">
        <ele>13.2</ele>
        <time>2018-01-15T19:38:14Z</time>
      </trkpt>
      <trkpt lat="51.494722" lon="-0.158232">
        <ele>13</ele>
        <time>2018-01-15T19:38:15Z</time>
      </trkpt>
      <trkpt lat="51.494824" lon="-0.158266">
        <ele>13</ele>
        <time>2018-01-15T19:38:16Z</time>
      </trkpt>
      <trkpt lat="51.494926" lon="-0.158297">
        <ele>13</ele>
        <time>2018-01-15T19:38:17Z</time>
      </trkpt>
      <trkpt lat="51.495028" lon="-0.15833">
        <ele>13</ele>
        <time>2018-01-15T19:38:18Z</time>
      </trkpt>
      <trkpt lat="51.495135" lon="-0.158363">
        <ele>13</ele>
        <time>2018-01-15T19:38:19Z</time>
      </trkpt>
      <trkpt lat="51.495243" lon="-0.158397">
        <ele>13</ele>
        <time>2018-01-15T19:38:20Z</time>
      </trkpt>
      <trkpt lat="51.495345" lon="-0.15843">
        <ele>13</ele>
        <time>2018-01-15T19:38:21Z</time>
      </trkpt>
      <trkpt lat="51.495447" lon="-0.15846">
        <ele>13.2</ele>
        <time>2018-01-15T19:38:22Z</time>
      </trkpt>
      <trkpt lat="51.495548" lon="-0.158489">
        <ele>13.2</ele>
        <time>2018-01-15T19:38:23Z</time>
      </trkpt>
      <trkpt lat="51.49565" lon="-0.158521">
        <ele>13.4</ele>
        <time>2018-01-15T19:38:24Z</time>
      </trkpt>
      <trkpt lat="51.495752" lon="-0.15855">
        <ele>13.4</ele>
        <time>2018-01-15T19:38:25Z</time>
      </trkpt>
      <trkpt lat="51.495849" lon="-0.158581">
        <ele>13.6</ele>
        <time>2018-01-15T19:38:26Z</time>
      </trkpt>
      <trkpt lat="51.495951" lon="-0.158608">
        <ele>13.8</ele>
        <time>2018-01-15T19:38:27Z</time>
      </trkpt>
      <trkpt lat="51.496047" lon="-0.158633">
        <ele>13.8</ele>
        <time>2018-01-15T19:38:28Z</time>
      </trkpt>
      <trkpt lat="51.496149" lon="-0.158662">
        <ele>14</ele>
        <time>2018-01-15T19:38:29Z</time>
      </trkpt>
      <trkpt lat="51.496246" lon="-0.158688">
        <ele>14.2</ele>
        <time>2018-01-15T19:38:30Z</time>
      </trkpt>
      <trkpt lat="51.496337" lon="-0.158712">
        <ele>14.4</ele>
        <time>2018-01-15T19:38:31Z</time>
      </trkpt>
      <trkpt lat="51.496434" lon="-0.158732">
        <ele>14.6</ele>
        <time>2018-01-15T19:38:32Z</time>
      </trkpt>
      <trkpt lat="51.49653" lon="-0.158756">
        <ele>14.6</ele>
        <time>2018-01-15T19:38:33Z</time>
      </trkpt>
      <trkpt lat="51.496621" lon="-0.15878">
        <ele>14.8</ele>
        <time>2018-01-15T19:38:34Z</time>
      </trkpt>
      <trkpt lat="51.496713" lon="-0.158804">
        <ele>15</ele>
        <time>2018-01-15T19:38:35Z</time>
      </trkpt>
      <trkpt lat="51.496798" lon="-0.158827">
        <ele>15</ele>
        <time>2018-01-15T19:38:36Z</time>
      </trkpt>
      <trkpt lat="51.49689" lon="-0.15885">
        <ele>15.2</ele>
        <time>2018-01-15T19:38:37Z</time>
      </trkpt>
      <trkpt lat="51.496986" lon="-0.158873">
        <ele>15.2</ele>
        <time>2018-01-15T19:38:38Z</time>
      </trkpt>
      <trkpt lat="51.497072" lon="-0.158892">
        <ele>15.2</ele>
        <time>2018-01-15T19:38:39Z</time>
      </trkpt>
      <trkpt lat="51.497169" lon="-0.15891">
        <ele>15.2</ele>
        <time>2018-01-15T19:38:40Z</time>
      </trkpt>
      <trkpt lat="51.49726" lon="-0.158928">
        <ele>15</ele>
        <time>2018-01-15T19:38:41Z</time>
      </trkpt>
      <trkpt lat="51.497356" lon="-0.158948">
        <ele>15</ele>
        <time>2018-01-15T19:38:42Z</time>
      </trkpt>
      <trkpt lat="51.497442" lon="-0.158971">
        <ele>15</ele>
        <time>2018-01-15T19:38:43Z</time>
      </trkpt>
      <trkpt lat="51.497528" lon="-0.159026">
        <ele>15.2</ele>
        <time>2018-01-15T19:38:44Z</time>
      </trkpt>
      <trkpt lat="51.497582" lon="-0.159146">
        <ele>15.2</ele>
        <time>2018-01-15T19:38:45Z</time>
      </trkpt>
      <trkpt lat="51.497592" lon="-0.159292">
        <ele>15.4</ele>
        <time>2018-01-15T19:38:46Z</time>
      </trkpt>
      <trkpt lat="51.497576" lon="-0.159434">
        <ele>15.6</ele>
        <time>2018-01-15T19:38:47Z</time>
      </trkpt>
      <trkpt lat="51.497566" lon="-0.159575">
        <ele>15.6</ele>
        <time>2018-01-15T19:38:48Z</time>
      </trkpt>
      <trkpt lat="51.497549" lon="-0.159714">
        <ele>15.8</ele>
        <time>2018-01-15T19:38:49Z</time>
      </trkpt>
      <trkpt lat="51.497533" lon="-0.159853">
        <ele>16</ele>
        <time>2018-01-15T19:38:50Z</time>
      </trkpt>
      <trkpt lat="51.497523" lon="-0.159986">
        <ele>16.2</ele>
        <time>2018-01-15T19:38:51Z</time>
      </trkpt>
      <trkpt lat="51.497517" lon="-0.160122">
        <ele>16.4</ele>
        <time>2018-01-15T19:38:52Z</time>
      </trkpt>
      <trkpt lat="51.497539" lon="-0.160251">
        <ele>16.6</ele>
        <time>2018-01-15T19:38:53Z</time>
      </trkpt>
      <trkpt lat="51.497592" lon="-0.160347">
        <ele>16.6</ele>
        <time>2018-01-15T19:38:54Z</time>
      </trkpt>
      <trkpt lat="51.497662" lon="-0.160411">
        <ele>16.8</ele>
        <time>2018-01-15T19:38:55Z</time>
      </trkpt>
      <trkpt lat="51.497737" lon="-0.160448">
        <ele>17</ele>
        <time>2018-01-15T19:38:56Z</time>
      </trkpt>
      <trkpt lat="51.497818" lon="-0.16048">
        <ele>17.2</ele>
        <time>2018-01-15T19:38:57Z</time>
      </trkpt>
      <trkpt lat="51.497898" lon="-0.160515">
        <ele>17.2</ele>
        <time>2018-01-15T19:38:58Z</time>
      </trkpt>
      <trkpt lat="51.497973" lon="-0.160556">
        <ele>17.4</ele>
        <time>2018-01-15T19:38:59Z</time>
      </trkpt>
      <trkpt lat="51.498043" lon="-0.160602">
        <ele>17.6</ele>
        <time>2018-01-15T19:39:00Z</time>
      </trkpt>
      <trkpt lat="51.498107" lon="-0.160671">
        <ele>17.8</ele>
        <time>2018-01-15T19:39:01Z</time>
      </trkpt>
      <trkpt lat="51.498161" lon="-0.160769">
        <ele>18</ele>
        <time>2018-01-15T19:39:02Z</time>
      </trkpt>
      <trkpt lat="51.498188" lon="-0.160881">
        <ele>18.2</ele>
        <time>2018-01-15T19:39:03Z</time>
      </trkpt>
      <trkpt lat="51.498204" lon="-0.161005">
        <ele>18.2</ele>
        <time>2018-01-15T19:39:04Z</time>
      </trkpt>
      <trkpt lat="51.498199" lon="-0.161129">
        <ele>18.4</ele>
        <time>2018-01-15T19:39:05Z</time>
      </trkpt>
      <trkpt lat="51.498188" lon="-0.161249">
        <ele>18.6</ele>
        <time>2018-01-15T19:39:06Z</time>
      </trkpt>
      <trkpt lat="51.498188" lon="-0.161375">
        <ele>18.8</ele>
        <time>2018-01-15T19:39:07Z</time>
      </trkpt>
      <trkpt lat="51.498199" lon="-0.161493">
        <ele>18.8</ele>
        <time>2018-01-15T19:39:08Z</time>
      </trkpt>
      <trkpt lat="51.49822" lon="-0.161613">
        <ele>19</ele>
        <time>2018-01-15T19:39:09Z</time>
      </trkpt>
      <trkpt lat="51.498241" lon="-0.161732">
        <ele>19.2</ele>
        <time>2018-01-15T19:39:10Z</time>
      </trkpt>
      <trkpt lat="51.498268" lon="-0.161853">
        <ele>19.4</ele>
        <time>2018-01-15T19:39:11Z</time>
      </trkpt>
      <trkpt lat="51.49829" lon="-0.16197">
        <ele>19.4</ele>
        <time>2018-01-15T19:39:12Z</time>
      </trkpt>
      <trkpt lat="51.498317" lon="-0.162088">
        <ele>19.6</ele>
        <time>2018-01-15T19:39:13Z</time>
      </trkpt>
      <trkpt lat="51.498338" lon="-0.162211">
        <ele>19.8</ele>
        <time>2018-01-15T19:39:14Z</time>
      </trkpt>
      <trkpt lat="51.498359" lon="-0.16233">
        <ele>19.8</ele>
        <time>2018-01-15T19:39:15Z</time>
      </trkpt>
      <trkpt lat="51.498386" lon="-0.162448">
        <ele>20</ele>
        <time>2018-01-15T19:39:16Z</time>
      </trkpt>
      <trkpt lat="51.498408" lon="-0.162572">
        <ele>20.2</ele>
        <time>2018-01-15T19:39:17Z</time>
      </trkpt>
      <trkpt lat="51.498424" lon="-0.162697">
        <ele>20.2</ele>
        <time>2018-01-15T19:39:18Z</time>
      </trkpt>
      <trkpt lat="51.498451" lon="-0.162816">
        <ele>20.4</ele>
        <time>2018-01-15T19:39:19Z</time>
      </trkpt>
      <trkpt lat="51.498477" lon="-0.162934">
        <ele>20.6</ele>
        <time>2018-01-15T19:39:20Z</time>
      </trkpt>
      <trkpt lat="51.498515" lon="-0.16305">
        <ele>20.8</ele>
        <time>2018-01-15T19:39:21Z</time>
      </trkpt>
      <trkpt lat="51.498547" lon="-0.163162">
        <ele>20.8</ele>
        <time>2018-01-15T19:39:22Z</time>
      </trkpt>
      <trkpt lat="51.498585" lon="-0.163276">
        <ele>21</ele>
        <time>2018-01-15T19:39:23Z</time>
      </trkpt>
      <trkpt lat="51.498622" lon="-0.163389">
        <ele>21.2</ele>
        <time>2018-01-15T19:39:24Z</time>
      </trkpt>
      <trkpt lat="51.498654" lon="-0.163504">
        <ele>21.4</ele>
        <time>2018-01-15T19:39:25Z</time>
      </trkpt>
      <trkpt lat="51.498692" lon="-0.163618">
        <ele>21.4</ele>
        <time>2018-01-15T19:39:26Z</time>
      </trkpt>
      <trkpt lat="51.49873" lon="-0.16373">
        <ele>21.6</ele>
        <time>2018-01-15T19:39:27Z</time>
      </trkpt>
      <trkpt lat="51.498773" lon="-0.163835">
        <ele>21.8</ele>
        <time>2018-01-15T19:39:28Z</time>
      </trkpt>
      <trkpt lat="51.498821" lon="-0.163933">
        <ele>22</ele>
        <time>2018-01-15T19:39:29Z</time>
      </trkpt>
      <trkpt lat="51.498874" lon="-0.164023">
        <ele>22</ele>
        <time>2018-01-15T19:39:30Z</time>
      </trkpt>
      <trkpt lat="51.498939" lon="-0.1641">
        <ele>22.2</ele>
        <time>2018-01-15T19:39:31Z</time>
      </trkpt>
      <trkpt lat="51.499003" lon="-0.164157">
        <ele>22.4</ele>
        <time>2018-01-15T19:39:32Z</time>
      </trkpt>
      <trkpt lat="51.499084" lon="-0.164196">
        <ele>22.4</ele>
        <time>2018-01-15T19:39:33Z</time>
      </trkpt>
      <trkpt lat="51.499164" lon="-0.164205">
        <ele>22.6</ele>
        <time>2018-01-15T19:39:34Z</time>
      </trkpt>
      <trkpt lat="51.499239" lon="-0.164176">
        <ele>22.6</ele>
        <time>2018-01-15T19:39:35Z</time>
      </trkpt>
      <trkpt lat="51.499309" lon="-0.164106">
        <ele>22.4</ele>
        <time>2018-01-15T19:39:36Z</time>
      </trkpt>
      <trkpt lat="51.499363" lon="-0.164012">
        <ele>22.4</ele>
        <time>2018-01-15T19:39:37Z</time>
      </trkpt>
      <trkpt lat="51.499416" lon="-0.163908">
        <ele>22.2</ele>
        <time>2018-01-15T19:39:38Z</time>
      </trkpt>
      <trkpt lat="51.49947" lon="-0.1638">
        <ele>22</ele>
        <time>2018-01-15T19:39:39Z</time>
      </trkpt>
      <trkpt lat="51.499524" lon="-0.163692">
        <ele>22</ele>
        <time>2018-01-15T19:39:40Z</time>
      </trkpt>
      <trkpt lat="51.499588" lon="-0.16359">
        <ele>22</ele>
        <time>2018-01-15T19:39:41Z</time>
      </trkpt>
      <trkpt lat="51.499647" lon="-0.163485">
        <ele>22</ele>
        <time>2018-01-15T19:39:42Z</time>
      </trkpt>
      <trkpt lat="51.499706" lon="-0.163382">
        <ele>22</ele>
        <time>2018-01-15T19:39:43Z</time>
      </trkpt>
      <trkpt lat="51.49977" lon="-0.163276">
        <ele>22.2</ele>
        <time>2018-01-15T19:39:44Z</time>
      </trkpt>
      <trkpt lat="51.499824" lon="-0.163174">
        <ele>22.2</ele>
        <time>2018-01-15T19:39:45Z</time>
      </trkpt>
      <trkpt lat="51.499888" lon="-0.163074">
        <ele>22.2</ele>
        <time>2018-01-15T19:39:46Z</time>
      </trkpt>
      <trkpt lat="51.499953" lon="-0.162979">
        <ele>22.2</ele>
        <time>2018-01-15T19:39:47Z</time>
      </trkpt>
      <trkpt lat="51.500017" lon="-0.162885">
        <ele>22.2</ele>
        <time>2018-01-15T19:39:48Z</time>
      </trkpt>
      <trkpt lat="51.500087" lon="-0.162796">
        <ele>22</ele>
        <time>2018-01-15T19:39:49Z</time>
      </trkpt>
      <trkpt lat="51.500151" lon="-0.162706">
        <ele>22</ele>
        <time>2018-01-15T19:39:50Z</time>
      </trkpt>
      <trkpt lat="51.500226" lon="-0.162617">
        <ele>22</ele>
        <time>2018-01-15T19:39:51Z</time>
      </trkpt>
      <trkpt lat="51.500296" lon="-0.162531">
        <ele>22</ele>
        <time>2018-01-15T19:39:52Z</time>
      </trkpt>
      <trkpt lat="51.500366" lon="-0.162443">
        <ele>21.8</ele>
        <time>2018-01-15T19:39:53Z</time>
      </trkpt>
      <trkpt lat="51.500446" lon="-0.162355">
        <ele>21.8</ele>
        <time>2018-01-15T19:39:54Z</time>
      </trkpt>
      <trkpt lat="51.500516" lon="-0.162267">
        <ele>21.8</ele>
        <time>2018-01-15T19:39:55Z</time>
      </trkpt>
      <trkpt lat="51.500591" lon="-0.162181">
        <ele>21.8</ele>
        <time>2018-01-15T19:39:56Z</time>
      </trkpt>
      <trkpt lat="51.500661" lon="-0.162096">
        <ele>21.8</ele>
        <time>2018-01-15T19:39:57Z</time>
      </trkpt>
      <trkpt lat="51.500736" lon="-0.162014">
        <ele>21.8</ele>
        <time>2018-01-15T19:39:58Z</time>
      </trkpt>
      <trkpt lat="51.500816" lon="-0.161934">
        <ele>21.8</ele>
        <time>2018-01-15T19:39:59Z</time>
      </trkpt>
      <trkpt lat="51.500891" lon="-0.161851">
        <ele>21.8</ele>
        <time>2018-01-15T19:40:00Z</time>
      </trkpt>
      <trkpt lat="51.500961" lon="-0.16177">
        <ele>21.8</ele>
        <time>2018-01-15T19:40:01Z</time>
      </trkpt>
      <trkpt lat="51.501036" lon="-0.161686">
        <ele>22</ele>
        <time>2018-01-15T19:40:02Z</time>
      </trkpt>
      <trkpt lat="51.501111" lon="-0.161598">
        <ele>22</ele>
        <time>2018-01-15T19:40:03Z</time>
      </trkpt>
      <trkpt lat="51.501186" lon="-0.161507">
        <ele>22</ele>
        <time>2018-01-15T19:40:04Z</time>
      </trkpt>
      <trkpt lat="51.501256" lon="-0.161412">
        <ele>22</ele>
        <time>2018-01-15T19:40:05Z</time>
      </trkpt>
      <trkpt lat="51.501326" lon="-0.161313">
        <ele>22</ele>
        <time>2018-01-15T19:40:06Z</time>
      </trkpt>
      <trkpt lat="51.50139" lon="-0.161205">
        <ele>22</ele>
        <time>2018-01-15T19:40:07Z</time>
      </trkpt>
      <trkpt lat="51.501449" lon="-0.161092">
        <ele>21.8</ele>
        <time>2018-01-15T19:40:08Z</time>
      </trkpt>
      <trkpt lat="51.501503" lon="-0.160971">
        <ele>21.8</ele>
        <time>2018-01-15T19:40:09Z</time>
      </trkpt>
      <trkpt lat="51.501557" lon="-0.160842">
        <ele>21.8</ele>
        <time>2018-01-15T19:40:10Z</time>
      </trkpt>
      <trkpt lat="51.501605" lon="-0.160711">
        <ele>21.6</ele>
        <time>2018-01-15T19:40:11Z</time>
      </trkpt>
      <trkpt lat="51.501653" lon="-0.160577">
        <ele>21.6</ele>
        <time>2018-01-15T19:40:12Z</time>
      </trkpt>
      <trkpt lat="51.501696" lon="-0.160443">
        <ele>21.6</ele>
        <time>2018-01-15T19:40:13Z</time>
      </trkpt>
      <trkpt lat="51.501739" lon="-0.160306">
        <ele>21.4</ele>
        <time>2018-01-15T19:40:14Z</time>
      </trkpt>
      <trkpt lat="51.501782" lon="-0.160169">
        <ele>21.4</ele>
        <time>2018-01-15T19:40:15Z</time>
      </trkpt>
      <trkpt lat="51.501825" lon="-0.160028">
        <ele>21.4</ele>
        <time>2018-01-15T19:40:16Z</time>
      </trkpt>
      <trkpt lat="51.501862" lon="-0.159884">
        <ele>21.4</ele>
        <time>2018-01-15T19:40:17Z</time>
      </trkpt>
      <trkpt lat="51.501895" lon="-0.159745">
        <ele>21.4</ele>
        <time>2018-01-15T19:40:18Z</time>
      </trkpt>
      <trkpt lat="51.501927" lon="-0.159595">
        <ele>21.4</ele>
        <time>2018-01-15T19:40:19Z</time>
      </trkpt>
      <trkpt lat="51.501954" lon="-0.159451">
        <ele>21.4</ele>
        <time>2018-01-15T19:40:20Z</time>
      </trkpt>
      <trkpt lat="51.50198" lon="-0.159309">
        <ele>21.4</ele>
        <time>2018-01-15T19:40:21Z</time>
      </trkpt>
      <trkpt lat="51.502007" lon="-0.159161">
        <ele>21.4</ele>
        <time>2018-01-15T19:40:22Z</time>
      </trkpt>
      <trkpt lat="51.502034" lon="-0.159022">
        <ele>21.4</ele>
        <time>2018-01-15T19:40:23Z</time>
      </trkpt>
      <trkpt lat="51.502061" lon="-0.158875">
        <ele>21.4</ele>
        <time>2018-01-15T19:40:24Z</time>
      </trkpt>
      <trkpt lat="51.502082" lon="-0.158732">
        <ele>21.4</ele>
        <time>2018-01-15T19:40:25Z</time>
      </trkpt>
      <trkpt lat="51.502109" lon="-0.158589">
        <ele>21.2</ele>
        <time>2018-01-15T19:40:26Z</time>
      </trkpt>
      <trkpt lat="51.502131" lon="-0.158443">
        <ele>21.2</ele>
        <time>2018-01-15T19:40:27Z</time>
      </trkpt>
      <trkpt lat="51.502147" lon="-0.158292">
        <ele>21.2</ele>
        <time>2018-01-15T19:40:28Z</time>
      </trkpt>
      <trkpt lat="51.502163" lon="-0.158141">
        <ele>21</ele>
        <time>2018-01-15T19:40:29Z</time>
      </trkpt>
      <trkpt lat="51.502179" lon="-0.157986">
        <ele>20.8</ele>
        <time>2018-01-15T19:40:30Z</time>
      </trkpt>
      <trkpt lat="51.50219" lon="-0.157831">
        <ele>20.8</ele>
        <time>2018-01-15T19:40:31Z</time>
      </trkpt>
      <trkpt lat="51.5022" lon="-0.157674">
        <ele>20.6</ele>
        <time>2018-01-15T19:40:32Z</time>
      </trkpt>
      <trkpt lat="51.502206" lon="-0.157518">
        <ele>20.6</ele>
        <time>2018-01-15T19:40:33Z</time>
      </trkpt>
      <trkpt lat="51.502211" lon="-0.15736">
        <ele>20.4</ele>
        <time>2018-01-15T19:40:34Z</time>
      </trkpt>
      <trkpt lat="51.502216" lon="-0.157203">
        <ele>20.4</ele>
        <time>2018-01-15T19:40:35Z</time>
      </trkpt>
      <trkpt lat="51.502227" lon="-0.157037">
        <ele>20.2</ele>
        <time>2018-01-15T19:40:36Z</time>
      </trkpt>
      <trkpt lat="51.502238" lon="-0.156879">
        <ele>20</ele>
        <time>2018-01-15T19:40:37Z</time>
      </trkpt>
      <trkpt lat="51.502254" lon="-0.156714">
        <ele>19.8</ele>
        <time>2018-01-15T19:40:38Z</time>
      </trkpt>
      <trkpt lat="51.50227" lon="-0.156552">
        <ele>19.4</ele>
        <time>2018-01-15T19:40:39Z</time>
      </trkpt>
      <trkpt lat="51.502292" lon="-0.156386">
        <ele>19.2</ele>
        <time>2018-01-15T19:40:40Z</time>
      </trkpt>
      <trkpt lat="51.502318" lon="-0.156217">
        <ele>19</ele>
        <time>2018-01-15T19:40:41Z</time>
      </trkpt>
      <trkpt lat="51.50234" lon="-0.156048">
        <ele>18.6</ele>
        <time>2018-01-15T19:40:42Z</time>
      </trkpt>
      <trkpt lat="51.502361" lon="-0.155872">
        <ele>18.2</ele>
        <time>2018-01-15T19:40:43Z</time>
      </trkpt>
      <trkpt lat="51.502383" lon="-0.155703">
        <ele>18</ele>
        <time>2018-01-15T19:40:44Z</time>
      </trkpt>
      <trkpt lat="51.50241" lon="-0.155529">
        <ele>17.8</ele>
        <time>2018-01-15T19:40:45Z</time>
      </trkpt>
      <trkpt lat="51.502442" lon="-0.155353">
        <ele>17.4</ele>
        <time>2018-01-15T19:40:46Z</time>
      </trkpt>
      <trkpt lat="51.502474" lon="-0.155184">
        <ele>17.2</ele>
        <time>2018-01-15T19:40:47Z</time>
      </trkpt>
      <trkpt lat="51.502506" lon="-0.155004">
        <ele>16.8</ele>
        <time>2018-01-15T19:40:48Z</time>
      </trkpt>
      <trkpt lat="51.502533" lon="-0.154833">
        <ele>16.6</ele>
        <time>2018-01-15T19:40:49Z</time>
      </trkpt>
      <trkpt lat="51.502554" lon="-0.154655">
        <ele>16.4</ele>
        <time>2018-01-15T19:40:50Z</time>
      </trkpt>
      <trkpt lat="51.502576" lon="-0.154479">
        <ele>16.2</ele>
        <time>2018-01-15T19:40:51Z</time>
      </trkpt>
      <trkpt lat="51.502603" lon="-0.154303">
        <ele>16</ele>
        <time>2018-01-15T19:40:52Z</time>
      </trkpt>
      <trkpt lat="51.502635" lon="-0.15413">
        <ele>15.6</ele>
        <time>2018-01-15T19:40:53Z</time>
      </trkpt>
      <trkpt lat="51.502672" lon="-0.153957">
        <ele>15.4</ele>
        <time>2018-01-15T19:40:54Z</time>
      </trkpt>
      <trkpt lat="51.502705" lon="-0.153785">
        <ele>15</ele>
        <time>2018-01-15T19:40:55Z</time>
      </trkpt>
      <trkpt lat="51.502748" lon="-0.153606">
        <ele>14.8</ele>
        <time>2018-01-15T19:40:56Z</time>
      </trkpt>
      <trkpt lat="51.50278" lon="-0.153432">
        <ele>14.4</ele>
        <time>2018-01-15T19:40:57Z</time>
      </trkpt>
      <trkpt lat="51.502823" lon="-0.153248">
        <ele>14</ele>
        <time>2018-01-15T19:40:58Z</time>
      </trkpt>
      <trkpt lat="51.502849" lon="-0.153065">
        <ele>13.6</ele>
        <time>2018-01-15T19:40:59Z</time>
      </trkpt>
      <trkpt lat="51.502876" lon="-0.15288">
        <ele>13.2</ele>
        <time>2018-01-15T19:41:00Z</time>
      </trkpt>
      <trkpt lat="51.502887" lon="-0.152681">
        <ele>13</ele>
        <time>2018-01-15T19:41:01Z</time>
      </trkpt>
      <trkpt lat="51.502892" lon="-0.152483">
        <ele>12.6</ele>
        <time>2018-01-15T19:41:02Z</time>
      </trkpt>
      <trkpt lat="51.502898" lon="-0.15229">
        <ele>12.6</ele>
        <time>2018-01-15T19:41:03Z</time>
      </trkpt>
      <trkpt lat="51.502903" lon="-0.152095">
        <ele>12.4</ele>
        <time>2018-01-15T19:41:04Z</time>
      </trkpt>
      <trkpt lat="51.502908" lon="-0.151898">
        <ele>12.2</ele>
        <time>2018-01-15T19:41:05Z</time>
      </trkpt>
      <trkpt lat="51.502908" lon="-0.151709">
        <ele>12.2</ele>
        <time>2018-01-15T19:41:06Z</time>
      </trkpt>
      <trkpt lat="51.502908" lon="-0.151517">
        <ele>12</ele>
        <time>2018-01-15T19:41:07Z</time>
      </trkpt>
      <trkpt lat="51.502914" lon="-0.151332">
        <ele>12</ele>
        <time>2018-01-15T19:41:08Z</time>
      </trkpt>
      <trkpt lat="51.502925" lon="-0.151147">
        <ele>12.2</ele>
        <time>2018-01-15T19:41:09Z</time>
      </trkpt>
      <trkpt lat="51.502941" lon="-0.150961">
        <ele>12.4</ele>
        <time>2018-01-15T19:41:10Z</time>
      </trkpt>
      <trkpt lat="51.502967" lon="-0.150786">
        <ele>12.6</ele>
        <time>2018-01-15T19:41:11Z</time>
      </trkpt>
      <trkpt lat="51.502984" lon="-0.150616">
        <ele>12.8</ele>
        <time>2018-01-15T19:41:12Z</time>
      </trkpt>
      <trkpt lat="51.503005" lon="-0.15045">
        <ele>13</ele>
        <time>2018-01-15T19:41:13Z</time>
      </trkpt>
      <trkpt lat="51.503037" lon="-0.150286">
        <ele>13</ele>
        <time>2018-01-15T19:41:14Z</time>
      </trkpt>
      <trkpt lat="51.503075" lon="-0.150132">
        <ele>13.2</ele>
        <time>2018-01-15T19:41:15Z</time>
      </trkpt>
      <trkpt lat="51.503118" lon="-0.149983">
        <ele>13.2</ele>
        <time>2018-01-15T19:41:16Z</time>
      </trkpt>
      <trkpt lat="51.503166" lon="-0.149838">
        <ele>13.4</ele>
        <time>2018-01-15T19:41:17Z</time>
      </trkpt>
      <trkpt lat="51.503209" lon="-0.149695">
        <ele>13.6</ele>
        <time>2018-01-15T19:41:18Z</time>
      </trkpt>
      <trkpt lat="51.503257" lon="-0.149562">
        <ele>14</ele>
        <time>2018-01-15T19:41:19Z</time>
      </trkpt>
      <trkpt lat="51.503311" lon="-0.149434">
        <ele>14.4</ele>
        <time>2018-01-15T19:41:20Z</time>
      </trkpt>
      <trkpt lat="51.503364" lon="-0.149314">
        <ele>14.8</ele>
        <time>2018-01-15T19:41:21Z</time>
      </trkpt>
      <trkpt lat="51.503413" lon="-0.149191">
        <ele>15</ele>
        <time>2018-01-15T19:41:22Z</time>
      </trkpt>
      <trkpt lat="51.503466" lon="-0.149076">
        <ele>15.2</ele>
        <time>2018-01-15T19:41:23Z</time>
      </trkpt>
      <trkpt lat="51.503515" lon="-0.148961">
        <ele>15.4</ele>
        <time>2018-01-15T19:41:24Z</time>
      </trkpt>
      <trkpt lat="51.503568" lon="-0.14885">
        <ele>15.8</ele>
        <time>2018-01-15T19:41:25Z</time>
      </trkpt>
      <trkpt lat="51.503617" lon="-0.148741">
        <ele>16.2</ele>
        <time>2018-01-15T19:41:26Z</time>
      </trkpt>
      <trkpt lat="51.503665" lon="-0.148637">
        <ele>16.4</ele>
        <time>2018-01-15T19:41:27Z</time>
      </trkpt>
      <trkpt lat="51.503718" lon="-0.148536">
        <ele>16.8</ele>
        <time>2018-01-15T19:41:28Z</time>
      </trkpt>
      <trkpt lat="51.503761" lon="-0.148439">
        <ele>17.2</ele>
        <time>2018-01-15T19:41:29Z</time>
      </trkpt>
      <trkpt lat="51.50381" lon="-0.148343">
        <ele>17.6</ele>
        <time>2018-01-15T19:41:30Z</time>
      </trkpt>
      <trkpt lat="51.503853" lon="-0.148251">
        <ele>17.8</ele>
        <time>2018-01-15T19:41:31Z</time>
      </trkpt>
      <trkpt lat="51.503901" lon="-0.14816">
        <ele>18.2</ele>
        <time>2018-01-15T19:41:32Z</time>
      </trkpt>
      <trkpt lat="51.503944" lon="-0.148074">
        <ele>18.6</ele>
        <time>2018-01-15T19:41:33Z</time>
      </trkpt>
      <trkpt lat="51.503992" lon="-0.147995">
        <ele>18.8</ele>
        <time>2018-01-15T19:41:34Z</time>
      </trkpt>
      <trkpt lat="51.504035" lon="-0.147916">
        <ele>19</ele>
        <time>2018-01-15T19:41:35Z</time>
      </trkpt>
      <trkpt lat="51.504083" lon="-0.147841">
        <ele>19.4</ele>
        <time>2018-01-15T19:41:36Z</time>
      </trkpt>
      <trkpt lat="51.504132" lon="-0.147771">
        <ele>19.6</ele>
        <time>2018-01-15T19:41:37Z</time>
      </trkpt>
      <trkpt lat="51.50418" lon="-0.147701">
        <ele>19.8</ele>
        <time>2018-01-15T19:41:38Z</time>
      </trkpt>
      <trkpt lat="51.504233" lon="-0.147631">
        <ele>20</ele>
        <time>2018-01-15T19:41:39Z</time>
      </trkpt>
      <trkpt lat="51.504282" lon="-0.147563">
        <ele>20.2</ele>
        <time>2018-01-15T19:41:40Z</time>
      </trkpt>
      <trkpt lat="51.504325" lon="-0.147496">
        <ele>20.4</ele>
        <time>2018-01-15T19:41:41Z</time>
      </trkpt>
      <trkpt lat="51.504378" lon="-0.147422">
        <ele>20.6</ele>
        <time>2018-01-15T19:41:42Z</time>
      </trkpt>
      <trkpt lat="51.504421" lon="-0.14735">
        <ele>20.8</ele>
        <time>2018-01-15T19:41:43Z</time>
      </trkpt>
      <trkpt lat="51.504464" lon="-0.147274">
        <ele>21</ele>
        <time>2018-01-15T19:41:44Z</time>
      </trkpt>
      <trkpt lat="51.504507" lon="-0.147199">
        <ele>21.2</ele>
        <time>2018-01-15T19:41:45Z</time>
      </trkpt>
      <trkpt lat="51.50455" lon="-0.147122">
        <ele>21.4</ele>
        <time>2018-01-15T19:41:46Z</time>
      </trkpt>
      <trkpt lat="51.504593" lon="-0.147041">
        <ele>21.6</ele>
        <time>2018-01-15T19:41:47Z</time>
      </trkpt>
      <trkpt lat="51.504636" lon="-0.14696">
        <ele>21.8</ele>
        <time>2018-01-15T19:41:48Z</time>
      </trkpt>
      <trkpt lat="51.504684" lon="-0.146882">
        <ele>22</ele>
        <time>2018-01-15T19:41:49Z</time>
      </trkpt>
      <trkpt lat="51.504722" lon="-0.146805">
        <ele>22.2</ele>
        <time>2018-01-15T19:41:50Z</time>
      </trkpt>
      <trkpt lat="51.504765" lon="-0.146728">
        <ele>22.4</ele>
        <time>2018-01-15T19:41:51Z</time>
      </trkpt>
      <trkpt lat="51.504813" lon="-0.146646">
        <ele>22.4</ele>
        <time>2018-01-15T19:41:52Z</time>
      </trkpt>
      <trkpt lat="51.504856" lon="-0.146566">
        <ele>22.6</ele>
        <time>2018-01-15T19:41:53Z</time>
      </trkpt>
      <trkpt lat="51.504893" lon="-0.146482">
        <ele>22.6</ele>
        <time>2018-01-15T19:41:54Z</time>
      </trkpt>
      <trkpt lat="51.504942" lon="-0.146396">
        <ele>22.6</ele>
        <time>2018-01-15T19:41:55Z</time>
      </trkpt>
      <trkpt lat="51.504984" lon="-0.146307">
        <ele>22.8</ele>
        <time>2018-01-15T19:41:56Z</time>
      </trkpt>
      <trkpt lat="51.505027" lon="-0.146217">
        <ele>22.6</ele>
        <time>2018-01-15T19:41:57Z</time>
      </trkpt>
      <trkpt lat="51.505076" lon="-0.146127">
        <ele>22.6</ele>
        <time>2018-01-15T19:41:58Z</time>
      </trkpt>
      <trkpt lat="51.505119" lon="-0.146031">
        <ele>22.6</ele>
        <time>2018-01-15T19:41:59Z</time>
      </trkpt>
      <trkpt lat="51.505167" lon="-0.145931">
        <ele>22.4</ele>
        <time>2018-01-15T19:42:00Z</time>
      </trkpt>
      <trkpt lat="51.50521" lon="-0.145831">
        <ele>22.2</ele>
        <time>2018-01-15T19:42:01Z</time>
      </trkpt>
      <trkpt lat="51.505253" lon="-0.145727">
        <ele>22.2</ele>
        <time>2018-01-15T19:42:02Z</time>
      </trkpt>
      <trkpt lat="51.505301" lon="-0.145618">
        <ele>22.2</ele>
        <time>2018-01-15T19:42:03Z</time>
      </trkpt>
      <trkpt lat="51.505349" lon="-0.145513">
        <ele>22</ele>
        <time>2018-01-15T19:42:04Z</time>
      </trkpt>
      <trkpt lat="51.505398" lon="-0.145407">
        <ele>22</ele>
        <time>2018-01-15T19:42:05Z</time>
      </trkpt>
      <trkpt lat="51.505451" lon="-0.145302">
        <ele>22.2</ele>
        <time>2018-01-15T19:42:06Z</time>
      </trkpt>
      <trkpt lat="51.505505" lon="-0.1452">
        <ele>22.2</ele>
        <time>2018-01-15T19:42:07Z</time>
      </trkpt>
      <trkpt lat="51.505558" lon="-0.145098">
        <ele>22.4</ele>
        <time>2018-01-15T19:42:08Z</time>
      </trkpt>
      <trkpt lat="51.505612" lon="-0.144997">
        <ele>22.4</ele>
        <time>2018-01-15T19:42:09Z</time>
      </trkpt>
      <trkpt lat="51.505671" lon="-0.144894">
        <ele>22.6</ele>
        <time>2018-01-15T19:42:10Z</time>
      </trkpt>
      <trkpt lat="51.505725" lon="-0.144795">
        <ele>22.6</ele>
        <time>2018-01-15T19:42:11Z</time>
      </trkpt>
      <trkpt lat="51.505778" lon="-0.144695">
        <ele>22.8</ele>
        <time>2018-01-15T19:42:12Z</time>
      </trkpt>
      <trkpt lat="51.505832" lon="-0.144594">
        <ele>23</ele>
        <time>2018-01-15T19:42:13Z</time>
      </trkpt>
      <trkpt lat="51.505886" lon="-0.144495">
        <ele>23</ele>
        <time>2018-01-15T19:42:14Z</time>
      </trkpt>
      <trkpt lat="51.505939" lon="-0.144392">
        <ele>23.2</ele>
        <time>2018-01-15T19:42:15Z</time>
      </trkpt>
      <trkpt lat="51.505988" lon="-0.144292">
        <ele>23.4</ele>
        <time>2018-01-15T19:42:16Z</time>
      </trkpt>
      <trkpt lat="51.506036" lon="-0.144192">
        <ele>23.4</ele>
        <time>2018-01-15T19:42:17Z</time>
      </trkpt>
      <trkpt lat="51.50609" lon="-0.14409">
        <ele>23.6</ele>
        <time>2018-01-15T19:42:18Z</time>
      </trkpt>
      <trkpt lat="51.506138" lon="-0.143991">
        <ele>23.8</ele>
        <time>2018-01-15T19:42:19Z</time>
      </trkpt>
      <trkpt lat="51.506186" lon="-0.143893">
        <ele>24</ele>
        <time>2018-01-15T19:42:20Z</time>
      </trkpt>
      <trkpt lat="51.50624" lon="-0.143794">
        <ele>24</ele>
        <time>2018-01-15T19:42:21Z</time>
      </trkpt>
      <trkpt lat="51.506288" lon="-0.143697">
        <ele>24.2</ele>
        <time>2018-01-15T19:42:22Z</time>
      </trkpt>
      <trkpt lat="51.506336" lon="-0.143599">
        <ele>24.4</ele>
        <time>2018-01-15T19:42:23Z</time>
      </trkpt>
      <trkpt lat="51.506385" lon="-0.143506">
        <ele>24.6</ele>
        <time>2018-01-15T19:42:24Z</time>
      </trkpt>
      <trkpt lat="51.506433" lon="-0.14341">
        <ele>24.8</ele>
        <time>2018-01-15T19:42:25Z</time>
      </trkpt>
      <trkpt lat="51.506481" lon="-0.143317">
        <ele>25</ele>
        <time>2018-01-15T19:42:26Z</time>
      </trkpt>
      <trkpt lat="51.506519" lon="-0.143225">
        <ele>25.2</ele>
        <time>2018-01-15T19:42:27Z</time>
      </trkpt>
      <trkpt lat="51.506567" lon="-0.143133">
        <ele>25.4</ele>
        <time>2018-01-15T19:42:28Z</time>
      </trkpt>
      <trkpt lat="51.50661" lon="-0.143044">
        <ele>25.6</ele>
        <time>2018-01-15T19:42:29Z</time>
      </trkpt>
      <trkpt lat="51.506653" lon="-0.142956">
        <ele>25.8</ele>
        <time>2018-01-15T19:42:30Z</time>
      </trkpt>
      <trkpt lat="51.506696" lon="-0.14287">
        <ele>26</ele>
        <time>2018-01-15T19:42:31Z</time>
      </trkpt>
      <trkpt lat="51.506744" lon="-0.142781">
        <ele>26.2</ele>
        <time>2018-01-15T19:42:32Z</time>
      </trkpt>
      <trkpt lat="51.506782" lon="-0.142693">
        <ele>26.4</ele>
        <time>2018-01-15T19:42:33Z</time>
      </trkpt>
      <trkpt lat="51.50683" lon="-0.142608">
        <ele>26.6</ele>
        <time>2018-01-15T19:42:34Z</time>
      </trkpt>
      <trkpt lat="51.506873" lon="-0.142526">
        <ele>26.8</ele>
        <time>2018-01-15T19:42:35Z</time>
      </trkpt>
      <trkpt lat="51.506916" lon="-0.142441">
        <ele>27</ele>
        <time>2018-01-15T19:42:36Z</time>
      </trkpt>
      <trkpt lat="51.506953" lon="-0.14236">
        <ele>27.2</ele>
        <time>2018-01-15T19:42:37Z</time>
      </trkpt>
      <trkpt lat="51.506996" lon="-0.142276">
        <ele>27.4</ele>
        <time>2018-01-15T19:42:38Z</time>
      </trkpt>
      <trkpt lat="51.507039" lon="-0.142196">
        <ele>27.6</ele>
        <time>2018-01-15T19:42:39Z</time>
      </trkpt>
      <trkpt lat="51.507077" lon="-0.142114">
        <ele>27.8</ele>
        <time>2018-01-15T19:42:40Z</time>
      </trkpt>
      <trkpt lat="51.50712" lon="-0.142034">
        <ele>28.2</ele>
        <time>2018-01-15T19:42:41Z</time>
      </trkpt>
      <trkpt lat="51.507157" lon="-0.141952">
        <ele>28.4</ele>
        <time>2018-01-15T19:42:42Z</time>
      </trkpt>
      <trkpt lat="51.507195" lon="-0.141872">
        <ele>28.6</ele>
        <time>2018-01-15T19:42:43Z</time>
      </trkpt>
      <trkpt lat="51.507232" lon="-0.141793">
        <ele>28.8</ele>
        <time>2018-01-15T19:42:44Z</time>
      </trkpt>
      <trkpt lat="51.50727" lon="-0.141714">
        <ele>29</ele>
        <time>2018-01-15T19:42:45Z</time>
      </trkpt>
      <trkpt lat="51.507307" lon="-0.141636">
        <ele>29.2</ele>
        <time>2018-01-15T19:42:46Z</time>
      </trkpt>
      <trkpt lat="51.507345" lon="-0.141556">
        <ele>29.4</ele>
        <time>2018-01-15T19:42:47Z</time>
      </trkpt>
      <trkpt lat="51.507382" lon="-0.141474">
        <ele>29.6</ele>
        <time>2018-01-15T19:42:48Z</time>
      </trkpt>
      <trkpt lat="51.507415" lon="-0.141393">
        <ele>29.8</ele>
        <time>2018-01-15T19:42:49Z</time>
      </trkpt>
      <trkpt lat="51.507452" lon="-0.141309">
        <ele>30</ele>
        <time>2018-01-15T19:42:50Z</time>
      </trkpt>
      <trkpt lat="51.50749" lon="-0.14123">
        <ele>30.2</ele>
        <time>2018-01-15T19:42:51Z</time>
      </trkpt>
      <trkpt lat="51.507527" lon="-0.141148">
        <ele>30.4</ele>
        <time>2018-01-15T19:42:52Z</time>
      </trkpt>
      <trkpt lat="51.507565" lon="-0.141066">
        <ele>30.6</ele>
        <time>2018-01-15T19:42:53Z</time>
      </trkpt>
      <trkpt lat="51.507602" lon="-0.140983">
        <ele>30.8</ele>
        <time>2018-01-15T19:42:54Z</time>
      </trkpt>
      <trkpt lat="51.50764" lon="-0.140901">
        <ele>31</ele>
        <time>2018-01-15T19:42:55Z</time>
      </trkpt>
      <trkpt lat="51.507677" lon="-0.140816">
        <ele>31.2</ele>
        <time>2018-01-15T19:42:56Z</time>
      </trkpt>
      <trkpt lat="51.507704" lon="-0.140724">
        <ele>31.2</ele>
        <time>2018-01-15T19:42:57Z</time>
      </trkpt>
      <trkpt lat="51.507715" lon="-0.140622">
        <ele>31.4</ele>
        <time>2018-01-15T19:42:58Z</time>
      </trkpt>
      <trkpt lat="51.507694" lon="-0.140522">
        <ele>31.4</ele>
        <time>2018-01-15T19:42:59Z</time>
      </trkpt>
      <trkpt lat="51.507651" lon="-0.140443">
        <ele>31.4</ele>
        <time>2018-01-15T19:43:00Z</time>
      </trkpt>
      <trkpt lat="51.507586" lon="-0.140379">
        <ele>31.4</ele>
        <time>2018-01-15T19:43:01Z</time>
      </trkpt>
      <trkpt lat="51.507522" lon="-0.140315">
        <ele>31.2</ele>
        <time>2018-01-15T19:43:02Z</time>
      </trkpt>
      <trkpt lat="51.507452" lon="-0.140252">
        <ele>30.8</ele>
        <time>2018-01-15T19:43:03Z</time>
      </trkpt>
      <trkpt lat="51.507377" lon="-0.140184">
        <ele>30.6</ele>
        <time>2018-01-15T19:43:04Z</time>
      </trkpt>
      <trkpt lat="51.507302" lon="-0.140112">
        <ele>30.2</ele>
        <time>2018-01-15T19:43:05Z</time>
      </trkpt>
      <trkpt lat="51.507221" lon="-0.140041">
        <ele>29.8</ele>
        <time>2018-01-15T19:43:06Z</time>
      </trkpt>
      <trkpt lat="51.507141" lon="-0.139972">
        <ele>29.4</ele>
        <time>2018-01-15T19:43:07Z</time>
      </trkpt>
      <trkpt lat="51.50705" lon="-0.139901">
        <ele>29</ele>
        <time>2018-01-15T19:43:08Z</time>
      </trkpt>
      <trkpt lat="51.506964" lon="-0.139828">
        <ele>28.4</ele>
        <time>2018-01-15T19:43:09Z</time>
      </trkpt>
      <trkpt lat="51.506873" lon="-0.139749">
        <ele>28</ele>
        <time>2018-01-15T19:43:10Z</time>
      </trkpt>
      <trkpt lat="51.506782" lon="-0.139668">
        <ele>27.6</ele>
        <time>2018-01-15T19:43:11Z</time>
      </trkpt>
      <trkpt lat="51.50669" lon="-0.139581">
        <ele>27.2</ele>
        <time>2018-01-15T19:43:12Z</time>
      </trkpt>
      <trkpt lat="51.506594" lon="-0.139493">
        <ele>26.8</ele>
        <time>2018-01-15T19:43:13Z</time>
      </trkpt>
      <trkpt lat="51.506497" lon="-0.139401">
        <ele>26.4</ele>
        <time>2018-01-15T19:43:14Z</time>
      </trkpt>
      <trkpt lat="51.506406" lon="-0.139309">
        <ele>25.8</ele>
        <time>2018-01-15T19:43:15Z</time>
      </trkpt>
      <trkpt lat="51.50631" lon="-0.139213">
        <ele>25.4</ele>
        <time>2018-01-15T19:43:16Z</time>
      </trkpt>
      <trkpt lat="51.506213" lon="-0.139117">
        <ele>25</ele>
        <time>2018-01-15T19:43:17Z</time>
      </trkpt>
      <trkpt lat="51.506111" lon="-0.139017">
        <ele>24.6</ele>
        <time>2018-01-15T19:43:18Z</time>
      </trkpt>
      <trkpt lat="51.506014" lon="-0.138919">
        <ele>24.2</ele>
        <time>2018-01-15T19:43:19Z</time>
      </trkpt>
      <trkpt lat="51.505913" lon="-0.138818">
        <ele>23.8</ele>
        <time>2018-01-15T19:43:20Z</time>
      </trkpt>
      <trkpt lat="51.505811" lon="-0.138719">
        <ele>23.4</ele>
        <time>2018-01-15T19:43:21Z</time>
      </trkpt>
      <trkpt lat="51.505709" lon="-0.138617">
        <ele>23</ele>
        <time>2018-01-15T19:43:22Z</time>
      </trkpt>
      <trkpt lat="51.505607" lon="-0.138516">
        <ele>22.6</ele>
        <time>2018-01-15T19:43:23Z</time>
      </trkpt>
      <trkpt lat="51.505505" lon="-0.138414">
        <ele>22.2</ele>
        <time>2018-01-15T19:43:24Z</time>
      </trkpt>
      <trkpt lat="51.505398" lon="-0.138318">
        <ele>22</ele>
        <time>2018-01-15T19:43:25Z</time>
      </trkpt>
      <trkpt lat="51.50529" lon="-0.138235">
        <ele>22</ele>
        <time>2018-01-15T19:43:26Z</time>
      </trkpt>
      <trkpt lat="51.505194" lon="-0.138132">
        <ele>22</ele>
        <time>2018-01-15T19:43:27Z</time>
      </trkpt>
      <trkpt lat="51.505145" lon="-0.137965">
        <ele>22.2</ele>
        <time>2018-01-15T19:43:28Z</time>
      </trkpt>
      <trkpt lat="51.505172" lon="-0.137796">
        <ele>22.2</ele>
        <time>2018-01-15T19:43:29Z</time>
      </trkpt>
      <trkpt lat="51.505231" lon="-0.137646">
        <ele>22.4</ele>
        <time>2018-01-15T19:43:30Z</time>
      </trkpt>
      <trkpt lat="51.505296" lon="-0.137497">
        <ele>22.4</ele>
        <time>2018-01-15T19:43:31Z</time>
      </trkpt>
      <trkpt lat="51.505355" lon="-0.137355">
        <ele>22.6</ele>
        <time>2018-01-15T19:43:32Z</time>
      </trkpt>
      <trkpt lat="51.505419" lon="-0.137215">
        <ele>22.8</ele>
        <time>2018-01-15T19:43:33Z</time>
      </trkpt>
      <trkpt lat="51.505473" lon="-0.137076">
        <ele>23</ele>
        <time>2018-01-15T19:43:34Z</time>
      </trkpt>
      <trkpt lat="51.505537" lon="-0.136936">
        <ele>23.2</ele>
        <time>2018-01-15T19:43:35Z</time>
      </trkpt>
      <trkpt lat="51.505591" lon="-0.136798">
        <ele>23.4</ele>
        <time>2018-01-15T19:43:36Z</time>
      </trkpt>
      <trkpt lat="51.505644" lon="-0.136663">
        <ele>23.8</ele>
        <time>2018-01-15T19:43:37Z</time>
      </trkpt>
      <trkpt lat="51.505698" lon="-0.13653">
        <ele>24</ele>
        <time>2018-01-15T19:43:38Z</time>
      </trkpt>
      <trkpt lat="51.505752" lon="-0.136399">
        <ele>24.2</ele>
        <time>2018-01-15T19:43:39Z</time>
      </trkpt>
      <trkpt lat="51.5058" lon="-0.136269">
        <ele>24.4</ele>
        <time>2018-01-15T19:43:40Z</time>
      </trkpt>
      <trkpt lat="51.505848" lon="-0.136135">
        <ele>24.4</ele>
        <time>2018-01-15T19:43:41Z</time>
      </trkpt>
      <trkpt lat="51.505896" lon="-0.136004">
        <ele>24.6</ele>
        <time>2018-01-15T19:43:42Z</time>
      </trkpt>
      <trkpt lat="51.505945" lon="-0.135878">
        <ele>24.6</ele>
        <time>2018-01-15T19:43:43Z</time>
      </trkpt>
      <trkpt lat="51.505988" lon="-0.135749">
        <ele>24.6</ele>
        <time>2018-01-15T19:43:44Z</time>
      </trkpt>
      <trkpt lat="51.506031" lon="-0.135619">
        <ele>24.6</ele>
        <time>2018-01-15T19:43:45Z</time>
      </trkpt>
      <trkpt lat="51.506073" lon="-0.135488">
        <ele>24.4</ele>
        <time>2018-01-15T19:43:46Z</time>
      </trkpt>
      <trkpt lat="51.506122" lon="-0.135355">
        <ele>24.4</ele>
        <time>2018-01-15T19:43:47Z</time>
      </trkpt>
      <trkpt lat="51.506165" lon="-0.135224">
        <ele>24.4</ele>
        <time>2018-01-15T19:43:48Z</time>
      </trkpt>
      <trkpt lat="51.506213" lon="-0.135092">
        <ele>24.4</ele>
        <time>2018-01-15T19:43:49Z</time>
      </trkpt>
      <trkpt lat="51.506261" lon="-0.134958">
        <ele>24.4</ele>
        <time>2018-01-15T19:43:50Z</time>
      </trkpt>
      <trkpt lat="51.50631" lon="-0.134825">
        <ele>24.4</ele>
        <time>2018-01-15T19:43:51Z</time>
      </trkpt>
      <trkpt lat="51.506358" lon="-0.134689">
        <ele>24.2</ele>
        <time>2018-01-15T19:43:52Z</time>
      </trkpt>
      <trkpt lat="51.506401" lon="-0.134558">
        <ele>24.2</ele>
        <time>2018-01-15T19:43:53Z</time>
      </trkpt>
      <trkpt lat="51.506449" lon="-0.134427">
        <ele>24.2</ele>
        <time>2018-01-15T19:43:54Z</time>
      </trkpt>
      <trkpt lat="51.506492" lon="-0.134296">
        <ele>24.2</ele>
        <time>2018-01-15T19:43:55Z</time>
      </trkpt>
      <trkpt lat="51.50654" lon="-0.134164">
        <ele>24.2</ele>
        <time>2018-01-15T19:43:56Z</time>
      </trkpt>
      <trkpt lat="51.506588" lon="-0.134031">
        <ele>24.2</ele>
        <time>2018-01-15T19:43:57Z</time>
      </trkpt>
      <trkpt lat="51.506637" lon="-0.133905">
        <ele>24.2</ele>
        <time>2018-01-15T19:43:58Z</time>
      </trkpt>
      <trkpt lat="51.506685" lon="-0.133772">
        <ele>24.4</ele>
        <time>2018-01-15T19:43:59Z</time>
      </trkpt>
      <trkpt lat="51.506733" lon="-0.133645">
        <ele>24.4</ele>
        <time>2018-01-15T19:44:00Z</time>
      </trkpt>
      <trkpt lat="51.506782" lon="-0.133515">
        <ele>24.4</ele>
        <time>2018-01-15T19:44:01Z</time>
      </trkpt>
      <trkpt lat="51.50683" lon="-0.133386">
        <ele>24.4</ele>
        <time>2018-01-15T19:44:02Z</time>
      </trkpt>
      <trkpt lat="51.506878" lon="-0.133256">
        <ele>24.4</ele>
        <time>2018-01-15T19:44:03Z</time>
      </trkpt>
      <trkpt lat="51.506926" lon="-0.133131">
        <ele>24.4</ele>
        <time>2018-01-15T19:44:04Z</time>
      </trkpt>
      <trkpt lat="51.506975" lon="-0.133003">
        <ele>24.4</ele>
        <time>2018-01-15T19:44:05Z</time>
      </trkpt>
      <trkpt lat="51.507018" lon="-0.132877">
        <ele>24.4</ele>
        <time>2018-01-15T19:44:06Z</time>
      </trkpt>
      <trkpt lat="51.507071" lon="-0.132751">
        <ele>24.4</ele>
        <time>2018-01-15T19:44:07Z</time>
      </trkpt>
      <trkpt lat="51.50712" lon="-0.132629">
        <ele>24.4</ele>
        <time>2018-01-15T19:44:08Z</time>
      </trkpt>
      <trkpt lat="51.507168" lon="-0.132501">
        <ele>24.4</ele>
        <time>2018-01-15T19:44:09Z</time>
      </trkpt>
      <trkpt lat="51.507216" lon="-0.132375">
        <ele>24.4</ele>
        <time>2018-01-15T19:44:10Z</time>
      </trkpt>
      <trkpt lat="51.507259" lon="-0.132246">
        <ele>24.4</ele>
        <time>2018-01-15T19:44:11Z</time>
      </trkpt>
      <trkpt lat="51.507307" lon="-0.132119">
        <ele>24.4</ele>
        <time>2018-01-15T19:44:12Z</time>
      </trkpt>
      <trkpt lat="51.50735" lon="-0.131993">
        <ele>24.4</ele>
        <time>2018-01-15T19:44:13Z</time>
      </trkpt>
      <trkpt lat="51.507398" lon="-0.131866">
        <ele>24.4</ele>
        <time>2018-01-15T19:44:14Z</time>
      </trkpt>
      <trkpt lat="51.507441" lon="-0.131742">
        <ele>24.6</ele>
        <time>2018-01-15T19:44:15Z</time>
      </trkpt>
      <trkpt lat="51.507484" lon="-0.131615">
        <ele>24.6</ele>
        <time>2018-01-15T19:44:16Z</time>
      </trkpt>
      <trkpt lat="51.507527" lon="-0.131489">
        <ele>24.8</ele>
        <time>2018-01-15T19:44:17Z</time>
      </trkpt>
      <trkpt lat="51.50757" lon="-0.131366">
        <ele>24.8</ele>
        <time>2018-01-15T19:44:18Z</time>
      </trkpt>
      <trkpt lat="51.507602" lon="-0.131236">
        <ele>24.8</ele>
        <time>2018-01-15T19:44:19Z</time>
      </trkpt>
      <trkpt lat="51.507629" lon="-0.131099">
        <ele>24.6</ele>
        <time>2018-01-15T19:44:20Z</time>
      </trkpt>
      <trkpt lat="51.50764" lon="-0.130955">
        <ele>24.4</ele>
        <time>2018-01-15T19:44:21Z</time>
      </trkpt>
      <trkpt lat="51.50764" lon="-0.130809">
        <ele>24</ele>
        <time>2018-01-15T19:44:22Z</time>
      </trkpt>
      <trkpt lat="51.507624" lon="-0.130656">
        <ele>23.8</ele>
        <time>2018-01-15T19:44:23Z</time>
      </trkpt>
      <trkpt lat="51.507602" lon="-0.130505">
        <ele>23.8</ele>
        <time>2018-01-15T19:44:24Z</time>
      </trkpt>
      <trkpt lat="51.507586" lon="-0.130356">
        <ele>24</ele>
        <time>2018-01-15T19:44:25Z</time>
      </trkpt>
      <trkpt lat="51.50757" lon="-0.130207">
        <ele>24</ele>
        <time>2018-01-15T19:44:26Z</time>
      </trkpt>
      <trkpt lat="51.507554" lon="-0.130056">
        <ele>24.2</ele>
        <time>2018-01-15T19:44:27Z</time>
      </trkpt>
      <trkpt lat="51.507533" lon="-0.129915">
        <ele>24.2</ele>
        <time>2018-01-15T19:44:28Z</time>
      </trkpt>
      <trkpt lat="51.507517" lon="-0.129768">
        <ele>24.2</ele>
        <time>2018-01-15T19:44:29Z</time>
      </trkpt>
      <trkpt lat="51.5075" lon="-0.129624">
        <ele>24.4</ele>
        <time>2018-01-15T19:44:30Z</time>
      </trkpt>
      <trkpt lat="51.507484" lon="-0.129475">
        <ele>24.4</ele>
        <time>2018-01-15T19:44:31Z</time>
      </trkpt>
      <trkpt lat="51.507468" lon="-0.129331">
        <ele>24.4</ele>
        <time>2018-01-15T19:44:32Z</time>
      </trkpt>
      <trkpt lat="51.507447" lon="-0.129186">
        <ele>24.6</ele>
        <time>2018-01-15T19:44:33Z</time>
      </trkpt>
      <trkpt lat="51.507431" lon="-0.129037">
        <ele>24.4</ele>
        <time>2018-01-15T19:44:34Z</time>
      </trkpt>
      <trkpt lat="51.507415" lon="-0.128893">
        <ele>24.4</ele>
        <time>2018-01-15T19:44:35Z</time>
      </trkpt>
      <trkpt lat="51.507398" lon="-0.128748">
        <ele>24.4</ele>
        <time>2018-01-15T19:44:36Z</time>
      </trkpt>
      <trkpt lat="51.507382" lon="-0.128599">
        <ele>24.4</ele>
        <time>2018-01-15T19:44:37Z</time>
      </trkpt>
      <trkpt lat="51.507366" lon="-0.128457">
        <ele>24.4</ele>
        <time>2018-01-15T19:44:38Z</time>
      </trkpt>
      <trkpt lat="51.507345" lon="-0.128314">
        <ele>24.4</ele>
        <time>2018-01-15T19:44:39Z</time>
      </trkpt>
      <trkpt lat="51.507318" lon="-0.128173">
        <ele>24.4</ele>
        <time>2018-01-15T19:44:40Z</time>
      </trkpt>
      <trkpt lat="51.50727" lon="-0.128051">
        <ele>24.4</ele>
        <time>2018-01-15T19:44:41Z</time>
      </trkpt>
      <trkpt lat="51.507179" lon="-0.128034">
        <ele>24.4</ele>
        <time>2018-01-15T19:44:42Z</time>
      </trkpt>
      <trkpt lat="51.507093" lon="-0.12809">
        <ele>24.4</ele>
        <time>2018-01-15T19:44:43Z</time>
      </trkpt>
      <trkpt lat="51.507018" lon="-0.128165">
        <ele>24.4</ele>
        <time>2018-01-15T19:44:44Z</time>
      </trkpt>
      <trkpt lat="51.506937" lon="-0.12825">
        <ele>24.4</ele>
        <time>2018-01-15T19:44:45Z</time>
      </trkpt>
      <trkpt lat="51.506862" lon="-0.128346">
        <ele>24.4</ele>
        <time>2018-01-15T19:44:46Z</time>
      </trkpt>
      <trkpt lat="51.506798" lon="-0.128453">
        <ele>24.4</ele>
        <time>2018-01-15T19:44:47Z</time>
      </trkpt>
      <trkpt lat="51.506739" lon="-0.128573">
        <ele>24.4</ele>
        <time>2018-01-15T19:44:48Z</time>
      </trkpt>
      <trkpt lat="51.506685" lon="-0.128705">
        <ele>24.4</ele>
        <time>2018-01-15T19:44:49Z</time>
      </trkpt>
      <trkpt lat="51.506637" lon="-0.128836">
        <ele>24.4</ele>
        <time>2018-01-15T19:44:50Z</time>
      </trkpt>
      <trkpt lat="51.506583" lon="-0.128965">
        <ele>24.4</ele>
        <time>2018-01-15T19:44:51Z</time>
      </trkpt>
      <trkpt lat="51.50654" lon="-0.129095">
        <ele>24.2</ele>
        <time>2018-01-15T19:44:52Z</time>
      </trkpt>
      <trkpt lat="51.506492" lon="-0.129226">
        <ele>24.2</ele>
        <time>2018-01-15T19:44:53Z</time>
      </trkpt>
      <trkpt lat="51.506438" lon="-0.129353">
        <ele>24.2</ele>
        <time>2018-01-15T19:44:54Z</time>
      </trkpt>
      <trkpt lat="51.506385" lon="-0.12948">
        <ele>24</ele>
        <time>2018-01-15T19:44:55Z</time>
      </trkpt>
      <trkpt lat="51.506336" lon="-0.129606">
        <ele>24</ele>
        <time>2018-01-15T19:44:56Z</time>
      </trkpt>
      <trkpt lat="51.506283" lon="-0.12974">
        <ele>23.8</ele>
        <time>2018-01-15T19:44:57Z</time>
      </trkpt>
      <trkpt lat="51.506229" lon="-0.129871">
        <ele>23.6</ele>
        <time>2018-01-15T19:44:58Z</time>
      </trkpt>
      <trkpt lat="51.50617" lon="-0.130003">
        <ele>23.2</ele>
        <time>2018-01-15T19:44:59Z</time>
      </trkpt>
      <trkpt lat="51.506111" lon="-0.130143">
        <ele>22.8</ele>
        <time>2018-01-15T19:45:00Z</time>
      </trkpt>
      <trkpt lat="51.506057" lon="-0.130283">
        <ele>22.4</ele>
        <time>2018-01-15T19:45:01Z</time>
      </trkpt>
      <trkpt lat="51.505993" lon="-0.130425">
        <ele>22.2</ele>
        <time>2018-01-15T19:45:02Z</time>
      </trkpt>
      <trkpt lat="51.505934" lon="-0.130568">
        <ele>22</ele>
        <time>2018-01-15T19:45:03Z</time>
      </trkpt>
      <trkpt lat="51.50587" lon="-0.130709">
        <ele>21.8</ele>
        <time>2018-01-15T19:45:04Z</time>
      </trkpt>
      <trkpt lat="51.505811" lon="-0.130851">
        <ele>21.4</ele>
        <time>2018-01-15T19:45:05Z</time>
      </trkpt>
      <trkpt lat="51.505752" lon="-0.130997">
        <ele>21.4</ele>
        <time>2018-01-15T19:45:06Z</time>
      </trkpt>
      <trkpt lat="51.505687" lon="-0.131143">
        <ele>21.2</ele>
        <time>2018-01-15T19:45:07Z</time>
      </trkpt>
      <trkpt lat="51.505634" lon="-0.131282">
        <ele>21</ele>
        <time>2018-01-15T19:45:08Z</time>
      </trkpt>
      <trkpt lat="51.505575" lon="-0.13143">
        <ele>20.8</ele>
        <time>2018-01-15T19:45:09Z</time>
      </trkpt>
      <trkpt lat="51.505516" lon="-0.131572">
        <ele>20.6</ele>
        <time>2018-01-15T19:45:10Z</time>
      </trkpt>
      <trkpt lat="51.505457" lon="-0.131717">
        <ele>20.4</ele>
        <time>2018-01-15T19:45:11Z</time>
      </trkpt>
      <trkpt lat="51.505398" lon="-0.131859">
        <ele>20.2</ele>
        <time>2018-01-15T19:45:12Z</time>
      </trkpt>
      <trkpt lat="51.505339" lon="-0.132004">
        <ele>20</ele>
        <time>2018-01-15T19:45:13Z</time>
      </trkpt>
      <trkpt lat="51.50528" lon="-0.132149">
        <ele>19.8</ele>
        <time>2018-01-15T19:45:14Z</time>
      </trkpt>
      <trkpt lat="51.505215" lon="-0.132296">
        <ele>19.6</ele>
        <time>2018-01-15T19:45:15Z</time>
      </trkpt>
      <trkpt lat="51.505156" lon="-0.132445">
        <ele>19.6</ele>
        <time>2018-01-15T19:45:16Z</time>
      </trkpt>
      <trkpt lat="51.505092" lon="-0.132594">
        <ele>19.4</ele>
        <time>2018-01-15T19:45:17Z</time>
      </trkpt>
      <trkpt lat="51.505033" lon="-0.132749">
        <ele>19.2</ele>
        <time>2018-01-15T19:45:18Z</time>
      </trkpt>
      <trkpt lat="51.504974" lon="-0.132902">
        <ele>19</ele>
        <time>2018-01-15T19:45:19Z</time>
      </trkpt>
      <trkpt lat="51.504909" lon="-0.133053">
        <ele>18.8</ele>
        <time>2018-01-15T19:45:20Z</time>
      </trkpt>
      <trkpt lat="51.50484" lon="-0.133211">
        <ele>18.6</ele>
        <time>2018-01-15T19:45:21Z</time>
      </trkpt>
      <trkpt lat="51.504781" lon="-0.133364">
        <ele>18.4</ele>
        <time>2018-01-15T19:45:22Z</time>
      </trkpt>
      <trkpt lat="51.504716" lon="-0.133517">
        <ele>18.2</ele>
        <time>2018-01-15T19:45:23Z</time>
      </trkpt>
      <trkpt lat="51.504652" lon="-0.133674">
        <ele>18.2</ele>
        <time>2018-01-15T19:45:24Z</time>
      </trkpt>
      <trkpt lat="51.504588" lon="-0.133831">
        <ele>18</ele>
        <time>2018-01-15T19:45:25Z</time>
      </trkpt>
      <trkpt lat="51.504523" lon="-0.133987">
        <ele>17.8</ele>
        <time>2018-01-15T19:45:26Z</time>
      </trkpt>
      <trkpt lat="51.504459" lon="-0.134142">
        <ele>17.6</ele>
        <time>2018-01-15T19:45:27Z</time>
      </trkpt>
      <trkpt lat="51.504394" lon="-0.134305">
        <ele>17.4</ele>
        <time>2018-01-15T19:45:28Z</time>
      </trkpt>
      <trkpt lat="51.50433" lon="-0.134456">
        <ele>17.2</ele>
        <time>2018-01-15T19:45:29Z</time>
      </trkpt>
      <trkpt lat="51.504266" lon="-0.134616">
        <ele>17</ele>
        <time>2018-01-15T19:45:30Z</time>
      </trkpt>
      <trkpt lat="51.504201" lon="-0.134767">
        <ele>17</ele>
        <time>2018-01-15T19:45:31Z</time>
      </trkpt>
      <trkpt lat="51.504137" lon="-0.134918">
        <ele>16.8</ele>
        <time>2018-01-15T19:45:32Z</time>
      </trkpt>
      <trkpt lat="51.504073" lon="-0.13507">
        <ele>16.6</ele>
        <time>2018-01-15T19:45:33Z</time>
      </trkpt>
      <trkpt lat="51.504008" lon="-0.135221">
        <ele>16.4</ele>
        <time>2018-01-15T19:45:34Z</time>
      </trkpt>
      <trkpt lat="51.503944" lon="-0.135374">
        <ele>16.2</ele>
        <time>2018-01-15T19:45:35Z</time>
      </trkpt>
      <trkpt lat="51.503879" lon="-0.135527">
        <ele>16.2</ele>
        <time>2018-01-15T19:45:36Z</time>
      </trkpt>
      <trkpt lat="51.503815" lon="-0.135679">
        <ele>16</ele>
        <time>2018-01-15T19:45:37Z</time>
      </trkpt>
      <trkpt lat="51.503751" lon="-0.135834">
        <ele>15.8</ele>
        <time>2018-01-15T19:45:38Z</time>
      </trkpt>
      <trkpt lat="51.503686" lon="-0.135985">
        <ele>15.8</ele>
        <time>2018-01-15T19:45:39Z</time>
      </trkpt>
      <trkpt lat="51.503622" lon="-0.136141">
        <ele>15.6</ele>
        <time>2018-01-15T19:45:40Z</time>
      </trkpt>
      <trkpt lat="51.503558" lon="-0.136293">
        <ele>15.4</ele>
        <time>2018-01-15T19:45:41Z</time>
      </trkpt>
      <trkpt lat="51.503493" lon="-0.136446">
        <ele>15.2</ele>
        <time>2018-01-15T19:45:42Z</time>
      </trkpt>
      <trkpt lat="51.503429" lon="-0.136598">
        <ele>15.2</ele>
        <time>2018-01-15T19:45:43Z</time>
      </trkpt>
      <trkpt lat="51.503364" lon="-0.136752">
        <ele>15</ele>
        <time>2018-01-15T19:45:44Z</time>
      </trkpt>
      <trkpt lat="51.503305" lon="-0.1369">
        <ele>14.8</ele>
        <time>2018-01-15T19:45:45Z</time>
      </trkpt>
      <trkpt lat="51.503241" lon="-0.137052">
        <ele>14.8</ele>
        <time>2018-01-15T19:45:46Z</time>
      </trkpt>
      <trkpt lat="51.503182" lon="-0.137201">
        <ele>14.6</ele>
        <time>2018-01-15T19:45:47Z</time>
      </trkpt>
      <trkpt lat="51.503123" lon="-0.137349">
        <ele>14.4</ele>
        <time>2018-01-15T19:45:48Z</time>
      </trkpt>
      <trkpt lat="51.503059" lon="-0.137496">
        <ele>14.4</ele>
        <time>2018-01-15T19:45:49Z</time>
      </trkpt>
      <trkpt lat="51.503" lon="-0.137647">
        <ele>14.2</ele>
        <time>2018-01-15T19:45:50Z</time>
      </trkpt>
      <trkpt lat="51.502941" lon="-0.137802">
        <ele>14</ele>
        <time>2018-01-15T19:45:51Z</time>
      </trkpt>
      <trkpt lat="51.502887" lon="-0.137954">
        <ele>14</ele>
        <time>2018-01-15T19:45:52Z</time>
      </trkpt>
      <trkpt lat="51.502823" lon="-0.138108">
        <ele>13.8</ele>
        <time>2018-01-15T19:45:53Z</time>
      </trkpt>
      <trkpt lat="51.502769" lon="-0.138257">
        <ele>13.6</ele>
        <time>2018-01-15T19:45:54Z</time>
      </trkpt>
      <trkpt lat="51.50271" lon="-0.138407">
        <ele>13.6</ele>
        <time>2018-01-15T19:45:55Z</time>
      </trkpt>
      <trkpt lat="51.502651" lon="-0.13855">
        <ele>13.4</ele>
        <time>2018-01-15T19:45:56Z</time>
      </trkpt>
      <trkpt lat="51.502587" lon="-0.138701">
        <ele>13.2</ele>
        <time>2018-01-15T19:45:57Z</time>
      </trkpt>
      <trkpt lat="51.502528" lon="-0.138847">
        <ele>13.2</ele>
        <time>2018-01-15T19:45:58Z</time>
      </trkpt>
      <trkpt lat="51.502463" lon="-0.138998">
        <ele>13</ele>
        <time>2018-01-15T19:45:59Z</time>
      </trkpt>
      <trkpt lat="51.502404" lon="-0.139149">
        <ele>12.8</ele>
        <time>2018-01-15T19:46:00Z</time>
      </trkpt>
      <trkpt lat="51.502345" lon="-0.139298">
        <ele>12.8</ele>
        <time>2018-01-15T19:46:01Z</time>
      </trkpt>
      <trkpt lat="51.502281" lon="-0.139452">
        <ele>12.6</ele>
        <time>2018-01-15T19:46:02Z</time>
      </trkpt>
      <trkpt lat="51.502227" lon="-0.139606">
        <ele>12.6</ele>
        <time>2018-01-15T19:46:03Z</time>
      </trkpt>
      <trkpt lat="51.502179" lon="-0.139771">
        <ele>12.4</ele>
        <time>2018-01-15T19:46:04Z</time>
      </trkpt>
      <trkpt lat="51.502174" lon="-0.139953">
        <ele>12.4</ele>
        <time>2018-01-15T19:46:05Z</time>
      </trkpt>
      <trkpt lat="51.502211" lon="-0.140118">
        <ele>12.4</ele>
        <time>2018-01-15T19:46:06Z</time>
      </trkpt>
      <trkpt lat="51.502254" lon="-0.140283">
        <ele>12.4</ele>
        <time>2018-01-15T19:46:07Z</time>
      </trkpt>
      <trkpt lat="51.502281" lon="-0.140449">
        <ele>12.6</ele>
        <time>2018-01-15T19:46:08Z</time>
      </trkpt>
      <trkpt lat="51.502292" lon="-0.140622">
        <ele>12.6</ele>
        <time>2018-01-15T19:46:09Z</time>
      </trkpt>
      <trkpt lat="51.502292" lon="-0.140794">
        <ele>12.4</ele>
        <time>2018-01-15T19:46:10Z</time>
      </trkpt>
      <trkpt lat="51.502292" lon="-0.14096">
        <ele>12.4</ele>
        <time>2018-01-15T19:46:11Z</time>
      </trkpt>
      <trkpt lat="51.502292" lon="-0.141132">
        <ele>12.4</ele>
        <time>2018-01-15T19:46:12Z</time>
      </trkpt>
      <trkpt lat="51.502292" lon="-0.141297">
        <ele>12.4</ele>
        <time>2018-01-15T19:46:13Z</time>
      </trkpt>
      <trkpt lat="51.502292" lon="-0.141462">
        <ele>12.4</ele>
        <time>2018-01-15T19:46:14Z</time>
      </trkpt>
      <trkpt lat="51.502292" lon="-0.141624">
        <ele>12.4</ele>
        <time>2018-01-15T19:46:15Z</time>
      </trkpt>
      <trkpt lat="51.502297" lon="-0.141787">
        <ele>12.4</ele>
        <time>2018-01-15T19:46:16Z</time>
      </trkpt>
      <trkpt lat="51.502302" lon="-0.141951">
        <ele>12.4</ele>
        <time>2018-01-15T19:46:17Z</time>
      </trkpt>
      <trkpt lat="51.502308" lon="-0.142111">
        <ele>12.2</ele>
        <time>2018-01-15T19:46:18Z</time>
      </trkpt>
      <trkpt lat="51.502308" lon="-0.142274">
        <ele>12</ele>
        <time>2018-01-15T19:46:19Z</time>
      </trkpt>
      <trkpt lat="51.502313" lon="-0.142443">
        <ele>11.8</ele>
        <time>2018-01-15T19:46:20Z</time>
      </trkpt>
      <trkpt lat="51.502318" lon="-0.142605">
        <ele>11.8</ele>
        <time>2018-01-15T19:46:21Z</time>
      </trkpt>
      <trkpt lat="51.502324" lon="-0.142765">
        <ele>11.6</ele>
        <time>2018-01-15T19:46:22Z</time>
      </trkpt>
      <trkpt lat="51.502329" lon="-0.142931">
        <ele>11.6</ele>
        <time>2018-01-15T19:46:23Z</time>
      </trkpt>
      <trkpt lat="51.502334" lon="-0.143093">
        <ele>11.8</ele>
        <time>2018-01-15T19:46:24Z</time>
      </trkpt>
      <trkpt lat="51.502345" lon="-0.143252">
        <ele>11.8</ele>
        <time>2018-01-15T19:46:25Z</time>
      </trkpt>
      <trkpt lat="51.502351" lon="-0.143408">
        <ele>11.8</ele>
        <time>2018-01-15T19:46:26Z</time>
      </trkpt>
      <trkpt lat="51.502356" lon="-0.143565">
        <ele>12</ele>
        <time>2018-01-15T19:46:27Z</time>
      </trkpt>
      <trkpt lat="51.502361" lon="-0.143721">
        <ele>12</ele>
        <time>2018-01-15T19:46:28Z</time>
      </trkpt>
      <trkpt lat="51.502372" lon="-0.143873">
        <ele>12.2</ele>
        <time>2018-01-15T19:46:29Z</time>
      </trkpt>
      <trkpt lat="51.502377" lon="-0.144026">
        <ele>12.2</ele>
        <time>2018-01-15T19:46:30Z</time>
      </trkpt>
      <trkpt lat="51.502383" lon="-0.144177">
        <ele>12.4</ele>
        <time>2018-01-15T19:46:31Z</time>
      </trkpt>
      <trkpt lat="51.502393" lon="-0.144327">
        <ele>12.4</ele>
        <time>2018-01-15T19:46:32Z</time>
      </trkpt>
      <trkpt lat="51.502399" lon="-0.144475">
        <ele>12.6</ele>
        <time>2018-01-15T19:46:33Z</time>
      </trkpt>
      <trkpt lat="51.50241" lon="-0.144626">
        <ele>12.6</ele>
        <time>2018-01-15T19:46:34Z</time>
      </trkpt>
      <trkpt lat="51.50241" lon="-0.144775">
        <ele>12.8</ele>
        <time>2018-01-15T19:46:35Z</time>
      </trkpt>
      <trkpt lat="51.50242" lon="-0.144924">
        <ele>12.8</ele>
        <time>2018-01-15T19:46:36Z</time>
      </trkpt>
      <trkpt lat="51.502426" lon="-0.145068">
        <ele>13</ele>
        <time>2018-01-15T19:46:37Z</time>
      </trkpt>
      <trkpt lat="51.502431" lon="-0.145219">
        <ele>13</ele>
        <time>2018-01-15T19:46:38Z</time>
      </trkpt>
      <trkpt lat="51.502436" lon="-0.145366">
        <ele>13.2</ele>
        <time>2018-01-15T19:46:39Z</time>
      </trkpt>
      <trkpt lat="51.502447" lon="-0.145512">
        <ele>13.2</ele>
        <time>2018-01-15T19:46:40Z</time>
      </trkpt>
      <trkpt lat="51.502452" lon="-0.145662">
        <ele>13.4</ele>
        <time>2018-01-15T19:46:41Z</time>
      </trkpt>
      <trkpt lat="51.502463" lon="-0.145808">
        <ele>13.4</ele>
        <time>2018-01-15T19:46:42Z</time>
      </trkpt>
      <trkpt lat="51.502469" lon="-0.145953">
        <ele>13.6</ele>
        <time>2018-01-15T19:46:43Z</time>
      </trkpt>
      <trkpt lat="51.502479" lon="-0.146099">
        <ele>13.6</ele>
        <time>2018-01-15T19:46:44Z</time>
      </trkpt>
      <trkpt lat="51.502485" lon="-0.14624">
        <ele>13.8</ele>
        <time>2018-01-15T19:46:45Z</time>
      </trkpt>
      <trkpt lat="51.50249" lon="-0.146386">
        <ele>13.8</ele>
        <time>2018-01-15T19:46:46Z</time>
      </trkpt>
      <trkpt lat="51.50249" lon="-0.146527">
        <ele>14</ele>
        <time>2018-01-15T19:46:47Z</time>
      </trkpt>
      <trkpt lat="51.502495" lon="-0.146666">
        <ele>14</ele>
        <time>2018-01-15T19:46:48Z</time>
      </trkpt>
      <trkpt lat="51.502506" lon="-0.146807">
        <ele>14.2</ele>
        <time>2018-01-15T19:46:49Z</time>
      </trkpt>
      <trkpt lat="51.502506" lon="-0.146946">
        <ele>14.2</ele>
        <time>2018-01-15T19:46:50Z</time>
      </trkpt>
      <trkpt lat="51.502512" lon="-0.147087">
        <ele>14.4</ele>
        <time>2018-01-15T19:46:51Z</time>
      </trkpt>
      <trkpt lat="51.502517" lon="-0.147227">
        <ele>14.4</ele>
        <time>2018-01-15T19:46:52Z</time>
      </trkpt>
      <trkpt lat="51.502522" lon="-0.147362">
        <ele>14.6</ele>
        <time>2018-01-15T19:46:53Z</time>
      </trkpt>
      <trkpt lat="51.502528" lon="-0.147497">
        <ele>14.6</ele>
        <time>2018-01-15T19:46:54Z</time>
      </trkpt>
      <trkpt lat="51.502533" lon="-0.147633">
        <ele>14.8</ele>
        <time>2018-01-15T19:46:55Z</time>
      </trkpt>
      <trkpt lat="51.502538" lon="-0.147769">
        <ele>14.8</ele>
        <time>2018-01-15T19:46:56Z</time>
      </trkpt>
      <trkpt lat="51.502544" lon="-0.147904">
        <ele>15</ele>
        <time>2018-01-15T19:46:57Z</time>
      </trkpt>
      <trkpt lat="51.502544" lon="-0.148038">
        <ele>15</ele>
        <time>2018-01-15T19:46:58Z</time>
      </trkpt>
      <trkpt lat="51.502554" lon="-0.14817">
        <ele>15</ele>
        <time>2018-01-15T19:46:59Z</time>
      </trkpt>
      <trkpt lat="51.502554" lon="-0.148304">
        <ele>15.2</ele>
        <time>2018-01-15T19:47:00Z</time>
      </trkpt>
      <trkpt lat="51.50256" lon="-0.14844">
        <ele>15.2</ele>
        <time>2018-01-15T19:47:01Z</time>
      </trkpt>
      <trkpt lat="51.502571" lon="-0.148569">
        <ele>15.4</ele>
        <time>2018-01-15T19:47:02Z</time>
      </trkpt>
      <trkpt lat="51.502571" lon="-0.148704">
        <ele>15.4</ele>
        <time>2018-01-15T19:47:03Z</time>
      </trkpt>
      <trkpt lat="51.502576" lon="-0.148839">
        <ele>15.4</ele>
        <time>2018-01-15T19:47:04Z</time>
      </trkpt>
      <trkpt lat="51.502581" lon="-0.148969">
        <ele>15.6</ele>
        <time>2018-01-15T19:47:05Z</time>
      </trkpt>
      <trkpt lat="51.502587" lon="-0.149102">
        <ele>15.6</ele>
        <time>2018-01-15T19:47:06Z</time>
      </trkpt>
      <trkpt lat="51.502592" lon="-0.149234">
        <ele>15.8</ele>
        <time>2018-01-15T19:47:07Z</time>
      </trkpt>
      <trkpt lat="51.502592" lon="-0.149365">
        <ele>15.8</ele>
        <time>2018-01-15T19:47:08Z</time>
      </trkpt>
      <trkpt lat="51.502592" lon="-0.149495">
        <ele>15.8</ele>
        <time>2018-01-15T19:47:09Z</time>
      </trkpt>
      <trkpt lat="51.502576" lon="-0.14962">
        <ele>16</ele>
        <time>2018-01-15T19:47:10Z</time>
      </trkpt>
      <trkpt lat="51.502533" lon="-0.149723">
        <ele>16</ele>
        <time>2018-01-15T19:47:11Z</time>
      </trkpt>
      <trkpt lat="51.502463" lon="-0.149682">
        <ele>15.8</ele>
        <time>2018-01-15T19:47:12Z</time>
      </trkpt>
      <trkpt lat="51.502436" lon="-0.149557">
        <ele>15.6</ele>
        <time>2018-01-15T19:47:13Z</time>
      </trkpt>
      <trkpt lat="51.502431" lon="-0.14943">
        <ele>15.6</ele>
        <time>2018-01-15T19:47:14Z</time>
      </trkpt>
      <trkpt lat="51.502426" lon="-0.149298">
        <ele>15.6</ele>
        <time>2018-01-15T19:47:15Z</time>
      </trkpt>
      <trkpt lat="51.50242" lon="-0.149173">
        <ele>15.6</ele>
        <time>2018-01-15T19:47:16Z</time>
      </trkpt>
      <trkpt lat="51.50242" lon="-0.149033">
        <ele>15.4</ele>
        <time>2018-01-15T19:47:17Z</time>
      </trkpt>
      <trkpt lat="51.50242" lon="-0.148901">
        <ele>15.4</ele>
        <time>2018-01-15T19:47:18Z</time>
      </trkpt>
      <trkpt lat="51.50242" lon="-0.148769">
        <ele>15.4</ele>
        <time>2018-01-15T19:47:19Z</time>
      </trkpt>
      <trkpt lat="51.502426" lon="-0.148632">
        <ele>15.2</ele>
        <time>2018-01-15T19:47:20Z</time>
      </trkpt>
      <trkpt lat="51.502426" lon="-0.148499">
        <ele>15.2</ele>
        <time>2018-01-15T19:47:21Z</time>
      </trkpt>
      <trkpt lat="51.502426" lon="-0.148361">
        <ele>15.2</ele>
        <time>2018-01-15T19:47:22Z</time>
      </trkpt>
      <trkpt lat="51.502426" lon="-0.148213">
        <ele>15</ele>
        <time>2018-01-15T19:47:23Z</time>
      </trkpt>
      <trkpt lat="51.502426" lon="-0.148072">
        <ele>15</ele>
        <time>2018-01-15T19:47:24Z</time>
      </trkpt>
      <trkpt lat="51.502426" lon="-0.147933">
        <ele>15</ele>
        <time>2018-01-15T19:47:25Z</time>
      </trkpt>
      <trkpt lat="51.502426" lon="-0.147784">
        <ele>14.8</ele>
        <time>2018-01-15T19:47:26Z</time>
      </trkpt>
      <trkpt lat="51.502426" lon="-0.147635">
        <ele>14.8</ele>
        <time>2018-01-15T19:47:27Z</time>
      </trkpt>
      <trkpt lat="51.50242" lon="-0.147485">
        <ele>14.6</ele>
        <time>2018-01-15T19:47:28Z</time>
      </trkpt>
      <trkpt lat="51.502415" lon="-0.147333">
        <ele>14.4</ele>
        <time>2018-01-15T19:47:29Z</time>
      </trkpt>
      <trkpt lat="51.50241" lon="-0.147178">
        <ele>14.4</ele>
        <time>2018-01-15T19:47:30Z</time>
      </trkpt>
      <trkpt lat="51.502404" lon="-0.14702">
        <ele>14.2</ele>
        <time>2018-01-15T19:47:31Z</time>
      </trkpt>
      <trkpt lat="51.502399" lon="-0.146862">
        <ele>14.2</ele>
        <time>2018-01-15T19:47:32Z</time>
      </trkpt>
      <trkpt lat="51.502399" lon="-0.146705">
        <ele>14</ele>
        <time>2018-01-15T19:47:33Z</time>
      </trkpt>
      <trkpt lat="51.502388" lon="-0.14654">
        <ele>14</ele>
        <time>2018-01-15T19:47:34Z</time>
      </trkpt>
      <trkpt lat="51.502383" lon="-0.146378">
        <ele>13.8</ele>
        <time>2018-01-15T19:47:35Z</time>
      </trkpt>
      <trkpt lat="51.502383" lon="-0.14622">
        <ele>13.8</ele>
        <time>2018-01-15T19:47:36Z</time>
      </trkpt>
      <trkpt lat="51.502372" lon="-0.146053">
        <ele>13.6</ele>
        <time>2018-01-15T19:47:37Z</time>
      </trkpt>
      <trkpt lat="51.502372" lon="-0.145894">
        <ele>13.4</ele>
        <time>2018-01-15T19:47:38Z</time>
      </trkpt>
      <trkpt lat="51.502361" lon="-0.145732">
        <ele>13.4</ele>
        <time>2018-01-15T19:47:39Z</time>
      </trkpt>
      <trkpt lat="51.502361" lon="-0.14557">
        <ele>13.2</ele>
        <time>2018-01-15T19:47:40Z</time>
      </trkpt>
      <trkpt lat="51.502356" lon="-0.145405">
        <ele>13.2</ele>
        <time>2018-01-15T19:47:41Z</time>
      </trkpt>
      <trkpt lat="51.502345" lon="-0.145242">
        <ele>13</ele>
        <time>2018-01-15T19:47:42Z</time>
      </trkpt>
      <trkpt lat="51.502345" lon="-0.145082">
        <ele>13</ele>
        <time>2018-01-15T19:47:43Z</time>
      </trkpt>
      <trkpt lat="51.50234" lon="-0.14492">
        <ele>12.8</ele>
        <time>2018-01-15T19:47:44Z</time>
      </trkpt>
      <trkpt lat="51.502334" lon="-0.144758">
        <ele>12.6</ele>
        <time>2018-01-15T19:47:45Z</time>
      </trkpt>
      <trkpt lat="51.502318" lon="-0.144594">
        <ele>12.6</ele>
        <time>2018-01-15T19:47:46Z</time>
      </trkpt>
      <trkpt lat="51.502308" lon="-0.144437">
        <ele>12.4</ele>
        <time>2018-01-15T19:47:47Z</time>
      </trkpt>
      <trkpt lat="51.502302" lon="-0.144272">
        <ele>12.4</ele>
        <time>2018-01-15T19:47:48Z</time>
      </trkpt>
      <trkpt lat="51.502292" lon="-0.144114">
        <ele>12.2</ele>
        <time>2018-01-15T19:47:49Z</time>
      </trkpt>
      <trkpt lat="51.502281" lon="-0.143952">
        <ele>12.2</ele>
        <time>2018-01-15T19:47:50Z</time>
      </trkpt>
      <trkpt lat="51.50227" lon="-0.14379">
        <ele>12</ele>
        <time>2018-01-15T19:47:51Z</time>
      </trkpt>
      <trkpt lat="51.502265" lon="-0.143628">
        <ele>12</ele>
        <time>2018-01-15T19:47:52Z</time>
      </trkpt>
      <trkpt lat="51.502254" lon="-0.143471">
        <ele>11.8</ele>
        <time>2018-01-15T19:47:53Z</time>
      </trkpt>
      <trkpt lat="51.502243" lon="-0.143308">
        <ele>11.8</ele>
        <time>2018-01-15T19:47:54Z</time>
      </trkpt>
      <trkpt lat="51.502233" lon="-0.14314">
        <ele>11.8</ele>
        <time>2018-01-15T19:47:55Z</time>
      </trkpt>
      <trkpt lat="51.502227" lon="-0.142978">
        <ele>11.6</ele>
        <time>2018-01-15T19:47:56Z</time>
      </trkpt>
      <trkpt lat="51.502222" lon="-0.142806">
        <ele>11.6</ele>
        <time>2018-01-15T19:47:57Z</time>
      </trkpt>
      <trkpt lat="51.502211" lon="-0.142641">
        <ele>11.6</ele>
        <time>2018-01-15T19:47:58Z</time>
      </trkpt>
      <trkpt lat="51.502206" lon="-0.142477">
        <ele>11.8</ele>
        <time>2018-01-15T19:47:59Z</time>
      </trkpt>
      <trkpt lat="51.5022" lon="-0.142309">
        <ele>11.8</ele>
        <time>2018-01-15T19:48:00Z</time>
      </trkpt>
      <trkpt lat="51.5022" lon="-0.142148">
        <ele>12</ele>
        <time>2018-01-15T19:48:01Z</time>
      </trkpt>
      <trkpt lat="51.50219" lon="-0.141988">
        <ele>12.2</ele>
        <time>2018-01-15T19:48:02Z</time>
      </trkpt>
      <trkpt lat="51.50219" lon="-0.141832">
        <ele>12.4</ele>
        <time>2018-01-15T19:48:03Z</time>
      </trkpt>
      <trkpt lat="51.50219" lon="-0.141676">
        <ele>12.4</ele>
        <time>2018-01-15T19:48:04Z</time>
      </trkpt>
      <trkpt lat="51.502184" lon="-0.141521">
        <ele>12.4</ele>
        <time>2018-01-15T19:48:05Z</time>
      </trkpt>
      <trkpt lat="51.502179" lon="-0.141366">
        <ele>12.4</ele>
        <time>2018-01-15T19:48:06Z</time>
      </trkpt>
      <trkpt lat="51.502174" lon="-0.141211">
        <ele>12.4</ele>
        <time>2018-01-15T19:48:07Z</time>
      </trkpt>
      <trkpt lat="51.502174" lon="-0.141061">
        <ele>12.4</ele>
        <time>2018-01-15T19:48:08Z</time>
      </trkpt>
      <trkpt lat="51.502174" lon="-0.140908">
        <ele>12.4</ele>
        <time>2018-01-15T19:48:09Z</time>
      </trkpt>
      <trkpt lat="51.502174" lon="-0.140755">
        <ele>12.4</ele>
        <time>2018-01-15T19:48:10Z</time>
      </trkpt>
      <trkpt lat="51.502179" lon="-0.140606">
        <ele>12.4</ele>
        <time>2018-01-15T19:48:11Z</time>
      </trkpt>
      <trkpt lat="51.502174" lon="-0.140459">
        <ele>12.4</ele>
        <time>2018-01-15T19:48:12Z</time>
      </trkpt>
      <trkpt lat="51.502136" lon="-0.140321">
        <ele>12.4</ele>
        <time>2018-01-15T19:48:13Z</time>
      </trkpt>
      <trkpt lat="51.502082" lon="-0.140204">
        <ele>12.2</ele>
        <time>2018-01-15T19:48:14Z</time>
      </trkpt>
      <trkpt lat="51.502007" lon="-0.140106">
        <ele>12</ele>
        <time>2018-01-15T19:48:15Z</time>
      </trkpt>
      <trkpt lat="51.501916" lon="-0.140047">
        <ele>12</ele>
        <time>2018-01-15T19:48:16Z</time>
      </trkpt>
      <trkpt lat="51.501819" lon="-0.140032">
        <ele>12</ele>
        <time>2018-01-15T19:48:17Z</time>
      </trkpt>
      <trkpt lat="51.501723" lon="-0.140037">
        <ele>12</ele>
        <time>2018-01-15T19:48:18Z</time>
      </trkpt>
      <trkpt lat="51.501632" lon="-0.140048">
        <ele>12</ele>
        <time>2018-01-15T19:48:19Z</time>
      </trkpt>
      <trkpt lat="51.501541" lon="-0.140057">
        <ele>12.2</ele>
        <time>2018-01-15T19:48:20Z</time>
      </trkpt>
      <trkpt lat="51.501439" lon="-0.140035">
        <ele>12.2</ele>
        <time>2018-01-15T19:48:21Z</time>
      </trkpt>
      <trkpt lat="51.501353" lon="-0.139968">
        <ele>12.2</ele>
        <time>2018-01-15T19:48:22Z</time>
      </trkpt>
      <trkpt lat="51.501272" lon="-0.139884">
        <ele>12.2</ele>
        <time>2018-01-15T19:48:23Z</time>
      </trkpt>
      <trkpt lat="51.501192" lon="-0.139797">
        <ele>12.4</ele>
        <time>2018-01-15T19:48:24Z</time>
      </trkpt>
      <trkpt lat="51.501106" lon="-0.139717">
        <ele>12.4</ele>
        <time>2018-01-15T19:48:25Z</time>
      </trkpt>
      <trkpt lat="51.501026" lon="-0.139633">
        <ele>12.4</ele>
        <time>2018-01-15T19:48:26Z</time>
      </trkpt>
      <trkpt lat="51.500945" lon="-0.13955">
        <ele>12.6</ele>
        <time>2018-01-15T19:48:27Z</time>
      </trkpt>
      <trkpt lat="51.500865" lon="-0.139465">
        <ele>12.6</ele>
        <time>2018-01-15T19:48:28Z</time>
      </trkpt>
      <trkpt lat="51.50079" lon="-0.139382">
        <ele>12.6</ele>
        <time>2018-01-15T19:48:29Z</time>
      </trkpt>
      <trkpt lat="51.500709" lon="-0.139301">
        <ele>12.8</ele>
        <time>2018-01-15T19:48:30Z</time>
      </trkpt>
      <trkpt lat="51.500634" lon="-0.139216">
        <ele>12.8</ele>
        <time>2018-01-15T19:48:31Z</time>
      </trkpt>
      <trkpt lat="51.500564" lon="-0.139127">
        <ele>12.8</ele>
        <time>2018-01-15T19:48:32Z</time>
      </trkpt>
      <trkpt lat="51.500494" lon="-0.139025">
        <ele>12.8</ele>
        <time>2018-01-15T19:48:33Z</time>
      </trkpt>
      <trkpt lat="51.500457" lon="-0.138892">
        <ele>12.6</ele>
        <time>2018-01-15T19:48:34Z</time>
      </trkpt>
      <trkpt lat="51.500452" lon="-0.138739">
        <ele>12.4</ele>
        <time>2018-01-15T19:48:35Z</time>
      </trkpt>
      <trkpt lat="51.500468" lon="-0.138588">
        <ele>12.4</ele>
        <time>2018-01-15T19:48:36Z</time>
      </trkpt>
      <trkpt lat="51.500484" lon="-0.138438">
        <ele>12.4</ele>
        <time>2018-01-15T19:48:37Z</time>
      </trkpt>
      <trkpt lat="51.500505" lon="-0.138288">
        <ele>12.4</ele>
        <time>2018-01-15T19:48:38Z</time>
      </trkpt>
      <trkpt lat="51.500521" lon="-0.13814">
        <ele>12.4</ele>
        <time>2018-01-15T19:48:39Z</time>
      </trkpt>
      <trkpt lat="51.500537" lon="-0.137993">
        <ele>12.4</ele>
        <time>2018-01-15T19:48:40Z</time>
      </trkpt>
      <trkpt lat="51.500559" lon="-0.137849">
        <ele>12.4</ele>
        <time>2018-01-15T19:48:41Z</time>
      </trkpt>
      <trkpt lat="51.500575" lon="-0.137708">
        <ele>12.4</ele>
        <time>2018-01-15T19:48:42Z</time>
      </trkpt>
      <trkpt lat="51.500591" lon="-0.137562">
        <ele>12.4</ele>
        <time>2018-01-15T19:48:43Z</time>
      </trkpt>
      <trkpt lat="51.500602" lon="-0.137418">
        <ele>12.4</ele>
        <time>2018-01-15T19:48:44Z</time>
      </trkpt>
      <trkpt lat="51.500618" lon="-0.137275">
        <ele>12.2</ele>
        <time>2018-01-15T19:48:45Z</time>
      </trkpt>
      <trkpt lat="51.500634" lon="-0.137128">
        <ele>12.2</ele>
        <time>2018-01-15T19:48:46Z</time>
      </trkpt>
      <trkpt lat="51.500645" lon="-0.136976">
        <ele>12.2</ele>
        <time>2018-01-15T19:48:47Z</time>
      </trkpt>
      <trkpt lat="51.500655" lon="-0.136831">
        <ele>12.2</ele>
        <time>2018-01-15T19:48:48Z</time>
      </trkpt>
      <trkpt lat="51.500672" lon="-0.136677">
        <ele>12.2</ele>
        <time>2018-01-15T19:48:49Z</time>
      </trkpt>
      <trkpt lat="51.500688" lon="-0.136523">
        <ele>12</ele>
        <time>2018-01-15T19:48:50Z</time>
      </trkpt>
      <trkpt lat="51.500704" lon="-0.136369">
        <ele>12</ele>
        <time>2018-01-15T19:48:51Z</time>
      </trkpt>
      <trkpt lat="51.500714" lon="-0.136215">
        <ele>12</ele>
        <time>2018-01-15T19:48:52Z</time>
      </trkpt>
      <trkpt lat="51.500731" lon="-0.136055">
        <ele>12</ele>
        <time>2018-01-15T19:48:53Z</time>
      </trkpt>
      <trkpt lat="51.500747" lon="-0.135897">
        <ele>12</ele>
        <time>2018-01-15T19:48:54Z</time>
      </trkpt>
      <trkpt lat="51.500757" lon="-0.135743">
        <ele>12</ele>
        <time>2018-01-15T19:48:55Z</time>
      </trkpt>
      <trkpt lat="51.500773" lon="-0.13559">
        <ele>12</ele>
        <time>2018-01-15T19:48:56Z</time>
      </trkpt>
      <trkpt lat="51.500784" lon="-0.135438">
        <ele>11.8</ele>
        <time>2018-01-15T19:48:57Z</time>
      </trkpt>
      <trkpt lat="51.5008" lon="-0.135285">
        <ele>11.8</ele>
        <time>2018-01-15T19:48:58Z</time>
      </trkpt>
      <trkpt lat="51.500811" lon="-0.135139">
        <ele>11.8</ele>
        <time>2018-01-15T19:48:59Z</time>
      </trkpt>
      <trkpt lat="51.500827" lon="-0.134987">
        <ele>11.8</ele>
        <time>2018-01-15T19:49:00Z</time>
      </trkpt>
      <trkpt lat="51.500838" lon="-0.134838">
        <ele>11.8</ele>
        <time>2018-01-15T19:49:01Z</time>
      </trkpt>
      <trkpt lat="51.500854" lon="-0.134691">
        <ele>11.8</ele>
        <time>2018-01-15T19:49:02Z</time>
      </trkpt>
      <trkpt lat="51.50087" lon="-0.134542">
        <ele>11.8</ele>
        <time>2018-01-15T19:49:03Z</time>
      </trkpt>
      <trkpt lat="51.500881" lon="-0.134391">
        <ele>11.8</ele>
        <time>2018-01-15T19:49:04Z</time>
      </trkpt>
      <trkpt lat="51.500891" lon="-0.134248">
        <ele>11.8</ele>
        <time>2018-01-15T19:49:05Z</time>
      </trkpt>
      <trkpt lat="51.500908" lon="-0.134104">
        <ele>11.8</ele>
        <time>2018-01-15T19:49:06Z</time>
      </trkpt>
      <trkpt lat="51.500918" lon="-0.133956">
        <ele>12</ele>
        <time>2018-01-15T19:49:07Z</time>
      </trkpt>
      <trkpt lat="51.500934" lon="-0.133811">
        <ele>12</ele>
        <time>2018-01-15T19:49:08Z</time>
      </trkpt>
      <trkpt lat="51.500945" lon="-0.133666">
        <ele>12.2</ele>
        <time>2018-01-15T19:49:09Z</time>
      </trkpt>
      <trkpt lat="51.500961" lon="-0.133525">
        <ele>12.2</ele>
        <time>2018-01-15T19:49:10Z</time>
      </trkpt>
      <trkpt lat="51.500972" lon="-0.133381">
        <ele>12.4</ele>
        <time>2018-01-15T19:49:11Z</time>
      </trkpt>
      <trkpt lat="51.500988" lon="-0.133248">
        <ele>12.6</ele>
        <time>2018-01-15T19:49:12Z</time>
      </trkpt>
      <trkpt lat="51.501004" lon="-0.133113">
        <ele>13</ele>
        <time>2018-01-15T19:49:13Z</time>
      </trkpt>
      <trkpt lat="51.50102" lon="-0.13298">
        <ele>13.2</ele>
        <time>2018-01-15T19:49:14Z</time>
      </trkpt>
      <trkpt lat="51.501036" lon="-0.132854">
        <ele>13.4</ele>
        <time>2018-01-15T19:49:15Z</time>
      </trkpt>
      <trkpt lat="51.501052" lon="-0.132725">
        <ele>13.6</ele>
        <time>2018-01-15T19:49:16Z</time>
      </trkpt>
      <trkpt lat="51.501063" lon="-0.132595">
        <ele>13.8</ele>
        <time>2018-01-15T19:49:17Z</time>
      </trkpt>
      <trkpt lat="51.501079" lon="-0.13247">
        <ele>14.2</ele>
        <time>2018-01-15T19:49:18Z</time>
      </trkpt>
      <trkpt lat="51.50109" lon="-0.132344">
        <ele>14.4</ele>
        <time>2018-01-15T19:49:19Z</time>
      </trkpt>
      <trkpt lat="51.501101" lon="-0.132218">
        <ele>14.6</ele>
        <time>2018-01-15T19:49:20Z</time>
      </trkpt>
      <trkpt lat="51.501111" lon="-0.132097">
        <ele>14.8</ele>
        <time>2018-01-15T19:49:21Z</time>
      </trkpt>
      <trkpt lat="51.501127" lon="-0.131975">
        <ele>15</ele>
        <time>2018-01-15T19:49:22Z</time>
      </trkpt>
      <trkpt lat="51.501138" lon="-0.131854">
        <ele>15.2</ele>
        <time>2018-01-15T19:49:23Z</time>
      </trkpt>
      <trkpt lat="51.501149" lon="-0.13173">
        <ele>15.4</ele>
        <time>2018-01-15T19:49:24Z</time>
      </trkpt>
      <trkpt lat="51.50116" lon="-0.131609">
        <ele>15.6</ele>
        <time>2018-01-15T19:49:25Z</time>
      </trkpt>
      <trkpt lat="51.501176" lon="-0.131484">
        <ele>15.6</ele>
        <time>2018-01-15T19:49:26Z</time>
      </trkpt>
      <trkpt lat="51.501192" lon="-0.131355">
        <ele>15.6</ele>
        <time>2018-01-15T19:49:27Z</time>
      </trkpt>
      <trkpt lat="51.501208" lon="-0.131225">
        <ele>15.6</ele>
        <time>2018-01-15T19:49:28Z</time>
      </trkpt>
      <trkpt lat="51.501219" lon="-0.131095">
        <ele>15.6</ele>
        <time>2018-01-15T19:49:29Z</time>
      </trkpt>
      <trkpt lat="51.501235" lon="-0.13096">
        <ele>15.6</ele>
        <time>2018-01-15T19:49:30Z</time>
      </trkpt>
      <trkpt lat="51.501251" lon="-0.130819">
        <ele>15.6</ele>
        <time>2018-01-15T19:49:31Z</time>
      </trkpt>
      <trkpt lat="51.501262" lon="-0.130679">
        <ele>15.6</ele>
        <time>2018-01-15T19:49:32Z</time>
      </trkpt>
      <trkpt lat="51.501278" lon="-0.130536">
        <ele>15.8</ele>
        <time>2018-01-15T19:49:33Z</time>
      </trkpt>
      <trkpt lat="51.501283" lon="-0.130405">
        <ele>15.8</ele>
        <time>2018-01-15T19:49:34Z</time>
      </trkpt>
      <trkpt lat="51.501288" lon="-0.130272">
        <ele>15.8</ele>
        <time>2018-01-15T19:49:35Z</time>
      </trkpt>
      <trkpt lat="51.501288" lon="-0.130141">
        <ele>15.8</ele>
        <time>2018-01-15T19:49:36Z</time>
      </trkpt>
      <trkpt lat="51.501288" lon="-0.130008">
        <ele>15.8</ele>
        <time>2018-01-15T19:49:37Z</time>
      </trkpt>
      <trkpt lat="51.501283" lon="-0.129871">
        <ele>15.6</ele>
        <time>2018-01-15T19:49:38Z</time>
      </trkpt>
      <trkpt lat="51.501278" lon="-0.129734">
        <ele>15.6</ele>
        <time>2018-01-15T19:49:39Z</time>
      </trkpt>
      <trkpt lat="51.501262" lon="-0.129597">
        <ele>15.6</ele>
        <time>2018-01-15T19:49:40Z</time>
      </trkpt>
      <trkpt lat="51.501251" lon="-0.129458">
        <ele>15.6</ele>
        <time>2018-01-15T19:49:41Z</time>
      </trkpt>
      <trkpt lat="51.501235" lon="-0.12932">
        <ele>15.6</ele>
        <time>2018-01-15T19:49:42Z</time>
      </trkpt>
      <trkpt lat="51.501224" lon="-0.129179">
        <ele>15.6</ele>
        <time>2018-01-15T19:49:43Z</time>
      </trkpt>
      <trkpt lat="51.501213" lon="-0.129041">
        <ele>15.8</ele>
        <time>2018-01-15T19:49:44Z</time>
      </trkpt>
      <trkpt lat="51.501203" lon="-0.128908">
        <ele>15.8</ele>
        <time>2018-01-15T19:49:45Z</time>
      </trkpt>
      <trkpt lat="51.501192" lon="-0.12877">
        <ele>15.8</ele>
        <time>2018-01-15T19:49:46Z</time>
      </trkpt>
      <trkpt lat="51.501181" lon="-0.128632">
        <ele>15.8</ele>
        <time>2018-01-15T19:49:47Z</time>
      </trkpt>
      <trkpt lat="51.50117" lon="-0.128493">
        <ele>15.8</ele>
        <time>2018-01-15T19:49:48Z</time>
      </trkpt>
      <trkpt lat="51.50116" lon="-0.128358">
        <ele>15.8</ele>
        <time>2018-01-15T19:49:49Z</time>
      </trkpt>
      <trkpt lat="51.501154" lon="-0.128224">
        <ele>15.8</ele>
        <time>2018-01-15T19:49:50Z</time>
      </trkpt>
      <trkpt lat="51.501144" lon="-0.128081">
        <ele>15.8</ele>
        <time>2018-01-15T19:49:51Z</time>
      </trkpt>
      <trkpt lat="51.501133" lon="-0.127942">
        <ele>15.8</ele>
        <time>2018-01-15T19:49:52Z</time>
      </trkpt>
      <trkpt lat="51.501122" lon="-0.127801">
        <ele>15.8</ele>
        <time>2018-01-15T19:49:53Z</time>
      </trkpt>
      <trkpt lat="51.501111" lon="-0.127656">
        <ele>15.8</ele>
        <time>2018-01-15T19:49:54Z</time>
      </trkpt>
      <trkpt lat="51.501101" lon="-0.127507">
        <ele>15.8</ele>
        <time>2018-01-15T19:49:55Z</time>
      </trkpt>
      <trkpt lat="51.50109" lon="-0.127363">
        <ele>15.8</ele>
        <time>2018-01-15T19:49:56Z</time>
      </trkpt>
      <trkpt lat="51.501079" lon="-0.12722">
        <ele>15.8</ele>
        <time>2018-01-15T19:49:57Z</time>
      </trkpt>
      <trkpt lat="51.501068" lon="-0.127074">
        <ele>15.8</ele>
        <time>2018-01-15T19:49:58Z</time>
      </trkpt>
      <trkpt lat="51.501063" lon="-0.126927">
        <ele>15.8</ele>
        <time>2018-01-15T19:49:59Z</time>
      </trkpt>
      <trkpt lat="51.501063" lon="-0.126783">
        <ele>15.8</ele>
        <time>2018-01-15T19:50:00Z</time>
      </trkpt>
      <trkpt lat="51.501063" lon="-0.12664">
        <ele>16</ele>
        <time>2018-01-15T19:50:01Z</time>
      </trkpt>
      <trkpt lat="51.501063" lon="-0.126495">
        <ele>16.2</ele>
        <time>2018-01-15T19:50:02Z</time>
      </trkpt>
      <trkpt lat="51.501052" lon="-0.126348">
        <ele>16.2</ele>
        <time>2018-01-15T19:50:03Z</time>
      </trkpt>
      <trkpt lat="51.501015" lon="-0.126229">
        <ele>16.2</ele>
        <time>2018-01-15T19:50:04Z</time>
      </trkpt>
      <trkpt lat="51.50095" lon="-0.126134">
        <ele>16</ele>
        <time>2018-01-15T19:50:05Z</time>
      </trkpt>
      <trkpt lat="51.500865" lon="-0.12608">
        <ele>15.8</ele>
        <time>2018-01-15T19:50:06Z</time>
      </trkpt>
      <trkpt lat="51.500773" lon="-0.126068">
        <ele>15.6</ele>
        <time>2018-01-15T19:50:07Z</time>
      </trkpt>
      <trkpt lat="51.500677" lon="-0.126072">
        <ele>15.4</ele>
        <time>2018-01-15T19:50:08Z</time>
      </trkpt>
      <trkpt lat="51.500586" lon="-0.12608">
        <ele>15.2</ele>
        <time>2018-01-15T19:50:09Z</time>
      </trkpt>
      <trkpt lat="51.500489" lon="-0.126086">
        <ele>15</ele>
        <time>2018-01-15T19:50:10Z</time>
      </trkpt>
      <trkpt lat="51.500387" lon="-0.126092">
        <ele>14.8</ele>
        <time>2018-01-15T19:50:11Z</time>
      </trkpt>
      <trkpt lat="51.500291" lon="-0.126097">
        <ele>14.8</ele>
        <time>2018-01-15T19:50:12Z</time>
      </trkpt>
      <trkpt lat="51.500189" lon="-0.126105">
        <ele>14.8</ele>
        <time>2018-01-15T19:50:13Z</time>
      </trkpt>
      <trkpt lat="51.500092" lon="-0.126109">
        <ele>14.8</ele>
        <time>2018-01-15T19:50:14Z</time>
      </trkpt>
      <trkpt lat="51.499996" lon="-0.126119">
        <ele>14.8</ele>
        <time>2018-01-15T19:50:15Z</time>
      </trkpt>
      <trkpt lat="51.499904" lon="-0.126123">
        <ele>14.8</ele>
        <time>2018-01-15T19:50:16Z</time>
      </trkpt>
      <trkpt lat="51.499808" lon="-0.126126">
        <ele>15</ele>
        <time>2018-01-15T19:50:17Z</time>
      </trkpt>
      <trkpt lat="51.499711" lon="-0.126131">
        <ele>15.2</ele>
        <time>2018-01-15T19:50:18Z</time>
      </trkpt>
      <trkpt lat="51.499615" lon="-0.126136">
        <ele>15.2</ele>
        <time>2018-01-15T19:50:19Z</time>
      </trkpt>
      <trkpt lat="51.499518" lon="-0.126138">
        <ele>15.4</ele>
        <time>2018-01-15T19:50:20Z</time>
      </trkpt>
      <trkpt lat="51.499427" lon="-0.126127">
        <ele>15.4</ele>
        <time>2018-01-15T19:50:21Z</time>
      </trkpt>
      <trkpt lat="51.499325" lon="-0.126103">
        <ele>15.4</ele>
        <time>2018-01-15T19:50:22Z</time>
      </trkpt>
      <trkpt lat="51.499228" lon="-0.126072">
        <ele>15.2</ele>
        <time>2018-01-15T19:50:23Z</time>
      </trkpt>
      <trkpt lat="51.499137" lon="-0.126039">
        <ele>15.2</ele>
        <time>2018-01-15T19:50:24Z</time>
      </trkpt>
      <trkpt lat="51.499041" lon="-0.126002">
        <ele>15</ele>
        <time>2018-01-15T19:50:25Z</time>
      </trkpt>
      <trkpt lat="51.498933" lon="-0.125962">
        <ele>15</ele>
        <time>2018-01-15T19:50:26Z</time>
      </trkpt>
      <trkpt lat="51.498837" lon="-0.125925">
        <ele>14.8</ele>
        <time>2018-01-15T19:50:27Z</time>
      </trkpt>
      <trkpt lat="51.49874" lon="-0.125883">
        <ele>14.6</ele>
        <time>2018-01-15T19:50:28Z</time>
      </trkpt>
      <trkpt lat="51.498644" lon="-0.12584">
        <ele>14.4</ele>
        <time>2018-01-15T19:50:29Z</time>
      </trkpt>
      <trkpt lat="51.498531" lon="-0.125797">
        <ele>14.2</ele>
        <time>2018-01-15T19:50:30Z</time>
      </trkpt>
      <trkpt lat="51.498429" lon="-0.125762">
        <ele>14</ele>
        <time>2018-01-15T19:50:31Z</time>
      </trkpt>
      <trkpt lat="51.498317" lon="-0.125733">
        <ele>14</ele>
        <time>2018-01-15T19:50:32Z</time>
      </trkpt>
      <trkpt lat="51.498209" lon="-0.125714">
        <ele>14</ele>
        <time>2018-01-15T19:50:33Z</time>
      </trkpt>
      <trkpt lat="51.498102" lon="-0.125701">
        <ele>14.2</ele>
        <time>2018-01-15T19:50:34Z</time>
      </trkpt>
      <trkpt lat="51.498" lon="-0.125695">
        <ele>14.2</ele>
        <time>2018-01-15T19:50:35Z</time>
      </trkpt>
      <trkpt lat="51.497887" lon="-0.125689">
        <ele>14.4</ele>
        <time>2018-01-15T19:50:36Z</time>
      </trkpt>
      <trkpt lat="51.497775" lon="-0.125687">
        <ele>14.4</ele>
        <time>2018-01-15T19:50:37Z</time>
      </trkpt>
      <trkpt lat="51.497673" lon="-0.125688">
        <ele>14.2</ele>
        <time>2018-01-15T19:50:38Z</time>
      </trkpt>
      <trkpt lat="51.497566" lon="-0.12569">
        <ele>14</ele>
        <time>2018-01-15T19:50:39Z</time>
      </trkpt>
      <trkpt lat="51.497453" lon="-0.125683">
        <ele>14</ele>
        <time>2018-01-15T19:50:40Z</time>
      </trkpt>
      <trkpt lat="51.49734" lon="-0.125666">
        <ele>14.2</ele>
        <time>2018-01-15T19:50:41Z</time>
      </trkpt>
      <trkpt lat="51.497228" lon="-0.125652">
        <ele>14.2</ele>
        <time>2018-01-15T19:50:42Z</time>
      </trkpt>
      <trkpt lat="51.49712" lon="-0.125636">
        <ele>14.4</ele>
        <time>2018-01-15T19:50:43Z</time>
      </trkpt>
      <trkpt lat="51.497008" lon="-0.125613">
        <ele>14.6</ele>
        <time>2018-01-15T19:50:44Z</time>
      </trkpt>
      <trkpt lat="51.496906" lon="-0.125581">
        <ele>14.6</ele>
        <time>2018-01-15T19:50:45Z</time>
      </trkpt>
      <trkpt lat="51.496798" lon="-0.12556">
        <ele>14.8</ele>
        <time>2018-01-15T19:50:46Z</time>
      </trkpt>
      <trkpt lat="51.496702" lon="-0.125545">
        <ele>15</ele>
        <time>2018-01-15T19:50:47Z</time>
      </trkpt>
      <trkpt lat="51.4966" lon="-0.12553">
        <ele>15</ele>
        <time>2018-01-15T19:50:48Z</time>
      </trkpt>
      <trkpt lat="51.496493" lon="-0.125507">
        <ele>15.2</ele>
        <time>2018-01-15T19:50:49Z</time>
      </trkpt>
      <trkpt lat="51.496401" lon="-0.125492">
        <ele>15.4</ele>
        <time>2018-01-15T19:50:50Z</time>
      </trkpt>
      <trkpt lat="51.4963" lon="-0.125465">
        <ele>15.4</ele>
        <time>2018-01-15T19:50:51Z</time>
      </trkpt>
      <trkpt lat="51.496203" lon="-0.125436">
        <ele>15.6</ele>
        <time>2018-01-15T19:50:52Z</time>
      </trkpt>
      <trkpt lat="51.496106" lon="-0.125415">
        <ele>15.6</ele>
        <time>2018-01-15T19:50:53Z</time>
      </trkpt>
      <trkpt lat="51.49601" lon="-0.125392">
        <ele>15.6</ele>
        <time>2018-01-15T19:50:54Z</time>
      </trkpt>
      <trkpt lat="51.495913" lon="-0.12537">
        <ele>15.6</ele>
        <time>2018-01-15T19:50:55Z</time>
      </trkpt>
      <trkpt lat="51.495811" lon="-0.125341">
        <ele>15.6</ele>
        <time>2018-01-15T19:50:56Z</time>
      </trkpt>
      <trkpt lat="51.495709" lon="-0.12532">
        <ele>15.6</ele>
        <time>2018-01-15T19:50:57Z</time>
      </trkpt>
      <trkpt lat="51.495607" lon="-0.125297">
        <ele>15.6</ele>
        <time>2018-01-15T19:50:58Z</time>
      </trkpt>
      <trkpt lat="51.495506" lon="-0.125276">
        <ele>15.4</ele>
        <time>2018-01-15T19:50:59Z</time>
      </trkpt>
      <trkpt lat="51.495398" lon="-0.12525">
        <ele>15.4</ele>
        <time>2018-01-15T19:51:00Z</time>
      </trkpt>
      <trkpt lat="51.495296" lon="-0.12524">
        <ele>15.4</ele>
        <time>2018-01-15T19:51:01Z</time>
      </trkpt>
      <trkpt lat="51.495189" lon="-0.125234">
        <ele>15.4</ele>
        <time>2018-01-15T19:51:02Z</time>
      </trkpt>
      <trkpt lat="51.495082" lon="-0.125227">
        <ele>15.4</ele>
        <time>2018-01-15T19:51:03Z</time>
      </trkpt>
      <trkpt lat="51.49498" lon="-0.125217">
        <ele>15.4</ele>
        <time>2018-01-15T19:51:04Z</time>
      </trkpt>
      <trkpt lat="51.494878" lon="-0.12519">
        <ele>15.4</ele>
        <time>2018-01-15T19:51:05Z</time>
      </trkpt>
      <trkpt lat="51.494771" lon="-0.125182">
        <ele>15.4</ele>
        <time>2018-01-15T19:51:06Z</time>
      </trkpt>
      <trkpt lat="51.494669" lon="-0.125172">
        <ele>15.4</ele>
        <time>2018-01-15T19:51:07Z</time>
      </trkpt>
      <trkpt lat="51.494561" lon="-0.125155">
        <ele>15.4</ele>
        <time>2018-01-15T19:51:08Z</time>
      </trkpt>
      <trkpt lat="51.49446" lon="-0.125149">
        <ele>15.4</ele>
        <time>2018-01-15T19:51:09Z</time>
      </trkpt>
      <trkpt lat="51.494363" lon="-0.125143">
        <ele>15.4</ele>
        <time>2018-01-15T19:51:10Z</time>
      </trkpt>
      <trkpt lat="51.494266" lon="-0.125139">
        <ele>15.6</ele>
        <time>2018-01-15T19:51:11Z</time>
      </trkpt>
      <trkpt lat="51.494164" lon="-0.125133">
        <ele>15.6</ele>
        <time>2018-01-15T19:51:12Z</time>
      </trkpt>
      <trkpt lat="51.494068" lon="-0.12513">
        <ele>15.4</ele>
        <time>2018-01-15T19:51:13Z</time>
      </trkpt>
      <trkpt lat="51.493961" lon="-0.125128">
        <ele>15</ele>
        <time>2018-01-15T19:51:14Z</time>
      </trkpt>
      <trkpt lat="51.493859" lon="-0.125127">
        <ele>14.8</ele>
        <time>2018-01-15T19:51:15Z</time>
      </trkpt>
      <trkpt lat="51.493751" lon="-0.125126">
        <ele>14.8</ele>
        <time>2018-01-15T19:51:16Z</time>
      </trkpt>
      <trkpt lat="51.493644" lon="-0.125123">
        <ele>14.8</ele>
        <time>2018-01-15T19:51:17Z</time>
      </trkpt>
      <trkpt lat="51.493537" lon="-0.12512">
        <ele>14.6</ele>
        <time>2018-01-15T19:51:18Z</time>
      </trkpt>
      <trkpt lat="51.493435" lon="-0.125113">
        <ele>14.4</ele>
        <time>2018-01-15T19:51:19Z</time>
      </trkpt>
      <trkpt lat="51.493317" lon="-0.12511">
        <ele>14.2</ele>
        <time>2018-01-15T19:51:20Z</time>
      </trkpt>
      <trkpt lat="51.493215" lon="-0.125107">
        <ele>14.2</ele>
        <time>2018-01-15T19:51:21Z</time>
      </trkpt>
      <trkpt lat="51.493102" lon="-0.125109">
        <ele>14</ele>
        <time>2018-01-15T19:51:22Z</time>
      </trkpt>
      <trkpt lat="51.49299" lon="-0.125112">
        <ele>13.8</ele>
        <time>2018-01-15T19:51:23Z</time>
      </trkpt>
      <trkpt lat="51.492877" lon="-0.125112">
        <ele>13.8</ele>
        <time>2018-01-15T19:51:24Z</time>
      </trkpt>
      <trkpt lat="51.49277" lon="-0.125114">
        <ele>13.6</ele>
        <time>2018-01-15T19:51:25Z</time>
      </trkpt>
      <trkpt lat="51.492652" lon="-0.125127">
        <ele>13.4</ele>
        <time>2018-01-15T19:51:26Z</time>
      </trkpt>
      <trkpt lat="51.492544" lon="-0.12515">
        <ele>13.4</ele>
        <time>2018-01-15T19:51:27Z</time>
      </trkpt>
      <trkpt lat="51.492426" lon="-0.125181">
        <ele>13.2</ele>
        <time>2018-01-15T19:51:28Z</time>
      </trkpt>
      <trkpt lat="51.492314" lon="-0.12522">
        <ele>13</ele>
        <time>2018-01-15T19:51:29Z</time>
      </trkpt>
      <trkpt lat="51.492206" lon="-0.125266">
        <ele>13</ele>
        <time>2018-01-15T19:51:30Z</time>
      </trkpt>
      <trkpt lat="51.492088" lon="-0.12532">
        <ele>12.8</ele>
        <time>2018-01-15T19:51:31Z</time>
      </trkpt>
      <trkpt lat="51.491981" lon="-0.125382">
        <ele>12.8</ele>
        <time>2018-01-15T19:51:32Z</time>
      </trkpt>
      <trkpt lat="51.491874" lon="-0.125456">
        <ele>12.6</ele>
        <time>2018-01-15T19:51:33Z</time>
      </trkpt>
      <trkpt lat="51.491772" lon="-0.12554">
        <ele>12.6</ele>
        <time>2018-01-15T19:51:34Z</time>
      </trkpt>
      <trkpt lat="51.491675" lon="-0.125626">
        <ele>12.6</ele>
        <time>2018-01-15T19:51:35Z</time>
      </trkpt>
      <trkpt lat="51.491584" lon="-0.125709">
        <ele>12.6</ele>
        <time>2018-01-15T19:51:36Z</time>
      </trkpt>
      <trkpt lat="51.491488" lon="-0.125797">
        <ele>12.4</ele>
        <time>2018-01-15T19:51:37Z</time>
      </trkpt>
      <trkpt lat="51.491391" lon="-0.125883">
        <ele>12.4</ele>
        <time>2018-01-15T19:51:38Z</time>
      </trkpt>
      <trkpt lat="51.491305" lon="-0.125959">
        <ele>12.4</ele>
        <time>2018-01-15T19:51:39Z</time>
      </trkpt>
      <trkpt lat="51.491214" lon="-0.126037">
        <ele>12.4</ele>
        <time>2018-01-15T19:51:40Z</time>
      </trkpt>
      <trkpt lat="51.491123" lon="-0.126116">
        <ele>12.4</ele>
        <time>2018-01-15T19:51:41Z</time>
      </trkpt>
      <trkpt lat="51.491032" lon="-0.126204">
        <ele>12.4</ele>
        <time>2018-01-15T19:51:42Z</time>
      </trkpt>
      <trkpt lat="51.49093" lon="-0.12629">
        <ele>12.4</ele>
        <time>2018-01-15T19:51:43Z</time>
      </trkpt>
      <trkpt lat="51.490833" lon="-0.126367">
        <ele>12.4</ele>
        <time>2018-01-15T19:51:44Z</time>
      </trkpt>
      <trkpt lat="51.490742" lon="-0.126446">
        <ele>12.4</ele>
        <time>2018-01-15T19:51:45Z</time>
      </trkpt>
      <trkpt lat="51.490645" lon="-0.126523">
        <ele>12.4</ele>
        <time>2018-01-15T19:51:46Z</time>
      </trkpt>
      <trkpt lat="51.490554" lon="-0.12661">
        <ele>12.4</ele>
        <time>2018-01-15T19:51:47Z</time>
      </trkpt>
      <trkpt lat="51.490458" lon="-0.126695">
        <ele>12.4</ele>
        <time>2018-01-15T19:51:48Z</time>
      </trkpt>
      <trkpt lat="51.490361" lon="-0.126772">
        <ele>12.4</ele>
        <time>2018-01-15T19:51:49Z</time>
      </trkpt>
      <trkpt lat="51.49027" lon="-0.126851">
        <ele>12.4</ele>
        <time>2018-01-15T19:51:50Z</time>
      </trkpt>
      <trkpt lat="51.490173" lon="-0.126918">
        <ele>12.4</ele>
        <time>2018-01-15T19:51:51Z</time>
      </trkpt>
      <trkpt lat="51.490077" lon="-0.127004">
        <ele>12.4</ele>
        <time>2018-01-15T19:51:52Z</time>
      </trkpt>
      <trkpt lat="51.489986" lon="-0.12709">
        <ele>12.4</ele>
        <time>2018-01-15T19:51:53Z</time>
      </trkpt>
      <trkpt lat="51.489894" lon="-0.127188">
        <ele>12.4</ele>
        <time>2018-01-15T19:51:54Z</time>
      </trkpt>
      <trkpt lat="51.489814" lon="-0.127297">
        <ele>12.4</ele>
        <time>2018-01-15T19:51:55Z</time>
      </trkpt>
      <trkpt lat="51.489733" lon="-0.127415">
        <ele>12.4</ele>
        <time>2018-01-15T19:51:56Z</time>
      </trkpt>
      <trkpt lat="51.489658" lon="-0.127543">
        <ele>12.4</ele>
        <time>2018-01-15T19:51:57Z</time>
      </trkpt>
      <trkpt lat="51.489589" lon="-0.127679">
        <ele>12.4</ele>
        <time>2018-01-15T19:51:58Z</time>
      </trkpt>
      <trkpt lat="51.489519" lon="-0.127817">
        <ele>12.4</ele>
        <time>2018-01-15T19:51:59Z</time>
      </trkpt>
      <trkpt lat="51.489449" lon="-0.127953">
        <ele>12.4</ele>
        <time>2018-01-15T19:52:00Z</time>
      </trkpt>
      <trkpt lat="51.48939" lon="-0.128092">
        <ele>12.4</ele>
        <time>2018-01-15T19:52:01Z</time>
      </trkpt>
      <trkpt lat="51.489326" lon="-0.128241">
        <ele>12.4</ele>
        <time>2018-01-15T19:52:02Z</time>
      </trkpt>
      <trkpt lat="51.489272" lon="-0.128377">
        <ele>12.4</ele>
        <time>2018-01-15T19:52:03Z</time>
      </trkpt>
      <trkpt lat="51.489208" lon="-0.128525">
        <ele>12.4</ele>
        <time>2018-01-15T19:52:04Z</time>
      </trkpt>
      <trkpt lat="51.489154" lon="-0.128658">
        <ele>12.4</ele>
        <time>2018-01-15T19:52:05Z</time>
      </trkpt>
      <trkpt lat="51.48909" lon="-0.128801">
        <ele>12.4</ele>
        <time>2018-01-15T19:52:06Z</time>
      </trkpt>
      <trkpt lat="51.489036" lon="-0.128935">
        <ele>12.4</ele>
        <time>2018-01-15T19:52:07Z</time>
      </trkpt>
      <trkpt lat="51.488972" lon="-0.129074">
        <ele>12.4</ele>
        <time>2018-01-15T19:52:08Z</time>
      </trkpt>
      <trkpt lat="51.488907" lon="-0.129195">
        <ele>12.4</ele>
        <time>2018-01-15T19:52:09Z</time>
      </trkpt>
      <trkpt lat="51.488838" lon="-0.129327">
        <ele>12.4</ele>
        <time>2018-01-15T19:52:10Z</time>
      </trkpt>
      <trkpt lat="51.488768" lon="-0.129444">
        <ele>12.4</ele>
        <time>2018-01-15T19:52:11Z</time>
      </trkpt>
      <trkpt lat="51.488693" lon="-0.12956">
        <ele>12.4</ele>
        <time>2018-01-15T19:52:12Z</time>
      </trkpt>
      <trkpt lat="51.488618" lon="-0.129678">
        <ele>12.4</ele>
        <time>2018-01-15T19:52:13Z</time>
      </trkpt>
      <trkpt lat="51.488537" lon="-0.129788">
        <ele>12.4</ele>
        <time>2018-01-15T19:52:14Z</time>
      </trkpt>
      <trkpt lat="51.488457" lon="-0.129882">
        <ele>12.4</ele>
        <time>2018-01-15T19:52:15Z</time>
      </trkpt>
      <trkpt lat="51.488376" lon="-0.129965">
        <ele>12.4</ele>
        <time>2018-01-15T19:52:16Z</time>
      </trkpt>
      <trkpt lat="51.488285" lon="-0.130043">
        <ele>12.4</ele>
        <time>2018-01-15T19:52:17Z</time>
      </trkpt>
      <trkpt lat="51.488189" lon="-0.130119">
        <ele>12.4</ele>
        <time>2018-01-15T19:52:18Z</time>
      </trkpt>
      <trkpt lat="51.488108" lon="-0.130198">
        <ele>12.4</ele>
        <time>2018-01-15T19:52:19Z</time>
      </trkpt>
      <trkpt lat="51.488017" lon="-0.130284">
        <ele>12.4</ele>
        <time>2018-01-15T19:52:20Z</time>
      </trkpt>
      <trkpt lat="51.487926" lon="-0.130362">
        <ele>12.4</ele>
        <time>2018-01-15T19:52:21Z</time>
      </trkpt>
      <trkpt lat="51.487834" lon="-0.130433">
        <ele>12.4</ele>
        <time>2018-01-15T19:52:22Z</time>
      </trkpt>
      <trkpt lat="51.487738" lon="-0.130498">
        <ele>12.4</ele>
        <time>2018-01-15T19:52:23Z</time>
      </trkpt>
      <trkpt lat="51.487641" lon="-0.130551">
        <ele>12.4</ele>
        <time>2018-01-15T19:52:24Z</time>
      </trkpt>
      <trkpt lat="51.487556" lon="-0.130596">
        <ele>12.2</ele>
        <time>2018-01-15T19:52:25Z</time>
      </trkpt>
      <trkpt lat="51.487459" lon="-0.130645">
        <ele>12.2</ele>
        <time>2018-01-15T19:52:26Z</time>
      </trkpt>
      <trkpt lat="51.487352" lon="-0.130702">
        <ele>12.2</ele>
        <time>2018-01-15T19:52:27Z</time>
      </trkpt>
      <trkpt lat="51.487255" lon="-0.130754">
        <ele>12.2</ele>
        <time>2018-01-15T19:52:28Z</time>
      </trkpt>
      <trkpt lat="51.487159" lon="-0.130812">
        <ele>12.2</ele>
        <time>2018-01-15T19:52:29Z</time>
      </trkpt>
      <trkpt lat="51.487057" lon="-0.130874">
        <ele>12.2</ele>
        <time>2018-01-15T19:52:30Z</time>
      </trkpt>
      <trkpt lat="51.486965" lon="-0.130939">
        <ele>12.2</ele>
        <time>2018-01-15T19:52:31Z</time>
      </trkpt>
      <trkpt lat="51.486869" lon="-0.131014">
        <ele>12.2</ele>
        <time>2018-01-15T19:52:32Z</time>
      </trkpt>
      <trkpt lat="51.486772" lon="-0.131098">
        <ele>12.2</ele>
        <time>2018-01-15T19:52:33Z</time>
      </trkpt>
      <trkpt lat="51.486686" lon="-0.131177">
        <ele>12.2</ele>
        <time>2018-01-15T19:52:34Z</time>
      </trkpt>
      <trkpt lat="51.486601" lon="-0.131275">
        <ele>12.2</ele>
        <time>2018-01-15T19:52:35Z</time>
      </trkpt>
      <trkpt lat="51.48652" lon="-0.13139">
        <ele>12.2</ele>
        <time>2018-01-15T19:52:36Z</time>
      </trkpt>
      <trkpt lat="51.486456" lon="-0.13151">
        <ele>12.2</ele>
        <time>2018-01-15T19:52:37Z</time>
      </trkpt>
      <trkpt lat="51.486391" lon="-0.131643">
        <ele>12.2</ele>
        <time>2018-01-15T19:52:38Z</time>
      </trkpt>
      <trkpt lat="51.486327" lon="-0.131788">
        <ele>12.2</ele>
        <time>2018-01-15T19:52:39Z</time>
      </trkpt>
      <trkpt lat="51.486273" lon="-0.131925">
        <ele>12.2</ele>
        <time>2018-01-15T19:52:40Z</time>
      </trkpt>
      <trkpt lat="51.486225" lon="-0.13208">
        <ele>12.2</ele>
        <time>2018-01-15T19:52:41Z</time>
      </trkpt>
      <trkpt lat="51.486177" lon="-0.132236">
        <ele>12.2</ele>
        <time>2018-01-15T19:52:42Z</time>
      </trkpt>
      <trkpt lat="51.486134" lon="-0.132399">
        <ele>12.2</ele>
        <time>2018-01-15T19:52:43Z</time>
      </trkpt>
      <trkpt lat="51.486102" lon="-0.132548">
        <ele>12.2</ele>
        <time>2018-01-15T19:52:44Z</time>
      </trkpt>
      <trkpt lat="51.486059" lon="-0.132707">
        <ele>12.2</ele>
        <time>2018-01-15T19:52:45Z</time>
      </trkpt>
      <trkpt lat="51.486021" lon="-0.132864">
        <ele>12.2</ele>
        <time>2018-01-15T19:52:46Z</time>
      </trkpt>
      <trkpt lat="51.485984" lon="-0.133023">
        <ele>12.2</ele>
        <time>2018-01-15T19:52:47Z</time>
      </trkpt>
      <trkpt lat="51.485952" lon="-0.133183">
        <ele>12.2</ele>
        <time>2018-01-15T19:52:48Z</time>
      </trkpt>
      <trkpt lat="51.485919" lon="-0.13335">
        <ele>12.2</ele>
        <time>2018-01-15T19:52:49Z</time>
      </trkpt>
      <trkpt lat="51.485893" lon="-0.133522">
        <ele>12.2</ele>
        <time>2018-01-15T19:52:50Z</time>
      </trkpt>
      <trkpt lat="51.485871" lon="-0.133682">
        <ele>12.2</ele>
        <time>2018-01-15T19:52:51Z</time>
      </trkpt>
      <trkpt lat="51.48585" lon="-0.133845">
        <ele>12.2</ele>
        <time>2018-01-15T19:52:52Z</time>
      </trkpt>
      <trkpt lat="51.485823" lon="-0.134017">
        <ele>12.2</ele>
        <time>2018-01-15T19:52:53Z</time>
      </trkpt>
      <trkpt lat="51.485796" lon="-0.13418">
        <ele>12.2</ele>
        <time>2018-01-15T19:52:54Z</time>
      </trkpt>
      <trkpt lat="51.485769" lon="-0.134342">
        <ele>12.2</ele>
        <time>2018-01-15T19:52:55Z</time>
      </trkpt>
      <trkpt lat="51.485742" lon="-0.134518">
        <ele>12.2</ele>
        <time>2018-01-15T19:52:56Z</time>
      </trkpt>
      <trkpt lat="51.485716" lon="-0.134679">
        <ele>12.2</ele>
        <time>2018-01-15T19:52:57Z</time>
      </trkpt>
      <trkpt lat="51.485689" lon="-0.134842">
        <ele>12.2</ele>
        <time>2018-01-15T19:52:58Z</time>
      </trkpt>
      <trkpt lat="51.485662" lon="-0.134993">
        <ele>12.2</ele>
        <time>2018-01-15T19:52:59Z</time>
      </trkpt>
      <trkpt lat="51.48563" lon="-0.135166">
        <ele>12.2</ele>
        <time>2018-01-15T19:53:00Z</time>
      </trkpt>
      <trkpt lat="51.485603" lon="-0.135321">
        <ele>12.2</ele>
        <time>2018-01-15T19:53:01Z</time>
      </trkpt>
      <trkpt lat="51.485565" lon="-0.135488">
        <ele>12.2</ele>
        <time>2018-01-15T19:53:02Z</time>
      </trkpt>
      <trkpt lat="51.485538" lon="-0.135656">
        <ele>12.2</ele>
        <time>2018-01-15T19:53:03Z</time>
      </trkpt>
      <trkpt lat="51.485506" lon="-0.135822">
        <ele>12.2</ele>
        <time>2018-01-15T19:53:04Z</time>
      </trkpt>
      <trkpt lat="51.485479" lon="-0.135995">
        <ele>12.2</ele>
        <time>2018-01-15T19:53:05Z</time>
      </trkpt>
      <trkpt lat="51.485442" lon="-0.136159">
        <ele>12.2</ele>
        <time>2018-01-15T19:53:06Z</time>
      </trkpt>
      <trkpt lat="51.485415" lon="-0.136319">
        <ele>12.2</ele>
        <time>2018-01-15T19:53:07Z</time>
      </trkpt>
      <trkpt lat="51.485388" lon="-0.136496">
        <ele>12</ele>
        <time>2018-01-15T19:53:08Z</time>
      </trkpt>
      <trkpt lat="51.485356" lon="-0.136655">
        <ele>12</ele>
        <time>2018-01-15T19:53:09Z</time>
      </trkpt>
      <trkpt lat="51.485319" lon="-0.136828">
        <ele>12</ele>
        <time>2018-01-15T19:53:10Z</time>
      </trkpt>
      <trkpt lat="51.485292" lon="-0.136978">
        <ele>12</ele>
        <time>2018-01-15T19:53:11Z</time>
      </trkpt>
      <trkpt lat="51.48526" lon="-0.137139">
        <ele>12</ele>
        <time>2018-01-15T19:53:12Z</time>
      </trkpt>
      <trkpt lat="51.485233" lon="-0.13731">
        <ele>12</ele>
        <time>2018-01-15T19:53:13Z</time>
      </trkpt>
      <trkpt lat="51.485206" lon="-0.13747">
        <ele>12</ele>
        <time>2018-01-15T19:53:14Z</time>
      </trkpt>
      <trkpt lat="51.485179" lon="-0.137625">
        <ele>12</ele>
        <time>2018-01-15T19:53:15Z</time>
      </trkpt>
      <trkpt lat="51.485152" lon="-0.137781">
        <ele>12</ele>
        <time>2018-01-15T19:53:16Z</time>
      </trkpt>
      <trkpt lat="51.48512" lon="-0.137931">
        <ele>12</ele>
        <time>2018-01-15T19:53:17Z</time>
      </trkpt>
      <trkpt lat="51.485083" lon="-0.138094">
        <ele>12</ele>
        <time>2018-01-15T19:53:18Z</time>
      </trkpt>
      <trkpt lat="51.485045" lon="-0.138246">
        <ele>12</ele>
        <time>2018-01-15T19:53:19Z</time>
      </trkpt>
      <trkpt lat="51.485013" lon="-0.1384">
        <ele>12</ele>
        <time>2018-01-15T19:53:20Z</time>
      </trkpt>
      <trkpt lat="51.484986" lon="-0.138561">
        <ele>12</ele>
        <time>2018-01-15T19:53:21Z</time>
      </trkpt>
      <trkpt lat="51.484959" lon="-0.138712">
        <ele>12</ele>
        <time>2018-01-15T19:53:22Z</time>
      </trkpt>
      <trkpt lat="51.484943" lon="-0.138869">
        <ele>12</ele>
        <time>2018-01-15T19:53:23Z</time>
      </trkpt>
      <trkpt lat="51.484927" lon="-0.13903">
        <ele>12</ele>
        <time>2018-01-15T19:53:24Z</time>
      </trkpt>
      <trkpt lat="51.484916" lon="-0.139191">
        <ele>12</ele>
        <time>2018-01-15T19:53:25Z</time>
      </trkpt>
      <trkpt lat="51.484905" lon="-0.13935">
        <ele>12</ele>
        <time>2018-01-15T19:53:26Z</time>
      </trkpt>
      <trkpt lat="51.484895" lon="-0.139525">
        <ele>12</ele>
        <time>2018-01-15T19:53:27Z</time>
      </trkpt>
      <trkpt lat="51.484895" lon="-0.139685">
        <ele>12</ele>
        <time>2018-01-15T19:53:28Z</time>
      </trkpt>
      <trkpt lat="51.4849" lon="-0.139856">
        <ele>12</ele>
        <time>2018-01-15T19:53:29Z</time>
      </trkpt>
      <trkpt lat="51.4849" lon="-0.140007">
        <ele>12</ele>
        <time>2018-01-15T19:53:30Z</time>
      </trkpt>
      <trkpt lat="51.484916" lon="-0.140175">
        <ele>12</ele>
        <time>2018-01-15T19:53:31Z</time>
      </trkpt>
      <trkpt lat="51.484943" lon="-0.14033">
        <ele>12</ele>
        <time>2018-01-15T19:53:32Z</time>
      </trkpt>
      <trkpt lat="51.484959" lon="-0.140484">
        <ele>12</ele>
        <time>2018-01-15T19:53:33Z</time>
      </trkpt>
      <trkpt lat="51.484981" lon="-0.140636">
        <ele>12</ele>
        <time>2018-01-15T19:53:34Z</time>
      </trkpt>
      <trkpt lat="51.485007" lon="-0.14079">
        <ele>12</ele>
        <time>2018-01-15T19:53:35Z</time>
      </trkpt>
      <trkpt lat="51.485034" lon="-0.140959">
        <ele>12</ele>
        <time>2018-01-15T19:53:36Z</time>
      </trkpt>
      <trkpt lat="51.485056" lon="-0.141111">
        <ele>12</ele>
        <time>2018-01-15T19:53:37Z</time>
      </trkpt>
      <trkpt lat="51.485083" lon="-0.14126">
        <ele>12</ele>
        <time>2018-01-15T19:53:38Z</time>
      </trkpt>
      <trkpt lat="51.485115" lon="-0.141417">
        <ele>12</ele>
        <time>2018-01-15T19:53:39Z</time>
      </trkpt>
      <trkpt lat="51.485142" lon="-0.141576">
        <ele>12</ele>
        <time>2018-01-15T19:53:40Z</time>
      </trkpt>
      <trkpt lat="51.485168" lon="-0.141749">
        <ele>12</ele>
        <time>2018-01-15T19:53:41Z</time>
      </trkpt>
      <trkpt lat="51.485201" lon="-0.141913">
        <ele>12</ele>
        <time>2018-01-15T19:53:42Z</time>
      </trkpt>
      <trkpt lat="51.485233" lon="-0.142072">
        <ele>12</ele>
        <time>2018-01-15T19:53:43Z</time>
      </trkpt>
      <trkpt lat="51.48526" lon="-0.142233">
        <ele>12</ele>
        <time>2018-01-15T19:53:44Z</time>
      </trkpt>
      <trkpt lat="51.485286" lon="-0.142392">
        <ele>12</ele>
        <time>2018-01-15T19:53:45Z</time>
      </trkpt>
      <trkpt lat="51.485324" lon="-0.142563">
        <ele>12</ele>
        <time>2018-01-15T19:53:46Z</time>
      </trkpt>
      <trkpt lat="51.485351" lon="-0.14272">
        <ele>12</ele>
        <time>2018-01-15T19:53:47Z</time>
      </trkpt>
      <trkpt lat="51.485378" lon="-0.142889">
        <ele>12</ele>
        <time>2018-01-15T19:53:48Z</time>
      </trkpt>
      <trkpt lat="51.48541" lon="-0.143052">
        <ele>12</ele>
        <time>2018-01-15T19:53:49Z</time>
      </trkpt>
      <trkpt lat="51.485437" lon="-0.143216">
        <ele>12</ele>
        <time>2018-01-15T19:53:50Z</time>
      </trkpt>
      <trkpt lat="51.485458" lon="-0.14338">
        <ele>12</ele>
        <time>2018-01-15T19:53:51Z</time>
      </trkpt>
      <trkpt lat="51.485485" lon="-0.143542">
        <ele>12</ele>
        <time>2018-01-15T19:53:52Z</time>
      </trkpt>
      <trkpt lat="51.485512" lon="-0.143704">
        <ele>12</ele>
        <time>2018-01-15T19:53:53Z</time>
      </trkpt>
      <trkpt lat="51.485538" lon="-0.143881">
        <ele>12</ele>
        <time>2018-01-15T19:53:54Z</time>
      </trkpt>
      <trkpt lat="51.48556" lon="-0.144046">
        <ele>12</ele>
        <time>2018-01-15T19:53:55Z</time>
      </trkpt>
      <trkpt lat="51.485587" lon="-0.144211">
        <ele>12</ele>
        <time>2018-01-15T19:53:56Z</time>
      </trkpt>
      <trkpt lat="51.485603" lon="-0.144375">
        <ele>12</ele>
        <time>2018-01-15T19:53:57Z</time>
      </trkpt>
      <trkpt lat="51.485624" lon="-0.144539">
        <ele>12</ele>
        <time>2018-01-15T19:53:58Z</time>
      </trkpt>
      <trkpt lat="51.48564" lon="-0.144715">
        <ele>12</ele>
        <time>2018-01-15T19:53:59Z</time>
      </trkpt>
      <trkpt lat="51.485656" lon="-0.144876">
        <ele>12</ele>
        <time>2018-01-15T19:54:00Z</time>
      </trkpt>
      <trkpt lat="51.485673" lon="-0.145046">
        <ele>12</ele>
        <time>2018-01-15T19:54:01Z</time>
      </trkpt>
      <trkpt lat="51.485694" lon="-0.145213">
        <ele>12</ele>
        <time>2018-01-15T19:54:02Z</time>
      </trkpt>
      <trkpt lat="51.485705" lon="-0.14538">
        <ele>12</ele>
        <time>2018-01-15T19:54:03Z</time>
      </trkpt>
      <trkpt lat="51.485721" lon="-0.145543">
        <ele>12</ele>
        <time>2018-01-15T19:54:04Z</time>
      </trkpt>
      <trkpt lat="51.485737" lon="-0.145702">
        <ele>12</ele>
        <time>2018-01-15T19:54:05Z</time>
      </trkpt>
      <trkpt lat="51.485748" lon="-0.145858">
        <ele>11.8</ele>
        <time>2018-01-15T19:54:06Z</time>
      </trkpt>
      <trkpt lat="51.485758" lon="-0.146005">
        <ele>11.8</ele>
        <time>2018-01-15T19:54:07Z</time>
      </trkpt>
      <trkpt lat="51.485775" lon="-0.146167">
        <ele>11.8</ele>
        <time>2018-01-15T19:54:08Z</time>
      </trkpt>
      <trkpt lat="51.485791" lon="-0.146326">
        <ele>11.8</ele>
        <time>2018-01-15T19:54:09Z</time>
      </trkpt>
      <trkpt lat="51.485801" lon="-0.146476">
        <ele>11.8</ele>
        <time>2018-01-15T19:54:10Z</time>
      </trkpt>
      <trkpt lat="51.485812" lon="-0.146641">
        <ele>11.8</ele>
        <time>2018-01-15T19:54:11Z</time>
      </trkpt>
      <trkpt lat="51.485817" lon="-0.146794">
        <ele>11.8</ele>
        <time>2018-01-15T19:54:12Z</time>
      </trkpt>
      <trkpt lat="51.485823" lon="-0.146964">
        <ele>11.8</ele>
        <time>2018-01-15T19:54:13Z</time>
      </trkpt>
      <trkpt lat="51.485823" lon="-0.147118">
        <ele>11.8</ele>
        <time>2018-01-15T19:54:14Z</time>
      </trkpt>
      <trkpt lat="51.485817" lon="-0.147285">
        <ele>11.8</ele>
        <time>2018-01-15T19:54:15Z</time>
      </trkpt>
      <trkpt lat="51.485812" lon="-0.147441">
        <ele>11.8</ele>
        <time>2018-01-15T19:54:16Z</time>
      </trkpt>
      <trkpt lat="51.485812" lon="-0.147596">
        <ele>11.8</ele>
        <time>2018-01-15T19:54:17Z</time>
      </trkpt>
      <trkpt lat="51.485801" lon="-0.147771">
        <ele>11.8</ele>
        <time>2018-01-15T19:54:18Z</time>
      </trkpt>
      <trkpt lat="51.485801" lon="-0.14793">
        <ele>11.8</ele>
        <time>2018-01-15T19:54:19Z</time>
      </trkpt>
      <trkpt lat="51.485796" lon="-0.148088">
        <ele>11.8</ele>
        <time>2018-01-15T19:54:20Z</time>
      </trkpt>
      <trkpt lat="51.485791" lon="-0.148243">
        <ele>11.8</ele>
        <time>2018-01-15T19:54:21Z</time>
      </trkpt>
      <trkpt lat="51.485785" lon="-0.148404">
        <ele>11.8</ele>
        <time>2018-01-15T19:54:22Z</time>
      </trkpt>
      <trkpt lat="51.485785" lon="-0.148567">
        <ele>11.8</ele>
        <time>2018-01-15T19:54:23Z</time>
      </trkpt>
      <trkpt lat="51.485785" lon="-0.148727">
        <ele>11.8</ele>
        <time>2018-01-15T19:54:24Z</time>
      </trkpt>
      <trkpt lat="51.485785" lon="-0.14889">
        <ele>11.8</ele>
        <time>2018-01-15T19:54:25Z</time>
      </trkpt>
      <trkpt lat="51.485801" lon="-0.14904">
        <ele>11.8</ele>
        <time>2018-01-15T19:54:26Z</time>
      </trkpt>
      <trkpt lat="51.485812" lon="-0.149206">
        <ele>11.8</ele>
        <time>2018-01-15T19:54:27Z</time>
      </trkpt>
      <trkpt lat="51.485839" lon="-0.149363">
        <ele>11.8</ele>
        <time>2018-01-15T19:54:28Z</time>
      </trkpt>
      <trkpt lat="51.485866" lon="-0.149513">
        <ele>11.8</ele>
        <time>2018-01-15T19:54:29Z</time>
      </trkpt>
      <trkpt lat="51.485903" lon="-0.149668">
        <ele>11.8</ele>
        <time>2018-01-15T19:54:30Z</time>
      </trkpt>
      <trkpt lat="51.485957" lon="-0.14981">
        <ele>11.8</ele>
        <time>2018-01-15T19:54:31Z</time>
      </trkpt>
      <trkpt lat="51.486021" lon="-0.149943">
        <ele>11.8</ele>
        <time>2018-01-15T19:54:32Z</time>
      </trkpt>
      <trkpt lat="51.486091" lon="-0.150057">
        <ele>11.8</ele>
        <time>2018-01-15T19:54:33Z</time>
      </trkpt>
      <trkpt lat="51.486171" lon="-0.15018">
        <ele>11.8</ele>
        <time>2018-01-15T19:54:34Z</time>
      </trkpt>
      <trkpt lat="51.486247" lon="-0.150294">
        <ele>11.8</ele>
        <time>2018-01-15T19:54:35Z</time>
      </trkpt>
      <trkpt lat="51.486322" lon="-0.150407">
        <ele>11.8</ele>
        <time>2018-01-15T19:54:36Z</time>
      </trkpt>
      <trkpt lat="51.486397" lon="-0.150524">
        <ele>11.8</ele>
        <time>2018-01-15T19:54:37Z</time>
      </trkpt>
      <trkpt lat="51.486477" lon="-0.150643">
        <ele>11.8</ele>
        <time>2018-01-15T19:54:38Z</time>
      </trkpt>
      <trkpt lat="51.486552" lon="-0.150762">
        <ele>11.8</ele>
        <time>2018-01-15T19:54:39Z</time>
      </trkpt>
      <trkpt lat="51.486638" lon="-0.150888">
        <ele>11.8</ele>
        <time>2018-01-15T19:54:40Z</time>
      </trkpt>
      <trkpt lat="51.486713" lon="-0.151006">
        <ele>11.8</ele>
        <time>2018-01-15T19:54:41Z</time>
      </trkpt>
      <trkpt lat="51.486783" lon="-0.151125">
        <ele>11.8</ele>
        <time>2018-01-15T19:54:42Z</time>
      </trkpt>
      <trkpt lat="51.486858" lon="-0.151248">
        <ele>11.8</ele>
        <time>2018-01-15T19:54:43Z</time>
      </trkpt>
      <trkpt lat="51.486939" lon="-0.151377">
        <ele>11.8</ele>
        <time>2018-01-15T19:54:44Z</time>
      </trkpt>
      <trkpt lat="51.487014" lon="-0.151507">
        <ele>11.8</ele>
        <time>2018-01-15T19:54:45Z</time>
      </trkpt>
      <trkpt lat="51.487083" lon="-0.151637">
        <ele>11.8</ele>
        <time>2018-01-15T19:54:46Z</time>
      </trkpt>
      <trkpt lat="51.487159" lon="-0.15176">
        <ele>11.6</ele>
        <time>2018-01-15T19:54:47Z</time>
      </trkpt>
      <trkpt lat="51.487228" lon="-0.151881">
        <ele>11.6</ele>
        <time>2018-01-15T19:54:48Z</time>
      </trkpt>
      <trkpt lat="51.487303" lon="-0.152009">
        <ele>11.4</ele>
        <time>2018-01-15T19:54:49Z</time>
      </trkpt>
      <trkpt lat="51.487378" lon="-0.152143">
        <ele>11.4</ele>
        <time>2018-01-15T19:54:50Z</time>
      </trkpt>
      <trkpt lat="51.487448" lon="-0.152268">
        <ele>11.4</ele>
        <time>2018-01-15T19:54:51Z</time>
      </trkpt>
      <trkpt lat="51.487529" lon="-0.152401">
        <ele>11.2</ele>
        <time>2018-01-15T19:54:52Z</time>
      </trkpt>
      <trkpt lat="51.487604" lon="-0.152531">
        <ele>11.2</ele>
        <time>2018-01-15T19:54:53Z</time>
      </trkpt>
      <trkpt lat="51.487674" lon="-0.152656">
        <ele>11.2</ele>
        <time>2018-01-15T19:54:54Z</time>
      </trkpt>
      <trkpt lat="51.487749" lon="-0.15278">
        <ele>11.4</ele>
        <time>2018-01-15T19:54:55Z</time>
      </trkpt>
      <trkpt lat="51.487824" lon="-0.152909">
        <ele>11.4</ele>
        <time>2018-01-15T19:54:56Z</time>
      </trkpt>
      <trkpt lat="51.487893" lon="-0.153022">
        <ele>11.6</ele>
        <time>2018-01-15T19:54:57Z</time>
      </trkpt>
      <trkpt lat="51.487963" lon="-0.15314">
        <ele>11.8</ele>
        <time>2018-01-15T19:54:58Z</time>
      </trkpt>
      <trkpt lat="51.488044" lon="-0.153266">
        <ele>11.8</ele>
        <time>2018-01-15T19:54:59Z</time>
      </trkpt>
      <trkpt lat="51.488119" lon="-0.153379">
        <ele>12</ele>
        <time>2018-01-15T19:55:00Z</time>
      </trkpt>
      <trkpt lat="51.488189" lon="-0.153495">
        <ele>12.2</ele>
        <time>2018-01-15T19:55:01Z</time>
      </trkpt>
      <trkpt lat="51.488264" lon="-0.153619">
        <ele>12.2</ele>
        <time>2018-01-15T19:55:02Z</time>
      </trkpt>
      <trkpt lat="51.488333" lon="-0.153737">
        <ele>12.4</ele>
        <time>2018-01-15T19:55:03Z</time>
      </trkpt>
      <trkpt lat="51.488403" lon="-0.153853">
        <ele>12.4</ele>
        <time>2018-01-15T19:55:04Z</time>
      </trkpt>
      <trkpt lat="51.488473" lon="-0.153971">
        <ele>12.4</ele>
        <time>2018-01-15T19:55:05Z</time>
      </trkpt>
      <trkpt lat="51.488548" lon="-0.154085">
        <ele>12.4</ele>
        <time>2018-01-15T19:55:06Z</time>
      </trkpt>
      <trkpt lat="51.488618" lon="-0.154199">
        <ele>12.4</ele>
        <time>2018-01-15T19:55:07Z</time>
      </trkpt>
      <trkpt lat="51.488693" lon="-0.154323">
        <ele>12.2</ele>
        <time>2018-01-15T19:55:08Z</time>
      </trkpt>
      <trkpt lat="51.488768" lon="-0.154438">
        <ele>12.2</ele>
        <time>2018-01-15T19:55:09Z</time>
      </trkpt>
      <trkpt lat="51.488843" lon="-0.154556">
        <ele>12.2</ele>
        <time>2018-01-15T19:55:10Z</time>
      </trkpt>
      <trkpt lat="51.488918" lon="-0.154676">
        <ele>12.2</ele>
        <time>2018-01-15T19:55:11Z</time>
      </trkpt>
      <trkpt lat="51.488982" lon="-0.154794">
        <ele>12.2</ele>
        <time>2018-01-15T19:55:12Z</time>
      </trkpt>
      <trkpt lat="51.489063" lon="-0.15492">
        <ele>12.2</ele>
        <time>2018-01-15T19:55:13Z</time>
      </trkpt>
      <trkpt lat="51.489138" lon="-0.155037">
        <ele>12.4</ele>
        <time>2018-01-15T19:55:14Z</time>
      </trkpt>
      <trkpt lat="51.489208" lon="-0.155142">
        <ele>12.4</ele>
        <time>2018-01-15T19:55:15Z</time>
      </trkpt>
      <trkpt lat="51.489277" lon="-0.155254">
        <ele>12.4</ele>
        <time>2018-01-15T19:55:16Z</time>
      </trkpt>
      <trkpt lat="51.489353" lon="-0.155363">
        <ele>12.6</ele>
        <time>2018-01-15T19:55:17Z</time>
      </trkpt>
      <trkpt lat="51.489417" lon="-0.155474">
        <ele>12.6</ele>
        <time>2018-01-15T19:55:18Z</time>
      </trkpt>
      <trkpt lat="51.489492" lon="-0.155586">
        <ele>12.8</ele>
        <time>2018-01-15T19:55:19Z</time>
      </trkpt>
      <trkpt lat="51.489556" lon="-0.155688">
        <ele>13</ele>
        <time>2018-01-15T19:55:20Z</time>
      </trkpt>
      <trkpt lat="51.489632" lon="-0.155807">
        <ele>13</ele>
        <time>2018-01-15T19:55:21Z</time>
      </trkpt>
      <trkpt lat="51.489696" lon="-0.155914">
        <ele>13.2</ele>
        <time>2018-01-15T19:55:22Z</time>
      </trkpt>
      <trkpt lat="51.489766" lon="-0.156025">
        <ele>13.4</ele>
        <time>2018-01-15T19:55:23Z</time>
      </trkpt>
      <trkpt lat="51.48983" lon="-0.156127">
        <ele>13.6</ele>
        <time>2018-01-15T19:55:24Z</time>
      </trkpt>
      <trkpt lat="51.489894" lon="-0.156236">
        <ele>13.8</ele>
        <time>2018-01-15T19:55:25Z</time>
      </trkpt>
      <trkpt lat="51.489969" lon="-0.156344">
        <ele>13.8</ele>
        <time>2018-01-15T19:55:26Z</time>
      </trkpt>
      <trkpt lat="51.490034" lon="-0.156449">
        <ele>14</ele>
        <time>2018-01-15T19:55:27Z</time>
      </trkpt>
      <trkpt lat="51.490104" lon="-0.156559">
        <ele>14</ele>
        <time>2018-01-15T19:55:28Z</time>
      </trkpt>
      <trkpt lat="51.490163" lon="-0.156662">
        <ele>14.2</ele>
        <time>2018-01-15T19:55:29Z</time>
      </trkpt>
      <trkpt lat="51.490222" lon="-0.156762">
        <ele>14.2</ele>
        <time>2018-01-15T19:55:30Z</time>
      </trkpt>
      <trkpt lat="51.490297" lon="-0.156873">
        <ele>14.4</ele>
        <time>2018-01-15T19:55:31Z</time>
      </trkpt>
      <trkpt lat="51.490377" lon="-0.156954">
        <ele>14.4</ele>
        <time>2018-01-15T19:55:32Z</time>
      </trkpt>
      <trkpt lat="51.490463" lon="-0.157001">
        <ele>14.6</ele>
        <time>2018-01-15T19:55:33Z</time>
      </trkpt>
      <trkpt lat="51.490554" lon="-0.157038">
        <ele>14.8</ele>
        <time>2018-01-15T19:55:34Z</time>
      </trkpt>
      <trkpt lat="51.490645" lon="-0.157066">
        <ele>14.8</ele>
        <time>2018-01-15T19:55:35Z</time>
      </trkpt>
      <trkpt lat="51.490742" lon="-0.157094">
        <ele>15</ele>
        <time>2018-01-15T19:55:36Z</time>
      </trkpt>
      <trkpt lat="51.490833" lon="-0.157117">
        <ele>15.2</ele>
        <time>2018-01-15T19:55:37Z</time>
      </trkpt>
      <trkpt lat="51.490924" lon="-0.157149">
        <ele>15.2</ele>
        <time>2018-01-15T19:55:38Z</time>
      </trkpt>
      <trkpt lat="51.491016" lon="-0.157178">
        <ele>15.2</ele>
        <time>2018-01-15T19:55:39Z</time>
      </trkpt>
      <trkpt lat="51.491107" lon="-0.157208">
        <ele>15.4</ele>
        <time>2018-01-15T19:55:40Z</time>
      </trkpt>
      <trkpt lat="51.491198" lon="-0.157234">
        <ele>15.4</ele>
        <time>2018-01-15T19:55:41Z</time>
      </trkpt>
      <trkpt lat="51.491295" lon="-0.157253">
        <ele>15.4</ele>
        <time>2018-01-15T19:55:42Z</time>
      </trkpt>
      <trkpt lat="51.491391" lon="-0.157269">
        <ele>15.4</ele>
        <time>2018-01-15T19:55:43Z</time>
      </trkpt>
      <trkpt lat="51.491477" lon="-0.157285">
        <ele>15.4</ele>
        <time>2018-01-15T19:55:44Z</time>
      </trkpt>
      <trkpt lat="51.491573" lon="-0.157307">
        <ele>15.4</ele>
        <time>2018-01-15T19:55:45Z</time>
      </trkpt>
      <trkpt lat="51.491675" lon="-0.157344">
        <ele>15.4</ele>
        <time>2018-01-15T19:55:46Z</time>
      </trkpt>
      <trkpt lat="51.491761" lon="-0.157382">
        <ele>15.4</ele>
        <time>2018-01-15T19:55:47Z</time>
      </trkpt>
      <trkpt lat="51.491858" lon="-0.157436">
        <ele>15.4</ele>
        <time>2018-01-15T19:55:48Z</time>
      </trkpt>
      <trkpt lat="51.491944" lon="-0.157482">
        <ele>15.4</ele>
        <time>2018-01-15T19:55:49Z</time>
      </trkpt>
      <trkpt lat="51.492035" lon="-0.157511">
        <ele>15.6</ele>
        <time>2018-01-15T19:55:50Z</time>
      </trkpt>
      <trkpt lat="51.492137" lon="-0.157516">
        <ele>15.6</ele>
        <time>2018-01-15T19:55:51Z</time>
      </trkpt>
      <trkpt lat="51.492223" lon="-0.157466">
        <ele>15.6</ele>
        <time>2018-01-15T19:55:52Z</time>
      </trkpt>
      <trkpt lat="51.492287" lon="-0.157361">
        <ele>15.6</ele>
        <time>2018-01-15T19:55:53Z</time>
      </trkpt>
      <trkpt lat="51.492324" lon="-0.15721">
        <ele>15.6</ele>
        <time>2018-01-15T19:55:54Z</time>
      </trkpt>
      <trkpt lat="51.492346" lon="-0.157066">
        <ele>15.4</ele>
        <time>2018-01-15T19:55:55Z</time>
      </trkpt>
      <trkpt lat="51.492383" lon="-0.156926">
        <ele>15.4</ele>
        <time>2018-01-15T19:55:56Z</time>
      </trkpt>
      <trkpt lat="51.492459" lon="-0.156834">
        <ele>15.2</ele>
        <time>2018-01-15T19:55:57Z</time>
      </trkpt>
      <trkpt lat="51.492561" lon="-0.156801">
        <ele>15.2</ele>
        <time>2018-01-15T19:55:58Z</time>
      </trkpt>
      <trkpt lat="51.492652" lon="-0.156815">
        <ele>15.2</ele>
        <time>2018-01-15T19:55:59Z</time>
      </trkpt>
      <trkpt lat="51.492743" lon="-0.156885">
        <ele>15.2</ele>
        <time>2018-01-15T19:56:00Z</time>
      </trkpt>
      <trkpt lat="51.49277" lon="-0.157025">
        <ele>15.2</ele>
        <time>2018-01-15T19:56:01Z</time>
      </trkpt>
      <trkpt lat="51.492754" lon="-0.157191">
        <ele>15.2</ele>
        <time>2018-01-15T19:56:02Z</time>
      </trkpt>
      <trkpt lat="51.492738" lon="-0.157345">
        <ele>15.2</ele>
        <time>2018-01-15T19:56:03Z</time>
      </trkpt>
      <trkpt lat="51.492743" lon="-0.157511">
        <ele>15.2</ele>
        <time>2018-01-15T19:56:04Z</time>
      </trkpt>
      <trkpt lat="51.49277" lon="-0.157654">
        <ele>15</ele>
        <time>2018-01-15T19:56:05Z</time>
      </trkpt>
      <trkpt lat="51.49285" lon="-0.157754">
        <ele>15</ele>
        <time>2018-01-15T19:56:06Z</time>
      </trkpt>
      <trkpt lat="51.492952" lon="-0.157805">
        <ele>14.8</ele>
        <time>2018-01-15T19:56:07Z</time>
      </trkpt>
      <trkpt lat="51.493049" lon="-0.157838">
        <ele>14.6</ele>
        <time>2018-01-15T19:56:08Z</time>
      </trkpt>
      <trkpt lat="51.493151" lon="-0.157869">
        <ele>14.4</ele>
        <time>2018-01-15T19:56:09Z</time>
      </trkpt>
      <trkpt lat="51.493258" lon="-0.157895">
        <ele>14.4</ele>
        <time>2018-01-15T19:56:10Z</time>
      </trkpt>
      <trkpt lat="51.493365" lon="-0.157919">
        <ele>14.2</ele>
        <time>2018-01-15T19:56:11Z</time>
      </trkpt>
      <trkpt lat="51.493472" lon="-0.157944">
        <ele>14.2</ele>
        <time>2018-01-15T19:56:12Z</time>
      </trkpt>
      <trkpt lat="51.49358" lon="-0.157968">
        <ele>14</ele>
        <time>2018-01-15T19:56:13Z</time>
      </trkpt>
      <trkpt lat="51.493687" lon="-0.15799">
        <ele>14</ele>
        <time>2018-01-15T19:56:14Z</time>
      </trkpt>
      <trkpt lat="51.493794" lon="-0.158008">
        <ele>13.8</ele>
        <time>2018-01-15T19:56:15Z</time>
      </trkpt>
      <trkpt lat="51.493907" lon="-0.158027">
        <ele>13.6</ele>
        <time>2018-01-15T19:56:16Z</time>
      </trkpt>
      <trkpt lat="51.494014" lon="-0.158051">
        <ele>13.6</ele>
        <time>2018-01-15T19:56:17Z</time>
      </trkpt>
      <trkpt lat="51.494122" lon="-0.158079">
        <ele>13.4</ele>
        <time>2018-01-15T19:56:18Z</time>
      </trkpt>
      <trkpt lat="51.49424" lon="-0.158109">
        <ele>13.4</ele>
        <time>2018-01-15T19:56:19Z</time>
      </trkpt>
      <trkpt lat="51.494341" lon="-0.158139">
        <ele>13.4</ele>
        <time>2018-01-15T19:56:20Z</time>
      </trkpt>
      <trkpt lat="51.494465" lon="-0.158174">
        <ele>13.2</ele>
        <time>2018-01-15T19:56:21Z</time>
      </trkpt>
      <trkpt lat="51.494567" lon="-0.158206">
        <ele>13.2</ele>
        <time>2018-01-15T19:56:22Z</time>
      </trkpt>
      <trkpt lat="51.494679" lon="-0.158238">
        <ele>13.2</ele>
        <time>2018-01-15T19:56:23Z</time>
      </trkpt>
      <trkpt lat="51.494792" lon="-0.158278">
        <ele>13</ele>
        <time>2018-01-15T19:56:24Z</time>
      </trkpt>
      <trkpt lat="51.494905" lon="-0.158307">
        <ele>13</ele>
        <time>2018-01-15T19:56:25Z</time>
      </trkpt>
      <trkpt lat="51.495017" lon="-0.158341">
        <ele>13</ele>
        <time>2018-01-15T19:56:26Z</time>
      </trkpt>
      <trkpt lat="51.495135" lon="-0.158374">
        <ele>13</ele>
        <time>2018-01-15T19:56:27Z</time>
      </trkpt>
      <trkpt lat="51.495237" lon="-0.158407">
        <ele>13</ele>
        <time>2018-01-15T19:56:28Z</time>
      </trkpt>
      <trkpt lat="51.49535" lon="-0.158445">
        <ele>13</ele>
        <time>2018-01-15T19:56:29Z</time>
      </trkpt>
      <trkpt lat="51.495457" lon="-0.15848">
        <ele>13.2</ele>
        <time>2018-01-15T19:56:30Z</time>
      </trkpt>
      <trkpt lat="51.49557" lon="-0.158505">
        <ele>13.2</ele>
        <time>2018-01-15T19:56:31Z</time>
      </trkpt>
      <trkpt lat="51.495677" lon="-0.15854">
        <ele>13.4</ele>
        <time>2018-01-15T19:56:32Z</time>
      </trkpt>
      <trkpt lat="51.495785" lon="-0.158573">
        <ele>13.6</ele>
        <time>2018-01-15T19:56:33Z</time>
      </trkpt>
      <trkpt lat="51.495892" lon="-0.158607">
        <ele>13.6</ele>
        <time>2018-01-15T19:56:34Z</time>
      </trkpt>
      <trkpt lat="51.495999" lon="-0.158637">
        <ele>13.8</ele>
        <time>2018-01-15T19:56:35Z</time>
      </trkpt>
      <trkpt lat="51.496106" lon="-0.158669">
        <ele>14</ele>
        <time>2018-01-15T19:56:36Z</time>
      </trkpt>
      <trkpt lat="51.496203" lon="-0.158696">
        <ele>14.2</ele>
        <time>2018-01-15T19:56:37Z</time>
      </trkpt>
      <trkpt lat="51.4963" lon="-0.158724">
        <ele>14.2</ele>
        <time>2018-01-15T19:56:38Z</time>
      </trkpt>
      <trkpt lat="51.496401" lon="-0.158752">
        <ele>14.4</ele>
        <time>2018-01-15T19:56:39Z</time>
      </trkpt>
      <trkpt lat="51.496493" lon="-0.158782">
        <ele>14.6</ele>
        <time>2018-01-15T19:56:40Z</time>
      </trkpt>
      <trkpt lat="51.496589" lon="-0.158808">
        <ele>14.8</ele>
        <time>2018-01-15T19:56:41Z</time>
      </trkpt>
      <trkpt lat="51.49668" lon="-0.158827">
        <ele>15</ele>
        <time>2018-01-15T19:56:42Z</time>
      </trkpt>
      <trkpt lat="51.496772" lon="-0.158858">
        <ele>15</ele>
        <time>2018-01-15T19:56:43Z</time>
      </trkpt>
      <trkpt lat="51.496863" lon="-0.158885">
        <ele>15.2</ele>
        <time>2018-01-15T19:56:44Z</time>
      </trkpt>
      <trkpt lat="51.496954" lon="-0.158906">
        <ele>15.2</ele>
        <time>2018-01-15T19:56:45Z</time>
      </trkpt>
      <trkpt lat="51.497051" lon="-0.158927">
        <ele>15.2</ele>
        <time>2018-01-15T19:56:46Z</time>
      </trkpt>
      <trkpt lat="51.497142" lon="-0.158946">
        <ele>15.2</ele>
        <time>2018-01-15T19:56:47Z</time>
      </trkpt>
      <trkpt lat="51.497233" lon="-0.158968">
        <ele>15</ele>
        <time>2018-01-15T19:56:48Z</time>
      </trkpt>
      <trkpt lat="51.497335" lon="-0.15899">
        <ele>15</ele>
        <time>2018-01-15T19:56:49Z</time>
      </trkpt>
      <trkpt lat="51.497421" lon="-0.15901">
        <ele>15</ele>
        <time>2018-01-15T19:56:50Z</time>
      </trkpt>
      <trkpt lat="51.497512" lon="-0.159062">
        <ele>15.2</ele>
        <time>2018-01-15T19:56:51Z</time>
      </trkpt>
      <trkpt lat="51.497566" lon="-0.159198">
        <ele>15.2</ele>
        <time>2018-01-15T19:56:52Z</time>
      </trkpt>
      <trkpt lat="51.49756" lon="-0.159354">
        <ele>15.4</ele>
        <time>2018-01-15T19:56:53Z</time>
      </trkpt>
      <trkpt lat="51.497549" lon="-0.159509">
        <ele>15.6</ele>
        <time>2018-01-15T19:56:54Z</time>
      </trkpt>
      <trkpt lat="51.497533" lon="-0.15967">
        <ele>15.8</ele>
        <time>2018-01-15T19:56:55Z</time>
      </trkpt>
      <trkpt lat="51.497517" lon="-0.159813">
        <ele>16</ele>
        <time>2018-01-15T19:56:56Z</time>
      </trkpt>
      <trkpt lat="51.497506" lon="-0.15997">
        <ele>16.2</ele>
        <time>2018-01-15T19:56:57Z</time>
      </trkpt>
      <trkpt lat="51.497501" lon="-0.160123">
        <ele>16.4</ele>
        <time>2018-01-15T19:56:58Z</time>
      </trkpt>
      <trkpt lat="51.497528" lon="-0.160258">
        <ele>16.6</ele>
        <time>2018-01-15T19:56:59Z</time>
      </trkpt>
      <trkpt lat="51.497592" lon="-0.160367">
        <ele>16.6</ele>
        <time>2018-01-15T19:57:00Z</time>
      </trkpt>
      <trkpt lat="51.497678" lon="-0.160434">
        <ele>16.8</ele>
        <time>2018-01-15T19:57:01Z</time>
      </trkpt>
      <trkpt lat="51.497764" lon="-0.160477">
        <ele>17</ele>
        <time>2018-01-15T19:57:02Z</time>
      </trkpt>
      <trkpt lat="51.497855" lon="-0.160515">
        <ele>17.2</ele>
        <time>2018-01-15T19:57:03Z</time>
      </trkpt>
      <trkpt lat="51.497936" lon="-0.160559">
        <ele>17.4</ele>
        <time>2018-01-15T19:57:04Z</time>
      </trkpt>
      <trkpt lat="51.498021" lon="-0.160611">
        <ele>17.6</ele>
        <time>2018-01-15T19:57:05Z</time>
      </trkpt>
      <trkpt lat="51.498097" lon="-0.160681">
        <ele>17.8</ele>
        <time>2018-01-15T19:57:06Z</time>
      </trkpt>
      <trkpt lat="51.49815" lon="-0.160793">
        <ele>18</ele>
        <time>2018-01-15T19:57:07Z</time>
      </trkpt>
      <trkpt lat="51.498188" lon="-0.160932">
        <ele>18.2</ele>
        <time>2018-01-15T19:57:08Z</time>
      </trkpt>
      <trkpt lat="51.498193" lon="-0.161068">
        <ele>18.4</ele>
        <time>2018-01-15T19:57:09Z</time>
      </trkpt>
      <trkpt lat="51.498182" lon="-0.161203">
        <ele>18.6</ele>
        <time>2018-01-15T19:57:10Z</time>
      </trkpt>
      <trkpt lat="51.498172" lon="-0.161334">
        <ele>18.6</ele>
        <time>2018-01-15T19:57:11Z</time>
      </trkpt>
      <trkpt lat="51.498193" lon="-0.161471">
        <ele>18.8</ele>
        <time>2018-01-15T19:57:12Z</time>
      </trkpt>
      <trkpt lat="51.498215" lon="-0.161605">
        <ele>19</ele>
        <time>2018-01-15T19:57:13Z</time>
      </trkpt>
      <trkpt lat="51.498236" lon="-0.161738">
        <ele>19.2</ele>
        <time>2018-01-15T19:57:14Z</time>
      </trkpt>
      <trkpt lat="51.498263" lon="-0.161867">
        <ele>19.4</ele>
        <time>2018-01-15T19:57:15Z</time>
      </trkpt>
      <trkpt lat="51.49829" lon="-0.161996">
        <ele>19.4</ele>
        <time>2018-01-15T19:57:16Z</time>
      </trkpt>
      <trkpt lat="51.498311" lon="-0.162122">
        <ele>19.6</ele>
        <time>2018-01-15T19:57:17Z</time>
      </trkpt>
      <trkpt lat="51.498338" lon="-0.162257">
        <ele>19.8</ele>
        <time>2018-01-15T19:57:18Z</time>
      </trkpt>
      <trkpt lat="51.498365" lon="-0.162383">
        <ele>20</ele>
        <time>2018-01-15T19:57:19Z</time>
      </trkpt>
      <trkpt lat="51.498386" lon="-0.16251">
        <ele>20</ele>
        <time>2018-01-15T19:57:20Z</time>
      </trkpt>
      <trkpt lat="51.498413" lon="-0.162647">
        <ele>20.2</ele>
        <time>2018-01-15T19:57:21Z</time>
      </trkpt>
      <trkpt lat="51.498429" lon="-0.162771">
        <ele>20.4</ele>
        <time>2018-01-15T19:57:22Z</time>
      </trkpt>
      <trkpt lat="51.498461" lon="-0.162896">
        <ele>20.6</ele>
        <time>2018-01-15T19:57:23Z</time>
      </trkpt>
      <trkpt lat="51.498494" lon="-0.163023">
        <ele>20.6</ele>
        <time>2018-01-15T19:57:24Z</time>
      </trkpt>
      <trkpt lat="51.498531" lon="-0.163146">
        <ele>20.8</ele>
        <time>2018-01-15T19:57:25Z</time>
      </trkpt>
      <trkpt lat="51.498569" lon="-0.163268">
        <ele>21</ele>
        <time>2018-01-15T19:57:26Z</time>
      </trkpt>
      <trkpt lat="51.498606" lon="-0.163385">
        <ele>21.2</ele>
        <time>2018-01-15T19:57:27Z</time>
      </trkpt>
      <trkpt lat="51.498638" lon="-0.163508">
        <ele>21.4</ele>
        <time>2018-01-15T19:57:28Z</time>
      </trkpt>
      <trkpt lat="51.498676" lon="-0.163625">
        <ele>21.4</ele>
        <time>2018-01-15T19:57:29Z</time>
      </trkpt>
      <trkpt lat="51.498713" lon="-0.163746">
        <ele>21.6</ele>
        <time>2018-01-15T19:57:30Z</time>
      </trkpt>
      <trkpt lat="51.498762" lon="-0.163853">
        <ele>21.8</ele>
        <time>2018-01-15T19:57:31Z</time>
      </trkpt>
      <trkpt lat="51.498815" lon="-0.163961">
        <ele>22</ele>
        <time>2018-01-15T19:57:32Z</time>
      </trkpt>
      <trkpt lat="51.498874" lon="-0.164054">
        <ele>22.2</ele>
        <time>2018-01-15T19:57:33Z</time>
      </trkpt>
      <trkpt lat="51.498939" lon="-0.164135">
        <ele>22.2</ele>
        <time>2018-01-15T19:57:34Z</time>
      </trkpt>
      <trkpt lat="51.499014" lon="-0.16419">
        <ele>22.4</ele>
        <time>2018-01-15T19:57:35Z</time>
      </trkpt>
      <trkpt lat="51.499094" lon="-0.164221">
        <ele>22.4</ele>
        <time>2018-01-15T19:57:36Z</time>
      </trkpt>
      <trkpt lat="51.499191" lon="-0.164222">
        <ele>22.6</ele>
        <time>2018-01-15T19:57:37Z</time>
      </trkpt>
      <trkpt lat="51.499266" lon="-0.164176">
        <ele>22.6</ele>
        <time>2018-01-15T19:57:38Z</time>
      </trkpt>
      <trkpt lat="51.49933" lon="-0.164091">
        <ele>22.4</ele>
        <time>2018-01-15T19:57:39Z</time>
      </trkpt>
      <trkpt lat="51.499389" lon="-0.16399">
        <ele>22.2</ele>
        <time>2018-01-15T19:57:40Z</time>
      </trkpt>
      <trkpt lat="51.499454" lon="-0.163876">
        <ele>22.2</ele>
        <time>2018-01-15T19:57:41Z</time>
      </trkpt>
      <trkpt lat="51.499507" lon="-0.163767">
        <ele>22</ele>
        <time>2018-01-15T19:57:42Z</time>
      </trkpt>
      <trkpt lat="51.499566" lon="-0.163657">
        <ele>22</ele>
        <time>2018-01-15T19:57:43Z</time>
      </trkpt>
      <trkpt lat="51.499631" lon="-0.163546">
        <ele>22</ele>
        <time>2018-01-15T19:57:44Z</time>
      </trkpt>
      <trkpt lat="51.49969" lon="-0.163435">
        <ele>22</ele>
        <time>2018-01-15T19:57:45Z</time>
      </trkpt>
      <trkpt lat="51.499749" lon="-0.163322">
        <ele>22</ele>
        <time>2018-01-15T19:57:46Z</time>
      </trkpt>
      <trkpt lat="51.499808" lon="-0.163221">
        <ele>22.2</ele>
        <time>2018-01-15T19:57:47Z</time>
      </trkpt>
      <trkpt lat="51.499878" lon="-0.163109">
        <ele>22.2</ele>
        <time>2018-01-15T19:57:48Z</time>
      </trkpt>
      <trkpt lat="51.499947" lon="-0.163">
        <ele>22.2</ele>
        <time>2018-01-15T19:57:49Z</time>
      </trkpt>
      <trkpt lat="51.500022" lon="-0.162899">
        <ele>22.2</ele>
        <time>2018-01-15T19:57:50Z</time>
      </trkpt>
      <trkpt lat="51.500087" lon="-0.162807">
        <ele>22</ele>
        <time>2018-01-15T19:57:51Z</time>
      </trkpt>
      <trkpt lat="51.500162" lon="-0.162703">
        <ele>22</ele>
        <time>2018-01-15T19:57:52Z</time>
      </trkpt>
      <trkpt lat="51.500237" lon="-0.162606">
        <ele>22</ele>
        <time>2018-01-15T19:57:53Z</time>
      </trkpt>
      <trkpt lat="51.500312" lon="-0.162511">
        <ele>21.8</ele>
        <time>2018-01-15T19:57:54Z</time>
      </trkpt>
      <trkpt lat="51.500382" lon="-0.162425">
        <ele>21.8</ele>
        <time>2018-01-15T19:57:55Z</time>
      </trkpt>
      <trkpt lat="51.500462" lon="-0.162327">
        <ele>21.8</ele>
        <time>2018-01-15T19:57:56Z</time>
      </trkpt>
      <trkpt lat="51.500537" lon="-0.162243">
        <ele>21.8</ele>
        <time>2018-01-15T19:57:57Z</time>
      </trkpt>
      <trkpt lat="51.500618" lon="-0.162153">
        <ele>21.8</ele>
        <time>2018-01-15T19:57:58Z</time>
      </trkpt>
      <trkpt lat="51.500693" lon="-0.16206">
        <ele>21.8</ele>
        <time>2018-01-15T19:57:59Z</time>
      </trkpt>
      <trkpt lat="51.500784" lon="-0.161964">
        <ele>21.8</ele>
        <time>2018-01-15T19:58:00Z</time>
      </trkpt>
      <trkpt lat="51.500859" lon="-0.161877">
        <ele>21.8</ele>
        <time>2018-01-15T19:58:01Z</time>
      </trkpt>
      <trkpt lat="51.500945" lon="-0.161783">
        <ele>21.8</ele>
        <time>2018-01-15T19:58:02Z</time>
      </trkpt>
      <trkpt lat="51.50102" lon="-0.161693">
        <ele>22</ele>
        <time>2018-01-15T19:58:03Z</time>
      </trkpt>
      <trkpt lat="51.501106" lon="-0.161598">
        <ele>22</ele>
        <time>2018-01-15T19:58:04Z</time>
      </trkpt>
      <trkpt lat="51.501181" lon="-0.161496">
        <ele>22</ele>
        <time>2018-01-15T19:58:05Z</time>
      </trkpt>
      <trkpt lat="51.501256" lon="-0.1614">
        <ele>22</ele>
        <time>2018-01-15T19:58:06Z</time>
      </trkpt>
      <trkpt lat="51.501331" lon="-0.161288">
        <ele>22</ele>
        <time>2018-01-15T19:58:07Z</time>
      </trkpt>
      <trkpt lat="51.501401" lon="-0.161167">
        <ele>22</ele>
        <time>2018-01-15T19:58:08Z</time>
      </trkpt>
      <trkpt lat="51.501471" lon="-0.161029">
        <ele>21.8</ele>
        <time>2018-01-15T19:58:09Z</time>
      </trkpt>
      <trkpt lat="51.501524" lon="-0.160895">
        <ele>21.8</ele>
        <time>2018-01-15T19:58:10Z</time>
      </trkpt>
      <trkpt lat="51.501573" lon="-0.16075">
        <ele>21.8</ele>
        <time>2018-01-15T19:58:11Z</time>
      </trkpt>
      <trkpt lat="51.501621" lon="-0.160607">
        <ele>21.6</ele>
        <time>2018-01-15T19:58:12Z</time>
      </trkpt>
      <trkpt lat="51.501669" lon="-0.160461">
        <ele>21.6</ele>
        <time>2018-01-15T19:58:13Z</time>
      </trkpt>
      <trkpt lat="51.501712" lon="-0.160316">
        <ele>21.4</ele>
        <time>2018-01-15T19:58:14Z</time>
      </trkpt>
      <trkpt lat="51.501766" lon="-0.160157">
        <ele>21.4</ele>
        <time>2018-01-15T19:58:15Z</time>
      </trkpt>
      <trkpt lat="51.501803" lon="-0.160009">
        <ele>21.4</ele>
        <time>2018-01-15T19:58:16Z</time>
      </trkpt>
      <trkpt lat="51.501846" lon="-0.159857">
        <ele>21.4</ele>
        <time>2018-01-15T19:58:17Z</time>
      </trkpt>
      <trkpt lat="51.501884" lon="-0.159701">
        <ele>21.4</ele>
        <time>2018-01-15T19:58:18Z</time>
      </trkpt>
      <trkpt lat="51.501921" lon="-0.159555">
        <ele>21.4</ele>
        <time>2018-01-15T19:58:19Z</time>
      </trkpt>
      <trkpt lat="51.501954" lon="-0.159393">
        <ele>21.4</ele>
        <time>2018-01-15T19:58:20Z</time>
      </trkpt>
      <trkpt lat="51.501991" lon="-0.159231">
        <ele>21.4</ele>
        <time>2018-01-15T19:58:21Z</time>
      </trkpt>
      <trkpt lat="51.502018" lon="-0.159082">
        <ele>21.4</ele>
        <time>2018-01-15T19:58:22Z</time>
      </trkpt>
      <trkpt lat="51.502056" lon="-0.158922">
        <ele>21.4</ele>
        <time>2018-01-15T19:58:23Z</time>
      </trkpt>
      <trkpt lat="51.502082" lon="-0.158764">
        <ele>21.4</ele>
        <time>2018-01-15T19:58:24Z</time>
      </trkpt>
      <trkpt lat="51.502109" lon="-0.158604">
        <ele>21.2</ele>
        <time>2018-01-15T19:58:25Z</time>
      </trkpt>
      <trkpt lat="51.502131" lon="-0.158437">
        <ele>21.2</ele>
        <time>2018-01-15T19:58:26Z</time>
      </trkpt>
      <trkpt lat="51.502147" lon="-0.158269">
        <ele>21.2</ele>
        <time>2018-01-15T19:58:27Z</time>
      </trkpt>
      <trkpt lat="51.502163" lon="-0.158109">
        <ele>21</ele>
        <time>2018-01-15T19:58:28Z</time>
      </trkpt>
      <trkpt lat="51.502179" lon="-0.157934">
        <ele>20.8</ele>
        <time>2018-01-15T19:58:29Z</time>
      </trkpt>
      <trkpt lat="51.502195" lon="-0.157757">
        <ele>20.8</ele>
        <time>2018-01-15T19:58:30Z</time>
      </trkpt>
      <trkpt lat="51.5022" lon="-0.157596">
        <ele>20.6</ele>
        <time>2018-01-15T19:58:31Z</time>
      </trkpt>
      <trkpt lat="51.502211" lon="-0.157417">
        <ele>20.4</ele>
        <time>2018-01-15T19:58:32Z</time>
      </trkpt>
      <trkpt lat="51.502222" lon="-0.157235">
        <ele>20.4</ele>
        <time>2018-01-15T19:58:33Z</time>
      </trkpt>
      <trkpt lat="51.502233" lon="-0.157066">
        <ele>20.2</ele>
        <time>2018-01-15T19:58:34Z</time>
      </trkpt>
      <trkpt lat="51.502243" lon="-0.156884">
        <ele>20</ele>
        <time>2018-01-15T19:58:35Z</time>
      </trkpt>
      <trkpt lat="51.502259" lon="-0.156706">
        <ele>19.8</ele>
        <time>2018-01-15T19:58:36Z</time>
      </trkpt>
      <trkpt lat="51.502281" lon="-0.156532">
        <ele>19.4</ele>
        <time>2018-01-15T19:58:37Z</time>
      </trkpt>
      <trkpt lat="51.502308" lon="-0.156359">
        <ele>19.2</ele>
        <time>2018-01-15T19:58:38Z</time>
      </trkpt>
      <trkpt lat="51.502329" lon="-0.15617">
        <ele>18.8</ele>
        <time>2018-01-15T19:58:39Z</time>
      </trkpt>
      <trkpt lat="51.502351" lon="-0.156001">
        <ele>18.6</ele>
        <time>2018-01-15T19:58:40Z</time>
      </trkpt>
      <trkpt lat="51.502377" lon="-0.155806">
        <ele>18.2</ele>
        <time>2018-01-15T19:58:41Z</time>
      </trkpt>
      <trkpt lat="51.502399" lon="-0.155623">
        <ele>17.8</ele>
        <time>2018-01-15T19:58:42Z</time>
      </trkpt>
      <trkpt lat="51.502431" lon="-0.155437">
        <ele>17.6</ele>
        <time>2018-01-15T19:58:43Z</time>
      </trkpt>
      <trkpt lat="51.502463" lon="-0.155261">
        <ele>17.2</ele>
        <time>2018-01-15T19:58:44Z</time>
      </trkpt>
      <trkpt lat="51.50249" lon="-0.155075">
        <ele>17</ele>
        <time>2018-01-15T19:58:45Z</time>
      </trkpt>
      <trkpt lat="51.502517" lon="-0.154884">
        <ele>16.6</ele>
        <time>2018-01-15T19:58:46Z</time>
      </trkpt>
      <trkpt lat="51.502544" lon="-0.154693">
        <ele>16.4</ele>
        <time>2018-01-15T19:58:47Z</time>
      </trkpt>
      <trkpt lat="51.502576" lon="-0.154491">
        <ele>16.2</ele>
        <time>2018-01-15T19:58:48Z</time>
      </trkpt>
      <trkpt lat="51.502608" lon="-0.154304">
        <ele>16</ele>
        <time>2018-01-15T19:58:49Z</time>
      </trkpt>
      <trkpt lat="51.502635" lon="-0.154121">
        <ele>15.6</ele>
        <time>2018-01-15T19:58:50Z</time>
      </trkpt>
      <trkpt lat="51.502672" lon="-0.153934">
        <ele>15.4</ele>
        <time>2018-01-15T19:58:51Z</time>
      </trkpt>
      <trkpt lat="51.502715" lon="-0.153729">
        <ele>15</ele>
        <time>2018-01-15T19:58:52Z</time>
      </trkpt>
      <trkpt lat="51.502753" lon="-0.153536">
        <ele>14.6</ele>
        <time>2018-01-15T19:58:53Z</time>
      </trkpt>
      <trkpt lat="51.50279" lon="-0.153339">
        <ele>14.2</ele>
        <time>2018-01-15T19:58:54Z</time>
      </trkpt>
      <trkpt lat="51.502828" lon="-0.15314">
        <ele>13.8</ele>
        <time>2018-01-15T19:58:55Z</time>
      </trkpt>
      <trkpt lat="51.50286" lon="-0.152937">
        <ele>13.2</ele>
        <time>2018-01-15T19:58:56Z</time>
      </trkpt>
      <trkpt lat="51.502876" lon="-0.15273">
        <ele>13</ele>
        <time>2018-01-15T19:58:57Z</time>
      </trkpt>
      <trkpt lat="51.502887" lon="-0.152524">
        <ele>12.8</ele>
        <time>2018-01-15T19:58:58Z</time>
      </trkpt>
      <trkpt lat="51.502892" lon="-0.152317">
        <ele>12.6</ele>
        <time>2018-01-15T19:58:59Z</time>
      </trkpt>
      <trkpt lat="51.502898" lon="-0.152104">
        <ele>12.4</ele>
        <time>2018-01-15T19:59:00Z</time>
      </trkpt>
      <trkpt lat="51.502898" lon="-0.151905">
        <ele>12.2</ele>
        <time>2018-01-15T19:59:01Z</time>
      </trkpt>
      <trkpt lat="51.502908" lon="-0.151692">
        <ele>12</ele>
        <time>2018-01-15T19:59:02Z</time>
      </trkpt>
      <trkpt lat="51.502914" lon="-0.151491">
        <ele>12</ele>
        <time>2018-01-15T19:59:03Z</time>
      </trkpt>
      <trkpt lat="51.502925" lon="-0.151292">
        <ele>12</ele>
        <time>2018-01-15T19:59:04Z</time>
      </trkpt>
      <trkpt lat="51.502941" lon="-0.151098">
        <ele>12.2</ele>
        <time>2018-01-15T19:59:05Z</time>
      </trkpt>
      <trkpt lat="51.502951" lon="-0.150923">
        <ele>12.4</ele>
        <time>2018-01-15T19:59:06Z</time>
      </trkpt>
      <trkpt lat="51.502973" lon="-0.15073">
        <ele>12.6</ele>
        <time>2018-01-15T19:59:07Z</time>
      </trkpt>
      <trkpt lat="51.502994" lon="-0.150561">
        <ele>12.8</ele>
        <time>2018-01-15T19:59:08Z</time>
      </trkpt>
      <trkpt lat="51.503021" lon="-0.15039">
        <ele>13</ele>
        <time>2018-01-15T19:59:09Z</time>
      </trkpt>
      <trkpt lat="51.503053" lon="-0.150216">
        <ele>13</ele>
        <time>2018-01-15T19:59:10Z</time>
      </trkpt>
      <trkpt lat="51.503091" lon="-0.150054">
        <ele>13.2</ele>
        <time>2018-01-15T19:59:11Z</time>
      </trkpt>
      <trkpt lat="51.503145" lon="-0.149894">
        <ele>13.4</ele>
        <time>2018-01-15T19:59:12Z</time>
      </trkpt>
      <trkpt lat="51.503193" lon="-0.149736">
        <ele>13.6</ele>
        <time>2018-01-15T19:59:13Z</time>
      </trkpt>
      <trkpt lat="51.503246" lon="-0.149584">
        <ele>14</ele>
        <time>2018-01-15T19:59:14Z</time>
      </trkpt>
      <trkpt lat="51.5033" lon="-0.149451">
        <ele>14.4</ele>
        <time>2018-01-15T19:59:15Z</time>
      </trkpt>
      <trkpt lat="51.503359" lon="-0.149313">
        <ele>14.8</ele>
        <time>2018-01-15T19:59:16Z</time>
      </trkpt>
      <trkpt lat="51.503418" lon="-0.149177">
        <ele>15</ele>
        <time>2018-01-15T19:59:17Z</time>
      </trkpt>
      <trkpt lat="51.503472" lon="-0.14905">
        <ele>15.2</ele>
        <time>2018-01-15T19:59:18Z</time>
      </trkpt>
      <trkpt lat="51.503531" lon="-0.14892">
        <ele>15.6</ele>
        <time>2018-01-15T19:59:19Z</time>
      </trkpt>
      <trkpt lat="51.503584" lon="-0.148795">
        <ele>16</ele>
        <time>2018-01-15T19:59:20Z</time>
      </trkpt>
      <trkpt lat="51.503643" lon="-0.148675">
        <ele>16.4</ele>
        <time>2018-01-15T19:59:21Z</time>
      </trkpt>
      <trkpt lat="51.503702" lon="-0.148562">
        <ele>16.8</ele>
        <time>2018-01-15T19:59:22Z</time>
      </trkpt>
      <trkpt lat="51.503756" lon="-0.148446">
        <ele>17.2</ele>
        <time>2018-01-15T19:59:23Z</time>
      </trkpt>
      <trkpt lat="51.50381" lon="-0.148339">
        <ele>17.6</ele>
        <time>2018-01-15T19:59:24Z</time>
      </trkpt>
      <trkpt lat="51.503858" lon="-0.148231">
        <ele>18</ele>
        <time>2018-01-15T19:59:25Z</time>
      </trkpt>
      <trkpt lat="51.503906" lon="-0.148123">
        <ele>18.2</ele>
        <time>2018-01-15T19:59:26Z</time>
      </trkpt>
      <trkpt lat="51.503955" lon="-0.148014">
        <ele>18.6</ele>
        <time>2018-01-15T19:59:27Z</time>
      </trkpt>
      <trkpt lat="51.504014" lon="-0.147921">
        <ele>19</ele>
        <time>2018-01-15T19:59:28Z</time>
      </trkpt>
      <trkpt lat="51.504073" lon="-0.147836">
        <ele>19.2</ele>
        <time>2018-01-15T19:59:29Z</time>
      </trkpt>
      <trkpt lat="51.504126" lon="-0.147748">
        <ele>19.6</ele>
        <time>2018-01-15T19:59:30Z</time>
      </trkpt>
      <trkpt lat="51.50418" lon="-0.147674">
        <ele>19.8</ele>
        <time>2018-01-15T19:59:31Z</time>
      </trkpt>
      <trkpt lat="51.504239" lon="-0.147595">
        <ele>20.2</ele>
        <time>2018-01-15T19:59:32Z</time>
      </trkpt>
      <trkpt lat="51.504292" lon="-0.147511">
        <ele>20.4</ele>
        <time>2018-01-15T19:59:33Z</time>
      </trkpt>
      <trkpt lat="51.504346" lon="-0.147427">
        <ele>20.6</ele>
        <time>2018-01-15T19:59:34Z</time>
      </trkpt>
      <trkpt lat="51.504405" lon="-0.147333">
        <ele>20.8</ele>
        <time>2018-01-15T19:59:35Z</time>
      </trkpt>
      <trkpt lat="51.504453" lon="-0.147248">
        <ele>21</ele>
        <time>2018-01-15T19:59:36Z</time>
      </trkpt>
      <trkpt lat="51.504507" lon="-0.147156">
        <ele>21.2</ele>
        <time>2018-01-15T19:59:37Z</time>
      </trkpt>
      <trkpt lat="51.50455" lon="-0.147066">
        <ele>21.6</ele>
        <time>2018-01-15T19:59:38Z</time>
      </trkpt>
      <trkpt lat="51.504604" lon="-0.146972">
        <ele>21.8</ele>
        <time>2018-01-15T19:59:39Z</time>
      </trkpt>
      <trkpt lat="51.504657" lon="-0.146885">
        <ele>22</ele>
        <time>2018-01-15T19:59:40Z</time>
      </trkpt>
      <trkpt lat="51.504706" lon="-0.146794">
        <ele>22.2</ele>
        <time>2018-01-15T19:59:41Z</time>
      </trkpt>
      <trkpt lat="51.504754" lon="-0.146705">
        <ele>22.4</ele>
        <time>2018-01-15T19:59:42Z</time>
      </trkpt>
      <trkpt lat="51.504807" lon="-0.146608">
        <ele>22.4</ele>
        <time>2018-01-15T19:59:43Z</time>
      </trkpt>
      <trkpt lat="51.504856" lon="-0.146515">
        <ele>22.6</ele>
        <time>2018-01-15T19:59:44Z</time>
      </trkpt>
      <trkpt lat="51.504909" lon="-0.146421">
        <ele>22.6</ele>
        <time>2018-01-15T19:59:45Z</time>
      </trkpt>
      <trkpt lat="51.504952" lon="-0.146323">
        <ele>22.8</ele>
        <time>2018-01-15T19:59:46Z</time>
      </trkpt>
      <trkpt lat="51.505006" lon="-0.146218">
        <ele>22.6</ele>
        <time>2018-01-15T19:59:47Z</time>
      </trkpt>
      <trkpt lat="51.505054" lon="-0.146115">
        <ele>22.6</ele>
        <time>2018-01-15T19:59:48Z</time>
      </trkpt>
      <trkpt lat="51.505108" lon="-0.146009">
        <ele>22.6</ele>
        <time>2018-01-15T19:59:49Z</time>
      </trkpt>
      <trkpt lat="51.505156" lon="-0.145894">
        <ele>22.4</ele>
        <time>2018-01-15T19:59:50Z</time>
      </trkpt>
      <trkpt lat="51.50521" lon="-0.145778">
        <ele>22.2</ele>
        <time>2018-01-15T19:59:51Z</time>
      </trkpt>
      <trkpt lat="51.505263" lon="-0.145661">
        <ele>22.2</ele>
        <time>2018-01-15T19:59:52Z</time>
      </trkpt>
      <trkpt lat="51.505317" lon="-0.145544">
        <ele>22</ele>
        <time>2018-01-15T19:59:53Z</time>
      </trkpt>
      <trkpt lat="51.505376" lon="-0.145425">
        <ele>22</ele>
        <time>2018-01-15T19:59:54Z</time>
      </trkpt>
      <trkpt lat="51.505435" lon="-0.145304">
        <ele>22.2</ele>
        <time>2018-01-15T19:59:55Z</time>
      </trkpt>
      <trkpt lat="51.505494" lon="-0.145189">
        <ele>22.2</ele>
        <time>2018-01-15T19:59:56Z</time>
      </trkpt>
      <trkpt lat="51.505558" lon="-0.145069">
        <ele>22.4</ele>
        <time>2018-01-15T19:59:57Z</time>
      </trkpt>
      <trkpt lat="51.505623" lon="-0.144956">
        <ele>22.4</ele>
        <time>2018-01-15T19:59:58Z</time>
      </trkpt>
      <trkpt lat="51.505677" lon="-0.144847">
        <ele>22.6</ele>
        <time>2018-01-15T19:59:59Z</time>
      </trkpt>
      <trkpt lat="51.505741" lon="-0.144733">
        <ele>22.8</ele>
        <time>2018-01-15T20:00:00Z</time>
      </trkpt>
      <trkpt lat="51.505805" lon="-0.144618">
        <ele>23</ele>
        <time>2018-01-15T20:00:01Z</time>
      </trkpt>
      <trkpt lat="51.505864" lon="-0.144503">
        <ele>23</ele>
        <time>2018-01-15T20:00:02Z</time>
      </trkpt>
      <trkpt lat="51.505918" lon="-0.144395">
        <ele>23.2</ele>
        <time>2018-01-15T20:00:03Z</time>
      </trkpt>
      <trkpt lat="51.505982" lon="-0.14428">
        <ele>23.4</ele>
        <time>2018-01-15T20:00:04Z</time>
      </trkpt>
      <trkpt lat="51.506036" lon="-0.144175">
        <ele>23.6</ele>
        <time>2018-01-15T20:00:05Z</time>
      </trkpt>
      <trkpt lat="51.506095" lon="-0.144068">
        <ele>23.6</ele>
        <time>2018-01-15T20:00:06Z</time>
      </trkpt>
      <trkpt lat="51.506149" lon="-0.143959">
        <ele>23.8</ele>
        <time>2018-01-15T20:00:07Z</time>
      </trkpt>
      <trkpt lat="51.506202" lon="-0.143856">
        <ele>24</ele>
        <time>2018-01-15T20:00:08Z</time>
      </trkpt>
      <trkpt lat="51.506261" lon="-0.14375">
        <ele>24.2</ele>
        <time>2018-01-15T20:00:09Z</time>
      </trkpt>
      <trkpt lat="51.50632" lon="-0.143641">
        <ele>24.4</ele>
        <time>2018-01-15T20:00:10Z</time>
      </trkpt>
      <trkpt lat="51.506374" lon="-0.143536">
        <ele>24.6</ele>
        <time>2018-01-15T20:00:11Z</time>
      </trkpt>
      <trkpt lat="51.506422" lon="-0.143434">
        <ele>24.8</ele>
        <time>2018-01-15T20:00:12Z</time>
      </trkpt>
      <trkpt lat="51.506476" lon="-0.143329">
        <ele>25</ele>
        <time>2018-01-15T20:00:13Z</time>
      </trkpt>
      <trkpt lat="51.506529" lon="-0.14322">
        <ele>25.2</ele>
        <time>2018-01-15T20:00:14Z</time>
      </trkpt>
      <trkpt lat="51.506578" lon="-0.143117">
        <ele>25.4</ele>
        <time>2018-01-15T20:00:15Z</time>
      </trkpt>
      <trkpt lat="51.506626" lon="-0.143019">
        <ele>25.6</ele>
        <time>2018-01-15T20:00:16Z</time>
      </trkpt>
      <trkpt lat="51.506674" lon="-0.142918">
        <ele>25.8</ele>
        <time>2018-01-15T20:00:17Z</time>
      </trkpt>
      <trkpt lat="51.506728" lon="-0.142813">
        <ele>26.2</ele>
        <time>2018-01-15T20:00:18Z</time>
      </trkpt>
      <trkpt lat="51.506776" lon="-0.142721">
        <ele>26.4</ele>
        <time>2018-01-15T20:00:19Z</time>
      </trkpt>
      <trkpt lat="51.506824" lon="-0.142623">
        <ele>26.6</ele>
        <time>2018-01-15T20:00:20Z</time>
      </trkpt>
      <trkpt lat="51.506873" lon="-0.142524">
        <ele>26.8</ele>
        <time>2018-01-15T20:00:21Z</time>
      </trkpt>
      <trkpt lat="51.506921" lon="-0.142423">
        <ele>27.2</ele>
        <time>2018-01-15T20:00:22Z</time>
      </trkpt>
      <trkpt lat="51.506969" lon="-0.142327">
        <ele>27.4</ele>
        <time>2018-01-15T20:00:23Z</time>
      </trkpt>
      <trkpt lat="51.507012" lon="-0.142229">
        <ele>27.6</ele>
        <time>2018-01-15T20:00:24Z</time>
      </trkpt>
      <trkpt lat="51.507061" lon="-0.142133">
        <ele>27.8</ele>
        <time>2018-01-15T20:00:25Z</time>
      </trkpt>
      <trkpt lat="51.507109" lon="-0.142039">
        <ele>28</ele>
        <time>2018-01-15T20:00:26Z</time>
      </trkpt>
      <trkpt lat="51.507152" lon="-0.141945">
        <ele>28.4</ele>
        <time>2018-01-15T20:00:27Z</time>
      </trkpt>
      <trkpt lat="51.507205" lon="-0.141847">
        <ele>28.6</ele>
        <time>2018-01-15T20:00:28Z</time>
      </trkpt>
      <trkpt lat="51.507243" lon="-0.141755">
        <ele>28.8</ele>
        <time>2018-01-15T20:00:29Z</time>
      </trkpt>
      <trkpt lat="51.507297" lon="-0.141658">
        <ele>29</ele>
        <time>2018-01-15T20:00:30Z</time>
      </trkpt>
      <trkpt lat="51.507339" lon="-0.141569">
        <ele>29.2</ele>
        <time>2018-01-15T20:00:31Z</time>
      </trkpt>
      <trkpt lat="51.507377" lon="-0.141474">
        <ele>29.6</ele>
        <time>2018-01-15T20:00:32Z</time>
      </trkpt>
      <trkpt lat="51.50742" lon="-0.14138">
        <ele>29.8</ele>
        <time>2018-01-15T20:00:33Z</time>
      </trkpt>
      <trkpt lat="51.507463" lon="-0.141285">
        <ele>30</ele>
        <time>2018-01-15T20:00:34Z</time>
      </trkpt>
      <trkpt lat="51.507506" lon="-0.141187">
        <ele>30.2</ele>
        <time>2018-01-15T20:00:35Z</time>
      </trkpt>
      <trkpt lat="51.507549" lon="-0.141096">
        <ele>30.4</ele>
        <time>2018-01-15T20:00:36Z</time>
      </trkpt>
      <trkpt lat="51.507592" lon="-0.141">
        <ele>30.6</ele>
        <time>2018-01-15T20:00:37Z</time>
      </trkpt>
      <trkpt lat="51.50764" lon="-0.140911">
        <ele>31</ele>
        <time>2018-01-15T20:00:38Z</time>
      </trkpt>
      <trkpt lat="51.507677" lon="-0.140821">
        <ele>31.2</ele>
        <time>2018-01-15T20:00:39Z</time>
      </trkpt>
      <trkpt lat="51.507704" lon="-0.140717">
        <ele>31.2</ele>
        <time>2018-01-15T20:00:40Z</time>
      </trkpt>
      <trkpt lat="51.507704" lon="-0.140596">
        <ele>31.4</ele>
        <time>2018-01-15T20:00:41Z</time>
      </trkpt>
      <trkpt lat="51.507672" lon="-0.140494">
        <ele>31.4</ele>
        <time>2018-01-15T20:00:42Z</time>
      </trkpt>
      <trkpt lat="51.507613" lon="-0.140422">
        <ele>31.4</ele>
        <time>2018-01-15T20:00:43Z</time>
      </trkpt>
      <trkpt lat="51.507543" lon="-0.140359">
        <ele>31.2</ele>
        <time>2018-01-15T20:00:44Z</time>
      </trkpt>
      <trkpt lat="51.507468" lon="-0.140295">
        <ele>31</ele>
        <time>2018-01-15T20:00:45Z</time>
      </trkpt>
      <trkpt lat="51.507388" lon="-0.140223">
        <ele>30.6</ele>
        <time>2018-01-15T20:00:46Z</time>
      </trkpt>
      <trkpt lat="51.507313" lon="-0.140144">
        <ele>30.2</ele>
        <time>2018-01-15T20:00:47Z</time>
      </trkpt>
      <trkpt lat="51.507227" lon="-0.140069">
        <ele>29.8</ele>
        <time>2018-01-15T20:00:48Z</time>
      </trkpt>
      <trkpt lat="51.507141" lon="-0.139987">
        <ele>29.4</ele>
        <time>2018-01-15T20:00:49Z</time>
      </trkpt>
      <trkpt lat="51.507044" lon="-0.139903">
        <ele>29</ele>
        <time>2018-01-15T20:00:50Z</time>
      </trkpt>
      <trkpt lat="51.506953" lon="-0.139819">
        <ele>28.4</ele>
        <time>2018-01-15T20:00:51Z</time>
      </trkpt>
      <trkpt lat="51.506857" lon="-0.139732">
        <ele>28</ele>
        <time>2018-01-15T20:00:52Z</time>
      </trkpt>
      <trkpt lat="51.506755" lon="-0.139644">
        <ele>27.4</ele>
        <time>2018-01-15T20:00:53Z</time>
      </trkpt>
      <trkpt lat="51.506653" lon="-0.139554">
        <ele>27</ele>
        <time>2018-01-15T20:00:54Z</time>
      </trkpt>
      <trkpt lat="51.506546" lon="-0.139452">
        <ele>26.6</ele>
        <time>2018-01-15T20:00:55Z</time>
      </trkpt>
      <trkpt lat="51.506444" lon="-0.139352">
        <ele>26</ele>
        <time>2018-01-15T20:00:56Z</time>
      </trkpt>
      <trkpt lat="51.506342" lon="-0.139253">
        <ele>25.6</ele>
        <time>2018-01-15T20:00:57Z</time>
      </trkpt>
      <trkpt lat="51.506229" lon="-0.13914">
        <ele>25.2</ele>
        <time>2018-01-15T20:00:58Z</time>
      </trkpt>
      <trkpt lat="51.506127" lon="-0.139037">
        <ele>24.8</ele>
        <time>2018-01-15T20:00:59Z</time>
      </trkpt>
      <trkpt lat="51.506014" lon="-0.138919">
        <ele>24.2</ele>
        <time>2018-01-15T20:01:00Z</time>
      </trkpt>
      <trkpt lat="51.505902" lon="-0.138801">
        <ele>23.8</ele>
        <time>2018-01-15T20:01:01Z</time>
      </trkpt>
      <trkpt lat="51.505795" lon="-0.138685">
        <ele>23.4</ele>
        <time>2018-01-15T20:01:02Z</time>
      </trkpt>
      <trkpt lat="51.505671" lon="-0.138568">
        <ele>22.8</ele>
        <time>2018-01-15T20:01:03Z</time>
      </trkpt>
      <trkpt lat="51.505558" lon="-0.138455">
        <ele>22.4</ele>
        <time>2018-01-15T20:01:04Z</time>
      </trkpt>
      <trkpt lat="51.505435" lon="-0.138344">
        <ele>22</ele>
        <time>2018-01-15T20:01:05Z</time>
      </trkpt>
      <trkpt lat="51.505317" lon="-0.138243">
        <ele>22</ele>
        <time>2018-01-15T20:01:06Z</time>
      </trkpt>
      <trkpt lat="51.505204" lon="-0.138127">
        <ele>22</ele>
        <time>2018-01-15T20:01:07Z</time>
      </trkpt>
      <trkpt lat="51.505156" lon="-0.137937">
        <ele>22.2</ele>
        <time>2018-01-15T20:01:08Z</time>
      </trkpt>
      <trkpt lat="51.50521" lon="-0.137741">
        <ele>22.4</ele>
        <time>2018-01-15T20:01:09Z</time>
      </trkpt>
      <trkpt lat="51.50528" lon="-0.137566">
        <ele>22.4</ele>
        <time>2018-01-15T20:01:10Z</time>
      </trkpt>
      <trkpt lat="51.505349" lon="-0.137394">
        <ele>22.6</ele>
        <time>2018-01-15T20:01:11Z</time>
      </trkpt>
      <trkpt lat="51.505424" lon="-0.137214">
        <ele>22.8</ele>
        <time>2018-01-15T20:01:12Z</time>
      </trkpt>
      <trkpt lat="51.505483" lon="-0.137051">
        <ele>23</ele>
        <time>2018-01-15T20:01:13Z</time>
      </trkpt>
      <trkpt lat="51.505548" lon="-0.136889">
        <ele>23.2</ele>
        <time>2018-01-15T20:01:14Z</time>
      </trkpt>
      <trkpt lat="51.505617" lon="-0.136734">
        <ele>23.6</ele>
        <time>2018-01-15T20:01:15Z</time>
      </trkpt>
      <trkpt lat="51.505677" lon="-0.136582">
        <ele>24</ele>
        <time>2018-01-15T20:01:16Z</time>
      </trkpt>
      <trkpt lat="51.505736" lon="-0.136437">
        <ele>24.2</ele>
        <time>2018-01-15T20:01:17Z</time>
      </trkpt>
      <trkpt lat="51.505795" lon="-0.136287">
        <ele>24.4</ele>
        <time>2018-01-15T20:01:18Z</time>
      </trkpt>
      <trkpt lat="51.505848" lon="-0.136136">
        <ele>24.4</ele>
        <time>2018-01-15T20:01:19Z</time>
      </trkpt>
      <trkpt lat="51.505896" lon="-0.135989">
        <ele>24.6</ele>
        <time>2018-01-15T20:01:20Z</time>
      </trkpt>
      <trkpt lat="51.505955" lon="-0.135835">
        <ele>24.6</ele>
        <time>2018-01-15T20:01:21Z</time>
      </trkpt>
      <trkpt lat="51.506009" lon="-0.135688">
        <ele>24.6</ele>
        <time>2018-01-15T20:01:22Z</time>
      </trkpt>
      <trkpt lat="51.506063" lon="-0.135538">
        <ele>24.4</ele>
        <time>2018-01-15T20:01:23Z</time>
      </trkpt>
      <trkpt lat="51.506111" lon="-0.135385">
        <ele>24.4</ele>
        <time>2018-01-15T20:01:24Z</time>
      </trkpt>
      <trkpt lat="51.50617" lon="-0.135222">
        <ele>24.4</ele>
        <time>2018-01-15T20:01:25Z</time>
      </trkpt>
      <trkpt lat="51.506224" lon="-0.135064">
        <ele>24.4</ele>
        <time>2018-01-15T20:01:26Z</time>
      </trkpt>
      <trkpt lat="51.506283" lon="-0.134903">
        <ele>24.4</ele>
        <time>2018-01-15T20:01:27Z</time>
      </trkpt>
      <trkpt lat="51.506336" lon="-0.134737">
        <ele>24.4</ele>
        <time>2018-01-15T20:01:28Z</time>
      </trkpt>
      <trkpt lat="51.50639" lon="-0.134573">
        <ele>24.2</ele>
        <time>2018-01-15T20:01:29Z</time>
      </trkpt>
      <trkpt lat="51.506454" lon="-0.134409">
        <ele>24.2</ele>
        <time>2018-01-15T20:01:30Z</time>
      </trkpt>
      <trkpt lat="51.506508" lon="-0.134243">
        <ele>24.2</ele>
        <time>2018-01-15T20:01:31Z</time>
      </trkpt>
      <trkpt lat="51.506572" lon="-0.134082">
        <ele>24.2</ele>
        <time>2018-01-15T20:01:32Z</time>
      </trkpt>
      <trkpt lat="51.506631" lon="-0.133922">
        <ele>24.2</ele>
        <time>2018-01-15T20:01:33Z</time>
      </trkpt>
      <trkpt lat="51.50669" lon="-0.133766">
        <ele>24.4</ele>
        <time>2018-01-15T20:01:34Z</time>
      </trkpt>
      <trkpt lat="51.506749" lon="-0.133608">
        <ele>24.4</ele>
        <time>2018-01-15T20:01:35Z</time>
      </trkpt>
      <trkpt lat="51.506808" lon="-0.133447">
        <ele>24.4</ele>
        <time>2018-01-15T20:01:36Z</time>
      </trkpt>
      <trkpt lat="51.506867" lon="-0.133296">
        <ele>24.4</ele>
        <time>2018-01-15T20:01:37Z</time>
      </trkpt>
      <trkpt lat="51.506926" lon="-0.133135">
        <ele>24.4</ele>
        <time>2018-01-15T20:01:38Z</time>
      </trkpt>
      <trkpt lat="51.506985" lon="-0.132981">
        <ele>24.4</ele>
        <time>2018-01-15T20:01:39Z</time>
      </trkpt>
      <trkpt lat="51.507044" lon="-0.132831">
        <ele>24.4</ele>
        <time>2018-01-15T20:01:40Z</time>
      </trkpt>
      <trkpt lat="51.507098" lon="-0.132675">
        <ele>24.4</ele>
        <time>2018-01-15T20:01:41Z</time>
      </trkpt>
      <trkpt lat="51.507157" lon="-0.132525">
        <ele>24.4</ele>
        <time>2018-01-15T20:01:42Z</time>
      </trkpt>
      <trkpt lat="51.507216" lon="-0.132366">
        <ele>24.4</ele>
        <time>2018-01-15T20:01:43Z</time>
      </trkpt>
      <trkpt lat="51.50727" lon="-0.132217">
        <ele>24.4</ele>
        <time>2018-01-15T20:01:44Z</time>
      </trkpt>
      <trkpt lat="51.507334" lon="-0.13206">
        <ele>24.4</ele>
        <time>2018-01-15T20:01:45Z</time>
      </trkpt>
      <trkpt lat="51.507388" lon="-0.131899">
        <ele>24.4</ele>
        <time>2018-01-15T20:01:46Z</time>
      </trkpt>
      <trkpt lat="51.507436" lon="-0.131743">
        <ele>24.6</ele>
        <time>2018-01-15T20:01:47Z</time>
      </trkpt>
      <trkpt lat="51.50749" lon="-0.131585">
        <ele>24.6</ele>
        <time>2018-01-15T20:01:48Z</time>
      </trkpt>
      <trkpt lat="51.507543" lon="-0.131424">
        <ele>24.8</ele>
        <time>2018-01-15T20:01:49Z</time>
      </trkpt>
      <trkpt lat="51.507586" lon="-0.131266">
        <ele>24.8</ele>
        <time>2018-01-15T20:01:50Z</time>
      </trkpt>
      <trkpt lat="51.507618" lon="-0.131101">
        <ele>24.6</ele>
        <time>2018-01-15T20:01:51Z</time>
      </trkpt>
      <trkpt lat="51.507629" lon="-0.130913">
        <ele>24.2</ele>
        <time>2018-01-15T20:01:52Z</time>
      </trkpt>
      <trkpt lat="51.507618" lon="-0.130734">
        <ele>24</ele>
        <time>2018-01-15T20:01:53Z</time>
      </trkpt>
      <trkpt lat="51.507602" lon="-0.130543">
        <ele>23.8</ele>
        <time>2018-01-15T20:01:54Z</time>
      </trkpt>
      <trkpt lat="51.507581" lon="-0.130363">
        <ele>24</ele>
        <time>2018-01-15T20:01:55Z</time>
      </trkpt>
      <trkpt lat="51.507559" lon="-0.130177">
        <ele>24</ele>
        <time>2018-01-15T20:01:56Z</time>
      </trkpt>
      <trkpt lat="51.507538" lon="-0.129997">
        <ele>24.2</ele>
        <time>2018-01-15T20:01:57Z</time>
      </trkpt>
      <trkpt lat="51.507517" lon="-0.129814">
        <ele>24.2</ele>
        <time>2018-01-15T20:01:58Z</time>
      </trkpt>
      <trkpt lat="51.507495" lon="-0.129641">
        <ele>24.4</ele>
        <time>2018-01-15T20:01:59Z</time>
      </trkpt>
      <trkpt lat="51.507468" lon="-0.129466">
        <ele>24.4</ele>
        <time>2018-01-15T20:02:00Z</time>
      </trkpt>
      <trkpt lat="51.507447" lon="-0.129299">
        <ele>24.4</ele>
        <time>2018-01-15T20:02:01Z</time>
      </trkpt>
      <trkpt lat="51.507431" lon="-0.129123">
        <ele>24.4</ele>
        <time>2018-01-15T20:02:02Z</time>
      </trkpt>
      <trkpt lat="51.507404" lon="-0.128943">
        <ele>24.4</ele>
        <time>2018-01-15T20:02:03Z</time>
      </trkpt>
      <trkpt lat="51.507388" lon="-0.128761">
        <ele>24.4</ele>
        <time>2018-01-15T20:02:04Z</time>
      </trkpt>
      <trkpt lat="51.507366" lon="-0.128581">
        <ele>24.4</ele>
        <time>2018-01-15T20:02:05Z</time>
      </trkpt>
      <trkpt lat="51.507345" lon="-0.128404">
        <ele>24.4</ele>
        <time>2018-01-15T20:02:06Z</time>
      </trkpt>
      <trkpt lat="51.507313" lon="-0.128223">
        <ele>24.4</ele>
        <time>2018-01-15T20:02:07Z</time>
      </trkpt>
      <trkpt lat="51.507264" lon="-0.12807">
        <ele>24.4</ele>
        <time>2018-01-15T20:02:08Z</time>
      </trkpt>
      <trkpt lat="51.507152" lon="-0.128068">
        <ele>24.4</ele>
        <time>2018-01-15T20:02:09Z</time>
      </trkpt>
      <trkpt lat="51.50705" lon="-0.128154">
        <ele>24.4</ele>
        <time>2018-01-15T20:02:10Z</time>
      </trkpt>
      <trkpt lat="51.506959" lon="-0.128254">
        <ele>24.4</ele>
        <time>2018-01-15T20:02:11Z</time>
      </trkpt>
      <trkpt lat="51.506862" lon="-0.128377">
        <ele>24.4</ele>
        <time>2018-01-15T20:02:12Z</time>
      </trkpt>
      <trkpt lat="51.506787" lon="-0.128507">
        <ele>24.4</ele>
        <time>2018-01-15T20:02:13Z</time>
      </trkpt>
      <trkpt lat="51.506723" lon="-0.128654">
        <ele>24.4</ele>
        <time>2018-01-15T20:02:14Z</time>
      </trkpt>
      <trkpt lat="51.506664" lon="-0.128808">
        <ele>24.4</ele>
        <time>2018-01-15T20:02:15Z</time>
      </trkpt>
      <trkpt lat="51.506599" lon="-0.128955">
        <ele>24.4</ele>
        <time>2018-01-15T20:02:16Z</time>
      </trkpt>
      <trkpt lat="51.50654" lon="-0.129107">
        <ele>24.2</ele>
        <time>2018-01-15T20:02:17Z</time>
      </trkpt>
      <trkpt lat="51.506481" lon="-0.12925">
        <ele>24.2</ele>
        <time>2018-01-15T20:02:18Z</time>
      </trkpt>
      <trkpt lat="51.506422" lon="-0.12941">
        <ele>24.2</ele>
        <time>2018-01-15T20:02:19Z</time>
      </trkpt>
      <trkpt lat="51.506358" lon="-0.129562">
        <ele>24</ele>
        <time>2018-01-15T20:02:20Z</time>
      </trkpt>
      <trkpt lat="51.506293" lon="-0.129715">
        <ele>23.8</ele>
        <time>2018-01-15T20:02:21Z</time>
      </trkpt>
      <trkpt lat="51.506234" lon="-0.129871">
        <ele>23.6</ele>
        <time>2018-01-15T20:02:22Z</time>
      </trkpt>
      <trkpt lat="51.506175" lon="-0.130028">
        <ele>23.2</ele>
        <time>2018-01-15T20:02:23Z</time>
      </trkpt>
      <trkpt lat="51.506106" lon="-0.130187">
        <ele>22.8</ele>
        <time>2018-01-15T20:02:24Z</time>
      </trkpt>
      <trkpt lat="51.506036" lon="-0.130357">
        <ele>22.4</ele>
        <time>2018-01-15T20:02:25Z</time>
      </trkpt>
      <trkpt lat="51.505966" lon="-0.13052">
        <ele>22</ele>
        <time>2018-01-15T20:02:26Z</time>
      </trkpt>
      <trkpt lat="51.505896" lon="-0.130694">
        <ele>21.8</ele>
        <time>2018-01-15T20:02:27Z</time>
      </trkpt>
      <trkpt lat="51.505821" lon="-0.130869">
        <ele>21.4</ele>
        <time>2018-01-15T20:02:28Z</time>
      </trkpt>
      <trkpt lat="51.505752" lon="-0.131041">
        <ele>21.2</ele>
        <time>2018-01-15T20:02:29Z</time>
      </trkpt>
      <trkpt lat="51.505677" lon="-0.131209">
        <ele>21</ele>
        <time>2018-01-15T20:02:30Z</time>
      </trkpt>
      <trkpt lat="51.505596" lon="-0.131387">
        <ele>20.8</ele>
        <time>2018-01-15T20:02:31Z</time>
      </trkpt>
      <trkpt lat="51.505526" lon="-0.131562">
        <ele>20.6</ele>
        <time>2018-01-15T20:02:32Z</time>
      </trkpt>
      <trkpt lat="51.505451" lon="-0.131741">
        <ele>20.4</ele>
        <time>2018-01-15T20:02:33Z</time>
      </trkpt>
      <trkpt lat="51.505376" lon="-0.131927">
        <ele>20.2</ele>
        <time>2018-01-15T20:02:34Z</time>
      </trkpt>
      <trkpt lat="51.505301" lon="-0.132097">
        <ele>20</ele>
        <time>2018-01-15T20:02:35Z</time>
      </trkpt>
      <trkpt lat="51.505226" lon="-0.132283">
        <ele>19.8</ele>
        <time>2018-01-15T20:02:36Z</time>
      </trkpt>
      <trkpt lat="51.505151" lon="-0.132463">
        <ele>19.4</ele>
        <time>2018-01-15T20:02:37Z</time>
      </trkpt>
      <trkpt lat="51.505076" lon="-0.132647">
        <ele>19.2</ele>
        <time>2018-01-15T20:02:38Z</time>
      </trkpt>
      <trkpt lat="51.504995" lon="-0.132833">
        <ele>19</ele>
        <time>2018-01-15T20:02:39Z</time>
      </trkpt>
      <trkpt lat="51.50492" lon="-0.13302">
        <ele>18.8</ele>
        <time>2018-01-15T20:02:40Z</time>
      </trkpt>
      <trkpt lat="51.50484" lon="-0.133202">
        <ele>18.6</ele>
        <time>2018-01-15T20:02:41Z</time>
      </trkpt>
      <trkpt lat="51.504765" lon="-0.13339">
        <ele>18.4</ele>
        <time>2018-01-15T20:02:42Z</time>
      </trkpt>
      <trkpt lat="51.504684" lon="-0.133587">
        <ele>18.2</ele>
        <time>2018-01-15T20:02:43Z</time>
      </trkpt>
      <trkpt lat="51.504609" lon="-0.133774">
        <ele>18</ele>
        <time>2018-01-15T20:02:44Z</time>
      </trkpt>
      <trkpt lat="51.504529" lon="-0.133973">
        <ele>17.8</ele>
        <time>2018-01-15T20:02:45Z</time>
      </trkpt>
      <trkpt lat="51.504443" lon="-0.134178">
        <ele>17.6</ele>
        <time>2018-01-15T20:02:46Z</time>
      </trkpt>
      <trkpt lat="51.504368" lon="-0.134366">
        <ele>17.4</ele>
        <time>2018-01-15T20:02:47Z</time>
      </trkpt>
      <trkpt lat="51.504282" lon="-0.13457">
        <ele>17.2</ele>
        <time>2018-01-15T20:02:48Z</time>
      </trkpt>
      <trkpt lat="51.504196" lon="-0.134781">
        <ele>17</ele>
        <time>2018-01-15T20:02:49Z</time>
      </trkpt>
      <trkpt lat="51.504115" lon="-0.134977">
        <ele>16.8</ele>
        <time>2018-01-15T20:02:50Z</time>
      </trkpt>
      <trkpt lat="51.50403" lon="-0.135188">
        <ele>16.4</ele>
        <time>2018-01-15T20:02:51Z</time>
      </trkpt>
      <trkpt lat="51.503944" lon="-0.135393">
        <ele>16.2</ele>
        <time>2018-01-15T20:02:52Z</time>
      </trkpt>
      <trkpt lat="51.503863" lon="-0.135593">
        <ele>16</ele>
        <time>2018-01-15T20:02:53Z</time>
      </trkpt>
      <trkpt lat="51.503778" lon="-0.135791">
        <ele>15.8</ele>
        <time>2018-01-15T20:02:54Z</time>
      </trkpt>
      <trkpt lat="51.503697" lon="-0.135989">
        <ele>15.8</ele>
        <time>2018-01-15T20:02:55Z</time>
      </trkpt>
      <trkpt lat="51.503617" lon="-0.136179">
        <ele>15.6</ele>
        <time>2018-01-15T20:02:56Z</time>
      </trkpt>
      <trkpt lat="51.503536" lon="-0.13639">
        <ele>15.4</ele>
        <time>2018-01-15T20:02:57Z</time>
      </trkpt>
      <trkpt lat="51.503456" lon="-0.136578">
        <ele>15.2</ele>
        <time>2018-01-15T20:02:58Z</time>
      </trkpt>
      <trkpt lat="51.503386" lon="-0.136752">
        <ele>15</ele>
        <time>2018-01-15T20:02:59Z</time>
      </trkpt>
      <trkpt lat="51.503305" lon="-0.136949">
        <ele>14.8</ele>
        <time>2018-01-15T20:03:00Z</time>
      </trkpt>
      <trkpt lat="51.50323" lon="-0.137125">
        <ele>14.6</ele>
        <time>2018-01-15T20:03:01Z</time>
      </trkpt>
      <trkpt lat="51.50315" lon="-0.137303">
        <ele>14.6</ele>
        <time>2018-01-15T20:03:02Z</time>
      </trkpt>
      <trkpt lat="51.503075" lon="-0.137478">
        <ele>14.4</ele>
        <time>2018-01-15T20:03:03Z</time>
      </trkpt>
      <trkpt lat="51.503005" lon="-0.137656">
        <ele>14.2</ele>
        <time>2018-01-15T20:03:04Z</time>
      </trkpt>
      <trkpt lat="51.502941" lon="-0.137824">
        <ele>14</ele>
        <time>2018-01-15T20:03:05Z</time>
      </trkpt>
      <trkpt lat="51.502876" lon="-0.137999">
        <ele>13.8</ele>
        <time>2018-01-15T20:03:06Z</time>
      </trkpt>
      <trkpt lat="51.502807" lon="-0.138167">
        <ele>13.8</ele>
        <time>2018-01-15T20:03:07Z</time>
      </trkpt>
      <trkpt lat="51.502737" lon="-0.138328">
        <ele>13.6</ele>
        <time>2018-01-15T20:03:08Z</time>
      </trkpt>
      <trkpt lat="51.502672" lon="-0.138496">
        <ele>13.4</ele>
        <time>2018-01-15T20:03:09Z</time>
      </trkpt>
      <trkpt lat="51.502608" lon="-0.138658">
        <ele>13.4</ele>
        <time>2018-01-15T20:03:10Z</time>
      </trkpt>
      <trkpt lat="51.502544" lon="-0.13882">
        <ele>13.2</ele>
        <time>2018-01-15T20:03:11Z</time>
      </trkpt>
      <trkpt lat="51.502479" lon="-0.138975">
        <ele>13</ele>
        <time>2018-01-15T20:03:12Z</time>
      </trkpt>
      <trkpt lat="51.502426" lon="-0.139139">
        <ele>12.8</ele>
        <time>2018-01-15T20:03:13Z</time>
      </trkpt>
      <trkpt lat="51.502367" lon="-0.139273">
        <ele>12.8</ele>
        <time>2018-01-15T20:03:14Z</time>
      </trkpt>
      <trkpt lat="51.502302" lon="-0.139415">
        <ele>12.6</ele>
        <time>2018-01-15T20:03:15Z</time>
      </trkpt>
      <trkpt lat="51.502249" lon="-0.139551">
        <ele>12.6</ele>
        <time>2018-01-15T20:03:16Z</time>
      </trkpt>
      <trkpt lat="51.5022" lon="-0.139692">
        <ele>12.6</ele>
        <time>2018-01-15T20:03:17Z</time>
      </trkpt>
      <trkpt lat="51.502174" lon="-0.139827">
        <ele>12.4</ele>
        <time>2018-01-15T20:03:18Z</time>
      </trkpt>
      <trkpt lat="51.502179" lon="-0.13995">
        <ele>12.4</ele>
        <time>2018-01-15T20:03:19Z</time>
      </trkpt>
      <trkpt lat="51.5022" lon="-0.14007">
        <ele>12.4</ele>
        <time>2018-01-15T20:03:20Z</time>
      </trkpt>
      <trkpt lat="51.502227" lon="-0.140171">
        <ele>12.4</ele>
        <time>2018-01-15T20:03:21Z</time>
      </trkpt>
      <trkpt lat="51.502249" lon="-0.140265">
        <ele>12.4</ele>
        <time>2018-01-15T20:03:22Z</time>
      </trkpt>
      <trkpt lat="51.502265" lon="-0.140342">
        <ele>12.4</ele>
        <time>2018-01-15T20:03:23Z</time>
      </trkpt>
      <trkpt lat="51.502281" lon="-0.140409">
        <ele>12.6</ele>
        <time>2018-01-15T20:03:24Z</time>
      </trkpt>
      <trkpt lat="51.502281" lon="-0.140467">
        <ele>12.6</ele>
        <time>2018-01-15T20:03:25Z</time>
      </trkpt>
      <trkpt lat="51.502286" lon="-0.140512">
        <ele>12.6</ele>
        <time>2018-01-15T20:03:26Z</time>
      </trkpt>
      <trkpt lat="51.502292" lon="-0.140547">
        <ele>12.6</ele>
        <time>2018-01-15T20:03:27Z</time>
      </trkpt>
      <trkpt lat="51.502292" lon="-0.140574">
        <ele>12.6</ele>
        <time>2018-01-15T20:03:28Z</time>
      </trkpt>
      <trkpt lat="51.502292" lon="-0.140593">
        <ele>12.6</ele>
        <time>2018-01-15T20:03:29Z</time>
      </trkpt>
      <trkpt lat="51.502292" lon="-0.140598">
        <ele>12.6</ele>
        <time>2018-01-15T20:03:30Z</time>
      </trkpt>
      <trkpt lat="51.502292" lon="-0.140597">
        <ele>12.6</ele>
        <time>2018-01-15T20:03:31Z</time>
      </trkpt>
      <trkpt lat="51.502292" lon="-0.140596">
        <ele>12.6</ele>
        <time>2018-01-15T20:03:32Z</time>
      </trkpt>
      <trkpt lat="51.502292" lon="-0.140595">
        <ele>12.6</ele>
        <time>2018-01-15T20:03:33Z</time>
      </trkpt>
    </trkseg>
  </trk>
</gpx>